<?xml version="1.0" encoding="UTF-8" standalone="no" ?>
<gpx xmlns="http://www.topografix.com/GPX/1/1" xmlns:xsi="http://www.w3.org/2001/XMLSchema-instance" xsi:schemaLocation="http://www.topografix.com/GPX/1/1 http://www.topografix.com/GPX/1/1/gpx.xsd" version="1.1" creator="VisuGPX - https://www.visugpx.com">
  <metadata>
    <name>Vélo dans l'après-midi MSC</name>
  </metadata>
  <trk>
    <name><![CDATA[Vélo dans l'après-midi MSC_1]]></name>
    <trkseg>
      <trkpt lat="44.42126" lon="1.49318">
        <ele>257.1</ele>
        <time>2021-07-17T13:10:07Z</time>
      </trkpt>
      <trkpt lat="44.42125" lon="1.49318">
        <ele>257.1</ele>
        <time>2021-07-17T13:10:09Z</time>
      </trkpt>
      <trkpt lat="44.42125" lon="1.49318">
        <ele>257.1</ele>
        <time>2021-07-17T13:10:10Z</time>
      </trkpt>
      <trkpt lat="44.42126" lon="1.49318">
        <ele>257.1</ele>
        <time>2021-07-17T13:10:12Z</time>
      </trkpt>
      <trkpt lat="44.42127" lon="1.49315">
        <ele>257.1</ele>
        <time>2021-07-17T13:10:14Z</time>
      </trkpt>
      <trkpt lat="44.42127" lon="1.49315">
        <ele>257.1</ele>
        <time>2021-07-17T13:10:16Z</time>
      </trkpt>
      <trkpt lat="44.42127" lon="1.49315">
        <ele>257.2</ele>
        <time>2021-07-17T13:10:17Z</time>
      </trkpt>
      <trkpt lat="44.42124" lon="1.49309">
        <ele>257.3</ele>
        <time>2021-07-17T13:10:54Z</time>
      </trkpt>
      <trkpt lat="44.42124" lon="1.49305">
        <ele>257.3</ele>
        <time>2021-07-17T13:10:55Z</time>
      </trkpt>
      <trkpt lat="44.42123" lon="1.49303">
        <ele>257.4</ele>
        <time>2021-07-17T13:10:57Z</time>
      </trkpt>
      <trkpt lat="44.42123" lon="1.49297">
        <ele>257.5</ele>
        <time>2021-07-17T13:10:58Z</time>
      </trkpt>
      <trkpt lat="44.42123" lon="1.49295">
        <ele>257.5</ele>
        <time>2021-07-17T13:10:59Z</time>
      </trkpt>
      <trkpt lat="44.42122" lon="1.49291">
        <ele>257.6</ele>
        <time>2021-07-17T13:11:00Z</time>
      </trkpt>
      <trkpt lat="44.42121" lon="1.49287">
        <ele>257.7</ele>
        <time>2021-07-17T13:11:01Z</time>
      </trkpt>
      <trkpt lat="44.4212" lon="1.49281">
        <ele>257.8</ele>
        <time>2021-07-17T13:11:03Z</time>
      </trkpt>
      <trkpt lat="44.42118" lon="1.49275">
        <ele>258</ele>
        <time>2021-07-17T13:11:04Z</time>
      </trkpt>
      <trkpt lat="44.42117" lon="1.4927">
        <ele>258.1</ele>
        <time>2021-07-17T13:11:05Z</time>
      </trkpt>
      <trkpt lat="44.42117" lon="1.49267">
        <ele>258.2</ele>
        <time>2021-07-17T13:11:06Z</time>
      </trkpt>
      <trkpt lat="44.42116" lon="1.4926">
        <ele>258.4</ele>
        <time>2021-07-17T13:11:08Z</time>
      </trkpt>
      <trkpt lat="44.42115" lon="1.49255">
        <ele>258.4</ele>
        <time>2021-07-17T13:11:10Z</time>
      </trkpt>
      <trkpt lat="44.42115" lon="1.49249">
        <ele>258.5</ele>
        <time>2021-07-17T13:11:11Z</time>
      </trkpt>
      <trkpt lat="44.42114" lon="1.49246">
        <ele>258.6</ele>
        <time>2021-07-17T13:11:12Z</time>
      </trkpt>
      <trkpt lat="44.42112" lon="1.49239">
        <ele>258.7</ele>
        <time>2021-07-17T13:11:14Z</time>
      </trkpt>
      <trkpt lat="44.42111" lon="1.49234">
        <ele>258.8</ele>
        <time>2021-07-17T13:11:15Z</time>
      </trkpt>
      <trkpt lat="44.4211" lon="1.49227">
        <ele>259</ele>
        <time>2021-07-17T13:11:17Z</time>
      </trkpt>
      <trkpt lat="44.42108" lon="1.49219">
        <ele>259.1</ele>
        <time>2021-07-17T13:11:18Z</time>
      </trkpt>
      <trkpt lat="44.42106" lon="1.49211">
        <ele>259.3</ele>
        <time>2021-07-17T13:11:20Z</time>
      </trkpt>
      <trkpt lat="44.42104" lon="1.49202">
        <ele>259.4</ele>
        <time>2021-07-17T13:11:22Z</time>
      </trkpt>
      <trkpt lat="44.42102" lon="1.49194">
        <ele>259.6</ele>
        <time>2021-07-17T13:11:24Z</time>
      </trkpt>
      <trkpt lat="44.42101" lon="1.49185">
        <ele>259.8</ele>
        <time>2021-07-17T13:11:26Z</time>
      </trkpt>
      <trkpt lat="44.421" lon="1.49177">
        <ele>259.9</ele>
        <time>2021-07-17T13:11:28Z</time>
      </trkpt>
      <trkpt lat="44.42099" lon="1.49169">
        <ele>260.1</ele>
        <time>2021-07-17T13:11:30Z</time>
      </trkpt>
      <trkpt lat="44.42098" lon="1.4916">
        <ele>260.4</ele>
        <time>2021-07-17T13:11:32Z</time>
      </trkpt>
      <trkpt lat="44.42098" lon="1.49152">
        <ele>260.6</ele>
        <time>2021-07-17T13:11:34Z</time>
      </trkpt>
      <trkpt lat="44.42097" lon="1.49143">
        <ele>260.8</ele>
        <time>2021-07-17T13:11:36Z</time>
      </trkpt>
      <trkpt lat="44.42096" lon="1.49136">
        <ele>261</ele>
        <time>2021-07-17T13:11:38Z</time>
      </trkpt>
      <trkpt lat="44.42095" lon="1.49128">
        <ele>261.2</ele>
        <time>2021-07-17T13:11:40Z</time>
      </trkpt>
      <trkpt lat="44.42094" lon="1.49119">
        <ele>261.5</ele>
        <time>2021-07-17T13:11:42Z</time>
      </trkpt>
      <trkpt lat="44.42093" lon="1.49111">
        <ele>261.7</ele>
        <time>2021-07-17T13:11:44Z</time>
      </trkpt>
      <trkpt lat="44.42092" lon="1.49107">
        <ele>261.9</ele>
        <time>2021-07-17T13:11:45Z</time>
      </trkpt>
      <trkpt lat="44.42091" lon="1.491">
        <ele>262.1</ele>
        <time>2021-07-17T13:11:47Z</time>
      </trkpt>
      <trkpt lat="44.4209" lon="1.49095">
        <ele>262.3</ele>
        <time>2021-07-17T13:11:48Z</time>
      </trkpt>
      <trkpt lat="44.42089" lon="1.49092">
        <ele>262.4</ele>
        <time>2021-07-17T13:11:49Z</time>
      </trkpt>
      <trkpt lat="44.42087" lon="1.49083">
        <ele>262.8</ele>
        <time>2021-07-17T13:11:51Z</time>
      </trkpt>
      <trkpt lat="44.42086" lon="1.49079">
        <ele>263</ele>
        <time>2021-07-17T13:11:52Z</time>
      </trkpt>
      <trkpt lat="44.42084" lon="1.4907">
        <ele>263.5</ele>
        <time>2021-07-17T13:11:54Z</time>
      </trkpt>
      <trkpt lat="44.42082" lon="1.4906">
        <ele>264.1</ele>
        <time>2021-07-17T13:11:56Z</time>
      </trkpt>
      <trkpt lat="44.4208" lon="1.49053">
        <ele>264.5</ele>
        <time>2021-07-17T13:11:58Z</time>
      </trkpt>
      <trkpt lat="44.42079" lon="1.49049">
        <ele>264.8</ele>
        <time>2021-07-17T13:11:59Z</time>
      </trkpt>
      <trkpt lat="44.42078" lon="1.49047">
        <ele>264.9</ele>
        <time>2021-07-17T13:12:00Z</time>
      </trkpt>
      <trkpt lat="44.42077" lon="1.49042">
        <ele>265.2</ele>
        <time>2021-07-17T13:12:02Z</time>
      </trkpt>
      <trkpt lat="44.42076" lon="1.49036">
        <ele>265.6</ele>
        <time>2021-07-17T13:12:04Z</time>
      </trkpt>
      <trkpt lat="44.42075" lon="1.49032">
        <ele>265.8</ele>
        <time>2021-07-17T13:12:05Z</time>
      </trkpt>
      <trkpt lat="44.42073" lon="1.49025">
        <ele>266.3</ele>
        <time>2021-07-17T13:12:07Z</time>
      </trkpt>
      <trkpt lat="44.42072" lon="1.49021">
        <ele>266.5</ele>
        <time>2021-07-17T13:12:08Z</time>
      </trkpt>
      <trkpt lat="44.42071" lon="1.49014">
        <ele>266.9</ele>
        <time>2021-07-17T13:12:10Z</time>
      </trkpt>
      <trkpt lat="44.4207" lon="1.49009">
        <ele>267.2</ele>
        <time>2021-07-17T13:12:11Z</time>
      </trkpt>
      <trkpt lat="44.42069" lon="1.49008">
        <ele>267.3</ele>
        <time>2021-07-17T13:12:12Z</time>
      </trkpt>
      <trkpt lat="44.42067" lon="1.49003">
        <ele>267.6</ele>
        <time>2021-07-17T13:12:13Z</time>
      </trkpt>
      <trkpt lat="44.42067" lon="1.49002">
        <ele>267.7</ele>
        <time>2021-07-17T13:12:14Z</time>
      </trkpt>
      <trkpt lat="44.42066" lon="1.48997">
        <ele>268.1</ele>
        <time>2021-07-17T13:12:16Z</time>
      </trkpt>
      <trkpt lat="44.42065" lon="1.48993">
        <ele>268.4</ele>
        <time>2021-07-17T13:12:17Z</time>
      </trkpt>
      <trkpt lat="44.42065" lon="1.48991">
        <ele>268.5</ele>
        <time>2021-07-17T13:12:18Z</time>
      </trkpt>
      <trkpt lat="44.42064" lon="1.48986">
        <ele>268.9</ele>
        <time>2021-07-17T13:12:20Z</time>
      </trkpt>
      <trkpt lat="44.42063" lon="1.4898">
        <ele>269.2</ele>
        <time>2021-07-17T13:12:22Z</time>
      </trkpt>
      <trkpt lat="44.42061" lon="1.48973">
        <ele>269.6</ele>
        <time>2021-07-17T13:12:24Z</time>
      </trkpt>
      <trkpt lat="44.4206" lon="1.48966">
        <ele>270</ele>
        <time>2021-07-17T13:12:26Z</time>
      </trkpt>
      <trkpt lat="44.42059" lon="1.48959">
        <ele>270.3</ele>
        <time>2021-07-17T13:12:28Z</time>
      </trkpt>
      <trkpt lat="44.42058" lon="1.48955">
        <ele>270.5</ele>
        <time>2021-07-17T13:12:29Z</time>
      </trkpt>
      <trkpt lat="44.42057" lon="1.48953">
        <ele>270.6</ele>
        <time>2021-07-17T13:12:30Z</time>
      </trkpt>
      <trkpt lat="44.42056" lon="1.48948">
        <ele>270.8</ele>
        <time>2021-07-17T13:12:31Z</time>
      </trkpt>
      <trkpt lat="44.42056" lon="1.48947">
        <ele>270.9</ele>
        <time>2021-07-17T13:12:32Z</time>
      </trkpt>
      <trkpt lat="44.42056" lon="1.48941">
        <ele>271.1</ele>
        <time>2021-07-17T13:12:34Z</time>
      </trkpt>
      <trkpt lat="44.42054" lon="1.48937">
        <ele>271.3</ele>
        <time>2021-07-17T13:12:35Z</time>
      </trkpt>
      <trkpt lat="44.42054" lon="1.48936">
        <ele>271.3</ele>
        <time>2021-07-17T13:12:36Z</time>
      </trkpt>
      <trkpt lat="44.42053" lon="1.4893">
        <ele>271.5</ele>
        <time>2021-07-17T13:12:38Z</time>
      </trkpt>
      <trkpt lat="44.42052" lon="1.48924">
        <ele>271.7</ele>
        <time>2021-07-17T13:12:40Z</time>
      </trkpt>
      <trkpt lat="44.42051" lon="1.4892">
        <ele>271.9</ele>
        <time>2021-07-17T13:12:41Z</time>
      </trkpt>
      <trkpt lat="44.4205" lon="1.48919">
        <ele>271.9</ele>
        <time>2021-07-17T13:12:42Z</time>
      </trkpt>
      <trkpt lat="44.42049" lon="1.48914">
        <ele>272.1</ele>
        <time>2021-07-17T13:12:44Z</time>
      </trkpt>
      <trkpt lat="44.42047" lon="1.48908">
        <ele>272.4</ele>
        <time>2021-07-17T13:12:46Z</time>
      </trkpt>
      <trkpt lat="44.42046" lon="1.48902">
        <ele>272.6</ele>
        <time>2021-07-17T13:12:48Z</time>
      </trkpt>
      <trkpt lat="44.42044" lon="1.48896">
        <ele>272.8</ele>
        <time>2021-07-17T13:12:50Z</time>
      </trkpt>
      <trkpt lat="44.42042" lon="1.48891">
        <ele>272.9</ele>
        <time>2021-07-17T13:12:52Z</time>
      </trkpt>
      <trkpt lat="44.4204" lon="1.48885">
        <ele>273</ele>
        <time>2021-07-17T13:12:54Z</time>
      </trkpt>
      <trkpt lat="44.42038" lon="1.48879">
        <ele>273.1</ele>
        <time>2021-07-17T13:12:56Z</time>
      </trkpt>
      <trkpt lat="44.42036" lon="1.48873">
        <ele>273.2</ele>
        <time>2021-07-17T13:12:58Z</time>
      </trkpt>
      <trkpt lat="44.42033" lon="1.48867">
        <ele>273.4</ele>
        <time>2021-07-17T13:13:00Z</time>
      </trkpt>
      <trkpt lat="44.42032" lon="1.48862">
        <ele>273.5</ele>
        <time>2021-07-17T13:13:01Z</time>
      </trkpt>
      <trkpt lat="44.42031" lon="1.48861">
        <ele>273.5</ele>
        <time>2021-07-17T13:13:02Z</time>
      </trkpt>
      <trkpt lat="44.42028" lon="1.48855">
        <ele>273.6</ele>
        <time>2021-07-17T13:13:04Z</time>
      </trkpt>
      <trkpt lat="44.42025" lon="1.4885">
        <ele>273.7</ele>
        <time>2021-07-17T13:13:06Z</time>
      </trkpt>
      <trkpt lat="44.42023" lon="1.48844">
        <ele>273.8</ele>
        <time>2021-07-17T13:13:08Z</time>
      </trkpt>
      <trkpt lat="44.42019" lon="1.48838">
        <ele>273.8</ele>
        <time>2021-07-17T13:13:10Z</time>
      </trkpt>
      <trkpt lat="44.42015" lon="1.48834">
        <ele>273.8</ele>
        <time>2021-07-17T13:13:12Z</time>
      </trkpt>
      <trkpt lat="44.42011" lon="1.48828">
        <ele>273.8</ele>
        <time>2021-07-17T13:13:14Z</time>
      </trkpt>
      <trkpt lat="44.42007" lon="1.48824">
        <ele>273.7</ele>
        <time>2021-07-17T13:13:16Z</time>
      </trkpt>
      <trkpt lat="44.42002" lon="1.48818">
        <ele>273.6</ele>
        <time>2021-07-17T13:13:18Z</time>
      </trkpt>
      <trkpt lat="44.41996" lon="1.48813">
        <ele>273.4</ele>
        <time>2021-07-17T13:13:20Z</time>
      </trkpt>
      <trkpt lat="44.41992" lon="1.48807">
        <ele>273.3</ele>
        <time>2021-07-17T13:13:22Z</time>
      </trkpt>
      <trkpt lat="44.4199" lon="1.48804">
        <ele>273.2</ele>
        <time>2021-07-17T13:13:23Z</time>
      </trkpt>
      <trkpt lat="44.41985" lon="1.48797">
        <ele>273.1</ele>
        <time>2021-07-17T13:13:25Z</time>
      </trkpt>
      <trkpt lat="44.41983" lon="1.48794">
        <ele>273.1</ele>
        <time>2021-07-17T13:13:26Z</time>
      </trkpt>
      <trkpt lat="44.41981" lon="1.4879">
        <ele>273.1</ele>
        <time>2021-07-17T13:13:27Z</time>
      </trkpt>
      <trkpt lat="44.41979" lon="1.48785">
        <ele>273</ele>
        <time>2021-07-17T13:13:29Z</time>
      </trkpt>
      <trkpt lat="44.41976" lon="1.48781">
        <ele>273</ele>
        <time>2021-07-17T13:13:30Z</time>
      </trkpt>
      <trkpt lat="44.41974" lon="1.48776">
        <ele>273</ele>
        <time>2021-07-17T13:13:31Z</time>
      </trkpt>
      <trkpt lat="44.41972" lon="1.48772">
        <ele>272.9</ele>
        <time>2021-07-17T13:13:32Z</time>
      </trkpt>
      <trkpt lat="44.41969" lon="1.48768">
        <ele>272.9</ele>
        <time>2021-07-17T13:13:33Z</time>
      </trkpt>
      <trkpt lat="44.41966" lon="1.48762">
        <ele>272.8</ele>
        <time>2021-07-17T13:13:34Z</time>
      </trkpt>
      <trkpt lat="44.41964" lon="1.48758">
        <ele>272.7</ele>
        <time>2021-07-17T13:13:36Z</time>
      </trkpt>
      <trkpt lat="44.41962" lon="1.48753">
        <ele>272.7</ele>
        <time>2021-07-17T13:13:37Z</time>
      </trkpt>
      <trkpt lat="44.4196" lon="1.48748">
        <ele>272.6</ele>
        <time>2021-07-17T13:13:38Z</time>
      </trkpt>
      <trkpt lat="44.41956" lon="1.48741">
        <ele>272.5</ele>
        <time>2021-07-17T13:13:40Z</time>
      </trkpt>
      <trkpt lat="44.41954" lon="1.48735">
        <ele>272.4</ele>
        <time>2021-07-17T13:13:42Z</time>
      </trkpt>
      <trkpt lat="44.41952" lon="1.48731">
        <ele>272.4</ele>
        <time>2021-07-17T13:13:43Z</time>
      </trkpt>
      <trkpt lat="44.4195" lon="1.48726">
        <ele>272.3</ele>
        <time>2021-07-17T13:13:44Z</time>
      </trkpt>
      <trkpt lat="44.41947" lon="1.48721">
        <ele>272.3</ele>
        <time>2021-07-17T13:13:45Z</time>
      </trkpt>
      <trkpt lat="44.41945" lon="1.48716">
        <ele>272.2</ele>
        <time>2021-07-17T13:13:46Z</time>
      </trkpt>
      <trkpt lat="44.41943" lon="1.48711">
        <ele>272.2</ele>
        <time>2021-07-17T13:13:47Z</time>
      </trkpt>
      <trkpt lat="44.41941" lon="1.48706">
        <ele>272.2</ele>
        <time>2021-07-17T13:13:49Z</time>
      </trkpt>
      <trkpt lat="44.41938" lon="1.48702">
        <ele>272.2</ele>
        <time>2021-07-17T13:13:50Z</time>
      </trkpt>
      <trkpt lat="44.41935" lon="1.48696">
        <ele>272.2</ele>
        <time>2021-07-17T13:13:51Z</time>
      </trkpt>
      <trkpt lat="44.41932" lon="1.48692">
        <ele>272.1</ele>
        <time>2021-07-17T13:13:52Z</time>
      </trkpt>
      <trkpt lat="44.4193" lon="1.48688">
        <ele>272.1</ele>
        <time>2021-07-17T13:13:53Z</time>
      </trkpt>
      <trkpt lat="44.41927" lon="1.48684">
        <ele>272</ele>
        <time>2021-07-17T13:13:55Z</time>
      </trkpt>
      <trkpt lat="44.41923" lon="1.48677">
        <ele>271.9</ele>
        <time>2021-07-17T13:13:56Z</time>
      </trkpt>
      <trkpt lat="44.4192" lon="1.48673">
        <ele>271.8</ele>
        <time>2021-07-17T13:13:57Z</time>
      </trkpt>
      <trkpt lat="44.41918" lon="1.48669">
        <ele>271.8</ele>
        <time>2021-07-17T13:13:58Z</time>
      </trkpt>
      <trkpt lat="44.41916" lon="1.48666">
        <ele>271.7</ele>
        <time>2021-07-17T13:13:59Z</time>
      </trkpt>
      <trkpt lat="44.41913" lon="1.48661">
        <ele>271.6</ele>
        <time>2021-07-17T13:14:00Z</time>
      </trkpt>
      <trkpt lat="44.41911" lon="1.48658">
        <ele>271.5</ele>
        <time>2021-07-17T13:14:02Z</time>
      </trkpt>
      <trkpt lat="44.41908" lon="1.48654">
        <ele>271.5</ele>
        <time>2021-07-17T13:14:03Z</time>
      </trkpt>
      <trkpt lat="44.41905" lon="1.48649">
        <ele>271.4</ele>
        <time>2021-07-17T13:14:04Z</time>
      </trkpt>
      <trkpt lat="44.41902" lon="1.48644">
        <ele>271.3</ele>
        <time>2021-07-17T13:14:05Z</time>
      </trkpt>
      <trkpt lat="44.41899" lon="1.48639">
        <ele>271.1</ele>
        <time>2021-07-17T13:14:07Z</time>
      </trkpt>
      <trkpt lat="44.41896" lon="1.48634">
        <ele>271</ele>
        <time>2021-07-17T13:14:08Z</time>
      </trkpt>
      <trkpt lat="44.41893" lon="1.48628">
        <ele>270.8</ele>
        <time>2021-07-17T13:14:09Z</time>
      </trkpt>
      <trkpt lat="44.4189" lon="1.48623">
        <ele>270.7</ele>
        <time>2021-07-17T13:14:10Z</time>
      </trkpt>
      <trkpt lat="44.41885" lon="1.48616">
        <ele>270.5</ele>
        <time>2021-07-17T13:14:12Z</time>
      </trkpt>
      <trkpt lat="44.41882" lon="1.48611">
        <ele>270.4</ele>
        <time>2021-07-17T13:14:13Z</time>
      </trkpt>
      <trkpt lat="44.41879" lon="1.48605">
        <ele>270.2</ele>
        <time>2021-07-17T13:14:14Z</time>
      </trkpt>
      <trkpt lat="44.41874" lon="1.48598">
        <ele>270</ele>
        <time>2021-07-17T13:14:16Z</time>
      </trkpt>
      <trkpt lat="44.4187" lon="1.48591">
        <ele>269.7</ele>
        <time>2021-07-17T13:14:17Z</time>
      </trkpt>
      <trkpt lat="44.41865" lon="1.48581">
        <ele>269.3</ele>
        <time>2021-07-17T13:14:19Z</time>
      </trkpt>
      <trkpt lat="44.41861" lon="1.4857">
        <ele>268.9</ele>
        <time>2021-07-17T13:14:20Z</time>
      </trkpt>
      <trkpt lat="44.41858" lon="1.48555">
        <ele>268.4</ele>
        <time>2021-07-17T13:14:22Z</time>
      </trkpt>
      <trkpt lat="44.41858" lon="1.48547">
        <ele>268.2</ele>
        <time>2021-07-17T13:14:23Z</time>
      </trkpt>
      <trkpt lat="44.4186" lon="1.48532">
        <ele>268.2</ele>
        <time>2021-07-17T13:14:25Z</time>
      </trkpt>
      <trkpt lat="44.41865" lon="1.48518">
        <ele>268.1</ele>
        <time>2021-07-17T13:14:27Z</time>
      </trkpt>
      <trkpt lat="44.41869" lon="1.48505">
        <ele>268.1</ele>
        <time>2021-07-17T13:14:29Z</time>
      </trkpt>
      <trkpt lat="44.41871" lon="1.48499">
        <ele>268.1</ele>
        <time>2021-07-17T13:14:30Z</time>
      </trkpt>
      <trkpt lat="44.41874" lon="1.48488">
        <ele>268.1</ele>
        <time>2021-07-17T13:14:32Z</time>
      </trkpt>
      <trkpt lat="44.41877" lon="1.48477">
        <ele>268.1</ele>
        <time>2021-07-17T13:14:34Z</time>
      </trkpt>
      <trkpt lat="44.41879" lon="1.48472">
        <ele>268.1</ele>
        <time>2021-07-17T13:14:35Z</time>
      </trkpt>
      <trkpt lat="44.41881" lon="1.48466">
        <ele>268.2</ele>
        <time>2021-07-17T13:14:36Z</time>
      </trkpt>
      <trkpt lat="44.41884" lon="1.48456">
        <ele>268.3</ele>
        <time>2021-07-17T13:14:38Z</time>
      </trkpt>
      <trkpt lat="44.41886" lon="1.48445">
        <ele>268.4</ele>
        <time>2021-07-17T13:14:40Z</time>
      </trkpt>
      <trkpt lat="44.41887" lon="1.48441">
        <ele>268.5</ele>
        <time>2021-07-17T13:14:41Z</time>
      </trkpt>
      <trkpt lat="44.41889" lon="1.48436">
        <ele>268.5</ele>
        <time>2021-07-17T13:14:42Z</time>
      </trkpt>
      <trkpt lat="44.41893" lon="1.48429">
        <ele>268.6</ele>
        <time>2021-07-17T13:14:44Z</time>
      </trkpt>
      <trkpt lat="44.41894" lon="1.48423">
        <ele>268.7</ele>
        <time>2021-07-17T13:14:45Z</time>
      </trkpt>
      <trkpt lat="44.41896" lon="1.48418">
        <ele>268.8</ele>
        <time>2021-07-17T13:14:46Z</time>
      </trkpt>
      <trkpt lat="44.41897" lon="1.48412">
        <ele>268.9</ele>
        <time>2021-07-17T13:14:47Z</time>
      </trkpt>
      <trkpt lat="44.41899" lon="1.48406">
        <ele>269</ele>
        <time>2021-07-17T13:14:48Z</time>
      </trkpt>
      <trkpt lat="44.419" lon="1.484">
        <ele>269.1</ele>
        <time>2021-07-17T13:14:49Z</time>
      </trkpt>
      <trkpt lat="44.41901" lon="1.48394">
        <ele>269.2</ele>
        <time>2021-07-17T13:14:51Z</time>
      </trkpt>
      <trkpt lat="44.41903" lon="1.48389">
        <ele>269.4</ele>
        <time>2021-07-17T13:14:52Z</time>
      </trkpt>
      <trkpt lat="44.41905" lon="1.48383">
        <ele>269.5</ele>
        <time>2021-07-17T13:14:53Z</time>
      </trkpt>
      <trkpt lat="44.41906" lon="1.48378">
        <ele>269.7</ele>
        <time>2021-07-17T13:14:54Z</time>
      </trkpt>
      <trkpt lat="44.41909" lon="1.48369">
        <ele>270</ele>
        <time>2021-07-17T13:14:56Z</time>
      </trkpt>
      <trkpt lat="44.41911" lon="1.48361">
        <ele>270.3</ele>
        <time>2021-07-17T13:14:58Z</time>
      </trkpt>
      <trkpt lat="44.41913" lon="1.48357">
        <ele>270.5</ele>
        <time>2021-07-17T13:14:59Z</time>
      </trkpt>
      <trkpt lat="44.41914" lon="1.48353">
        <ele>270.6</ele>
        <time>2021-07-17T13:15:00Z</time>
      </trkpt>
      <trkpt lat="44.41917" lon="1.48345">
        <ele>270.9</ele>
        <time>2021-07-17T13:15:02Z</time>
      </trkpt>
      <trkpt lat="44.41918" lon="1.4834">
        <ele>271.2</ele>
        <time>2021-07-17T13:15:04Z</time>
      </trkpt>
      <trkpt lat="44.4192" lon="1.48333">
        <ele>271.4</ele>
        <time>2021-07-17T13:15:05Z</time>
      </trkpt>
      <trkpt lat="44.41922" lon="1.48328">
        <ele>271.7</ele>
        <time>2021-07-17T13:15:07Z</time>
      </trkpt>
      <trkpt lat="44.41924" lon="1.48324">
        <ele>271.8</ele>
        <time>2021-07-17T13:15:08Z</time>
      </trkpt>
      <trkpt lat="44.41925" lon="1.4832">
        <ele>272</ele>
        <time>2021-07-17T13:15:09Z</time>
      </trkpt>
      <trkpt lat="44.41926" lon="1.48314">
        <ele>272.2</ele>
        <time>2021-07-17T13:15:11Z</time>
      </trkpt>
      <trkpt lat="44.41927" lon="1.4831">
        <ele>272.4</ele>
        <time>2021-07-17T13:15:12Z</time>
      </trkpt>
      <trkpt lat="44.41927" lon="1.48306">
        <ele>272.5</ele>
        <time>2021-07-17T13:15:13Z</time>
      </trkpt>
      <trkpt lat="44.41928" lon="1.48302">
        <ele>272.7</ele>
        <time>2021-07-17T13:15:14Z</time>
      </trkpt>
      <trkpt lat="44.41928" lon="1.48298">
        <ele>272.8</ele>
        <time>2021-07-17T13:15:15Z</time>
      </trkpt>
      <trkpt lat="44.41929" lon="1.48295">
        <ele>272.9</ele>
        <time>2021-07-17T13:15:16Z</time>
      </trkpt>
      <trkpt lat="44.41931" lon="1.4829">
        <ele>273.2</ele>
        <time>2021-07-17T13:15:18Z</time>
      </trkpt>
      <trkpt lat="44.41933" lon="1.48285">
        <ele>273.3</ele>
        <time>2021-07-17T13:15:19Z</time>
      </trkpt>
      <trkpt lat="44.41934" lon="1.48282">
        <ele>273.5</ele>
        <time>2021-07-17T13:15:20Z</time>
      </trkpt>
      <trkpt lat="44.41935" lon="1.48277">
        <ele>273.7</ele>
        <time>2021-07-17T13:15:21Z</time>
      </trkpt>
      <trkpt lat="44.41936" lon="1.48272">
        <ele>273.9</ele>
        <time>2021-07-17T13:15:23Z</time>
      </trkpt>
      <trkpt lat="44.41938" lon="1.48267">
        <ele>274.1</ele>
        <time>2021-07-17T13:15:24Z</time>
      </trkpt>
      <trkpt lat="44.41939" lon="1.48262">
        <ele>274.3</ele>
        <time>2021-07-17T13:15:26Z</time>
      </trkpt>
      <trkpt lat="44.4194" lon="1.48257">
        <ele>274.5</ele>
        <time>2021-07-17T13:15:27Z</time>
      </trkpt>
      <trkpt lat="44.41942" lon="1.48253">
        <ele>274.7</ele>
        <time>2021-07-17T13:15:28Z</time>
      </trkpt>
      <trkpt lat="44.41943" lon="1.48249">
        <ele>274.9</ele>
        <time>2021-07-17T13:15:29Z</time>
      </trkpt>
      <trkpt lat="44.41947" lon="1.48241">
        <ele>275.2</ele>
        <time>2021-07-17T13:15:31Z</time>
      </trkpt>
      <trkpt lat="44.41948" lon="1.48236">
        <ele>275.4</ele>
        <time>2021-07-17T13:15:32Z</time>
      </trkpt>
      <trkpt lat="44.4195" lon="1.4823">
        <ele>275.7</ele>
        <time>2021-07-17T13:15:34Z</time>
      </trkpt>
      <trkpt lat="44.41951" lon="1.48225">
        <ele>275.8</ele>
        <time>2021-07-17T13:15:35Z</time>
      </trkpt>
      <trkpt lat="44.41952" lon="1.48222">
        <ele>276</ele>
        <time>2021-07-17T13:15:36Z</time>
      </trkpt>
      <trkpt lat="44.41955" lon="1.48217">
        <ele>276.2</ele>
        <time>2021-07-17T13:15:38Z</time>
      </trkpt>
      <trkpt lat="44.41957" lon="1.48212">
        <ele>276.3</ele>
        <time>2021-07-17T13:15:39Z</time>
      </trkpt>
      <trkpt lat="44.41959" lon="1.48207">
        <ele>276.5</ele>
        <time>2021-07-17T13:15:40Z</time>
      </trkpt>
      <trkpt lat="44.4196" lon="1.48203">
        <ele>276.6</ele>
        <time>2021-07-17T13:15:41Z</time>
      </trkpt>
      <trkpt lat="44.41963" lon="1.48199">
        <ele>276.8</ele>
        <time>2021-07-17T13:15:43Z</time>
      </trkpt>
      <trkpt lat="44.41966" lon="1.48195">
        <ele>276.9</ele>
        <time>2021-07-17T13:15:44Z</time>
      </trkpt>
      <trkpt lat="44.41969" lon="1.48189">
        <ele>277.1</ele>
        <time>2021-07-17T13:15:46Z</time>
      </trkpt>
      <trkpt lat="44.4197" lon="1.48186">
        <ele>277.2</ele>
        <time>2021-07-17T13:15:47Z</time>
      </trkpt>
      <trkpt lat="44.41973" lon="1.48181">
        <ele>277.4</ele>
        <time>2021-07-17T13:15:49Z</time>
      </trkpt>
      <trkpt lat="44.41975" lon="1.48178">
        <ele>277.5</ele>
        <time>2021-07-17T13:15:50Z</time>
      </trkpt>
      <trkpt lat="44.41977" lon="1.48172">
        <ele>277.7</ele>
        <time>2021-07-17T13:15:52Z</time>
      </trkpt>
      <trkpt lat="44.41979" lon="1.48169">
        <ele>277.9</ele>
        <time>2021-07-17T13:15:53Z</time>
      </trkpt>
      <trkpt lat="44.41981" lon="1.48165">
        <ele>278</ele>
        <time>2021-07-17T13:15:54Z</time>
      </trkpt>
      <trkpt lat="44.41983" lon="1.48161">
        <ele>278.1</ele>
        <time>2021-07-17T13:15:56Z</time>
      </trkpt>
      <trkpt lat="44.41985" lon="1.48156">
        <ele>278.3</ele>
        <time>2021-07-17T13:15:57Z</time>
      </trkpt>
      <trkpt lat="44.41988" lon="1.4815">
        <ele>278.6</ele>
        <time>2021-07-17T13:15:59Z</time>
      </trkpt>
      <trkpt lat="44.4199" lon="1.48145">
        <ele>278.8</ele>
        <time>2021-07-17T13:16:00Z</time>
      </trkpt>
      <trkpt lat="44.41991" lon="1.48141">
        <ele>278.9</ele>
        <time>2021-07-17T13:16:01Z</time>
      </trkpt>
      <trkpt lat="44.41992" lon="1.48138">
        <ele>279.1</ele>
        <time>2021-07-17T13:16:02Z</time>
      </trkpt>
      <trkpt lat="44.41995" lon="1.48133">
        <ele>279.3</ele>
        <time>2021-07-17T13:16:04Z</time>
      </trkpt>
      <trkpt lat="44.41998" lon="1.48129">
        <ele>279.6</ele>
        <time>2021-07-17T13:16:05Z</time>
      </trkpt>
      <trkpt lat="44.41999" lon="1.48126">
        <ele>279.7</ele>
        <time>2021-07-17T13:16:06Z</time>
      </trkpt>
      <trkpt lat="44.42" lon="1.48122">
        <ele>279.9</ele>
        <time>2021-07-17T13:16:08Z</time>
      </trkpt>
      <trkpt lat="44.42002" lon="1.48119">
        <ele>280.1</ele>
        <time>2021-07-17T13:16:09Z</time>
      </trkpt>
      <trkpt lat="44.42004" lon="1.48116">
        <ele>280.3</ele>
        <time>2021-07-17T13:16:10Z</time>
      </trkpt>
      <trkpt lat="44.42007" lon="1.4811">
        <ele>280.5</ele>
        <time>2021-07-17T13:16:12Z</time>
      </trkpt>
      <trkpt lat="44.42008" lon="1.48107">
        <ele>280.7</ele>
        <time>2021-07-17T13:16:13Z</time>
      </trkpt>
      <trkpt lat="44.4201" lon="1.48104">
        <ele>280.8</ele>
        <time>2021-07-17T13:16:14Z</time>
      </trkpt>
      <trkpt lat="44.42011" lon="1.48099">
        <ele>281</ele>
        <time>2021-07-17T13:16:16Z</time>
      </trkpt>
      <trkpt lat="44.42013" lon="1.48096">
        <ele>281.2</ele>
        <time>2021-07-17T13:16:17Z</time>
      </trkpt>
      <trkpt lat="44.42015" lon="1.48093">
        <ele>281.3</ele>
        <time>2021-07-17T13:16:18Z</time>
      </trkpt>
      <trkpt lat="44.42017" lon="1.4809">
        <ele>281.5</ele>
        <time>2021-07-17T13:16:19Z</time>
      </trkpt>
      <trkpt lat="44.42019" lon="1.48083">
        <ele>281.8</ele>
        <time>2021-07-17T13:16:21Z</time>
      </trkpt>
      <trkpt lat="44.42022" lon="1.48078">
        <ele>282.1</ele>
        <time>2021-07-17T13:16:23Z</time>
      </trkpt>
      <trkpt lat="44.42024" lon="1.48074">
        <ele>282.2</ele>
        <time>2021-07-17T13:16:24Z</time>
      </trkpt>
      <trkpt lat="44.42026" lon="1.48066">
        <ele>282.6</ele>
        <time>2021-07-17T13:16:26Z</time>
      </trkpt>
      <trkpt lat="44.42027" lon="1.48062">
        <ele>282.8</ele>
        <time>2021-07-17T13:16:28Z</time>
      </trkpt>
      <trkpt lat="44.42027" lon="1.48057">
        <ele>283</ele>
        <time>2021-07-17T13:16:29Z</time>
      </trkpt>
      <trkpt lat="44.42026" lon="1.48052">
        <ele>283.5</ele>
        <time>2021-07-17T13:16:31Z</time>
      </trkpt>
      <trkpt lat="44.42024" lon="1.48049">
        <ele>283.5</ele>
        <time>2021-07-17T13:16:32Z</time>
      </trkpt>
      <trkpt lat="44.4202" lon="1.48048">
        <ele>283.6</ele>
        <time>2021-07-17T13:16:34Z</time>
      </trkpt>
      <trkpt lat="44.42017" lon="1.48048">
        <ele>283.7</ele>
        <time>2021-07-17T13:16:35Z</time>
      </trkpt>
      <trkpt lat="44.42014" lon="1.48048">
        <ele>283.7</ele>
        <time>2021-07-17T13:16:37Z</time>
      </trkpt>
      <trkpt lat="44.4201" lon="1.48048">
        <ele>283.8</ele>
        <time>2021-07-17T13:16:38Z</time>
      </trkpt>
      <trkpt lat="44.42007" lon="1.48049">
        <ele>283.9</ele>
        <time>2021-07-17T13:16:39Z</time>
      </trkpt>
      <trkpt lat="44.42005" lon="1.48049">
        <ele>283.9</ele>
        <time>2021-07-17T13:16:40Z</time>
      </trkpt>
      <trkpt lat="44.42" lon="1.4805">
        <ele>284</ele>
        <time>2021-07-17T13:16:42Z</time>
      </trkpt>
      <trkpt lat="44.41998" lon="1.4805">
        <ele>284.1</ele>
        <time>2021-07-17T13:16:43Z</time>
      </trkpt>
      <trkpt lat="44.41995" lon="1.4805">
        <ele>284.2</ele>
        <time>2021-07-17T13:16:44Z</time>
      </trkpt>
      <trkpt lat="44.41991" lon="1.4805">
        <ele>284.3</ele>
        <time>2021-07-17T13:16:46Z</time>
      </trkpt>
      <trkpt lat="44.41988" lon="1.4805">
        <ele>284.3</ele>
        <time>2021-07-17T13:16:47Z</time>
      </trkpt>
      <trkpt lat="44.41985" lon="1.4805">
        <ele>284.4</ele>
        <time>2021-07-17T13:16:49Z</time>
      </trkpt>
      <trkpt lat="44.41982" lon="1.4805">
        <ele>284.5</ele>
        <time>2021-07-17T13:16:50Z</time>
      </trkpt>
      <trkpt lat="44.41978" lon="1.48052">
        <ele>284.6</ele>
        <time>2021-07-17T13:16:51Z</time>
      </trkpt>
      <trkpt lat="44.41976" lon="1.48052">
        <ele>284.6</ele>
        <time>2021-07-17T13:16:52Z</time>
      </trkpt>
      <trkpt lat="44.41972" lon="1.48051">
        <ele>284.7</ele>
        <time>2021-07-17T13:16:54Z</time>
      </trkpt>
      <trkpt lat="44.41969" lon="1.48051">
        <ele>284.8</ele>
        <time>2021-07-17T13:16:55Z</time>
      </trkpt>
      <trkpt lat="44.41965" lon="1.4805">
        <ele>284.9</ele>
        <time>2021-07-17T13:16:56Z</time>
      </trkpt>
      <trkpt lat="44.41963" lon="1.48049">
        <ele>284.9</ele>
        <time>2021-07-17T13:16:57Z</time>
      </trkpt>
      <trkpt lat="44.41959" lon="1.48049">
        <ele>285</ele>
        <time>2021-07-17T13:16:59Z</time>
      </trkpt>
      <trkpt lat="44.41956" lon="1.48049">
        <ele>285</ele>
        <time>2021-07-17T13:17:00Z</time>
      </trkpt>
      <trkpt lat="44.41954" lon="1.48049">
        <ele>285</ele>
        <time>2021-07-17T13:17:01Z</time>
      </trkpt>
      <trkpt lat="44.4195" lon="1.48049">
        <ele>285.1</ele>
        <time>2021-07-17T13:17:03Z</time>
      </trkpt>
      <trkpt lat="44.41947" lon="1.48049">
        <ele>285.1</ele>
        <time>2021-07-17T13:17:04Z</time>
      </trkpt>
      <trkpt lat="44.41944" lon="1.48049">
        <ele>285.1</ele>
        <time>2021-07-17T13:17:05Z</time>
      </trkpt>
      <trkpt lat="44.41939" lon="1.48049">
        <ele>285.1</ele>
        <time>2021-07-17T13:17:07Z</time>
      </trkpt>
      <trkpt lat="44.41936" lon="1.48048">
        <ele>285.1</ele>
        <time>2021-07-17T13:17:08Z</time>
      </trkpt>
      <trkpt lat="44.41932" lon="1.48048">
        <ele>285</ele>
        <time>2021-07-17T13:17:09Z</time>
      </trkpt>
      <trkpt lat="44.41927" lon="1.48049">
        <ele>284.9</ele>
        <time>2021-07-17T13:17:11Z</time>
      </trkpt>
      <trkpt lat="44.41922" lon="1.48049">
        <ele>284.8</ele>
        <time>2021-07-17T13:17:13Z</time>
      </trkpt>
      <trkpt lat="44.41917" lon="1.48049">
        <ele>284.7</ele>
        <time>2021-07-17T13:17:14Z</time>
      </trkpt>
      <trkpt lat="44.41912" lon="1.48049">
        <ele>284.6</ele>
        <time>2021-07-17T13:17:16Z</time>
      </trkpt>
      <trkpt lat="44.41907" lon="1.48049">
        <ele>284.4</ele>
        <time>2021-07-17T13:17:17Z</time>
      </trkpt>
      <trkpt lat="44.41902" lon="1.48049">
        <ele>284.3</ele>
        <time>2021-07-17T13:17:18Z</time>
      </trkpt>
      <trkpt lat="44.41898" lon="1.48049">
        <ele>284.2</ele>
        <time>2021-07-17T13:17:20Z</time>
      </trkpt>
      <trkpt lat="44.41892" lon="1.48049">
        <ele>284</ele>
        <time>2021-07-17T13:17:21Z</time>
      </trkpt>
      <trkpt lat="44.41887" lon="1.48049">
        <ele>283.8</ele>
        <time>2021-07-17T13:17:22Z</time>
      </trkpt>
      <trkpt lat="44.41882" lon="1.48049">
        <ele>283.6</ele>
        <time>2021-07-17T13:17:23Z</time>
      </trkpt>
      <trkpt lat="44.41874" lon="1.48049">
        <ele>283.3</ele>
        <time>2021-07-17T13:17:25Z</time>
      </trkpt>
      <trkpt lat="44.41867" lon="1.48048">
        <ele>283.1</ele>
        <time>2021-07-17T13:17:26Z</time>
      </trkpt>
      <trkpt lat="44.41853" lon="1.48049">
        <ele>282.5</ele>
        <time>2021-07-17T13:17:28Z</time>
      </trkpt>
      <trkpt lat="44.41842" lon="1.48049">
        <ele>282.1</ele>
        <time>2021-07-17T13:17:30Z</time>
      </trkpt>
      <trkpt lat="44.41836" lon="1.48049">
        <ele>281.9</ele>
        <time>2021-07-17T13:17:31Z</time>
      </trkpt>
      <trkpt lat="44.4183" lon="1.48049">
        <ele>281.6</ele>
        <time>2021-07-17T13:17:32Z</time>
      </trkpt>
      <trkpt lat="44.41825" lon="1.48049">
        <ele>281.4</ele>
        <time>2021-07-17T13:17:33Z</time>
      </trkpt>
      <trkpt lat="44.41813" lon="1.48048">
        <ele>281</ele>
        <time>2021-07-17T13:17:35Z</time>
      </trkpt>
      <trkpt lat="44.418" lon="1.48047">
        <ele>280.5</ele>
        <time>2021-07-17T13:17:37Z</time>
      </trkpt>
      <trkpt lat="44.41794" lon="1.48047">
        <ele>280.3</ele>
        <time>2021-07-17T13:17:38Z</time>
      </trkpt>
      <trkpt lat="44.41781" lon="1.48045">
        <ele>279.7</ele>
        <time>2021-07-17T13:17:40Z</time>
      </trkpt>
      <trkpt lat="44.41768" lon="1.48043">
        <ele>279.2</ele>
        <time>2021-07-17T13:17:42Z</time>
      </trkpt>
      <trkpt lat="44.41755" lon="1.48038">
        <ele>278.8</ele>
        <time>2021-07-17T13:17:44Z</time>
      </trkpt>
      <trkpt lat="44.41742" lon="1.48034">
        <ele>278.4</ele>
        <time>2021-07-17T13:17:46Z</time>
      </trkpt>
      <trkpt lat="44.41736" lon="1.48031">
        <ele>278.2</ele>
        <time>2021-07-17T13:17:47Z</time>
      </trkpt>
      <trkpt lat="44.41729" lon="1.48029">
        <ele>278</ele>
        <time>2021-07-17T13:17:48Z</time>
      </trkpt>
      <trkpt lat="44.41717" lon="1.48025">
        <ele>277.6</ele>
        <time>2021-07-17T13:17:50Z</time>
      </trkpt>
      <trkpt lat="44.41704" lon="1.4802">
        <ele>277.3</ele>
        <time>2021-07-17T13:17:52Z</time>
      </trkpt>
      <trkpt lat="44.41692" lon="1.48015">
        <ele>277.1</ele>
        <time>2021-07-17T13:17:54Z</time>
      </trkpt>
      <trkpt lat="44.4168" lon="1.48012">
        <ele>276.8</ele>
        <time>2021-07-17T13:17:56Z</time>
      </trkpt>
      <trkpt lat="44.41675" lon="1.48009">
        <ele>276.7</ele>
        <time>2021-07-17T13:17:57Z</time>
      </trkpt>
      <trkpt lat="44.41664" lon="1.48004">
        <ele>276.5</ele>
        <time>2021-07-17T13:17:59Z</time>
      </trkpt>
      <trkpt lat="44.41658" lon="1.48003">
        <ele>276.4</ele>
        <time>2021-07-17T13:18:00Z</time>
      </trkpt>
      <trkpt lat="44.41652" lon="1.48001">
        <ele>276.3</ele>
        <time>2021-07-17T13:18:01Z</time>
      </trkpt>
      <trkpt lat="44.41647" lon="1.47999">
        <ele>276.1</ele>
        <time>2021-07-17T13:18:02Z</time>
      </trkpt>
      <trkpt lat="44.41641" lon="1.47997">
        <ele>276</ele>
        <time>2021-07-17T13:18:03Z</time>
      </trkpt>
      <trkpt lat="44.41629" lon="1.47992">
        <ele>275.8</ele>
        <time>2021-07-17T13:18:05Z</time>
      </trkpt>
      <trkpt lat="44.41617" lon="1.47987">
        <ele>275.7</ele>
        <time>2021-07-17T13:18:07Z</time>
      </trkpt>
      <trkpt lat="44.41611" lon="1.47984">
        <ele>275.6</ele>
        <time>2021-07-17T13:18:08Z</time>
      </trkpt>
      <trkpt lat="44.41606" lon="1.4798">
        <ele>275.6</ele>
        <time>2021-07-17T13:18:09Z</time>
      </trkpt>
      <trkpt lat="44.41597" lon="1.47972">
        <ele>275.5</ele>
        <time>2021-07-17T13:18:11Z</time>
      </trkpt>
      <trkpt lat="44.41589" lon="1.47964">
        <ele>275.5</ele>
        <time>2021-07-17T13:18:13Z</time>
      </trkpt>
      <trkpt lat="44.41585" lon="1.47959">
        <ele>275.5</ele>
        <time>2021-07-17T13:18:14Z</time>
      </trkpt>
      <trkpt lat="44.41581" lon="1.47955">
        <ele>275.5</ele>
        <time>2021-07-17T13:18:15Z</time>
      </trkpt>
      <trkpt lat="44.41574" lon="1.47949">
        <ele>275.6</ele>
        <time>2021-07-17T13:18:17Z</time>
      </trkpt>
      <trkpt lat="44.41571" lon="1.47946">
        <ele>275.6</ele>
        <time>2021-07-17T13:18:18Z</time>
      </trkpt>
      <trkpt lat="44.41569" lon="1.47942">
        <ele>275.7</ele>
        <time>2021-07-17T13:18:19Z</time>
      </trkpt>
      <trkpt lat="44.41566" lon="1.47939">
        <ele>275.7</ele>
        <time>2021-07-17T13:18:20Z</time>
      </trkpt>
      <trkpt lat="44.41563" lon="1.47936">
        <ele>275.8</ele>
        <time>2021-07-17T13:18:21Z</time>
      </trkpt>
      <trkpt lat="44.41557" lon="1.47929">
        <ele>275.9</ele>
        <time>2021-07-17T13:18:23Z</time>
      </trkpt>
      <trkpt lat="44.41556" lon="1.47924">
        <ele>275.9</ele>
        <time>2021-07-17T13:18:25Z</time>
      </trkpt>
      <trkpt lat="44.41555" lon="1.47922">
        <ele>276</ele>
        <time>2021-07-17T13:18:26Z</time>
      </trkpt>
      <trkpt lat="44.41551" lon="1.47917">
        <ele>276.1</ele>
        <time>2021-07-17T13:18:27Z</time>
      </trkpt>
      <trkpt lat="44.41549" lon="1.47912">
        <ele>276.2</ele>
        <time>2021-07-17T13:18:29Z</time>
      </trkpt>
      <trkpt lat="44.41547" lon="1.47912">
        <ele>276.2</ele>
        <time>2021-07-17T13:18:30Z</time>
      </trkpt>
      <trkpt lat="44.41546" lon="1.47912">
        <ele>276.2</ele>
        <time>2021-07-17T13:18:32Z</time>
      </trkpt>
      <trkpt lat="44.41545" lon="1.4791">
        <ele>276.2</ele>
        <time>2021-07-17T13:18:33Z</time>
      </trkpt>
      <trkpt lat="44.41543" lon="1.47906">
        <ele>276.3</ele>
        <time>2021-07-17T13:18:35Z</time>
      </trkpt>
      <trkpt lat="44.4154" lon="1.47905">
        <ele>276.3</ele>
        <time>2021-07-17T13:18:36Z</time>
      </trkpt>
      <trkpt lat="44.41536" lon="1.47904">
        <ele>276.4</ele>
        <time>2021-07-17T13:18:37Z</time>
      </trkpt>
      <trkpt lat="44.41532" lon="1.47902">
        <ele>276.4</ele>
        <time>2021-07-17T13:18:38Z</time>
      </trkpt>
      <trkpt lat="44.41527" lon="1.479">
        <ele>276.5</ele>
        <time>2021-07-17T13:18:40Z</time>
      </trkpt>
      <trkpt lat="44.41525" lon="1.47897">
        <ele>276.5</ele>
        <time>2021-07-17T13:18:41Z</time>
      </trkpt>
      <trkpt lat="44.41523" lon="1.47893">
        <ele>276.5</ele>
        <time>2021-07-17T13:18:42Z</time>
      </trkpt>
      <trkpt lat="44.41519" lon="1.47887">
        <ele>276.5</ele>
        <time>2021-07-17T13:18:44Z</time>
      </trkpt>
      <trkpt lat="44.41518" lon="1.47884">
        <ele>276.5</ele>
        <time>2021-07-17T13:18:45Z</time>
      </trkpt>
      <trkpt lat="44.41515" lon="1.47878">
        <ele>276.5</ele>
        <time>2021-07-17T13:18:47Z</time>
      </trkpt>
      <trkpt lat="44.41513" lon="1.47874">
        <ele>276.5</ele>
        <time>2021-07-17T13:18:48Z</time>
      </trkpt>
      <trkpt lat="44.41511" lon="1.47869">
        <ele>276.5</ele>
        <time>2021-07-17T13:18:49Z</time>
      </trkpt>
      <trkpt lat="44.41509" lon="1.47866">
        <ele>276.5</ele>
        <time>2021-07-17T13:18:50Z</time>
      </trkpt>
      <trkpt lat="44.41507" lon="1.4786">
        <ele>276.5</ele>
        <time>2021-07-17T13:18:52Z</time>
      </trkpt>
      <trkpt lat="44.41506" lon="1.47858">
        <ele>276.6</ele>
        <time>2021-07-17T13:18:53Z</time>
      </trkpt>
      <trkpt lat="44.41505" lon="1.47855">
        <ele>276.6</ele>
        <time>2021-07-17T13:18:54Z</time>
      </trkpt>
      <trkpt lat="44.41503" lon="1.47851">
        <ele>276.7</ele>
        <time>2021-07-17T13:18:55Z</time>
      </trkpt>
      <trkpt lat="44.41503" lon="1.47849">
        <ele>276.7</ele>
        <time>2021-07-17T13:18:56Z</time>
      </trkpt>
      <trkpt lat="44.415" lon="1.47843">
        <ele>276.8</ele>
        <time>2021-07-17T13:18:58Z</time>
      </trkpt>
      <trkpt lat="44.41498" lon="1.47839">
        <ele>276.9</ele>
        <time>2021-07-17T13:18:59Z</time>
      </trkpt>
      <trkpt lat="44.41495" lon="1.47834">
        <ele>277</ele>
        <time>2021-07-17T13:19:01Z</time>
      </trkpt>
      <trkpt lat="44.41492" lon="1.47828">
        <ele>277.2</ele>
        <time>2021-07-17T13:19:02Z</time>
      </trkpt>
      <trkpt lat="44.41491" lon="1.47822">
        <ele>277.3</ele>
        <time>2021-07-17T13:19:03Z</time>
      </trkpt>
      <trkpt lat="44.41489" lon="1.47818">
        <ele>277.4</ele>
        <time>2021-07-17T13:19:04Z</time>
      </trkpt>
      <trkpt lat="44.41487" lon="1.47814">
        <ele>277.5</ele>
        <time>2021-07-17T13:19:06Z</time>
      </trkpt>
      <trkpt lat="44.41485" lon="1.4781">
        <ele>277.7</ele>
        <time>2021-07-17T13:19:07Z</time>
      </trkpt>
      <trkpt lat="44.41484" lon="1.47806">
        <ele>277.8</ele>
        <time>2021-07-17T13:19:08Z</time>
      </trkpt>
      <trkpt lat="44.41482" lon="1.47801">
        <ele>278</ele>
        <time>2021-07-17T13:19:10Z</time>
      </trkpt>
      <trkpt lat="44.4148" lon="1.47797">
        <ele>278.1</ele>
        <time>2021-07-17T13:19:11Z</time>
      </trkpt>
      <trkpt lat="44.41477" lon="1.47793">
        <ele>278.3</ele>
        <time>2021-07-17T13:19:12Z</time>
      </trkpt>
      <trkpt lat="44.41475" lon="1.47786">
        <ele>278.5</ele>
        <time>2021-07-17T13:19:14Z</time>
      </trkpt>
      <trkpt lat="44.41473" lon="1.47782">
        <ele>278.7</ele>
        <time>2021-07-17T13:19:16Z</time>
      </trkpt>
      <trkpt lat="44.4147" lon="1.47779">
        <ele>278.8</ele>
        <time>2021-07-17T13:19:17Z</time>
      </trkpt>
      <trkpt lat="44.41469" lon="1.47776">
        <ele>279</ele>
        <time>2021-07-17T13:19:19Z</time>
      </trkpt>
      <trkpt lat="44.41468" lon="1.4777">
        <ele>279.2</ele>
        <time>2021-07-17T13:19:20Z</time>
      </trkpt>
      <trkpt lat="44.41463" lon="1.47763">
        <ele>279.6</ele>
        <time>2021-07-17T13:19:22Z</time>
      </trkpt>
      <trkpt lat="44.41461" lon="1.4776">
        <ele>279.7</ele>
        <time>2021-07-17T13:19:23Z</time>
      </trkpt>
      <trkpt lat="44.4146" lon="1.47757">
        <ele>279.9</ele>
        <time>2021-07-17T13:19:24Z</time>
      </trkpt>
      <trkpt lat="44.41459" lon="1.47752">
        <ele>280.1</ele>
        <time>2021-07-17T13:19:26Z</time>
      </trkpt>
      <trkpt lat="44.41457" lon="1.47746">
        <ele>280.3</ele>
        <time>2021-07-17T13:19:28Z</time>
      </trkpt>
      <trkpt lat="44.41456" lon="1.47745">
        <ele>280.4</ele>
        <time>2021-07-17T13:19:29Z</time>
      </trkpt>
      <trkpt lat="44.41455" lon="1.47743">
        <ele>280.5</ele>
        <time>2021-07-17T13:19:30Z</time>
      </trkpt>
      <trkpt lat="44.41452" lon="1.47738">
        <ele>280.8</ele>
        <time>2021-07-17T13:19:32Z</time>
      </trkpt>
      <trkpt lat="44.4145" lon="1.47734">
        <ele>280.9</ele>
        <time>2021-07-17T13:19:34Z</time>
      </trkpt>
      <trkpt lat="44.41449" lon="1.4773">
        <ele>281.1</ele>
        <time>2021-07-17T13:19:36Z</time>
      </trkpt>
      <trkpt lat="44.41446" lon="1.47724">
        <ele>281.4</ele>
        <time>2021-07-17T13:19:38Z</time>
      </trkpt>
      <trkpt lat="44.41443" lon="1.47718">
        <ele>281.7</ele>
        <time>2021-07-17T13:19:40Z</time>
      </trkpt>
      <trkpt lat="44.41442" lon="1.47715">
        <ele>281.8</ele>
        <time>2021-07-17T13:19:41Z</time>
      </trkpt>
      <trkpt lat="44.41441" lon="1.47713">
        <ele>281.9</ele>
        <time>2021-07-17T13:19:42Z</time>
      </trkpt>
      <trkpt lat="44.41439" lon="1.47707">
        <ele>282.2</ele>
        <time>2021-07-17T13:19:44Z</time>
      </trkpt>
      <trkpt lat="44.41436" lon="1.47702">
        <ele>282.4</ele>
        <time>2021-07-17T13:19:46Z</time>
      </trkpt>
      <trkpt lat="44.41434" lon="1.47696">
        <ele>282.7</ele>
        <time>2021-07-17T13:19:48Z</time>
      </trkpt>
      <trkpt lat="44.41432" lon="1.47693">
        <ele>282.8</ele>
        <time>2021-07-17T13:19:49Z</time>
      </trkpt>
      <trkpt lat="44.4143" lon="1.47687">
        <ele>283.1</ele>
        <time>2021-07-17T13:19:51Z</time>
      </trkpt>
      <trkpt lat="44.41427" lon="1.47683">
        <ele>283.3</ele>
        <time>2021-07-17T13:19:53Z</time>
      </trkpt>
      <trkpt lat="44.41425" lon="1.4768">
        <ele>283.4</ele>
        <time>2021-07-17T13:19:54Z</time>
      </trkpt>
      <trkpt lat="44.41422" lon="1.47675">
        <ele>283.6</ele>
        <time>2021-07-17T13:19:56Z</time>
      </trkpt>
      <trkpt lat="44.4142" lon="1.47673">
        <ele>283.7</ele>
        <time>2021-07-17T13:19:57Z</time>
      </trkpt>
      <trkpt lat="44.41418" lon="1.47669">
        <ele>283.9</ele>
        <time>2021-07-17T13:19:59Z</time>
      </trkpt>
      <trkpt lat="44.41416" lon="1.47664">
        <ele>284.1</ele>
        <time>2021-07-17T13:20:00Z</time>
      </trkpt>
      <trkpt lat="44.41414" lon="1.47658">
        <ele>284.3</ele>
        <time>2021-07-17T13:20:02Z</time>
      </trkpt>
      <trkpt lat="44.41412" lon="1.47656">
        <ele>284.4</ele>
        <time>2021-07-17T13:20:03Z</time>
      </trkpt>
      <trkpt lat="44.4141" lon="1.47652">
        <ele>284.5</ele>
        <time>2021-07-17T13:20:05Z</time>
      </trkpt>
      <trkpt lat="44.41407" lon="1.47648">
        <ele>284.6</ele>
        <time>2021-07-17T13:20:06Z</time>
      </trkpt>
      <trkpt lat="44.41404" lon="1.47643">
        <ele>284.8</ele>
        <time>2021-07-17T13:20:08Z</time>
      </trkpt>
      <trkpt lat="44.41401" lon="1.47639">
        <ele>284.9</ele>
        <time>2021-07-17T13:20:09Z</time>
      </trkpt>
      <trkpt lat="44.414" lon="1.47636">
        <ele>284.9</ele>
        <time>2021-07-17T13:20:10Z</time>
      </trkpt>
      <trkpt lat="44.41396" lon="1.47632">
        <ele>285.1</ele>
        <time>2021-07-17T13:20:12Z</time>
      </trkpt>
      <trkpt lat="44.41394" lon="1.47629">
        <ele>285.1</ele>
        <time>2021-07-17T13:20:13Z</time>
      </trkpt>
      <trkpt lat="44.41393" lon="1.47625">
        <ele>285.2</ele>
        <time>2021-07-17T13:20:14Z</time>
      </trkpt>
      <trkpt lat="44.4139" lon="1.4762">
        <ele>285.3</ele>
        <time>2021-07-17T13:20:16Z</time>
      </trkpt>
      <trkpt lat="44.41387" lon="1.47617">
        <ele>285.4</ele>
        <time>2021-07-17T13:20:17Z</time>
      </trkpt>
      <trkpt lat="44.41385" lon="1.47614">
        <ele>285.5</ele>
        <time>2021-07-17T13:20:18Z</time>
      </trkpt>
      <trkpt lat="44.41382" lon="1.47607">
        <ele>285.6</ele>
        <time>2021-07-17T13:20:20Z</time>
      </trkpt>
      <trkpt lat="44.41378" lon="1.47602">
        <ele>285.7</ele>
        <time>2021-07-17T13:20:22Z</time>
      </trkpt>
      <trkpt lat="44.41376" lon="1.47598">
        <ele>285.8</ele>
        <time>2021-07-17T13:20:23Z</time>
      </trkpt>
      <trkpt lat="44.41372" lon="1.47592">
        <ele>285.9</ele>
        <time>2021-07-17T13:20:25Z</time>
      </trkpt>
      <trkpt lat="44.4137" lon="1.47589">
        <ele>286</ele>
        <time>2021-07-17T13:20:26Z</time>
      </trkpt>
      <trkpt lat="44.41367" lon="1.47582">
        <ele>286.1</ele>
        <time>2021-07-17T13:20:28Z</time>
      </trkpt>
      <trkpt lat="44.41364" lon="1.47577">
        <ele>286.3</ele>
        <time>2021-07-17T13:20:30Z</time>
      </trkpt>
      <trkpt lat="44.4136" lon="1.47572">
        <ele>286.4</ele>
        <time>2021-07-17T13:20:32Z</time>
      </trkpt>
      <trkpt lat="44.41358" lon="1.47568">
        <ele>286.6</ele>
        <time>2021-07-17T13:20:33Z</time>
      </trkpt>
      <trkpt lat="44.41354" lon="1.47563">
        <ele>286.7</ele>
        <time>2021-07-17T13:20:35Z</time>
      </trkpt>
      <trkpt lat="44.41351" lon="1.47559">
        <ele>286.8</ele>
        <time>2021-07-17T13:20:37Z</time>
      </trkpt>
      <trkpt lat="44.41349" lon="1.47556">
        <ele>286.9</ele>
        <time>2021-07-17T13:20:38Z</time>
      </trkpt>
      <trkpt lat="44.41346" lon="1.47552">
        <ele>287</ele>
        <time>2021-07-17T13:20:39Z</time>
      </trkpt>
      <trkpt lat="44.41344" lon="1.47548">
        <ele>287.1</ele>
        <time>2021-07-17T13:20:40Z</time>
      </trkpt>
      <trkpt lat="44.41342" lon="1.47544">
        <ele>287.2</ele>
        <time>2021-07-17T13:20:41Z</time>
      </trkpt>
      <trkpt lat="44.41339" lon="1.47539">
        <ele>287.3</ele>
        <time>2021-07-17T13:20:43Z</time>
      </trkpt>
      <trkpt lat="44.41337" lon="1.47536">
        <ele>287.4</ele>
        <time>2021-07-17T13:20:44Z</time>
      </trkpt>
      <trkpt lat="44.41335" lon="1.47533">
        <ele>287.5</ele>
        <time>2021-07-17T13:20:45Z</time>
      </trkpt>
      <trkpt lat="44.41332" lon="1.47527">
        <ele>287.6</ele>
        <time>2021-07-17T13:20:47Z</time>
      </trkpt>
      <trkpt lat="44.41328" lon="1.47521">
        <ele>287.7</ele>
        <time>2021-07-17T13:20:49Z</time>
      </trkpt>
      <trkpt lat="44.41326" lon="1.47517">
        <ele>287.8</ele>
        <time>2021-07-17T13:20:50Z</time>
      </trkpt>
      <trkpt lat="44.41323" lon="1.47513">
        <ele>287.9</ele>
        <time>2021-07-17T13:20:52Z</time>
      </trkpt>
      <trkpt lat="44.41321" lon="1.47508">
        <ele>288</ele>
        <time>2021-07-17T13:20:53Z</time>
      </trkpt>
      <trkpt lat="44.41319" lon="1.47504">
        <ele>288.1</ele>
        <time>2021-07-17T13:20:54Z</time>
      </trkpt>
      <trkpt lat="44.41318" lon="1.47501">
        <ele>288.1</ele>
        <time>2021-07-17T13:20:56Z</time>
      </trkpt>
      <trkpt lat="44.41316" lon="1.47498">
        <ele>288.2</ele>
        <time>2021-07-17T13:20:57Z</time>
      </trkpt>
      <trkpt lat="44.41313" lon="1.47493">
        <ele>288.2</ele>
        <time>2021-07-17T13:20:58Z</time>
      </trkpt>
      <trkpt lat="44.41311" lon="1.4749">
        <ele>288.3</ele>
        <time>2021-07-17T13:20:59Z</time>
      </trkpt>
      <trkpt lat="44.41309" lon="1.47485">
        <ele>288.4</ele>
        <time>2021-07-17T13:21:00Z</time>
      </trkpt>
      <trkpt lat="44.41307" lon="1.4748">
        <ele>288.4</ele>
        <time>2021-07-17T13:21:02Z</time>
      </trkpt>
      <trkpt lat="44.41304" lon="1.47476">
        <ele>288.4</ele>
        <time>2021-07-17T13:21:03Z</time>
      </trkpt>
      <trkpt lat="44.41302" lon="1.47472">
        <ele>288.4</ele>
        <time>2021-07-17T13:21:04Z</time>
      </trkpt>
      <trkpt lat="44.413" lon="1.47469">
        <ele>288.4</ele>
        <time>2021-07-17T13:21:05Z</time>
      </trkpt>
      <trkpt lat="44.41298" lon="1.47465">
        <ele>288.4</ele>
        <time>2021-07-17T13:21:06Z</time>
      </trkpt>
      <trkpt lat="44.41296" lon="1.47461">
        <ele>288.4</ele>
        <time>2021-07-17T13:21:07Z</time>
      </trkpt>
      <trkpt lat="44.41294" lon="1.47456">
        <ele>288.4</ele>
        <time>2021-07-17T13:21:09Z</time>
      </trkpt>
      <trkpt lat="44.41292" lon="1.47451">
        <ele>288.3</ele>
        <time>2021-07-17T13:21:10Z</time>
      </trkpt>
      <trkpt lat="44.4129" lon="1.47446">
        <ele>288.3</ele>
        <time>2021-07-17T13:21:11Z</time>
      </trkpt>
      <trkpt lat="44.41288" lon="1.47441">
        <ele>288.2</ele>
        <time>2021-07-17T13:21:12Z</time>
      </trkpt>
      <trkpt lat="44.41286" lon="1.47437">
        <ele>288.1</ele>
        <time>2021-07-17T13:21:14Z</time>
      </trkpt>
      <trkpt lat="44.41283" lon="1.47431">
        <ele>288</ele>
        <time>2021-07-17T13:21:15Z</time>
      </trkpt>
      <trkpt lat="44.4128" lon="1.47425">
        <ele>287.8</ele>
        <time>2021-07-17T13:21:16Z</time>
      </trkpt>
      <trkpt lat="44.41278" lon="1.47418">
        <ele>287.7</ele>
        <time>2021-07-17T13:21:18Z</time>
      </trkpt>
      <trkpt lat="44.41275" lon="1.47409">
        <ele>287.5</ele>
        <time>2021-07-17T13:21:19Z</time>
      </trkpt>
      <trkpt lat="44.41272" lon="1.47403">
        <ele>287.3</ele>
        <time>2021-07-17T13:21:20Z</time>
      </trkpt>
      <trkpt lat="44.41268" lon="1.47391">
        <ele>287.1</ele>
        <time>2021-07-17T13:21:22Z</time>
      </trkpt>
      <trkpt lat="44.41267" lon="1.47385">
        <ele>286.9</ele>
        <time>2021-07-17T13:21:23Z</time>
      </trkpt>
      <trkpt lat="44.41265" lon="1.47379">
        <ele>286.8</ele>
        <time>2021-07-17T13:21:24Z</time>
      </trkpt>
      <trkpt lat="44.41262" lon="1.47367">
        <ele>286.6</ele>
        <time>2021-07-17T13:21:26Z</time>
      </trkpt>
      <trkpt lat="44.41259" lon="1.47355">
        <ele>286.3</ele>
        <time>2021-07-17T13:21:28Z</time>
      </trkpt>
      <trkpt lat="44.41255" lon="1.47344">
        <ele>286.1</ele>
        <time>2021-07-17T13:21:30Z</time>
      </trkpt>
      <trkpt lat="44.41253" lon="1.47336">
        <ele>285.9</ele>
        <time>2021-07-17T13:21:32Z</time>
      </trkpt>
      <trkpt lat="44.41251" lon="1.47328">
        <ele>285.7</ele>
        <time>2021-07-17T13:21:33Z</time>
      </trkpt>
      <trkpt lat="44.41249" lon="1.47321">
        <ele>285.6</ele>
        <time>2021-07-17T13:21:34Z</time>
      </trkpt>
      <trkpt lat="44.41246" lon="1.47313">
        <ele>285.4</ele>
        <time>2021-07-17T13:21:36Z</time>
      </trkpt>
      <trkpt lat="44.41244" lon="1.47307">
        <ele>285.3</ele>
        <time>2021-07-17T13:21:37Z</time>
      </trkpt>
      <trkpt lat="44.41242" lon="1.473">
        <ele>285.1</ele>
        <time>2021-07-17T13:21:38Z</time>
      </trkpt>
      <trkpt lat="44.41239" lon="1.47294">
        <ele>284.9</ele>
        <time>2021-07-17T13:21:39Z</time>
      </trkpt>
      <trkpt lat="44.41235" lon="1.47286">
        <ele>284.7</ele>
        <time>2021-07-17T13:21:41Z</time>
      </trkpt>
      <trkpt lat="44.41231" lon="1.47278">
        <ele>284.4</ele>
        <time>2021-07-17T13:21:42Z</time>
      </trkpt>
      <trkpt lat="44.41227" lon="1.47266">
        <ele>284.1</ele>
        <time>2021-07-17T13:21:44Z</time>
      </trkpt>
      <trkpt lat="44.41222" lon="1.47255">
        <ele>283.7</ele>
        <time>2021-07-17T13:21:46Z</time>
      </trkpt>
      <trkpt lat="44.41219" lon="1.47249">
        <ele>283.5</ele>
        <time>2021-07-17T13:21:47Z</time>
      </trkpt>
      <trkpt lat="44.41216" lon="1.47244">
        <ele>283.3</ele>
        <time>2021-07-17T13:21:48Z</time>
      </trkpt>
      <trkpt lat="44.41211" lon="1.47232">
        <ele>282.9</ele>
        <time>2021-07-17T13:21:50Z</time>
      </trkpt>
      <trkpt lat="44.41205" lon="1.4722">
        <ele>282.5</ele>
        <time>2021-07-17T13:21:52Z</time>
      </trkpt>
      <trkpt lat="44.41199" lon="1.47207">
        <ele>282</ele>
        <time>2021-07-17T13:21:54Z</time>
      </trkpt>
      <trkpt lat="44.41197" lon="1.47201">
        <ele>281.7</ele>
        <time>2021-07-17T13:21:55Z</time>
      </trkpt>
      <trkpt lat="44.41193" lon="1.47194">
        <ele>281.4</ele>
        <time>2021-07-17T13:21:56Z</time>
      </trkpt>
      <trkpt lat="44.41187" lon="1.4718">
        <ele>280.9</ele>
        <time>2021-07-17T13:21:58Z</time>
      </trkpt>
      <trkpt lat="44.41179" lon="1.47166">
        <ele>280.2</ele>
        <time>2021-07-17T13:22:00Z</time>
      </trkpt>
      <trkpt lat="44.41172" lon="1.47151">
        <ele>279.6</ele>
        <time>2021-07-17T13:22:02Z</time>
      </trkpt>
      <trkpt lat="44.41164" lon="1.47136">
        <ele>278.9</ele>
        <time>2021-07-17T13:22:04Z</time>
      </trkpt>
      <trkpt lat="44.41156" lon="1.4712">
        <ele>278.2</ele>
        <time>2021-07-17T13:22:06Z</time>
      </trkpt>
      <trkpt lat="44.41148" lon="1.47105">
        <ele>277.7</ele>
        <time>2021-07-17T13:22:08Z</time>
      </trkpt>
      <trkpt lat="44.4114" lon="1.47091">
        <ele>277.3</ele>
        <time>2021-07-17T13:22:10Z</time>
      </trkpt>
      <trkpt lat="44.41135" lon="1.47085">
        <ele>277</ele>
        <time>2021-07-17T13:22:11Z</time>
      </trkpt>
      <trkpt lat="44.4113" lon="1.47079">
        <ele>276.9</ele>
        <time>2021-07-17T13:22:12Z</time>
      </trkpt>
      <trkpt lat="44.41125" lon="1.47073">
        <ele>276.7</ele>
        <time>2021-07-17T13:22:13Z</time>
      </trkpt>
      <trkpt lat="44.4112" lon="1.47067">
        <ele>276.6</ele>
        <time>2021-07-17T13:22:14Z</time>
      </trkpt>
      <trkpt lat="44.4111" lon="1.47057">
        <ele>276.3</ele>
        <time>2021-07-17T13:22:16Z</time>
      </trkpt>
      <trkpt lat="44.411" lon="1.47047">
        <ele>276.1</ele>
        <time>2021-07-17T13:22:18Z</time>
      </trkpt>
      <trkpt lat="44.41091" lon="1.47037">
        <ele>275.8</ele>
        <time>2021-07-17T13:22:20Z</time>
      </trkpt>
      <trkpt lat="44.41081" lon="1.47025">
        <ele>275.5</ele>
        <time>2021-07-17T13:22:22Z</time>
      </trkpt>
      <trkpt lat="44.41075" lon="1.47019">
        <ele>275.4</ele>
        <time>2021-07-17T13:22:23Z</time>
      </trkpt>
      <trkpt lat="44.4107" lon="1.47013">
        <ele>275.2</ele>
        <time>2021-07-17T13:22:24Z</time>
      </trkpt>
      <trkpt lat="44.4106" lon="1.47003">
        <ele>274.9</ele>
        <time>2021-07-17T13:22:26Z</time>
      </trkpt>
      <trkpt lat="44.4105" lon="1.46993">
        <ele>274.8</ele>
        <time>2021-07-17T13:22:28Z</time>
      </trkpt>
      <trkpt lat="44.41046" lon="1.46987">
        <ele>274.7</ele>
        <time>2021-07-17T13:22:29Z</time>
      </trkpt>
      <trkpt lat="44.41037" lon="1.46978">
        <ele>274.5</ele>
        <time>2021-07-17T13:22:31Z</time>
      </trkpt>
      <trkpt lat="44.41032" lon="1.46974">
        <ele>274.5</ele>
        <time>2021-07-17T13:22:32Z</time>
      </trkpt>
      <trkpt lat="44.41024" lon="1.46966">
        <ele>274.4</ele>
        <time>2021-07-17T13:22:34Z</time>
      </trkpt>
      <trkpt lat="44.41015" lon="1.46959">
        <ele>274.3</ele>
        <time>2021-07-17T13:22:36Z</time>
      </trkpt>
      <trkpt lat="44.41007" lon="1.46955">
        <ele>274.2</ele>
        <time>2021-07-17T13:22:39Z</time>
      </trkpt>
      <trkpt lat="44.40999" lon="1.46951">
        <ele>274.1</ele>
        <time>2021-07-17T13:22:40Z</time>
      </trkpt>
      <trkpt lat="44.40989" lon="1.46948">
        <ele>273.9</ele>
        <time>2021-07-17T13:22:42Z</time>
      </trkpt>
      <trkpt lat="44.40981" lon="1.46945">
        <ele>273.7</ele>
        <time>2021-07-17T13:22:44Z</time>
      </trkpt>
      <trkpt lat="44.40976" lon="1.46945">
        <ele>273.7</ele>
        <time>2021-07-17T13:22:46Z</time>
      </trkpt>
      <trkpt lat="44.40971" lon="1.46942">
        <ele>273.6</ele>
        <time>2021-07-17T13:22:47Z</time>
      </trkpt>
      <trkpt lat="44.40967" lon="1.46939">
        <ele>273.5</ele>
        <time>2021-07-17T13:22:48Z</time>
      </trkpt>
      <trkpt lat="44.40962" lon="1.46935">
        <ele>273.3</ele>
        <time>2021-07-17T13:22:49Z</time>
      </trkpt>
      <trkpt lat="44.40951" lon="1.46928">
        <ele>273.1</ele>
        <time>2021-07-17T13:22:51Z</time>
      </trkpt>
      <trkpt lat="44.40944" lon="1.46924">
        <ele>272.9</ele>
        <time>2021-07-17T13:22:53Z</time>
      </trkpt>
      <trkpt lat="44.40939" lon="1.46921">
        <ele>272.9</ele>
        <time>2021-07-17T13:22:54Z</time>
      </trkpt>
      <trkpt lat="44.40933" lon="1.46916">
        <ele>272.8</ele>
        <time>2021-07-17T13:22:56Z</time>
      </trkpt>
      <trkpt lat="44.40928" lon="1.46911">
        <ele>272.7</ele>
        <time>2021-07-17T13:22:57Z</time>
      </trkpt>
      <trkpt lat="44.40924" lon="1.46907">
        <ele>272.7</ele>
        <time>2021-07-17T13:22:58Z</time>
      </trkpt>
      <trkpt lat="44.40916" lon="1.46902">
        <ele>272.6</ele>
        <time>2021-07-17T13:23:00Z</time>
      </trkpt>
      <trkpt lat="44.40907" lon="1.46896">
        <ele>272.6</ele>
        <time>2021-07-17T13:23:02Z</time>
      </trkpt>
      <trkpt lat="44.40899" lon="1.4689">
        <ele>272.5</ele>
        <time>2021-07-17T13:23:04Z</time>
      </trkpt>
      <trkpt lat="44.40896" lon="1.46887">
        <ele>272.5</ele>
        <time>2021-07-17T13:23:05Z</time>
      </trkpt>
      <trkpt lat="44.40892" lon="1.46885">
        <ele>272.5</ele>
        <time>2021-07-17T13:23:07Z</time>
      </trkpt>
      <trkpt lat="44.40891" lon="1.46885">
        <ele>272.5</ele>
        <time>2021-07-17T13:23:08Z</time>
      </trkpt>
      <trkpt lat="44.40891" lon="1.46885">
        <ele>272.5</ele>
        <time>2021-07-17T13:23:10Z</time>
      </trkpt>
      <trkpt lat="44.40891" lon="1.46884">
        <ele>272.5</ele>
        <time>2021-07-17T13:23:11Z</time>
      </trkpt>
      <trkpt lat="44.40891" lon="1.46884">
        <ele>272.5</ele>
        <time>2021-07-17T13:23:12Z</time>
      </trkpt>
      <trkpt lat="44.40891" lon="1.46884">
        <ele>272.5</ele>
        <time>2021-07-17T13:23:14Z</time>
      </trkpt>
      <trkpt lat="44.40891" lon="1.46884">
        <ele>272.5</ele>
        <time>2021-07-17T13:23:16Z</time>
      </trkpt>
      <trkpt lat="44.40891" lon="1.46884">
        <ele>272.5</ele>
        <time>2021-07-17T13:23:18Z</time>
      </trkpt>
      <trkpt lat="44.40889" lon="1.46883">
        <ele>272.5</ele>
        <time>2021-07-17T13:24:26Z</time>
      </trkpt>
      <trkpt lat="44.40884" lon="1.46879">
        <ele>272.5</ele>
        <time>2021-07-17T13:24:28Z</time>
      </trkpt>
      <trkpt lat="44.40878" lon="1.46874">
        <ele>272.5</ele>
        <time>2021-07-17T13:24:30Z</time>
      </trkpt>
      <trkpt lat="44.40875" lon="1.46871">
        <ele>272.5</ele>
        <time>2021-07-17T13:24:32Z</time>
      </trkpt>
      <trkpt lat="44.40875" lon="1.46871">
        <ele>272.5</ele>
        <time>2021-07-17T13:24:34Z</time>
      </trkpt>
      <trkpt lat="44.40875" lon="1.46871">
        <ele>272.5</ele>
        <time>2021-07-17T13:24:36Z</time>
      </trkpt>
      <trkpt lat="44.40875" lon="1.46871">
        <ele>272.5</ele>
        <time>2021-07-17T13:24:37Z</time>
      </trkpt>
      <trkpt lat="44.40875" lon="1.46871">
        <ele>272.5</ele>
        <time>2021-07-17T13:24:38Z</time>
      </trkpt>
      <trkpt lat="44.40874" lon="1.46871">
        <ele>272.5</ele>
        <time>2021-07-17T13:24:40Z</time>
      </trkpt>
      <trkpt lat="44.40872" lon="1.46868">
        <ele>272.5</ele>
        <time>2021-07-17T13:25:36Z</time>
      </trkpt>
      <trkpt lat="44.40869" lon="1.46864">
        <ele>272.6</ele>
        <time>2021-07-17T13:25:38Z</time>
      </trkpt>
      <trkpt lat="44.40868" lon="1.4686">
        <ele>272.6</ele>
        <time>2021-07-17T13:25:39Z</time>
      </trkpt>
      <trkpt lat="44.40869" lon="1.4686">
        <ele>272.6</ele>
        <time>2021-07-17T13:25:41Z</time>
      </trkpt>
      <trkpt lat="44.40868" lon="1.4686">
        <ele>272.6</ele>
        <time>2021-07-17T13:25:42Z</time>
      </trkpt>
      <trkpt lat="44.40868" lon="1.4686">
        <ele>272.6</ele>
        <time>2021-07-17T13:25:43Z</time>
      </trkpt>
      <trkpt lat="44.40867" lon="1.4686">
        <ele>272.6</ele>
        <time>2021-07-17T13:25:45Z</time>
      </trkpt>
      <trkpt lat="44.40867" lon="1.4686">
        <ele>272.6</ele>
        <time>2021-07-17T13:25:46Z</time>
      </trkpt>
      <trkpt lat="44.40867" lon="1.4686">
        <ele>272.6</ele>
        <time>2021-07-17T13:25:48Z</time>
      </trkpt>
      <trkpt lat="44.40867" lon="1.4686">
        <ele>272.6</ele>
        <time>2021-07-17T13:25:50Z</time>
      </trkpt>
      <trkpt lat="44.40863" lon="1.46856">
        <ele>272.7</ele>
        <time>2021-07-17T13:25:57Z</time>
      </trkpt>
      <trkpt lat="44.40859" lon="1.46854">
        <ele>272.7</ele>
        <time>2021-07-17T13:25:59Z</time>
      </trkpt>
      <trkpt lat="44.40858" lon="1.46854">
        <ele>272.7</ele>
        <time>2021-07-17T13:26:00Z</time>
      </trkpt>
      <trkpt lat="44.40853" lon="1.46853">
        <ele>272.7</ele>
        <time>2021-07-17T13:26:02Z</time>
      </trkpt>
      <trkpt lat="44.40847" lon="1.46853">
        <ele>272.7</ele>
        <time>2021-07-17T13:26:04Z</time>
      </trkpt>
      <trkpt lat="44.40843" lon="1.46852">
        <ele>272.7</ele>
        <time>2021-07-17T13:26:05Z</time>
      </trkpt>
      <trkpt lat="44.4084" lon="1.46852">
        <ele>272.7</ele>
        <time>2021-07-17T13:26:06Z</time>
      </trkpt>
      <trkpt lat="44.40832" lon="1.46852">
        <ele>272.7</ele>
        <time>2021-07-17T13:26:08Z</time>
      </trkpt>
      <trkpt lat="44.40825" lon="1.46851">
        <ele>272.7</ele>
        <time>2021-07-17T13:26:10Z</time>
      </trkpt>
      <trkpt lat="44.40817" lon="1.4685">
        <ele>272.6</ele>
        <time>2021-07-17T13:26:12Z</time>
      </trkpt>
      <trkpt lat="44.4081" lon="1.4685">
        <ele>272.6</ele>
        <time>2021-07-17T13:26:14Z</time>
      </trkpt>
      <trkpt lat="44.40805" lon="1.46849">
        <ele>272.6</ele>
        <time>2021-07-17T13:26:16Z</time>
      </trkpt>
      <trkpt lat="44.40801" lon="1.46849">
        <ele>272.6</ele>
        <time>2021-07-17T13:26:17Z</time>
      </trkpt>
      <trkpt lat="44.40796" lon="1.46849">
        <ele>272.6</ele>
        <time>2021-07-17T13:26:18Z</time>
      </trkpt>
      <trkpt lat="44.4079" lon="1.46848">
        <ele>272.6</ele>
        <time>2021-07-17T13:26:20Z</time>
      </trkpt>
      <trkpt lat="44.40785" lon="1.46848">
        <ele>272.6</ele>
        <time>2021-07-17T13:26:21Z</time>
      </trkpt>
      <trkpt lat="44.40781" lon="1.46848">
        <ele>272.7</ele>
        <time>2021-07-17T13:26:22Z</time>
      </trkpt>
      <trkpt lat="44.40777" lon="1.46848">
        <ele>272.7</ele>
        <time>2021-07-17T13:26:23Z</time>
      </trkpt>
      <trkpt lat="44.40773" lon="1.46847">
        <ele>272.7</ele>
        <time>2021-07-17T13:26:25Z</time>
      </trkpt>
      <trkpt lat="44.40768" lon="1.46848">
        <ele>272.7</ele>
        <time>2021-07-17T13:26:26Z</time>
      </trkpt>
      <trkpt lat="44.40764" lon="1.46847">
        <ele>272.7</ele>
        <time>2021-07-17T13:26:27Z</time>
      </trkpt>
      <trkpt lat="44.40757" lon="1.46847">
        <ele>272.7</ele>
        <time>2021-07-17T13:26:29Z</time>
      </trkpt>
      <trkpt lat="44.40753" lon="1.46846">
        <ele>272.7</ele>
        <time>2021-07-17T13:26:30Z</time>
      </trkpt>
      <trkpt lat="44.40749" lon="1.46846">
        <ele>272.7</ele>
        <time>2021-07-17T13:26:31Z</time>
      </trkpt>
      <trkpt lat="44.40746" lon="1.46846">
        <ele>272.7</ele>
        <time>2021-07-17T13:26:32Z</time>
      </trkpt>
      <trkpt lat="44.40739" lon="1.46846">
        <ele>272.8</ele>
        <time>2021-07-17T13:26:34Z</time>
      </trkpt>
      <trkpt lat="44.40735" lon="1.46845">
        <ele>272.8</ele>
        <time>2021-07-17T13:26:35Z</time>
      </trkpt>
      <trkpt lat="44.40731" lon="1.46845">
        <ele>272.8</ele>
        <time>2021-07-17T13:26:36Z</time>
      </trkpt>
      <trkpt lat="44.40725" lon="1.46845">
        <ele>272.8</ele>
        <time>2021-07-17T13:26:38Z</time>
      </trkpt>
      <trkpt lat="44.40719" lon="1.46844">
        <ele>272.8</ele>
        <time>2021-07-17T13:26:39Z</time>
      </trkpt>
      <trkpt lat="44.40716" lon="1.46844">
        <ele>272.8</ele>
        <time>2021-07-17T13:26:40Z</time>
      </trkpt>
      <trkpt lat="44.40707" lon="1.46843">
        <ele>272.8</ele>
        <time>2021-07-17T13:26:42Z</time>
      </trkpt>
      <trkpt lat="44.407" lon="1.46843">
        <ele>272.8</ele>
        <time>2021-07-17T13:26:44Z</time>
      </trkpt>
      <trkpt lat="44.40696" lon="1.46843">
        <ele>272.8</ele>
        <time>2021-07-17T13:26:45Z</time>
      </trkpt>
      <trkpt lat="44.40691" lon="1.46842">
        <ele>272.8</ele>
        <time>2021-07-17T13:26:46Z</time>
      </trkpt>
      <trkpt lat="44.40685" lon="1.46841">
        <ele>272.7</ele>
        <time>2021-07-17T13:26:48Z</time>
      </trkpt>
      <trkpt lat="44.40679" lon="1.46841">
        <ele>272.7</ele>
        <time>2021-07-17T13:26:49Z</time>
      </trkpt>
      <trkpt lat="44.40675" lon="1.46841">
        <ele>272.7</ele>
        <time>2021-07-17T13:26:50Z</time>
      </trkpt>
      <trkpt lat="44.40671" lon="1.4684">
        <ele>272.7</ele>
        <time>2021-07-17T13:26:51Z</time>
      </trkpt>
      <trkpt lat="44.40665" lon="1.46837">
        <ele>272.7</ele>
        <time>2021-07-17T13:26:53Z</time>
      </trkpt>
      <trkpt lat="44.40659" lon="1.46835">
        <ele>272.7</ele>
        <time>2021-07-17T13:26:54Z</time>
      </trkpt>
      <trkpt lat="44.40655" lon="1.46833">
        <ele>272.7</ele>
        <time>2021-07-17T13:26:55Z</time>
      </trkpt>
      <trkpt lat="44.40648" lon="1.4683">
        <ele>272.7</ele>
        <time>2021-07-17T13:26:57Z</time>
      </trkpt>
      <trkpt lat="44.40644" lon="1.46828">
        <ele>272.7</ele>
        <time>2021-07-17T13:26:58Z</time>
      </trkpt>
      <trkpt lat="44.4064" lon="1.46825">
        <ele>272.8</ele>
        <time>2021-07-17T13:26:59Z</time>
      </trkpt>
      <trkpt lat="44.40634" lon="1.46821">
        <ele>272.8</ele>
        <time>2021-07-17T13:27:01Z</time>
      </trkpt>
      <trkpt lat="44.40631" lon="1.46817">
        <ele>272.8</ele>
        <time>2021-07-17T13:27:02Z</time>
      </trkpt>
      <trkpt lat="44.40625" lon="1.46812">
        <ele>272.9</ele>
        <time>2021-07-17T13:27:04Z</time>
      </trkpt>
      <trkpt lat="44.40621" lon="1.46808">
        <ele>272.9</ele>
        <time>2021-07-17T13:27:05Z</time>
      </trkpt>
      <trkpt lat="44.40617" lon="1.46805">
        <ele>272.9</ele>
        <time>2021-07-17T13:27:06Z</time>
      </trkpt>
      <trkpt lat="44.40613" lon="1.468">
        <ele>273</ele>
        <time>2021-07-17T13:27:07Z</time>
      </trkpt>
      <trkpt lat="44.4061" lon="1.46797">
        <ele>273</ele>
        <time>2021-07-17T13:27:08Z</time>
      </trkpt>
      <trkpt lat="44.40606" lon="1.46792">
        <ele>273</ele>
        <time>2021-07-17T13:27:10Z</time>
      </trkpt>
      <trkpt lat="44.40602" lon="1.46788">
        <ele>273.1</ele>
        <time>2021-07-17T13:27:11Z</time>
      </trkpt>
      <trkpt lat="44.40597" lon="1.46783">
        <ele>273.1</ele>
        <time>2021-07-17T13:27:12Z</time>
      </trkpt>
      <trkpt lat="44.40593" lon="1.4678">
        <ele>273.2</ele>
        <time>2021-07-17T13:27:13Z</time>
      </trkpt>
      <trkpt lat="44.4059" lon="1.46776">
        <ele>273.2</ele>
        <time>2021-07-17T13:27:14Z</time>
      </trkpt>
      <trkpt lat="44.40586" lon="1.46772">
        <ele>273.2</ele>
        <time>2021-07-17T13:27:16Z</time>
      </trkpt>
      <trkpt lat="44.4058" lon="1.46767">
        <ele>273.2</ele>
        <time>2021-07-17T13:27:17Z</time>
      </trkpt>
      <trkpt lat="44.40576" lon="1.46762">
        <ele>273.2</ele>
        <time>2021-07-17T13:27:19Z</time>
      </trkpt>
      <trkpt lat="44.40573" lon="1.46758">
        <ele>273.2</ele>
        <time>2021-07-17T13:27:20Z</time>
      </trkpt>
      <trkpt lat="44.40568" lon="1.46754">
        <ele>273.2</ele>
        <time>2021-07-17T13:27:21Z</time>
      </trkpt>
      <trkpt lat="44.40565" lon="1.4675">
        <ele>273.2</ele>
        <time>2021-07-17T13:27:22Z</time>
      </trkpt>
      <trkpt lat="44.4056" lon="1.46745">
        <ele>273.2</ele>
        <time>2021-07-17T13:27:24Z</time>
      </trkpt>
      <trkpt lat="44.40555" lon="1.46741">
        <ele>273.2</ele>
        <time>2021-07-17T13:27:25Z</time>
      </trkpt>
      <trkpt lat="44.40552" lon="1.46738">
        <ele>273.2</ele>
        <time>2021-07-17T13:27:26Z</time>
      </trkpt>
      <trkpt lat="44.40547" lon="1.46733">
        <ele>273.1</ele>
        <time>2021-07-17T13:27:28Z</time>
      </trkpt>
      <trkpt lat="44.40543" lon="1.46729">
        <ele>273.1</ele>
        <time>2021-07-17T13:27:29Z</time>
      </trkpt>
      <trkpt lat="44.40539" lon="1.46726">
        <ele>273.1</ele>
        <time>2021-07-17T13:27:30Z</time>
      </trkpt>
      <trkpt lat="44.40535" lon="1.46722">
        <ele>273.1</ele>
        <time>2021-07-17T13:27:31Z</time>
      </trkpt>
      <trkpt lat="44.40532" lon="1.46719">
        <ele>273.1</ele>
        <time>2021-07-17T13:27:32Z</time>
      </trkpt>
      <trkpt lat="44.40526" lon="1.46713">
        <ele>273.1</ele>
        <time>2021-07-17T13:27:34Z</time>
      </trkpt>
      <trkpt lat="44.40522" lon="1.46711">
        <ele>273.1</ele>
        <time>2021-07-17T13:27:35Z</time>
      </trkpt>
      <trkpt lat="44.40517" lon="1.46708">
        <ele>273.1</ele>
        <time>2021-07-17T13:27:37Z</time>
      </trkpt>
      <trkpt lat="44.40512" lon="1.46705">
        <ele>273.1</ele>
        <time>2021-07-17T13:27:38Z</time>
      </trkpt>
      <trkpt lat="44.40505" lon="1.46703">
        <ele>273</ele>
        <time>2021-07-17T13:27:40Z</time>
      </trkpt>
      <trkpt lat="44.405" lon="1.46702">
        <ele>273</ele>
        <time>2021-07-17T13:27:41Z</time>
      </trkpt>
      <trkpt lat="44.40496" lon="1.46702">
        <ele>272.9</ele>
        <time>2021-07-17T13:27:42Z</time>
      </trkpt>
      <trkpt lat="44.40492" lon="1.46702">
        <ele>272.8</ele>
        <time>2021-07-17T13:27:44Z</time>
      </trkpt>
      <trkpt lat="44.40487" lon="1.46701">
        <ele>272.8</ele>
        <time>2021-07-17T13:27:45Z</time>
      </trkpt>
      <trkpt lat="44.40481" lon="1.467">
        <ele>272.7</ele>
        <time>2021-07-17T13:27:46Z</time>
      </trkpt>
      <trkpt lat="44.40475" lon="1.46698">
        <ele>272.6</ele>
        <time>2021-07-17T13:27:48Z</time>
      </trkpt>
      <trkpt lat="44.40469" lon="1.46695">
        <ele>272.6</ele>
        <time>2021-07-17T13:27:49Z</time>
      </trkpt>
      <trkpt lat="44.40465" lon="1.46692">
        <ele>272.5</ele>
        <time>2021-07-17T13:27:50Z</time>
      </trkpt>
      <trkpt lat="44.4046" lon="1.46685">
        <ele>272.2</ele>
        <time>2021-07-17T13:27:52Z</time>
      </trkpt>
      <trkpt lat="44.40456" lon="1.4668">
        <ele>272.1</ele>
        <time>2021-07-17T13:27:53Z</time>
      </trkpt>
      <trkpt lat="44.40453" lon="1.46676">
        <ele>271.9</ele>
        <time>2021-07-17T13:27:54Z</time>
      </trkpt>
      <trkpt lat="44.4045" lon="1.46671">
        <ele>271.8</ele>
        <time>2021-07-17T13:27:55Z</time>
      </trkpt>
      <trkpt lat="44.40447" lon="1.46666">
        <ele>271.6</ele>
        <time>2021-07-17T13:27:56Z</time>
      </trkpt>
      <trkpt lat="44.4044" lon="1.46655">
        <ele>271.2</ele>
        <time>2021-07-17T13:27:58Z</time>
      </trkpt>
      <trkpt lat="44.40432" lon="1.46646">
        <ele>270.9</ele>
        <time>2021-07-17T13:28:00Z</time>
      </trkpt>
      <trkpt lat="44.40429" lon="1.46641">
        <ele>270.7</ele>
        <time>2021-07-17T13:28:01Z</time>
      </trkpt>
      <trkpt lat="44.40425" lon="1.46636">
        <ele>270.6</ele>
        <time>2021-07-17T13:28:02Z</time>
      </trkpt>
      <trkpt lat="44.40418" lon="1.46626">
        <ele>270.5</ele>
        <time>2021-07-17T13:28:04Z</time>
      </trkpt>
      <trkpt lat="44.40415" lon="1.46621">
        <ele>270.4</ele>
        <time>2021-07-17T13:28:05Z</time>
      </trkpt>
      <trkpt lat="44.40411" lon="1.46616">
        <ele>270.3</ele>
        <time>2021-07-17T13:28:06Z</time>
      </trkpt>
      <trkpt lat="44.40408" lon="1.46611">
        <ele>270.2</ele>
        <time>2021-07-17T13:28:07Z</time>
      </trkpt>
      <trkpt lat="44.40404" lon="1.46607">
        <ele>270.2</ele>
        <time>2021-07-17T13:28:08Z</time>
      </trkpt>
      <trkpt lat="44.40398" lon="1.46598">
        <ele>270.1</ele>
        <time>2021-07-17T13:28:10Z</time>
      </trkpt>
      <trkpt lat="44.40391" lon="1.46589">
        <ele>269.9</ele>
        <time>2021-07-17T13:28:12Z</time>
      </trkpt>
      <trkpt lat="44.40388" lon="1.46585">
        <ele>269.9</ele>
        <time>2021-07-17T13:28:13Z</time>
      </trkpt>
      <trkpt lat="44.40385" lon="1.4658">
        <ele>269.8</ele>
        <time>2021-07-17T13:28:14Z</time>
      </trkpt>
      <trkpt lat="44.4038" lon="1.46572">
        <ele>269.7</ele>
        <time>2021-07-17T13:28:16Z</time>
      </trkpt>
      <trkpt lat="44.40374" lon="1.46564">
        <ele>269.5</ele>
        <time>2021-07-17T13:28:18Z</time>
      </trkpt>
      <trkpt lat="44.40371" lon="1.4656">
        <ele>269.4</ele>
        <time>2021-07-17T13:28:19Z</time>
      </trkpt>
      <trkpt lat="44.40368" lon="1.46556">
        <ele>269.3</ele>
        <time>2021-07-17T13:28:20Z</time>
      </trkpt>
      <trkpt lat="44.40362" lon="1.46546">
        <ele>269.1</ele>
        <time>2021-07-17T13:28:22Z</time>
      </trkpt>
      <trkpt lat="44.40359" lon="1.46542">
        <ele>269</ele>
        <time>2021-07-17T13:28:23Z</time>
      </trkpt>
      <trkpt lat="44.40352" lon="1.46533">
        <ele>268.7</ele>
        <time>2021-07-17T13:28:25Z</time>
      </trkpt>
      <trkpt lat="44.40346" lon="1.46523">
        <ele>268.4</ele>
        <time>2021-07-17T13:28:27Z</time>
      </trkpt>
      <trkpt lat="44.40342" lon="1.46518">
        <ele>268.2</ele>
        <time>2021-07-17T13:28:28Z</time>
      </trkpt>
      <trkpt lat="44.40338" lon="1.46513">
        <ele>268</ele>
        <time>2021-07-17T13:28:29Z</time>
      </trkpt>
      <trkpt lat="44.40334" lon="1.46508">
        <ele>267.9</ele>
        <time>2021-07-17T13:28:30Z</time>
      </trkpt>
      <trkpt lat="44.40327" lon="1.46497">
        <ele>267.4</ele>
        <time>2021-07-17T13:28:32Z</time>
      </trkpt>
      <trkpt lat="44.4032" lon="1.46485">
        <ele>267</ele>
        <time>2021-07-17T13:28:34Z</time>
      </trkpt>
      <trkpt lat="44.40317" lon="1.4647">
        <ele>266.5</ele>
        <time>2021-07-17T13:28:36Z</time>
      </trkpt>
      <trkpt lat="44.40319" lon="1.46453">
        <ele>266.2</ele>
        <time>2021-07-17T13:28:38Z</time>
      </trkpt>
      <trkpt lat="44.40323" lon="1.46438">
        <ele>265.9</ele>
        <time>2021-07-17T13:28:40Z</time>
      </trkpt>
      <trkpt lat="44.40324" lon="1.4643">
        <ele>265.7</ele>
        <time>2021-07-17T13:28:41Z</time>
      </trkpt>
      <trkpt lat="44.40325" lon="1.46423">
        <ele>265.5</ele>
        <time>2021-07-17T13:28:42Z</time>
      </trkpt>
      <trkpt lat="44.40328" lon="1.46407">
        <ele>265.2</ele>
        <time>2021-07-17T13:28:44Z</time>
      </trkpt>
      <trkpt lat="44.4033" lon="1.46391">
        <ele>264.7</ele>
        <time>2021-07-17T13:28:46Z</time>
      </trkpt>
      <trkpt lat="44.40333" lon="1.46375">
        <ele>264.3</ele>
        <time>2021-07-17T13:28:48Z</time>
      </trkpt>
      <trkpt lat="44.40334" lon="1.46367">
        <ele>264.1</ele>
        <time>2021-07-17T13:28:49Z</time>
      </trkpt>
      <trkpt lat="44.40335" lon="1.46359">
        <ele>263.8</ele>
        <time>2021-07-17T13:28:50Z</time>
      </trkpt>
      <trkpt lat="44.40338" lon="1.46343">
        <ele>263.3</ele>
        <time>2021-07-17T13:28:52Z</time>
      </trkpt>
      <trkpt lat="44.40339" lon="1.46335">
        <ele>263</ele>
        <time>2021-07-17T13:28:53Z</time>
      </trkpt>
      <trkpt lat="44.40341" lon="1.46328">
        <ele>262.8</ele>
        <time>2021-07-17T13:28:54Z</time>
      </trkpt>
      <trkpt lat="44.40342" lon="1.4632">
        <ele>262.6</ele>
        <time>2021-07-17T13:28:55Z</time>
      </trkpt>
      <trkpt lat="44.40344" lon="1.46312">
        <ele>262.3</ele>
        <time>2021-07-17T13:28:56Z</time>
      </trkpt>
      <trkpt lat="44.40346" lon="1.46296">
        <ele>261.9</ele>
        <time>2021-07-17T13:28:58Z</time>
      </trkpt>
      <trkpt lat="44.40348" lon="1.46279">
        <ele>261.5</ele>
        <time>2021-07-17T13:29:00Z</time>
      </trkpt>
      <trkpt lat="44.40349" lon="1.46269">
        <ele>261.3</ele>
        <time>2021-07-17T13:29:01Z</time>
      </trkpt>
      <trkpt lat="44.40351" lon="1.4626">
        <ele>261.1</ele>
        <time>2021-07-17T13:29:02Z</time>
      </trkpt>
      <trkpt lat="44.40353" lon="1.46242">
        <ele>260.8</ele>
        <time>2021-07-17T13:29:04Z</time>
      </trkpt>
      <trkpt lat="44.40355" lon="1.46234">
        <ele>260.8</ele>
        <time>2021-07-17T13:29:05Z</time>
      </trkpt>
      <trkpt lat="44.40356" lon="1.46227">
        <ele>260.7</ele>
        <time>2021-07-17T13:29:06Z</time>
      </trkpt>
      <trkpt lat="44.40357" lon="1.46214">
        <ele>260.6</ele>
        <time>2021-07-17T13:29:08Z</time>
      </trkpt>
      <trkpt lat="44.40359" lon="1.46202">
        <ele>260.7</ele>
        <time>2021-07-17T13:29:10Z</time>
      </trkpt>
      <trkpt lat="44.4036" lon="1.46191">
        <ele>260.7</ele>
        <time>2021-07-17T13:29:12Z</time>
      </trkpt>
      <trkpt lat="44.40361" lon="1.46179">
        <ele>260.8</ele>
        <time>2021-07-17T13:29:14Z</time>
      </trkpt>
      <trkpt lat="44.40361" lon="1.46166">
        <ele>260.9</ele>
        <time>2021-07-17T13:29:16Z</time>
      </trkpt>
      <trkpt lat="44.40363" lon="1.46152">
        <ele>261.1</ele>
        <time>2021-07-17T13:29:18Z</time>
      </trkpt>
      <trkpt lat="44.40363" lon="1.46146">
        <ele>261.2</ele>
        <time>2021-07-17T13:29:19Z</time>
      </trkpt>
      <trkpt lat="44.40364" lon="1.46139">
        <ele>261.4</ele>
        <time>2021-07-17T13:29:20Z</time>
      </trkpt>
      <trkpt lat="44.40364" lon="1.46132">
        <ele>261.5</ele>
        <time>2021-07-17T13:29:22Z</time>
      </trkpt>
      <trkpt lat="44.40363" lon="1.46129">
        <ele>261.6</ele>
        <time>2021-07-17T13:29:23Z</time>
      </trkpt>
      <trkpt lat="44.40363" lon="1.46122">
        <ele>261.7</ele>
        <time>2021-07-17T13:29:24Z</time>
      </trkpt>
      <trkpt lat="44.40363" lon="1.46115">
        <ele>261.9</ele>
        <time>2021-07-17T13:29:25Z</time>
      </trkpt>
      <trkpt lat="44.40364" lon="1.46108">
        <ele>262</ele>
        <time>2021-07-17T13:29:26Z</time>
      </trkpt>
      <trkpt lat="44.40366" lon="1.46098">
        <ele>262.3</ele>
        <time>2021-07-17T13:29:28Z</time>
      </trkpt>
      <trkpt lat="44.40368" lon="1.46091">
        <ele>262.6</ele>
        <time>2021-07-17T13:29:29Z</time>
      </trkpt>
      <trkpt lat="44.40371" lon="1.46086">
        <ele>262.7</ele>
        <time>2021-07-17T13:29:30Z</time>
      </trkpt>
      <trkpt lat="44.40377" lon="1.46079">
        <ele>263.1</ele>
        <time>2021-07-17T13:29:32Z</time>
      </trkpt>
      <trkpt lat="44.40381" lon="1.46075">
        <ele>263.3</ele>
        <time>2021-07-17T13:29:33Z</time>
      </trkpt>
      <trkpt lat="44.40384" lon="1.46071">
        <ele>263.4</ele>
        <time>2021-07-17T13:29:34Z</time>
      </trkpt>
      <trkpt lat="44.40388" lon="1.46064">
        <ele>263.6</ele>
        <time>2021-07-17T13:29:36Z</time>
      </trkpt>
      <trkpt lat="44.40392" lon="1.46059">
        <ele>263.9</ele>
        <time>2021-07-17T13:29:37Z</time>
      </trkpt>
      <trkpt lat="44.40397" lon="1.46054">
        <ele>264.1</ele>
        <time>2021-07-17T13:29:39Z</time>
      </trkpt>
      <trkpt lat="44.404" lon="1.46049">
        <ele>264.3</ele>
        <time>2021-07-17T13:29:40Z</time>
      </trkpt>
      <trkpt lat="44.40403" lon="1.46045">
        <ele>264.5</ele>
        <time>2021-07-17T13:29:41Z</time>
      </trkpt>
      <trkpt lat="44.40406" lon="1.46041">
        <ele>264.7</ele>
        <time>2021-07-17T13:29:42Z</time>
      </trkpt>
      <trkpt lat="44.40408" lon="1.46036">
        <ele>264.8</ele>
        <time>2021-07-17T13:29:43Z</time>
      </trkpt>
      <trkpt lat="44.40412" lon="1.46029">
        <ele>265.1</ele>
        <time>2021-07-17T13:29:45Z</time>
      </trkpt>
      <trkpt lat="44.40414" lon="1.46024">
        <ele>265.2</ele>
        <time>2021-07-17T13:29:46Z</time>
      </trkpt>
      <trkpt lat="44.40416" lon="1.46019">
        <ele>265.3</ele>
        <time>2021-07-17T13:29:47Z</time>
      </trkpt>
      <trkpt lat="44.40417" lon="1.46014">
        <ele>265.5</ele>
        <time>2021-07-17T13:29:48Z</time>
      </trkpt>
      <trkpt lat="44.40418" lon="1.46009">
        <ele>265.6</ele>
        <time>2021-07-17T13:29:49Z</time>
      </trkpt>
      <trkpt lat="44.40419" lon="1.46004">
        <ele>265.7</ele>
        <time>2021-07-17T13:29:50Z</time>
      </trkpt>
      <trkpt lat="44.40419" lon="1.45996">
        <ele>265.8</ele>
        <time>2021-07-17T13:29:52Z</time>
      </trkpt>
      <trkpt lat="44.40422" lon="1.45991">
        <ele>265.9</ele>
        <time>2021-07-17T13:29:53Z</time>
      </trkpt>
      <trkpt lat="44.40424" lon="1.45989">
        <ele>266</ele>
        <time>2021-07-17T13:29:55Z</time>
      </trkpt>
      <trkpt lat="44.40426" lon="1.45986">
        <ele>266</ele>
        <time>2021-07-17T13:29:56Z</time>
      </trkpt>
      <trkpt lat="44.40428" lon="1.45981">
        <ele>266.1</ele>
        <time>2021-07-17T13:29:57Z</time>
      </trkpt>
      <trkpt lat="44.40429" lon="1.4598">
        <ele>266.1</ele>
        <time>2021-07-17T13:29:58Z</time>
      </trkpt>
      <trkpt lat="44.40431" lon="1.45977">
        <ele>266.1</ele>
        <time>2021-07-17T13:29:59Z</time>
      </trkpt>
      <trkpt lat="44.40433" lon="1.45975">
        <ele>266.2</ele>
        <time>2021-07-17T13:30:01Z</time>
      </trkpt>
      <trkpt lat="44.40433" lon="1.45972">
        <ele>266.2</ele>
        <time>2021-07-17T13:30:02Z</time>
      </trkpt>
      <trkpt lat="44.40431" lon="1.45967">
        <ele>266.3</ele>
        <time>2021-07-17T13:30:04Z</time>
      </trkpt>
      <trkpt lat="44.40432" lon="1.45964">
        <ele>266.3</ele>
        <time>2021-07-17T13:30:05Z</time>
      </trkpt>
      <trkpt lat="44.40434" lon="1.45962">
        <ele>266.4</ele>
        <time>2021-07-17T13:30:06Z</time>
      </trkpt>
      <trkpt lat="44.40436" lon="1.4596">
        <ele>266.4</ele>
        <time>2021-07-17T13:30:08Z</time>
      </trkpt>
      <trkpt lat="44.40437" lon="1.45958">
        <ele>266.4</ele>
        <time>2021-07-17T13:30:09Z</time>
      </trkpt>
      <trkpt lat="44.40437" lon="1.45956">
        <ele>266.4</ele>
        <time>2021-07-17T13:30:10Z</time>
      </trkpt>
      <trkpt lat="44.40439" lon="1.45955">
        <ele>266.5</ele>
        <time>2021-07-17T13:30:11Z</time>
      </trkpt>
      <trkpt lat="44.40441" lon="1.45953">
        <ele>266.5</ele>
        <time>2021-07-17T13:30:13Z</time>
      </trkpt>
      <trkpt lat="44.40443" lon="1.4595">
        <ele>266.5</ele>
        <time>2021-07-17T13:30:14Z</time>
      </trkpt>
      <trkpt lat="44.40446" lon="1.45947">
        <ele>266.6</ele>
        <time>2021-07-17T13:30:15Z</time>
      </trkpt>
      <trkpt lat="44.40447" lon="1.45945">
        <ele>266.6</ele>
        <time>2021-07-17T13:30:16Z</time>
      </trkpt>
      <trkpt lat="44.40449" lon="1.45942">
        <ele>266.7</ele>
        <time>2021-07-17T13:30:17Z</time>
      </trkpt>
      <trkpt lat="44.4045" lon="1.4594">
        <ele>266.7</ele>
        <time>2021-07-17T13:30:18Z</time>
      </trkpt>
      <trkpt lat="44.40452" lon="1.45936">
        <ele>266.8</ele>
        <time>2021-07-17T13:30:20Z</time>
      </trkpt>
      <trkpt lat="44.40454" lon="1.45933">
        <ele>266.8</ele>
        <time>2021-07-17T13:30:21Z</time>
      </trkpt>
      <trkpt lat="44.40454" lon="1.45932">
        <ele>266.8</ele>
        <time>2021-07-17T13:30:22Z</time>
      </trkpt>
      <trkpt lat="44.40457" lon="1.45929">
        <ele>266.9</ele>
        <time>2021-07-17T13:30:24Z</time>
      </trkpt>
      <trkpt lat="44.4046" lon="1.45924">
        <ele>266.9</ele>
        <time>2021-07-17T13:30:26Z</time>
      </trkpt>
      <trkpt lat="44.40462" lon="1.4592">
        <ele>267</ele>
        <time>2021-07-17T13:30:27Z</time>
      </trkpt>
      <trkpt lat="44.40465" lon="1.45916">
        <ele>267</ele>
        <time>2021-07-17T13:30:28Z</time>
      </trkpt>
      <trkpt lat="44.40467" lon="1.45913">
        <ele>267.1</ele>
        <time>2021-07-17T13:30:29Z</time>
      </trkpt>
      <trkpt lat="44.40469" lon="1.4591">
        <ele>267.1</ele>
        <time>2021-07-17T13:30:30Z</time>
      </trkpt>
      <trkpt lat="44.40471" lon="1.45907">
        <ele>267.2</ele>
        <time>2021-07-17T13:30:31Z</time>
      </trkpt>
      <trkpt lat="44.40473" lon="1.45904">
        <ele>267.2</ele>
        <time>2021-07-17T13:30:33Z</time>
      </trkpt>
      <trkpt lat="44.40475" lon="1.45901">
        <ele>267.3</ele>
        <time>2021-07-17T13:30:34Z</time>
      </trkpt>
      <trkpt lat="44.40478" lon="1.45897">
        <ele>267.3</ele>
        <time>2021-07-17T13:30:35Z</time>
      </trkpt>
      <trkpt lat="44.40481" lon="1.45893">
        <ele>267.4</ele>
        <time>2021-07-17T13:30:36Z</time>
      </trkpt>
      <trkpt lat="44.40484" lon="1.4589">
        <ele>267.5</ele>
        <time>2021-07-17T13:30:37Z</time>
      </trkpt>
      <trkpt lat="44.40486" lon="1.45888">
        <ele>267.5</ele>
        <time>2021-07-17T13:30:38Z</time>
      </trkpt>
      <trkpt lat="44.40489" lon="1.45885">
        <ele>267.6</ele>
        <time>2021-07-17T13:30:39Z</time>
      </trkpt>
      <trkpt lat="44.40491" lon="1.45882">
        <ele>267.6</ele>
        <time>2021-07-17T13:30:41Z</time>
      </trkpt>
      <trkpt lat="44.40495" lon="1.45879">
        <ele>267.7</ele>
        <time>2021-07-17T13:30:42Z</time>
      </trkpt>
      <trkpt lat="44.40499" lon="1.45875">
        <ele>267.7</ele>
        <time>2021-07-17T13:30:43Z</time>
      </trkpt>
      <trkpt lat="44.40501" lon="1.45872">
        <ele>267.8</ele>
        <time>2021-07-17T13:30:44Z</time>
      </trkpt>
      <trkpt lat="44.40504" lon="1.45869">
        <ele>267.8</ele>
        <time>2021-07-17T13:30:46Z</time>
      </trkpt>
      <trkpt lat="44.40507" lon="1.45866">
        <ele>267.9</ele>
        <time>2021-07-17T13:30:47Z</time>
      </trkpt>
      <trkpt lat="44.4051" lon="1.45862">
        <ele>267.9</ele>
        <time>2021-07-17T13:30:48Z</time>
      </trkpt>
      <trkpt lat="44.40513" lon="1.45859">
        <ele>268</ele>
        <time>2021-07-17T13:30:49Z</time>
      </trkpt>
      <trkpt lat="44.40515" lon="1.45856">
        <ele>268</ele>
        <time>2021-07-17T13:30:50Z</time>
      </trkpt>
      <trkpt lat="44.40518" lon="1.45851">
        <ele>268.1</ele>
        <time>2021-07-17T13:30:52Z</time>
      </trkpt>
      <trkpt lat="44.40521" lon="1.45849">
        <ele>268.2</ele>
        <time>2021-07-17T13:30:53Z</time>
      </trkpt>
      <trkpt lat="44.40525" lon="1.45844">
        <ele>268.2</ele>
        <time>2021-07-17T13:30:54Z</time>
      </trkpt>
      <trkpt lat="44.40528" lon="1.45842">
        <ele>268.3</ele>
        <time>2021-07-17T13:30:55Z</time>
      </trkpt>
      <trkpt lat="44.40532" lon="1.45837">
        <ele>268.3</ele>
        <time>2021-07-17T13:30:57Z</time>
      </trkpt>
      <trkpt lat="44.40534" lon="1.45835">
        <ele>268.3</ele>
        <time>2021-07-17T13:30:58Z</time>
      </trkpt>
      <trkpt lat="44.40537" lon="1.45832">
        <ele>268.3</ele>
        <time>2021-07-17T13:30:59Z</time>
      </trkpt>
      <trkpt lat="44.4054" lon="1.4583">
        <ele>268.3</ele>
        <time>2021-07-17T13:31:00Z</time>
      </trkpt>
      <trkpt lat="44.40543" lon="1.45826">
        <ele>268.3</ele>
        <time>2021-07-17T13:31:02Z</time>
      </trkpt>
      <trkpt lat="44.40547" lon="1.45822">
        <ele>268.2</ele>
        <time>2021-07-17T13:31:03Z</time>
      </trkpt>
      <trkpt lat="44.40549" lon="1.45819">
        <ele>268.1</ele>
        <time>2021-07-17T13:31:04Z</time>
      </trkpt>
      <trkpt lat="44.40552" lon="1.45815">
        <ele>268</ele>
        <time>2021-07-17T13:31:06Z</time>
      </trkpt>
      <trkpt lat="44.40555" lon="1.45813">
        <ele>267.9</ele>
        <time>2021-07-17T13:31:07Z</time>
      </trkpt>
      <trkpt lat="44.40559" lon="1.4581">
        <ele>267.8</ele>
        <time>2021-07-17T13:31:08Z</time>
      </trkpt>
      <trkpt lat="44.40564" lon="1.45806">
        <ele>267.5</ele>
        <time>2021-07-17T13:31:09Z</time>
      </trkpt>
      <trkpt lat="44.40567" lon="1.45803">
        <ele>267.4</ele>
        <time>2021-07-17T13:31:10Z</time>
      </trkpt>
      <trkpt lat="44.4057" lon="1.458">
        <ele>267.2</ele>
        <time>2021-07-17T13:31:11Z</time>
      </trkpt>
      <trkpt lat="44.40576" lon="1.45795">
        <ele>266.9</ele>
        <time>2021-07-17T13:31:13Z</time>
      </trkpt>
      <trkpt lat="44.4058" lon="1.45793">
        <ele>266.7</ele>
        <time>2021-07-17T13:31:14Z</time>
      </trkpt>
      <trkpt lat="44.40587" lon="1.45789">
        <ele>266.5</ele>
        <time>2021-07-17T13:31:16Z</time>
      </trkpt>
      <trkpt lat="44.40594" lon="1.45785">
        <ele>266.2</ele>
        <time>2021-07-17T13:31:17Z</time>
      </trkpt>
      <trkpt lat="44.40603" lon="1.45779">
        <ele>265.9</ele>
        <time>2021-07-17T13:31:19Z</time>
      </trkpt>
      <trkpt lat="44.40607" lon="1.45777">
        <ele>265.9</ele>
        <time>2021-07-17T13:31:20Z</time>
      </trkpt>
      <trkpt lat="44.40612" lon="1.45771">
        <ele>265.9</ele>
        <time>2021-07-17T13:31:22Z</time>
      </trkpt>
      <trkpt lat="44.40617" lon="1.45769">
        <ele>265.9</ele>
        <time>2021-07-17T13:31:23Z</time>
      </trkpt>
      <trkpt lat="44.40621" lon="1.45768">
        <ele>266</ele>
        <time>2021-07-17T13:31:24Z</time>
      </trkpt>
      <trkpt lat="44.40627" lon="1.45764">
        <ele>266.1</ele>
        <time>2021-07-17T13:31:26Z</time>
      </trkpt>
      <trkpt lat="44.40631" lon="1.45762">
        <ele>266.1</ele>
        <time>2021-07-17T13:31:27Z</time>
      </trkpt>
      <trkpt lat="44.40637" lon="1.45758">
        <ele>266.2</ele>
        <time>2021-07-17T13:31:29Z</time>
      </trkpt>
      <trkpt lat="44.40641" lon="1.45754">
        <ele>266.2</ele>
        <time>2021-07-17T13:31:30Z</time>
      </trkpt>
      <trkpt lat="44.40645" lon="1.45751">
        <ele>266.2</ele>
        <time>2021-07-17T13:31:31Z</time>
      </trkpt>
      <trkpt lat="44.4065" lon="1.45746">
        <ele>266.3</ele>
        <time>2021-07-17T13:31:33Z</time>
      </trkpt>
      <trkpt lat="44.40653" lon="1.45743">
        <ele>266.3</ele>
        <time>2021-07-17T13:31:34Z</time>
      </trkpt>
      <trkpt lat="44.40656" lon="1.45738">
        <ele>266.3</ele>
        <time>2021-07-17T13:31:36Z</time>
      </trkpt>
      <trkpt lat="44.4066" lon="1.45732">
        <ele>266.4</ele>
        <time>2021-07-17T13:31:37Z</time>
      </trkpt>
      <trkpt lat="44.40662" lon="1.45728">
        <ele>266.4</ele>
        <time>2021-07-17T13:31:38Z</time>
      </trkpt>
      <trkpt lat="44.40664" lon="1.45724">
        <ele>266.5</ele>
        <time>2021-07-17T13:31:40Z</time>
      </trkpt>
      <trkpt lat="44.40667" lon="1.4572">
        <ele>266.5</ele>
        <time>2021-07-17T13:31:41Z</time>
      </trkpt>
      <trkpt lat="44.40669" lon="1.45715">
        <ele>266.6</ele>
        <time>2021-07-17T13:31:42Z</time>
      </trkpt>
      <trkpt lat="44.40669" lon="1.45708">
        <ele>266.6</ele>
        <time>2021-07-17T13:31:44Z</time>
      </trkpt>
      <trkpt lat="44.40669" lon="1.45702">
        <ele>266.7</ele>
        <time>2021-07-17T13:31:45Z</time>
      </trkpt>
      <trkpt lat="44.40667" lon="1.45695">
        <ele>266.7</ele>
        <time>2021-07-17T13:31:47Z</time>
      </trkpt>
      <trkpt lat="44.40665" lon="1.45691">
        <ele>266.7</ele>
        <time>2021-07-17T13:31:48Z</time>
      </trkpt>
      <trkpt lat="44.40662" lon="1.45687">
        <ele>266.7</ele>
        <time>2021-07-17T13:31:49Z</time>
      </trkpt>
      <trkpt lat="44.40659" lon="1.45683">
        <ele>266.7</ele>
        <time>2021-07-17T13:31:50Z</time>
      </trkpt>
      <trkpt lat="44.40656" lon="1.45677">
        <ele>266.7</ele>
        <time>2021-07-17T13:31:52Z</time>
      </trkpt>
      <trkpt lat="44.40653" lon="1.45669">
        <ele>266.6</ele>
        <time>2021-07-17T13:31:54Z</time>
      </trkpt>
      <trkpt lat="44.40652" lon="1.45664">
        <ele>266.5</ele>
        <time>2021-07-17T13:31:55Z</time>
      </trkpt>
      <trkpt lat="44.4065" lon="1.45656">
        <ele>266.2</ele>
        <time>2021-07-17T13:31:57Z</time>
      </trkpt>
      <trkpt lat="44.40648" lon="1.4565">
        <ele>265.8</ele>
        <time>2021-07-17T13:31:59Z</time>
      </trkpt>
      <trkpt lat="44.40648" lon="1.45645">
        <ele>265.5</ele>
        <time>2021-07-17T13:32:00Z</time>
      </trkpt>
      <trkpt lat="44.40647" lon="1.4564">
        <ele>265.2</ele>
        <time>2021-07-17T13:32:01Z</time>
      </trkpt>
      <trkpt lat="44.40645" lon="1.45635">
        <ele>264.7</ele>
        <time>2021-07-17T13:32:02Z</time>
      </trkpt>
      <trkpt lat="44.40644" lon="1.4562">
        <ele>263.4</ele>
        <time>2021-07-17T13:32:04Z</time>
      </trkpt>
      <trkpt lat="44.40644" lon="1.45611">
        <ele>262.7</ele>
        <time>2021-07-17T13:32:05Z</time>
      </trkpt>
      <trkpt lat="44.40643" lon="1.45603">
        <ele>261.9</ele>
        <time>2021-07-17T13:32:06Z</time>
      </trkpt>
      <trkpt lat="44.40643" lon="1.45594">
        <ele>261.1</ele>
        <time>2021-07-17T13:32:07Z</time>
      </trkpt>
      <trkpt lat="44.40644" lon="1.45584">
        <ele>260.2</ele>
        <time>2021-07-17T13:32:08Z</time>
      </trkpt>
      <trkpt lat="44.40645" lon="1.45564">
        <ele>258.4</ele>
        <time>2021-07-17T13:32:10Z</time>
      </trkpt>
      <trkpt lat="44.40646" lon="1.45542">
        <ele>256.4</ele>
        <time>2021-07-17T13:32:12Z</time>
      </trkpt>
      <trkpt lat="44.40647" lon="1.45518">
        <ele>254.5</ele>
        <time>2021-07-17T13:32:14Z</time>
      </trkpt>
      <trkpt lat="44.40648" lon="1.45495">
        <ele>252.9</ele>
        <time>2021-07-17T13:32:16Z</time>
      </trkpt>
      <trkpt lat="44.40648" lon="1.45483">
        <ele>252.1</ele>
        <time>2021-07-17T13:32:17Z</time>
      </trkpt>
      <trkpt lat="44.40648" lon="1.45472">
        <ele>251.3</ele>
        <time>2021-07-17T13:32:18Z</time>
      </trkpt>
      <trkpt lat="44.40649" lon="1.45448">
        <ele>250.1</ele>
        <time>2021-07-17T13:32:20Z</time>
      </trkpt>
      <trkpt lat="44.4065" lon="1.45425">
        <ele>249.4</ele>
        <time>2021-07-17T13:32:22Z</time>
      </trkpt>
      <trkpt lat="44.4065" lon="1.45413">
        <ele>249.3</ele>
        <time>2021-07-17T13:32:23Z</time>
      </trkpt>
      <trkpt lat="44.40651" lon="1.45402">
        <ele>249.3</ele>
        <time>2021-07-17T13:32:24Z</time>
      </trkpt>
      <trkpt lat="44.40652" lon="1.45381">
        <ele>249.3</ele>
        <time>2021-07-17T13:32:26Z</time>
      </trkpt>
      <trkpt lat="44.40654" lon="1.45361">
        <ele>249.5</ele>
        <time>2021-07-17T13:32:28Z</time>
      </trkpt>
      <trkpt lat="44.40657" lon="1.45344">
        <ele>250</ele>
        <time>2021-07-17T13:32:30Z</time>
      </trkpt>
      <trkpt lat="44.40661" lon="1.4533">
        <ele>250.8</ele>
        <time>2021-07-17T13:32:32Z</time>
      </trkpt>
      <trkpt lat="44.40665" lon="1.45316">
        <ele>251.5</ele>
        <time>2021-07-17T13:32:34Z</time>
      </trkpt>
      <trkpt lat="44.40669" lon="1.45303">
        <ele>252.2</ele>
        <time>2021-07-17T13:32:36Z</time>
      </trkpt>
      <trkpt lat="44.40674" lon="1.45294">
        <ele>252.7</ele>
        <time>2021-07-17T13:32:38Z</time>
      </trkpt>
      <trkpt lat="44.40679" lon="1.45283">
        <ele>253.3</ele>
        <time>2021-07-17T13:32:40Z</time>
      </trkpt>
      <trkpt lat="44.40681" lon="1.45279">
        <ele>253.5</ele>
        <time>2021-07-17T13:32:41Z</time>
      </trkpt>
      <trkpt lat="44.40684" lon="1.45272">
        <ele>254.1</ele>
        <time>2021-07-17T13:32:43Z</time>
      </trkpt>
      <trkpt lat="44.40686" lon="1.45266">
        <ele>254.5</ele>
        <time>2021-07-17T13:32:44Z</time>
      </trkpt>
      <trkpt lat="44.40687" lon="1.45261">
        <ele>254.8</ele>
        <time>2021-07-17T13:32:46Z</time>
      </trkpt>
      <trkpt lat="44.40688" lon="1.45256">
        <ele>255.1</ele>
        <time>2021-07-17T13:32:47Z</time>
      </trkpt>
      <trkpt lat="44.40691" lon="1.45253">
        <ele>255.5</ele>
        <time>2021-07-17T13:32:48Z</time>
      </trkpt>
      <trkpt lat="44.40694" lon="1.45246">
        <ele>256</ele>
        <time>2021-07-17T13:32:50Z</time>
      </trkpt>
      <trkpt lat="44.40697" lon="1.4524">
        <ele>256.3</ele>
        <time>2021-07-17T13:32:51Z</time>
      </trkpt>
      <trkpt lat="44.40701" lon="1.45233">
        <ele>256.8</ele>
        <time>2021-07-17T13:32:53Z</time>
      </trkpt>
      <trkpt lat="44.40705" lon="1.45228">
        <ele>257.1</ele>
        <time>2021-07-17T13:32:55Z</time>
      </trkpt>
      <trkpt lat="44.40708" lon="1.45222">
        <ele>257.4</ele>
        <time>2021-07-17T13:32:56Z</time>
      </trkpt>
      <trkpt lat="44.40711" lon="1.45217">
        <ele>257.6</ele>
        <time>2021-07-17T13:32:58Z</time>
      </trkpt>
      <trkpt lat="44.40714" lon="1.45213">
        <ele>257.8</ele>
        <time>2021-07-17T13:32:59Z</time>
      </trkpt>
      <trkpt lat="44.40715" lon="1.45209">
        <ele>258</ele>
        <time>2021-07-17T13:33:00Z</time>
      </trkpt>
      <trkpt lat="44.40718" lon="1.45204">
        <ele>258.2</ele>
        <time>2021-07-17T13:33:02Z</time>
      </trkpt>
      <trkpt lat="44.4072" lon="1.45197">
        <ele>258.4</ele>
        <time>2021-07-17T13:33:03Z</time>
      </trkpt>
      <trkpt lat="44.40722" lon="1.45194">
        <ele>258.5</ele>
        <time>2021-07-17T13:33:04Z</time>
      </trkpt>
      <trkpt lat="44.40724" lon="1.45189">
        <ele>258.6</ele>
        <time>2021-07-17T13:33:06Z</time>
      </trkpt>
      <trkpt lat="44.40725" lon="1.45185">
        <ele>258.7</ele>
        <time>2021-07-17T13:33:07Z</time>
      </trkpt>
      <trkpt lat="44.40726" lon="1.45179">
        <ele>258.9</ele>
        <time>2021-07-17T13:33:08Z</time>
      </trkpt>
      <trkpt lat="44.40727" lon="1.45174">
        <ele>259</ele>
        <time>2021-07-17T13:33:09Z</time>
      </trkpt>
      <trkpt lat="44.4073" lon="1.45168">
        <ele>259.1</ele>
        <time>2021-07-17T13:33:11Z</time>
      </trkpt>
      <trkpt lat="44.40731" lon="1.45163">
        <ele>259.1</ele>
        <time>2021-07-17T13:33:12Z</time>
      </trkpt>
      <trkpt lat="44.40732" lon="1.45158">
        <ele>259.2</ele>
        <time>2021-07-17T13:33:14Z</time>
      </trkpt>
      <trkpt lat="44.40733" lon="1.45152">
        <ele>259.2</ele>
        <time>2021-07-17T13:33:15Z</time>
      </trkpt>
      <trkpt lat="44.40734" lon="1.4515">
        <ele>259.3</ele>
        <time>2021-07-17T13:33:16Z</time>
      </trkpt>
      <trkpt lat="44.40735" lon="1.45147">
        <ele>259.3</ele>
        <time>2021-07-17T13:33:17Z</time>
      </trkpt>
      <trkpt lat="44.40737" lon="1.45142">
        <ele>259.3</ele>
        <time>2021-07-17T13:33:19Z</time>
      </trkpt>
      <trkpt lat="44.40739" lon="1.45137">
        <ele>259.3</ele>
        <time>2021-07-17T13:33:20Z</time>
      </trkpt>
      <trkpt lat="44.40741" lon="1.45133">
        <ele>259.3</ele>
        <time>2021-07-17T13:33:21Z</time>
      </trkpt>
      <trkpt lat="44.40744" lon="1.45126">
        <ele>259.3</ele>
        <time>2021-07-17T13:33:23Z</time>
      </trkpt>
      <trkpt lat="44.40746" lon="1.45119">
        <ele>259.3</ele>
        <time>2021-07-17T13:33:25Z</time>
      </trkpt>
      <trkpt lat="44.40748" lon="1.45116">
        <ele>259.3</ele>
        <time>2021-07-17T13:33:26Z</time>
      </trkpt>
      <trkpt lat="44.4075" lon="1.45111">
        <ele>259.3</ele>
        <time>2021-07-17T13:33:28Z</time>
      </trkpt>
      <trkpt lat="44.40752" lon="1.45107">
        <ele>259.3</ele>
        <time>2021-07-17T13:33:29Z</time>
      </trkpt>
      <trkpt lat="44.40754" lon="1.45104">
        <ele>259.3</ele>
        <time>2021-07-17T13:33:30Z</time>
      </trkpt>
      <trkpt lat="44.40757" lon="1.451">
        <ele>259.2</ele>
        <time>2021-07-17T13:33:32Z</time>
      </trkpt>
      <trkpt lat="44.40759" lon="1.45096">
        <ele>259.2</ele>
        <time>2021-07-17T13:33:33Z</time>
      </trkpt>
      <trkpt lat="44.40761" lon="1.45093">
        <ele>259.2</ele>
        <time>2021-07-17T13:33:34Z</time>
      </trkpt>
      <trkpt lat="44.40764" lon="1.45088">
        <ele>259.2</ele>
        <time>2021-07-17T13:33:36Z</time>
      </trkpt>
      <trkpt lat="44.40766" lon="1.45085">
        <ele>259.1</ele>
        <time>2021-07-17T13:33:37Z</time>
      </trkpt>
      <trkpt lat="44.40769" lon="1.45079">
        <ele>259.1</ele>
        <time>2021-07-17T13:33:39Z</time>
      </trkpt>
      <trkpt lat="44.4077" lon="1.45077">
        <ele>259.1</ele>
        <time>2021-07-17T13:33:40Z</time>
      </trkpt>
      <trkpt lat="44.40771" lon="1.45075">
        <ele>259.1</ele>
        <time>2021-07-17T13:33:41Z</time>
      </trkpt>
      <trkpt lat="44.40774" lon="1.45071">
        <ele>259</ele>
        <time>2021-07-17T13:33:42Z</time>
      </trkpt>
      <trkpt lat="44.40776" lon="1.45069">
        <ele>259</ele>
        <time>2021-07-17T13:33:43Z</time>
      </trkpt>
      <trkpt lat="44.40777" lon="1.45066">
        <ele>259</ele>
        <time>2021-07-17T13:33:44Z</time>
      </trkpt>
      <trkpt lat="44.40778" lon="1.45063">
        <ele>258.9</ele>
        <time>2021-07-17T13:33:45Z</time>
      </trkpt>
      <trkpt lat="44.40779" lon="1.45058">
        <ele>258.8</ele>
        <time>2021-07-17T13:33:47Z</time>
      </trkpt>
      <trkpt lat="44.4078" lon="1.45052">
        <ele>258.8</ele>
        <time>2021-07-17T13:33:48Z</time>
      </trkpt>
      <trkpt lat="44.40781" lon="1.45048">
        <ele>258.8</ele>
        <time>2021-07-17T13:33:49Z</time>
      </trkpt>
      <trkpt lat="44.40782" lon="1.45045">
        <ele>258.8</ele>
        <time>2021-07-17T13:33:50Z</time>
      </trkpt>
      <trkpt lat="44.40784" lon="1.45039">
        <ele>258.8</ele>
        <time>2021-07-17T13:33:52Z</time>
      </trkpt>
      <trkpt lat="44.40785" lon="1.45036">
        <ele>258.7</ele>
        <time>2021-07-17T13:33:53Z</time>
      </trkpt>
      <trkpt lat="44.40786" lon="1.45032">
        <ele>258.7</ele>
        <time>2021-07-17T13:33:54Z</time>
      </trkpt>
      <trkpt lat="44.40788" lon="1.45027">
        <ele>258.6</ele>
        <time>2021-07-17T13:33:55Z</time>
      </trkpt>
      <trkpt lat="44.4079" lon="1.45023">
        <ele>258.6</ele>
        <time>2021-07-17T13:33:56Z</time>
      </trkpt>
      <trkpt lat="44.40792" lon="1.45019">
        <ele>258.5</ele>
        <time>2021-07-17T13:33:57Z</time>
      </trkpt>
      <trkpt lat="44.40796" lon="1.45013">
        <ele>258.3</ele>
        <time>2021-07-17T13:33:59Z</time>
      </trkpt>
      <trkpt lat="44.40798" lon="1.45009">
        <ele>258.2</ele>
        <time>2021-07-17T13:34:00Z</time>
      </trkpt>
      <trkpt lat="44.40803" lon="1.45001">
        <ele>257.9</ele>
        <time>2021-07-17T13:34:02Z</time>
      </trkpt>
      <trkpt lat="44.40806" lon="1.44996">
        <ele>257.7</ele>
        <time>2021-07-17T13:34:03Z</time>
      </trkpt>
      <trkpt lat="44.4081" lon="1.44991">
        <ele>257.4</ele>
        <time>2021-07-17T13:34:05Z</time>
      </trkpt>
      <trkpt lat="44.40814" lon="1.44987">
        <ele>257.2</ele>
        <time>2021-07-17T13:34:06Z</time>
      </trkpt>
      <trkpt lat="44.40819" lon="1.44981">
        <ele>256.8</ele>
        <time>2021-07-17T13:34:07Z</time>
      </trkpt>
      <trkpt lat="44.40823" lon="1.44976">
        <ele>256.4</ele>
        <time>2021-07-17T13:34:08Z</time>
      </trkpt>
      <trkpt lat="44.40831" lon="1.44967">
        <ele>255.5</ele>
        <time>2021-07-17T13:34:10Z</time>
      </trkpt>
      <trkpt lat="44.4084" lon="1.44956">
        <ele>254</ele>
        <time>2021-07-17T13:34:12Z</time>
      </trkpt>
      <trkpt lat="44.40849" lon="1.44942">
        <ele>253.1</ele>
        <time>2021-07-17T13:34:14Z</time>
      </trkpt>
      <trkpt lat="44.40857" lon="1.44925">
        <ele>251.6</ele>
        <time>2021-07-17T13:34:16Z</time>
      </trkpt>
      <trkpt lat="44.40866" lon="1.44908">
        <ele>250.4</ele>
        <time>2021-07-17T13:34:18Z</time>
      </trkpt>
      <trkpt lat="44.40875" lon="1.4489">
        <ele>249.8</ele>
        <time>2021-07-17T13:34:20Z</time>
      </trkpt>
      <trkpt lat="44.40882" lon="1.44875">
        <ele>250</ele>
        <time>2021-07-17T13:34:22Z</time>
      </trkpt>
      <trkpt lat="44.40885" lon="1.44868">
        <ele>250.4</ele>
        <time>2021-07-17T13:34:23Z</time>
      </trkpt>
      <trkpt lat="44.40889" lon="1.44853">
        <ele>251.5</ele>
        <time>2021-07-17T13:34:25Z</time>
      </trkpt>
      <trkpt lat="44.4089" lon="1.44847">
        <ele>252.1</ele>
        <time>2021-07-17T13:34:26Z</time>
      </trkpt>
      <trkpt lat="44.40891" lon="1.4484">
        <ele>252.8</ele>
        <time>2021-07-17T13:34:27Z</time>
      </trkpt>
      <trkpt lat="44.40894" lon="1.4483">
        <ele>254</ele>
        <time>2021-07-17T13:34:29Z</time>
      </trkpt>
      <trkpt lat="44.40897" lon="1.44822">
        <ele>254.9</ele>
        <time>2021-07-17T13:34:31Z</time>
      </trkpt>
      <trkpt lat="44.40898" lon="1.44817">
        <ele>255.4</ele>
        <time>2021-07-17T13:34:32Z</time>
      </trkpt>
      <trkpt lat="44.40901" lon="1.44805">
        <ele>256.6</ele>
        <time>2021-07-17T13:34:34Z</time>
      </trkpt>
      <trkpt lat="44.40902" lon="1.448">
        <ele>257.1</ele>
        <time>2021-07-17T13:34:35Z</time>
      </trkpt>
      <trkpt lat="44.40903" lon="1.44793">
        <ele>257.6</ele>
        <time>2021-07-17T13:34:36Z</time>
      </trkpt>
      <trkpt lat="44.40907" lon="1.44784">
        <ele>258.2</ele>
        <time>2021-07-17T13:34:38Z</time>
      </trkpt>
      <trkpt lat="44.40911" lon="1.44776">
        <ele>258.7</ele>
        <time>2021-07-17T13:34:40Z</time>
      </trkpt>
      <trkpt lat="44.40914" lon="1.44772">
        <ele>259</ele>
        <time>2021-07-17T13:34:41Z</time>
      </trkpt>
      <trkpt lat="44.40917" lon="1.44769">
        <ele>259.2</ele>
        <time>2021-07-17T13:34:42Z</time>
      </trkpt>
      <trkpt lat="44.40921" lon="1.44765">
        <ele>259.5</ele>
        <time>2021-07-17T13:34:44Z</time>
      </trkpt>
      <trkpt lat="44.40923" lon="1.44763">
        <ele>259.7</ele>
        <time>2021-07-17T13:34:45Z</time>
      </trkpt>
      <trkpt lat="44.40926" lon="1.44762">
        <ele>259.9</ele>
        <time>2021-07-17T13:34:46Z</time>
      </trkpt>
      <trkpt lat="44.40929" lon="1.4476">
        <ele>260.1</ele>
        <time>2021-07-17T13:34:47Z</time>
      </trkpt>
      <trkpt lat="44.40933" lon="1.44756">
        <ele>260.4</ele>
        <time>2021-07-17T13:34:49Z</time>
      </trkpt>
      <trkpt lat="44.40935" lon="1.44754">
        <ele>260.5</ele>
        <time>2021-07-17T13:34:50Z</time>
      </trkpt>
      <trkpt lat="44.40937" lon="1.44753">
        <ele>260.7</ele>
        <time>2021-07-17T13:34:51Z</time>
      </trkpt>
      <trkpt lat="44.40939" lon="1.4475">
        <ele>260.9</ele>
        <time>2021-07-17T13:34:52Z</time>
      </trkpt>
      <trkpt lat="44.4094" lon="1.44748">
        <ele>261</ele>
        <time>2021-07-17T13:34:53Z</time>
      </trkpt>
      <trkpt lat="44.40943" lon="1.44745">
        <ele>261.2</ele>
        <time>2021-07-17T13:34:55Z</time>
      </trkpt>
      <trkpt lat="44.40945" lon="1.44743">
        <ele>261.3</ele>
        <time>2021-07-17T13:34:56Z</time>
      </trkpt>
      <trkpt lat="44.40946" lon="1.44742">
        <ele>261.4</ele>
        <time>2021-07-17T13:34:57Z</time>
      </trkpt>
      <trkpt lat="44.40948" lon="1.4474">
        <ele>261.5</ele>
        <time>2021-07-17T13:34:58Z</time>
      </trkpt>
      <trkpt lat="44.4095" lon="1.44739">
        <ele>261.6</ele>
        <time>2021-07-17T13:35:00Z</time>
      </trkpt>
      <trkpt lat="44.40953" lon="1.44736">
        <ele>261.8</ele>
        <time>2021-07-17T13:35:01Z</time>
      </trkpt>
      <trkpt lat="44.40954" lon="1.44736">
        <ele>261.8</ele>
        <time>2021-07-17T13:35:02Z</time>
      </trkpt>
      <trkpt lat="44.40957" lon="1.44733">
        <ele>262</ele>
        <time>2021-07-17T13:35:04Z</time>
      </trkpt>
      <trkpt lat="44.4096" lon="1.44732">
        <ele>262.1</ele>
        <time>2021-07-17T13:35:05Z</time>
      </trkpt>
      <trkpt lat="44.40962" lon="1.44729">
        <ele>262.2</ele>
        <time>2021-07-17T13:35:06Z</time>
      </trkpt>
      <trkpt lat="44.40964" lon="1.44728">
        <ele>262.3</ele>
        <time>2021-07-17T13:35:07Z</time>
      </trkpt>
      <trkpt lat="44.40966" lon="1.44725">
        <ele>262.4</ele>
        <time>2021-07-17T13:35:09Z</time>
      </trkpt>
      <trkpt lat="44.40969" lon="1.44723">
        <ele>262.6</ele>
        <time>2021-07-17T13:35:10Z</time>
      </trkpt>
      <trkpt lat="44.40972" lon="1.4472">
        <ele>262.8</ele>
        <time>2021-07-17T13:35:12Z</time>
      </trkpt>
      <trkpt lat="44.40976" lon="1.44717">
        <ele>263</ele>
        <time>2021-07-17T13:35:13Z</time>
      </trkpt>
      <trkpt lat="44.40977" lon="1.44715">
        <ele>263.1</ele>
        <time>2021-07-17T13:35:14Z</time>
      </trkpt>
      <trkpt lat="44.4098" lon="1.44713">
        <ele>263.3</ele>
        <time>2021-07-17T13:35:16Z</time>
      </trkpt>
      <trkpt lat="44.40983" lon="1.44711">
        <ele>263.5</ele>
        <time>2021-07-17T13:35:17Z</time>
      </trkpt>
      <trkpt lat="44.40986" lon="1.44709">
        <ele>263.7</ele>
        <time>2021-07-17T13:35:18Z</time>
      </trkpt>
      <trkpt lat="44.40988" lon="1.44706">
        <ele>263.9</ele>
        <time>2021-07-17T13:35:19Z</time>
      </trkpt>
      <trkpt lat="44.40993" lon="1.44703">
        <ele>264.1</ele>
        <time>2021-07-17T13:35:21Z</time>
      </trkpt>
      <trkpt lat="44.40994" lon="1.44702">
        <ele>264.2</ele>
        <time>2021-07-17T13:35:22Z</time>
      </trkpt>
      <trkpt lat="44.40996" lon="1.44701">
        <ele>264.3</ele>
        <time>2021-07-17T13:35:23Z</time>
      </trkpt>
      <trkpt lat="44.40999" lon="1.44698">
        <ele>264.4</ele>
        <time>2021-07-17T13:35:24Z</time>
      </trkpt>
      <trkpt lat="44.41" lon="1.44696">
        <ele>264.5</ele>
        <time>2021-07-17T13:35:25Z</time>
      </trkpt>
      <trkpt lat="44.41002" lon="1.44694">
        <ele>264.6</ele>
        <time>2021-07-17T13:35:26Z</time>
      </trkpt>
      <trkpt lat="44.41005" lon="1.44691">
        <ele>264.7</ele>
        <time>2021-07-17T13:35:28Z</time>
      </trkpt>
      <trkpt lat="44.41008" lon="1.44688">
        <ele>264.8</ele>
        <time>2021-07-17T13:35:29Z</time>
      </trkpt>
      <trkpt lat="44.41011" lon="1.44685">
        <ele>264.8</ele>
        <time>2021-07-17T13:35:30Z</time>
      </trkpt>
      <trkpt lat="44.41015" lon="1.44681">
        <ele>264.9</ele>
        <time>2021-07-17T13:35:32Z</time>
      </trkpt>
      <trkpt lat="44.41018" lon="1.44678">
        <ele>264.9</ele>
        <time>2021-07-17T13:35:33Z</time>
      </trkpt>
      <trkpt lat="44.41021" lon="1.44676">
        <ele>264.9</ele>
        <time>2021-07-17T13:35:34Z</time>
      </trkpt>
      <trkpt lat="44.41024" lon="1.44674">
        <ele>264.8</ele>
        <time>2021-07-17T13:35:36Z</time>
      </trkpt>
      <trkpt lat="44.41027" lon="1.44671">
        <ele>264.7</ele>
        <time>2021-07-17T13:35:37Z</time>
      </trkpt>
      <trkpt lat="44.4103" lon="1.44669">
        <ele>264.6</ele>
        <time>2021-07-17T13:35:38Z</time>
      </trkpt>
      <trkpt lat="44.41032" lon="1.44668">
        <ele>264.5</ele>
        <time>2021-07-17T13:35:40Z</time>
      </trkpt>
      <trkpt lat="44.41035" lon="1.44665">
        <ele>264.4</ele>
        <time>2021-07-17T13:35:41Z</time>
      </trkpt>
      <trkpt lat="44.41038" lon="1.44662">
        <ele>264.2</ele>
        <time>2021-07-17T13:35:42Z</time>
      </trkpt>
      <trkpt lat="44.41039" lon="1.44662">
        <ele>264.1</ele>
        <time>2021-07-17T13:35:43Z</time>
      </trkpt>
      <trkpt lat="44.41041" lon="1.44661">
        <ele>263.9</ele>
        <time>2021-07-17T13:35:44Z</time>
      </trkpt>
      <trkpt lat="44.41045" lon="1.4466">
        <ele>263.6</ele>
        <time>2021-07-17T13:35:46Z</time>
      </trkpt>
      <trkpt lat="44.41049" lon="1.44659">
        <ele>263.1</ele>
        <time>2021-07-17T13:35:47Z</time>
      </trkpt>
      <trkpt lat="44.41054" lon="1.44656">
        <ele>262.5</ele>
        <time>2021-07-17T13:35:48Z</time>
      </trkpt>
      <trkpt lat="44.41057" lon="1.44653">
        <ele>262.1</ele>
        <time>2021-07-17T13:35:49Z</time>
      </trkpt>
      <trkpt lat="44.41061" lon="1.4465">
        <ele>261.5</ele>
        <time>2021-07-17T13:35:50Z</time>
      </trkpt>
      <trkpt lat="44.4107" lon="1.44644">
        <ele>260.5</ele>
        <time>2021-07-17T13:35:52Z</time>
      </trkpt>
      <trkpt lat="44.41075" lon="1.44641">
        <ele>260.1</ele>
        <time>2021-07-17T13:35:53Z</time>
      </trkpt>
      <trkpt lat="44.4108" lon="1.44638">
        <ele>259.7</ele>
        <time>2021-07-17T13:35:54Z</time>
      </trkpt>
      <trkpt lat="44.4109" lon="1.44631">
        <ele>259</ele>
        <time>2021-07-17T13:35:56Z</time>
      </trkpt>
      <trkpt lat="44.41101" lon="1.44626">
        <ele>258.3</ele>
        <time>2021-07-17T13:35:58Z</time>
      </trkpt>
      <trkpt lat="44.41107" lon="1.44624">
        <ele>258.1</ele>
        <time>2021-07-17T13:35:59Z</time>
      </trkpt>
      <trkpt lat="44.41112" lon="1.44621">
        <ele>257.9</ele>
        <time>2021-07-17T13:36:00Z</time>
      </trkpt>
      <trkpt lat="44.41117" lon="1.44619">
        <ele>257.9</ele>
        <time>2021-07-17T13:36:01Z</time>
      </trkpt>
      <trkpt lat="44.41124" lon="1.44615">
        <ele>258</ele>
        <time>2021-07-17T13:36:03Z</time>
      </trkpt>
      <trkpt lat="44.41129" lon="1.44612">
        <ele>258.1</ele>
        <time>2021-07-17T13:36:04Z</time>
      </trkpt>
      <trkpt lat="44.41133" lon="1.4461">
        <ele>258.2</ele>
        <time>2021-07-17T13:36:05Z</time>
      </trkpt>
      <trkpt lat="44.41137" lon="1.44609">
        <ele>258.2</ele>
        <time>2021-07-17T13:36:06Z</time>
      </trkpt>
      <trkpt lat="44.41141" lon="1.44605">
        <ele>258.5</ele>
        <time>2021-07-17T13:36:08Z</time>
      </trkpt>
      <trkpt lat="44.41142" lon="1.44603">
        <ele>258.5</ele>
        <time>2021-07-17T13:36:10Z</time>
      </trkpt>
      <trkpt lat="44.41142" lon="1.44603">
        <ele>258.5</ele>
        <time>2021-07-17T13:36:11Z</time>
      </trkpt>
      <trkpt lat="44.41142" lon="1.44603">
        <ele>258.6</ele>
        <time>2021-07-17T13:36:12Z</time>
      </trkpt>
      <trkpt lat="44.41142" lon="1.44603">
        <ele>258.6</ele>
        <time>2021-07-17T13:36:14Z</time>
      </trkpt>
      <trkpt lat="44.41142" lon="1.44603">
        <ele>258.6</ele>
        <time>2021-07-17T13:36:16Z</time>
      </trkpt>
      <trkpt lat="44.41142" lon="1.44603">
        <ele>258.6</ele>
        <time>2021-07-17T13:36:18Z</time>
      </trkpt>
      <trkpt lat="44.41143" lon="1.44595">
        <ele>259</ele>
        <time>2021-07-17T13:37:51Z</time>
      </trkpt>
      <trkpt lat="44.41146" lon="1.44588">
        <ele>259.3</ele>
        <time>2021-07-17T13:37:53Z</time>
      </trkpt>
      <trkpt lat="44.4115" lon="1.44581">
        <ele>259.7</ele>
        <time>2021-07-17T13:37:54Z</time>
      </trkpt>
      <trkpt lat="44.41158" lon="1.44571">
        <ele>260.1</ele>
        <time>2021-07-17T13:37:55Z</time>
      </trkpt>
      <trkpt lat="44.41162" lon="1.44565">
        <ele>260.3</ele>
        <time>2021-07-17T13:37:56Z</time>
      </trkpt>
      <trkpt lat="44.4117" lon="1.44551">
        <ele>260.5</ele>
        <time>2021-07-17T13:37:58Z</time>
      </trkpt>
      <trkpt lat="44.41179" lon="1.44542">
        <ele>260.5</ele>
        <time>2021-07-17T13:38:00Z</time>
      </trkpt>
      <trkpt lat="44.4119" lon="1.44541">
        <ele>260.4</ele>
        <time>2021-07-17T13:38:02Z</time>
      </trkpt>
      <trkpt lat="44.41201" lon="1.44541">
        <ele>260</ele>
        <time>2021-07-17T13:38:04Z</time>
      </trkpt>
      <trkpt lat="44.41205" lon="1.44542">
        <ele>259.7</ele>
        <time>2021-07-17T13:38:05Z</time>
      </trkpt>
      <trkpt lat="44.41209" lon="1.44546">
        <ele>259.5</ele>
        <time>2021-07-17T13:38:06Z</time>
      </trkpt>
      <trkpt lat="44.41214" lon="1.44549">
        <ele>259.2</ele>
        <time>2021-07-17T13:38:08Z</time>
      </trkpt>
      <trkpt lat="44.4122" lon="1.44549">
        <ele>258.9</ele>
        <time>2021-07-17T13:38:09Z</time>
      </trkpt>
      <trkpt lat="44.41226" lon="1.44549">
        <ele>258.5</ele>
        <time>2021-07-17T13:38:10Z</time>
      </trkpt>
      <trkpt lat="44.41231" lon="1.44549">
        <ele>258.1</ele>
        <time>2021-07-17T13:38:11Z</time>
      </trkpt>
      <trkpt lat="44.41242" lon="1.44549">
        <ele>257.3</ele>
        <time>2021-07-17T13:38:13Z</time>
      </trkpt>
      <trkpt lat="44.41248" lon="1.44548">
        <ele>256.9</ele>
        <time>2021-07-17T13:38:14Z</time>
      </trkpt>
      <trkpt lat="44.41258" lon="1.44546">
        <ele>256.2</ele>
        <time>2021-07-17T13:38:16Z</time>
      </trkpt>
      <trkpt lat="44.41269" lon="1.44543">
        <ele>255.6</ele>
        <time>2021-07-17T13:38:18Z</time>
      </trkpt>
      <trkpt lat="44.41274" lon="1.44543">
        <ele>255.3</ele>
        <time>2021-07-17T13:38:19Z</time>
      </trkpt>
      <trkpt lat="44.41279" lon="1.44543">
        <ele>255</ele>
        <time>2021-07-17T13:38:20Z</time>
      </trkpt>
      <trkpt lat="44.41288" lon="1.44542">
        <ele>254.3</ele>
        <time>2021-07-17T13:38:22Z</time>
      </trkpt>
      <trkpt lat="44.41293" lon="1.44542">
        <ele>253.9</ele>
        <time>2021-07-17T13:38:23Z</time>
      </trkpt>
      <trkpt lat="44.41303" lon="1.44544">
        <ele>252.9</ele>
        <time>2021-07-17T13:38:25Z</time>
      </trkpt>
      <trkpt lat="44.41308" lon="1.44545">
        <ele>252.2</ele>
        <time>2021-07-17T13:38:26Z</time>
      </trkpt>
      <trkpt lat="44.41318" lon="1.44547">
        <ele>250.6</ele>
        <time>2021-07-17T13:38:28Z</time>
      </trkpt>
      <trkpt lat="44.41328" lon="1.44552">
        <ele>248.7</ele>
        <time>2021-07-17T13:38:30Z</time>
      </trkpt>
      <trkpt lat="44.41333" lon="1.44555">
        <ele>247.7</ele>
        <time>2021-07-17T13:38:31Z</time>
      </trkpt>
      <trkpt lat="44.41344" lon="1.4456">
        <ele>245.7</ele>
        <time>2021-07-17T13:38:33Z</time>
      </trkpt>
      <trkpt lat="44.41349" lon="1.44558">
        <ele>244.6</ele>
        <time>2021-07-17T13:38:34Z</time>
      </trkpt>
      <trkpt lat="44.41355" lon="1.44556">
        <ele>243.6</ele>
        <time>2021-07-17T13:38:35Z</time>
      </trkpt>
      <trkpt lat="44.41361" lon="1.44552">
        <ele>242.6</ele>
        <time>2021-07-17T13:38:36Z</time>
      </trkpt>
      <trkpt lat="44.41367" lon="1.44548">
        <ele>241.7</ele>
        <time>2021-07-17T13:38:37Z</time>
      </trkpt>
      <trkpt lat="44.41372" lon="1.44542">
        <ele>241</ele>
        <time>2021-07-17T13:38:38Z</time>
      </trkpt>
      <trkpt lat="44.41382" lon="1.44531">
        <ele>239.4</ele>
        <time>2021-07-17T13:38:40Z</time>
      </trkpt>
      <trkpt lat="44.41388" lon="1.44526">
        <ele>238.7</ele>
        <time>2021-07-17T13:38:41Z</time>
      </trkpt>
      <trkpt lat="44.41395" lon="1.44521">
        <ele>237.9</ele>
        <time>2021-07-17T13:38:42Z</time>
      </trkpt>
      <trkpt lat="44.41411" lon="1.44517">
        <ele>236.2</ele>
        <time>2021-07-17T13:38:44Z</time>
      </trkpt>
      <trkpt lat="44.41424" lon="1.44511">
        <ele>235</ele>
        <time>2021-07-17T13:38:46Z</time>
      </trkpt>
      <trkpt lat="44.41428" lon="1.44505">
        <ele>234.5</ele>
        <time>2021-07-17T13:38:47Z</time>
      </trkpt>
      <trkpt lat="44.41433" lon="1.44498">
        <ele>233.8</ele>
        <time>2021-07-17T13:38:49Z</time>
      </trkpt>
      <trkpt lat="44.41437" lon="1.44497">
        <ele>233.5</ele>
        <time>2021-07-17T13:38:50Z</time>
      </trkpt>
      <trkpt lat="44.41445" lon="1.44487">
        <ele>232.7</ele>
        <time>2021-07-17T13:38:52Z</time>
      </trkpt>
      <trkpt lat="44.41452" lon="1.44475">
        <ele>232</ele>
        <time>2021-07-17T13:38:54Z</time>
      </trkpt>
      <trkpt lat="44.41459" lon="1.4446">
        <ele>231.6</ele>
        <time>2021-07-17T13:38:56Z</time>
      </trkpt>
      <trkpt lat="44.41465" lon="1.44443">
        <ele>231.2</ele>
        <time>2021-07-17T13:38:58Z</time>
      </trkpt>
      <trkpt lat="44.41469" lon="1.44434">
        <ele>230.7</ele>
        <time>2021-07-17T13:38:59Z</time>
      </trkpt>
      <trkpt lat="44.41478" lon="1.44419">
        <ele>229.4</ele>
        <time>2021-07-17T13:39:01Z</time>
      </trkpt>
      <trkpt lat="44.41483" lon="1.44414">
        <ele>228.7</ele>
        <time>2021-07-17T13:39:02Z</time>
      </trkpt>
      <trkpt lat="44.41492" lon="1.44402">
        <ele>227.6</ele>
        <time>2021-07-17T13:39:04Z</time>
      </trkpt>
      <trkpt lat="44.41496" lon="1.44395">
        <ele>227.2</ele>
        <time>2021-07-17T13:39:05Z</time>
      </trkpt>
      <trkpt lat="44.41502" lon="1.4438">
        <ele>226.3</ele>
        <time>2021-07-17T13:39:07Z</time>
      </trkpt>
      <trkpt lat="44.41505" lon="1.44371">
        <ele>225.9</ele>
        <time>2021-07-17T13:39:08Z</time>
      </trkpt>
      <trkpt lat="44.41512" lon="1.44355">
        <ele>225.5</ele>
        <time>2021-07-17T13:39:10Z</time>
      </trkpt>
      <trkpt lat="44.41517" lon="1.44336">
        <ele>225.2</ele>
        <time>2021-07-17T13:39:12Z</time>
      </trkpt>
      <trkpt lat="44.4152" lon="1.44315">
        <ele>225.2</ele>
        <time>2021-07-17T13:39:14Z</time>
      </trkpt>
      <trkpt lat="44.41522" lon="1.44297">
        <ele>225.5</ele>
        <time>2021-07-17T13:39:16Z</time>
      </trkpt>
      <trkpt lat="44.41525" lon="1.44278">
        <ele>226</ele>
        <time>2021-07-17T13:39:18Z</time>
      </trkpt>
      <trkpt lat="44.41526" lon="1.44269">
        <ele>226.4</ele>
        <time>2021-07-17T13:39:19Z</time>
      </trkpt>
      <trkpt lat="44.41527" lon="1.4426">
        <ele>226.8</ele>
        <time>2021-07-17T13:39:20Z</time>
      </trkpt>
      <trkpt lat="44.41532" lon="1.44245">
        <ele>227.4</ele>
        <time>2021-07-17T13:39:22Z</time>
      </trkpt>
      <trkpt lat="44.41534" lon="1.44239">
        <ele>227.7</ele>
        <time>2021-07-17T13:39:23Z</time>
      </trkpt>
      <trkpt lat="44.41536" lon="1.44233">
        <ele>227.9</ele>
        <time>2021-07-17T13:39:24Z</time>
      </trkpt>
      <trkpt lat="44.41538" lon="1.44229">
        <ele>228.1</ele>
        <time>2021-07-17T13:39:25Z</time>
      </trkpt>
      <trkpt lat="44.41539" lon="1.44227">
        <ele>228.2</ele>
        <time>2021-07-17T13:39:26Z</time>
      </trkpt>
      <trkpt lat="44.41541" lon="1.44222">
        <ele>228.4</ele>
        <time>2021-07-17T13:39:28Z</time>
      </trkpt>
      <trkpt lat="44.41542" lon="1.44219">
        <ele>228.5</ele>
        <time>2021-07-17T13:39:29Z</time>
      </trkpt>
      <trkpt lat="44.41543" lon="1.44218">
        <ele>228.6</ele>
        <time>2021-07-17T13:39:30Z</time>
      </trkpt>
      <trkpt lat="44.41544" lon="1.44215">
        <ele>228.6</ele>
        <time>2021-07-17T13:39:31Z</time>
      </trkpt>
      <trkpt lat="44.41545" lon="1.44214">
        <ele>228.7</ele>
        <time>2021-07-17T13:39:32Z</time>
      </trkpt>
      <trkpt lat="44.41547" lon="1.4421">
        <ele>228.8</ele>
        <time>2021-07-17T13:39:33Z</time>
      </trkpt>
      <trkpt lat="44.41547" lon="1.44209">
        <ele>228.8</ele>
        <time>2021-07-17T13:39:34Z</time>
      </trkpt>
      <trkpt lat="44.4155" lon="1.44204">
        <ele>229</ele>
        <time>2021-07-17T13:39:36Z</time>
      </trkpt>
      <trkpt lat="44.41553" lon="1.442">
        <ele>229.1</ele>
        <time>2021-07-17T13:39:37Z</time>
      </trkpt>
      <trkpt lat="44.41554" lon="1.44199">
        <ele>229.1</ele>
        <time>2021-07-17T13:39:38Z</time>
      </trkpt>
      <trkpt lat="44.41556" lon="1.44196">
        <ele>229.2</ele>
        <time>2021-07-17T13:39:40Z</time>
      </trkpt>
      <trkpt lat="44.41557" lon="1.44195">
        <ele>229.3</ele>
        <time>2021-07-17T13:39:41Z</time>
      </trkpt>
      <trkpt lat="44.4156" lon="1.44194">
        <ele>229.3</ele>
        <time>2021-07-17T13:39:42Z</time>
      </trkpt>
      <trkpt lat="44.41561" lon="1.44194">
        <ele>229.4</ele>
        <time>2021-07-17T13:39:43Z</time>
      </trkpt>
      <trkpt lat="44.41564" lon="1.44193">
        <ele>229.4</ele>
        <time>2021-07-17T13:39:44Z</time>
      </trkpt>
      <trkpt lat="44.41565" lon="1.44193">
        <ele>229.4</ele>
        <time>2021-07-17T13:39:45Z</time>
      </trkpt>
      <trkpt lat="44.41567" lon="1.44192">
        <ele>229.4</ele>
        <time>2021-07-17T13:39:47Z</time>
      </trkpt>
      <trkpt lat="44.4157" lon="1.44191">
        <ele>229.4</ele>
        <time>2021-07-17T13:39:48Z</time>
      </trkpt>
      <trkpt lat="44.41573" lon="1.44191">
        <ele>229.4</ele>
        <time>2021-07-17T13:39:50Z</time>
      </trkpt>
      <trkpt lat="44.41576" lon="1.44192">
        <ele>229.4</ele>
        <time>2021-07-17T13:39:52Z</time>
      </trkpt>
      <trkpt lat="44.41579" lon="1.44191">
        <ele>229.3</ele>
        <time>2021-07-17T13:39:53Z</time>
      </trkpt>
      <trkpt lat="44.41582" lon="1.44191">
        <ele>229.2</ele>
        <time>2021-07-17T13:39:55Z</time>
      </trkpt>
      <trkpt lat="44.41585" lon="1.44189">
        <ele>229.1</ele>
        <time>2021-07-17T13:39:56Z</time>
      </trkpt>
      <trkpt lat="44.41585" lon="1.44188">
        <ele>229</ele>
        <time>2021-07-17T13:39:57Z</time>
      </trkpt>
      <trkpt lat="44.41587" lon="1.44188">
        <ele>229</ele>
        <time>2021-07-17T13:39:59Z</time>
      </trkpt>
      <trkpt lat="44.41588" lon="1.44187">
        <ele>228.9</ele>
        <time>2021-07-17T13:40:00Z</time>
      </trkpt>
      <trkpt lat="44.41591" lon="1.44185">
        <ele>228.7</ele>
        <time>2021-07-17T13:40:01Z</time>
      </trkpt>
      <trkpt lat="44.41593" lon="1.44182">
        <ele>228.5</ele>
        <time>2021-07-17T13:40:03Z</time>
      </trkpt>
      <trkpt lat="44.41595" lon="1.4418">
        <ele>228.3</ele>
        <time>2021-07-17T13:40:04Z</time>
      </trkpt>
      <trkpt lat="44.41596" lon="1.4418">
        <ele>228.2</ele>
        <time>2021-07-17T13:40:06Z</time>
      </trkpt>
      <trkpt lat="44.41597" lon="1.44179">
        <ele>228.1</ele>
        <time>2021-07-17T13:40:08Z</time>
      </trkpt>
      <trkpt lat="44.41598" lon="1.44179">
        <ele>228</ele>
        <time>2021-07-17T13:40:10Z</time>
      </trkpt>
      <trkpt lat="44.41599" lon="1.44179">
        <ele>227.9</ele>
        <time>2021-07-17T13:40:11Z</time>
      </trkpt>
      <trkpt lat="44.416" lon="1.44179">
        <ele>227.8</ele>
        <time>2021-07-17T13:40:13Z</time>
      </trkpt>
      <trkpt lat="44.41601" lon="1.44178">
        <ele>227.7</ele>
        <time>2021-07-17T13:40:14Z</time>
      </trkpt>
      <trkpt lat="44.41602" lon="1.44178">
        <ele>227.6</ele>
        <time>2021-07-17T13:40:42Z</time>
      </trkpt>
      <trkpt lat="44.41603" lon="1.44178">
        <ele>227.5</ele>
        <time>2021-07-17T13:40:43Z</time>
      </trkpt>
      <trkpt lat="44.41606" lon="1.44177">
        <ele>227.1</ele>
        <time>2021-07-17T13:40:44Z</time>
      </trkpt>
      <trkpt lat="44.41613" lon="1.44174">
        <ele>225.9</ele>
        <time>2021-07-17T13:40:46Z</time>
      </trkpt>
      <trkpt lat="44.41619" lon="1.44164">
        <ele>224.3</ele>
        <time>2021-07-17T13:40:48Z</time>
      </trkpt>
      <trkpt lat="44.41624" lon="1.44161">
        <ele>223.4</ele>
        <time>2021-07-17T13:40:50Z</time>
      </trkpt>
      <trkpt lat="44.41634" lon="1.4416">
        <ele>221.6</ele>
        <time>2021-07-17T13:40:51Z</time>
      </trkpt>
      <trkpt lat="44.4164" lon="1.44159">
        <ele>220.8</ele>
        <time>2021-07-17T13:40:52Z</time>
      </trkpt>
      <trkpt lat="44.41645" lon="1.44157">
        <ele>220.1</ele>
        <time>2021-07-17T13:40:53Z</time>
      </trkpt>
      <trkpt lat="44.4165" lon="1.44156">
        <ele>219.5</ele>
        <time>2021-07-17T13:40:54Z</time>
      </trkpt>
      <trkpt lat="44.41664" lon="1.44157">
        <ele>217.8</ele>
        <time>2021-07-17T13:40:56Z</time>
      </trkpt>
      <trkpt lat="44.4167" lon="1.44157">
        <ele>216.6</ele>
        <time>2021-07-17T13:40:57Z</time>
      </trkpt>
      <trkpt lat="44.41677" lon="1.44157">
        <ele>215.1</ele>
        <time>2021-07-17T13:40:58Z</time>
      </trkpt>
      <trkpt lat="44.41692" lon="1.44154">
        <ele>211.9</ele>
        <time>2021-07-17T13:41:00Z</time>
      </trkpt>
      <trkpt lat="44.41707" lon="1.44149">
        <ele>208.4</ele>
        <time>2021-07-17T13:41:02Z</time>
      </trkpt>
      <trkpt lat="44.4172" lon="1.44144">
        <ele>205.1</ele>
        <time>2021-07-17T13:41:04Z</time>
      </trkpt>
      <trkpt lat="44.41732" lon="1.44137">
        <ele>202.4</ele>
        <time>2021-07-17T13:41:06Z</time>
      </trkpt>
      <trkpt lat="44.4174" lon="1.44127">
        <ele>199.9</ele>
        <time>2021-07-17T13:41:08Z</time>
      </trkpt>
      <trkpt lat="44.4175" lon="1.4412">
        <ele>197.1</ele>
        <time>2021-07-17T13:41:10Z</time>
      </trkpt>
      <trkpt lat="44.41756" lon="1.44119">
        <ele>195.4</ele>
        <time>2021-07-17T13:41:11Z</time>
      </trkpt>
      <trkpt lat="44.41768" lon="1.44121">
        <ele>192.2</ele>
        <time>2021-07-17T13:41:13Z</time>
      </trkpt>
      <trkpt lat="44.41773" lon="1.44121">
        <ele>191</ele>
        <time>2021-07-17T13:41:14Z</time>
      </trkpt>
      <trkpt lat="44.41781" lon="1.44117">
        <ele>188.9</ele>
        <time>2021-07-17T13:41:16Z</time>
      </trkpt>
      <trkpt lat="44.41791" lon="1.44111">
        <ele>186.4</ele>
        <time>2021-07-17T13:41:18Z</time>
      </trkpt>
      <trkpt lat="44.41792" lon="1.44111">
        <ele>185.9</ele>
        <time>2021-07-17T13:41:19Z</time>
      </trkpt>
      <trkpt lat="44.41792" lon="1.44111">
        <ele>185.8</ele>
        <time>2021-07-17T13:41:20Z</time>
      </trkpt>
      <trkpt lat="44.41792" lon="1.44111">
        <ele>185.7</ele>
        <time>2021-07-17T13:41:22Z</time>
      </trkpt>
      <trkpt lat="44.41792" lon="1.44111">
        <ele>185.7</ele>
        <time>2021-07-17T13:41:23Z</time>
      </trkpt>
      <trkpt lat="44.41792" lon="1.44111">
        <ele>185.7</ele>
        <time>2021-07-17T13:41:24Z</time>
      </trkpt>
      <trkpt lat="44.41792" lon="1.44111">
        <ele>185.7</ele>
        <time>2021-07-17T13:41:25Z</time>
      </trkpt>
      <trkpt lat="44.41792" lon="1.44111">
        <ele>185.6</ele>
        <time>2021-07-17T13:41:27Z</time>
      </trkpt>
      <trkpt lat="44.41793" lon="1.44111">
        <ele>185.4</ele>
        <time>2021-07-17T13:41:29Z</time>
      </trkpt>
      <trkpt lat="44.41794" lon="1.44112">
        <ele>184.9</ele>
        <time>2021-07-17T13:42:06Z</time>
      </trkpt>
      <trkpt lat="44.41797" lon="1.44112">
        <ele>184.3</ele>
        <time>2021-07-17T13:42:07Z</time>
      </trkpt>
      <trkpt lat="44.418" lon="1.44112">
        <ele>183.4</ele>
        <time>2021-07-17T13:42:09Z</time>
      </trkpt>
      <trkpt lat="44.41803" lon="1.4411">
        <ele>182.5</ele>
        <time>2021-07-17T13:42:10Z</time>
      </trkpt>
      <trkpt lat="44.41806" lon="1.44108">
        <ele>181.7</ele>
        <time>2021-07-17T13:42:11Z</time>
      </trkpt>
      <trkpt lat="44.41808" lon="1.44102">
        <ele>180.5</ele>
        <time>2021-07-17T13:42:13Z</time>
      </trkpt>
      <trkpt lat="44.41811" lon="1.441">
        <ele>179.8</ele>
        <time>2021-07-17T13:42:14Z</time>
      </trkpt>
      <trkpt lat="44.41816" lon="1.44097">
        <ele>178.8</ele>
        <time>2021-07-17T13:42:15Z</time>
      </trkpt>
      <trkpt lat="44.4182" lon="1.44094">
        <ele>177.8</ele>
        <time>2021-07-17T13:42:16Z</time>
      </trkpt>
      <trkpt lat="44.41825" lon="1.44089">
        <ele>176.7</ele>
        <time>2021-07-17T13:42:17Z</time>
      </trkpt>
      <trkpt lat="44.41837" lon="1.44081">
        <ele>173.7</ele>
        <time>2021-07-17T13:42:19Z</time>
      </trkpt>
      <trkpt lat="44.41843" lon="1.44079">
        <ele>172.4</ele>
        <time>2021-07-17T13:42:20Z</time>
      </trkpt>
      <trkpt lat="44.41854" lon="1.44078">
        <ele>170.7</ele>
        <time>2021-07-17T13:42:22Z</time>
      </trkpt>
      <trkpt lat="44.41859" lon="1.44077">
        <ele>170</ele>
        <time>2021-07-17T13:42:23Z</time>
      </trkpt>
      <trkpt lat="44.41862" lon="1.44074">
        <ele>169.7</ele>
        <time>2021-07-17T13:42:25Z</time>
      </trkpt>
      <trkpt lat="44.41865" lon="1.44072">
        <ele>169.5</ele>
        <time>2021-07-17T13:42:26Z</time>
      </trkpt>
      <trkpt lat="44.41864" lon="1.44073">
        <ele>169.5</ele>
        <time>2021-07-17T13:42:27Z</time>
      </trkpt>
      <trkpt lat="44.41864" lon="1.44073">
        <ele>169.4</ele>
        <time>2021-07-17T13:42:28Z</time>
      </trkpt>
      <trkpt lat="44.41864" lon="1.44073">
        <ele>169.4</ele>
        <time>2021-07-17T13:42:29Z</time>
      </trkpt>
      <trkpt lat="44.41863" lon="1.44072">
        <ele>169.4</ele>
        <time>2021-07-17T13:42:31Z</time>
      </trkpt>
      <trkpt lat="44.41863" lon="1.44073">
        <ele>169.4</ele>
        <time>2021-07-17T13:42:33Z</time>
      </trkpt>
      <trkpt lat="44.41863" lon="1.44073">
        <ele>169.4</ele>
        <time>2021-07-17T13:42:35Z</time>
      </trkpt>
      <trkpt lat="44.41865" lon="1.44067">
        <ele>169.2</ele>
        <time>2021-07-17T13:44:16Z</time>
      </trkpt>
      <trkpt lat="44.41866" lon="1.44062">
        <ele>169.1</ele>
        <time>2021-07-17T13:44:18Z</time>
      </trkpt>
      <trkpt lat="44.41866" lon="1.4406">
        <ele>169.1</ele>
        <time>2021-07-17T13:44:19Z</time>
      </trkpt>
      <trkpt lat="44.41867" lon="1.44058">
        <ele>169</ele>
        <time>2021-07-17T13:44:20Z</time>
      </trkpt>
      <trkpt lat="44.41868" lon="1.44057">
        <ele>169</ele>
        <time>2021-07-17T13:44:22Z</time>
      </trkpt>
      <trkpt lat="44.41869" lon="1.44057">
        <ele>169</ele>
        <time>2021-07-17T13:44:23Z</time>
      </trkpt>
      <trkpt lat="44.41869" lon="1.44057">
        <ele>169</ele>
        <time>2021-07-17T13:44:25Z</time>
      </trkpt>
      <trkpt lat="44.41869" lon="1.44057">
        <ele>169</ele>
        <time>2021-07-17T13:44:27Z</time>
      </trkpt>
      <trkpt lat="44.41869" lon="1.44057">
        <ele>169</ele>
        <time>2021-07-17T13:44:29Z</time>
      </trkpt>
      <trkpt lat="44.41869" lon="1.44057">
        <ele>169</ele>
        <time>2021-07-17T13:44:30Z</time>
      </trkpt>
      <trkpt lat="44.4187" lon="1.44057">
        <ele>169</ele>
        <time>2021-07-17T13:44:58Z</time>
      </trkpt>
      <trkpt lat="44.41873" lon="1.44058">
        <ele>169</ele>
        <time>2021-07-17T13:44:59Z</time>
      </trkpt>
      <trkpt lat="44.4188" lon="1.44056">
        <ele>168.9</ele>
        <time>2021-07-17T13:45:01Z</time>
      </trkpt>
      <trkpt lat="44.41884" lon="1.44054">
        <ele>168.8</ele>
        <time>2021-07-17T13:45:02Z</time>
      </trkpt>
      <trkpt lat="44.41895" lon="1.44049">
        <ele>168.5</ele>
        <time>2021-07-17T13:45:04Z</time>
      </trkpt>
      <trkpt lat="44.41901" lon="1.44047">
        <ele>168.3</ele>
        <time>2021-07-17T13:45:05Z</time>
      </trkpt>
      <trkpt lat="44.41912" lon="1.44048">
        <ele>167.9</ele>
        <time>2021-07-17T13:45:07Z</time>
      </trkpt>
      <trkpt lat="44.41916" lon="1.44047">
        <ele>167.7</ele>
        <time>2021-07-17T13:45:08Z</time>
      </trkpt>
      <trkpt lat="44.41925" lon="1.44041">
        <ele>167.4</ele>
        <time>2021-07-17T13:45:10Z</time>
      </trkpt>
      <trkpt lat="44.4193" lon="1.44041">
        <ele>167.2</ele>
        <time>2021-07-17T13:45:11Z</time>
      </trkpt>
      <trkpt lat="44.41934" lon="1.4404">
        <ele>167</ele>
        <time>2021-07-17T13:45:12Z</time>
      </trkpt>
      <trkpt lat="44.41942" lon="1.44038">
        <ele>166.5</ele>
        <time>2021-07-17T13:45:14Z</time>
      </trkpt>
      <trkpt lat="44.4195" lon="1.44038">
        <ele>166.1</ele>
        <time>2021-07-17T13:45:16Z</time>
      </trkpt>
      <trkpt lat="44.41953" lon="1.44037">
        <ele>166</ele>
        <time>2021-07-17T13:45:17Z</time>
      </trkpt>
      <trkpt lat="44.41959" lon="1.44034">
        <ele>165.9</ele>
        <time>2021-07-17T13:45:19Z</time>
      </trkpt>
      <trkpt lat="44.41963" lon="1.44033">
        <ele>165.9</ele>
        <time>2021-07-17T13:45:20Z</time>
      </trkpt>
      <trkpt lat="44.41972" lon="1.44031">
        <ele>165.9</ele>
        <time>2021-07-17T13:45:22Z</time>
      </trkpt>
      <trkpt lat="44.41976" lon="1.4403">
        <ele>166</ele>
        <time>2021-07-17T13:45:23Z</time>
      </trkpt>
      <trkpt lat="44.41986" lon="1.4403">
        <ele>166.1</ele>
        <time>2021-07-17T13:45:25Z</time>
      </trkpt>
      <trkpt lat="44.41991" lon="1.44031">
        <ele>166.2</ele>
        <time>2021-07-17T13:45:26Z</time>
      </trkpt>
      <trkpt lat="44.41996" lon="1.44032">
        <ele>166.3</ele>
        <time>2021-07-17T13:45:27Z</time>
      </trkpt>
      <trkpt lat="44.42004" lon="1.44034">
        <ele>166.5</ele>
        <time>2021-07-17T13:45:29Z</time>
      </trkpt>
      <trkpt lat="44.42008" lon="1.44034">
        <ele>166.6</ele>
        <time>2021-07-17T13:45:30Z</time>
      </trkpt>
      <trkpt lat="44.4201" lon="1.44032">
        <ele>166.7</ele>
        <time>2021-07-17T13:45:31Z</time>
      </trkpt>
      <trkpt lat="44.42013" lon="1.4403">
        <ele>166.8</ele>
        <time>2021-07-17T13:45:32Z</time>
      </trkpt>
      <trkpt lat="44.42019" lon="1.4403">
        <ele>166.9</ele>
        <time>2021-07-17T13:45:34Z</time>
      </trkpt>
      <trkpt lat="44.42023" lon="1.4403">
        <ele>167</ele>
        <time>2021-07-17T13:45:35Z</time>
      </trkpt>
      <trkpt lat="44.42033" lon="1.44033">
        <ele>166.9</ele>
        <time>2021-07-17T13:45:37Z</time>
      </trkpt>
      <trkpt lat="44.42039" lon="1.44036">
        <ele>166.7</ele>
        <time>2021-07-17T13:45:38Z</time>
      </trkpt>
      <trkpt lat="44.4205" lon="1.44039">
        <ele>166.2</ele>
        <time>2021-07-17T13:45:40Z</time>
      </trkpt>
      <trkpt lat="44.42058" lon="1.44039">
        <ele>165.7</ele>
        <time>2021-07-17T13:45:42Z</time>
      </trkpt>
      <trkpt lat="44.42062" lon="1.4404">
        <ele>165.5</ele>
        <time>2021-07-17T13:45:43Z</time>
      </trkpt>
      <trkpt lat="44.42068" lon="1.44041">
        <ele>165.1</ele>
        <time>2021-07-17T13:45:45Z</time>
      </trkpt>
      <trkpt lat="44.42072" lon="1.44042">
        <ele>164.9</ele>
        <time>2021-07-17T13:45:46Z</time>
      </trkpt>
      <trkpt lat="44.42075" lon="1.44045">
        <ele>164.7</ele>
        <time>2021-07-17T13:45:47Z</time>
      </trkpt>
      <trkpt lat="44.42078" lon="1.44048">
        <ele>164.5</ele>
        <time>2021-07-17T13:45:49Z</time>
      </trkpt>
      <trkpt lat="44.42079" lon="1.44052">
        <ele>164.4</ele>
        <time>2021-07-17T13:45:50Z</time>
      </trkpt>
      <trkpt lat="44.42081" lon="1.44059">
        <ele>164.2</ele>
        <time>2021-07-17T13:45:52Z</time>
      </trkpt>
      <trkpt lat="44.42081" lon="1.44065">
        <ele>164.2</ele>
        <time>2021-07-17T13:45:53Z</time>
      </trkpt>
      <trkpt lat="44.42084" lon="1.44077">
        <ele>164.2</ele>
        <time>2021-07-17T13:45:55Z</time>
      </trkpt>
      <trkpt lat="44.42086" lon="1.44081">
        <ele>164.2</ele>
        <time>2021-07-17T13:45:57Z</time>
      </trkpt>
      <trkpt lat="44.42086" lon="1.44081">
        <ele>164.2</ele>
        <time>2021-07-17T13:45:58Z</time>
      </trkpt>
      <trkpt lat="44.42086" lon="1.44082">
        <ele>164.2</ele>
        <time>2021-07-17T13:45:59Z</time>
      </trkpt>
      <trkpt lat="44.42086" lon="1.44081">
        <ele>164.2</ele>
        <time>2021-07-17T13:46:01Z</time>
      </trkpt>
      <trkpt lat="44.42086" lon="1.44081">
        <ele>164.2</ele>
        <time>2021-07-17T13:46:02Z</time>
      </trkpt>
      <trkpt lat="44.42085" lon="1.4408">
        <ele>164.2</ele>
        <time>2021-07-17T13:46:04Z</time>
      </trkpt>
      <trkpt lat="44.42085" lon="1.4408">
        <ele>164.2</ele>
        <time>2021-07-17T13:46:06Z</time>
      </trkpt>
      <trkpt lat="44.42087" lon="1.44076">
        <ele>164.1</ele>
        <time>2021-07-17T13:46:12Z</time>
      </trkpt>
      <trkpt lat="44.42087" lon="1.44073">
        <ele>164.1</ele>
        <time>2021-07-17T13:46:14Z</time>
      </trkpt>
      <trkpt lat="44.42087" lon="1.44069">
        <ele>164</ele>
        <time>2021-07-17T13:46:15Z</time>
      </trkpt>
      <trkpt lat="44.42087" lon="1.44065">
        <ele>164</ele>
        <time>2021-07-17T13:46:16Z</time>
      </trkpt>
      <trkpt lat="44.42085" lon="1.44063">
        <ele>163.9</ele>
        <time>2021-07-17T13:46:18Z</time>
      </trkpt>
      <trkpt lat="44.42085" lon="1.44062">
        <ele>163.9</ele>
        <time>2021-07-17T13:46:20Z</time>
      </trkpt>
      <trkpt lat="44.42085" lon="1.44062">
        <ele>163.9</ele>
        <time>2021-07-17T13:46:22Z</time>
      </trkpt>
      <trkpt lat="44.42085" lon="1.44062">
        <ele>163.9</ele>
        <time>2021-07-17T13:46:23Z</time>
      </trkpt>
      <trkpt lat="44.42085" lon="1.44062">
        <ele>163.9</ele>
        <time>2021-07-17T13:46:24Z</time>
      </trkpt>
      <trkpt lat="44.42085" lon="1.44063">
        <ele>163.9</ele>
        <time>2021-07-17T13:46:25Z</time>
      </trkpt>
      <trkpt lat="44.42087" lon="1.44066">
        <ele>163.8</ele>
        <time>2021-07-17T13:46:37Z</time>
      </trkpt>
      <trkpt lat="44.42091" lon="1.44067">
        <ele>163.6</ele>
        <time>2021-07-17T13:46:38Z</time>
      </trkpt>
      <trkpt lat="44.42095" lon="1.44066">
        <ele>163.4</ele>
        <time>2021-07-17T13:46:39Z</time>
      </trkpt>
      <trkpt lat="44.421" lon="1.44064">
        <ele>163.2</ele>
        <time>2021-07-17T13:46:41Z</time>
      </trkpt>
      <trkpt lat="44.42104" lon="1.44064">
        <ele>163</ele>
        <time>2021-07-17T13:46:43Z</time>
      </trkpt>
      <trkpt lat="44.42105" lon="1.44064">
        <ele>163</ele>
        <time>2021-07-17T13:46:44Z</time>
      </trkpt>
      <trkpt lat="44.42105" lon="1.44064">
        <ele>162.9</ele>
        <time>2021-07-17T13:46:46Z</time>
      </trkpt>
      <trkpt lat="44.42105" lon="1.44064">
        <ele>162.9</ele>
        <time>2021-07-17T13:46:47Z</time>
      </trkpt>
      <trkpt lat="44.42105" lon="1.44065">
        <ele>162.9</ele>
        <time>2021-07-17T13:46:49Z</time>
      </trkpt>
      <trkpt lat="44.42105" lon="1.44065">
        <ele>162.9</ele>
        <time>2021-07-17T13:46:50Z</time>
      </trkpt>
      <trkpt lat="44.42105" lon="1.44065">
        <ele>162.9</ele>
        <time>2021-07-17T13:46:52Z</time>
      </trkpt>
      <trkpt lat="44.42107" lon="1.44065">
        <ele>162.9</ele>
        <time>2021-07-17T13:48:06Z</time>
      </trkpt>
      <trkpt lat="44.42111" lon="1.44065">
        <ele>162.8</ele>
        <time>2021-07-17T13:48:07Z</time>
      </trkpt>
      <trkpt lat="44.42113" lon="1.44065">
        <ele>162.7</ele>
        <time>2021-07-17T13:48:08Z</time>
      </trkpt>
      <trkpt lat="44.42117" lon="1.44066">
        <ele>162.7</ele>
        <time>2021-07-17T13:48:10Z</time>
      </trkpt>
      <trkpt lat="44.42117" lon="1.44067">
        <ele>162.7</ele>
        <time>2021-07-17T13:48:12Z</time>
      </trkpt>
      <trkpt lat="44.4212" lon="1.44067">
        <ele>162.6</ele>
        <time>2021-07-17T13:48:13Z</time>
      </trkpt>
      <trkpt lat="44.42123" lon="1.44067">
        <ele>162.6</ele>
        <time>2021-07-17T13:48:14Z</time>
      </trkpt>
      <trkpt lat="44.42125" lon="1.44066">
        <ele>162.6</ele>
        <time>2021-07-17T13:48:15Z</time>
      </trkpt>
      <trkpt lat="44.42127" lon="1.44067">
        <ele>162.6</ele>
        <time>2021-07-17T13:48:17Z</time>
      </trkpt>
      <trkpt lat="44.42128" lon="1.44067">
        <ele>162.6</ele>
        <time>2021-07-17T13:48:18Z</time>
      </trkpt>
      <trkpt lat="44.42128" lon="1.44067">
        <ele>162.6</ele>
        <time>2021-07-17T13:48:19Z</time>
      </trkpt>
      <trkpt lat="44.42128" lon="1.44067">
        <ele>162.6</ele>
        <time>2021-07-17T13:48:20Z</time>
      </trkpt>
      <trkpt lat="44.4213" lon="1.4407">
        <ele>162.1</ele>
        <time>2021-07-17T13:48:22Z</time>
      </trkpt>
      <trkpt lat="44.42133" lon="1.44072">
        <ele>162.1</ele>
        <time>2021-07-17T13:48:23Z</time>
      </trkpt>
      <trkpt lat="44.42136" lon="1.44075">
        <ele>162</ele>
        <time>2021-07-17T13:48:25Z</time>
      </trkpt>
      <trkpt lat="44.42139" lon="1.44076">
        <ele>161.9</ele>
        <time>2021-07-17T13:48:26Z</time>
      </trkpt>
      <trkpt lat="44.42141" lon="1.44076">
        <ele>161.9</ele>
        <time>2021-07-17T13:48:27Z</time>
      </trkpt>
      <trkpt lat="44.42145" lon="1.44075">
        <ele>161.9</ele>
        <time>2021-07-17T13:48:29Z</time>
      </trkpt>
      <trkpt lat="44.42148" lon="1.44075">
        <ele>161.8</ele>
        <time>2021-07-17T13:48:30Z</time>
      </trkpt>
      <trkpt lat="44.4215" lon="1.44074">
        <ele>161.8</ele>
        <time>2021-07-17T13:48:31Z</time>
      </trkpt>
      <trkpt lat="44.42151" lon="1.44073">
        <ele>161.8</ele>
        <time>2021-07-17T13:48:33Z</time>
      </trkpt>
      <trkpt lat="44.4215" lon="1.44073">
        <ele>161.7</ele>
        <time>2021-07-17T13:48:35Z</time>
      </trkpt>
      <trkpt lat="44.4215" lon="1.44073">
        <ele>161.7</ele>
        <time>2021-07-17T13:48:37Z</time>
      </trkpt>
      <trkpt lat="44.4215" lon="1.44073">
        <ele>161.7</ele>
        <time>2021-07-17T13:48:38Z</time>
      </trkpt>
      <trkpt lat="44.4215" lon="1.44073">
        <ele>161.7</ele>
        <time>2021-07-17T13:48:40Z</time>
      </trkpt>
      <trkpt lat="44.4215" lon="1.44073">
        <ele>161.7</ele>
        <time>2021-07-17T13:48:41Z</time>
      </trkpt>
      <trkpt lat="44.4216" lon="1.44096">
        <ele>161.4</ele>
        <time>2021-07-17T13:49:57Z</time>
      </trkpt>
      <trkpt lat="44.42164" lon="1.44098">
        <ele>161.4</ele>
        <time>2021-07-17T13:49:58Z</time>
      </trkpt>
      <trkpt lat="44.42167" lon="1.44101">
        <ele>161.3</ele>
        <time>2021-07-17T13:49:59Z</time>
      </trkpt>
      <trkpt lat="44.42169" lon="1.44102">
        <ele>161.3</ele>
        <time>2021-07-17T13:50:00Z</time>
      </trkpt>
      <trkpt lat="44.42172" lon="1.44103">
        <ele>161.2</ele>
        <time>2021-07-17T13:50:02Z</time>
      </trkpt>
      <trkpt lat="44.42174" lon="1.44104">
        <ele>161.2</ele>
        <time>2021-07-17T13:50:03Z</time>
      </trkpt>
      <trkpt lat="44.42174" lon="1.44104">
        <ele>161.2</ele>
        <time>2021-07-17T13:50:04Z</time>
      </trkpt>
      <trkpt lat="44.42174" lon="1.44105">
        <ele>161.2</ele>
        <time>2021-07-17T13:50:05Z</time>
      </trkpt>
      <trkpt lat="44.42174" lon="1.44105">
        <ele>161.2</ele>
        <time>2021-07-17T13:50:06Z</time>
      </trkpt>
      <trkpt lat="44.42174" lon="1.44105">
        <ele>161.2</ele>
        <time>2021-07-17T13:50:08Z</time>
      </trkpt>
      <trkpt lat="44.42175" lon="1.44105">
        <ele>161.2</ele>
        <time>2021-07-17T13:50:10Z</time>
      </trkpt>
      <trkpt lat="44.42175" lon="1.44105">
        <ele>161.2</ele>
        <time>2021-07-17T13:50:11Z</time>
      </trkpt>
      <trkpt lat="44.42175" lon="1.44106">
        <ele>161.2</ele>
        <time>2021-07-17T13:50:12Z</time>
      </trkpt>
      <trkpt lat="44.42175" lon="1.44106">
        <ele>161.2</ele>
        <time>2021-07-17T13:50:13Z</time>
      </trkpt>
      <trkpt lat="44.42177" lon="1.44107">
        <ele>161.1</ele>
        <time>2021-07-17T13:50:14Z</time>
      </trkpt>
      <trkpt lat="44.42181" lon="1.44109">
        <ele>161.1</ele>
        <time>2021-07-17T13:50:16Z</time>
      </trkpt>
      <trkpt lat="44.42183" lon="1.4411">
        <ele>161</ele>
        <time>2021-07-17T13:50:17Z</time>
      </trkpt>
      <trkpt lat="44.42188" lon="1.44112">
        <ele>160.9</ele>
        <time>2021-07-17T13:50:19Z</time>
      </trkpt>
      <trkpt lat="44.4219" lon="1.44112">
        <ele>160.9</ele>
        <time>2021-07-17T13:50:20Z</time>
      </trkpt>
      <trkpt lat="44.42194" lon="1.44112">
        <ele>160.8</ele>
        <time>2021-07-17T13:50:22Z</time>
      </trkpt>
      <trkpt lat="44.42198" lon="1.44114">
        <ele>160.9</ele>
        <time>2021-07-17T13:50:23Z</time>
      </trkpt>
      <trkpt lat="44.422" lon="1.44116">
        <ele>160.9</ele>
        <time>2021-07-17T13:50:24Z</time>
      </trkpt>
      <trkpt lat="44.42203" lon="1.44119">
        <ele>160.9</ele>
        <time>2021-07-17T13:50:26Z</time>
      </trkpt>
      <trkpt lat="44.42204" lon="1.4412">
        <ele>161</ele>
        <time>2021-07-17T13:50:27Z</time>
      </trkpt>
      <trkpt lat="44.42205" lon="1.44121">
        <ele>161</ele>
        <time>2021-07-17T13:50:28Z</time>
      </trkpt>
      <trkpt lat="44.42205" lon="1.44121">
        <ele>161</ele>
        <time>2021-07-17T13:50:29Z</time>
      </trkpt>
      <trkpt lat="44.42205" lon="1.44123">
        <ele>161</ele>
        <time>2021-07-17T13:50:31Z</time>
      </trkpt>
      <trkpt lat="44.42207" lon="1.44127">
        <ele>161</ele>
        <time>2021-07-17T13:50:33Z</time>
      </trkpt>
      <trkpt lat="44.42208" lon="1.44131">
        <ele>161.1</ele>
        <time>2021-07-17T13:50:34Z</time>
      </trkpt>
      <trkpt lat="44.42208" lon="1.44134">
        <ele>161.1</ele>
        <time>2021-07-17T13:50:35Z</time>
      </trkpt>
      <trkpt lat="44.42207" lon="1.44136">
        <ele>161.1</ele>
        <time>2021-07-17T13:50:36Z</time>
      </trkpt>
      <trkpt lat="44.42203" lon="1.44137">
        <ele>161.1</ele>
        <time>2021-07-17T13:50:38Z</time>
      </trkpt>
      <trkpt lat="44.42202" lon="1.44138">
        <ele>161.2</ele>
        <time>2021-07-17T13:50:39Z</time>
      </trkpt>
      <trkpt lat="44.42199" lon="1.44137">
        <ele>161.2</ele>
        <time>2021-07-17T13:50:40Z</time>
      </trkpt>
      <trkpt lat="44.42197" lon="1.44137">
        <ele>161.2</ele>
        <time>2021-07-17T13:50:41Z</time>
      </trkpt>
      <trkpt lat="44.42193" lon="1.44135">
        <ele>161.3</ele>
        <time>2021-07-17T13:50:43Z</time>
      </trkpt>
      <trkpt lat="44.4219" lon="1.44135">
        <ele>161.3</ele>
        <time>2021-07-17T13:50:44Z</time>
      </trkpt>
      <trkpt lat="44.42186" lon="1.44134">
        <ele>161.3</ele>
        <time>2021-07-17T13:50:46Z</time>
      </trkpt>
      <trkpt lat="44.42184" lon="1.44132">
        <ele>161.4</ele>
        <time>2021-07-17T13:50:47Z</time>
      </trkpt>
      <trkpt lat="44.42183" lon="1.44131">
        <ele>161.4</ele>
        <time>2021-07-17T13:50:48Z</time>
      </trkpt>
      <trkpt lat="44.42182" lon="1.44129">
        <ele>161.4</ele>
        <time>2021-07-17T13:50:49Z</time>
      </trkpt>
      <trkpt lat="44.42181" lon="1.44127">
        <ele>161.4</ele>
        <time>2021-07-17T13:50:50Z</time>
      </trkpt>
      <trkpt lat="44.42181" lon="1.44126">
        <ele>161.4</ele>
        <time>2021-07-17T13:50:51Z</time>
      </trkpt>
      <trkpt lat="44.42177" lon="1.44124">
        <ele>161.5</ele>
        <time>2021-07-17T13:50:53Z</time>
      </trkpt>
      <trkpt lat="44.42176" lon="1.44124">
        <ele>161.5</ele>
        <time>2021-07-17T13:50:54Z</time>
      </trkpt>
      <trkpt lat="44.42173" lon="1.44121">
        <ele>161.5</ele>
        <time>2021-07-17T13:50:55Z</time>
      </trkpt>
      <trkpt lat="44.42171" lon="1.44116">
        <ele>161.6</ele>
        <time>2021-07-17T13:50:57Z</time>
      </trkpt>
      <trkpt lat="44.4217" lon="1.44114">
        <ele>161.6</ele>
        <time>2021-07-17T13:50:58Z</time>
      </trkpt>
      <trkpt lat="44.42169" lon="1.44113">
        <ele>161.6</ele>
        <time>2021-07-17T13:50:59Z</time>
      </trkpt>
      <trkpt lat="44.42166" lon="1.44111">
        <ele>161.6</ele>
        <time>2021-07-17T13:51:01Z</time>
      </trkpt>
      <trkpt lat="44.42163" lon="1.44108">
        <ele>161.7</ele>
        <time>2021-07-17T13:51:02Z</time>
      </trkpt>
      <trkpt lat="44.42159" lon="1.44106">
        <ele>161.7</ele>
        <time>2021-07-17T13:51:03Z</time>
      </trkpt>
      <trkpt lat="44.42154" lon="1.44103">
        <ele>161.8</ele>
        <time>2021-07-17T13:51:04Z</time>
      </trkpt>
      <trkpt lat="44.42145" lon="1.44098">
        <ele>161.9</ele>
        <time>2021-07-17T13:51:06Z</time>
      </trkpt>
      <trkpt lat="44.4214" lon="1.44096">
        <ele>162</ele>
        <time>2021-07-17T13:51:07Z</time>
      </trkpt>
      <trkpt lat="44.42135" lon="1.44095">
        <ele>162</ele>
        <time>2021-07-17T13:51:08Z</time>
      </trkpt>
      <trkpt lat="44.4213" lon="1.44098">
        <ele>162.1</ele>
        <time>2021-07-17T13:51:10Z</time>
      </trkpt>
      <trkpt lat="44.42126" lon="1.44102">
        <ele>162.2</ele>
        <time>2021-07-17T13:51:11Z</time>
      </trkpt>
      <trkpt lat="44.42125" lon="1.44108">
        <ele>162.2</ele>
        <time>2021-07-17T13:51:12Z</time>
      </trkpt>
      <trkpt lat="44.42125" lon="1.44113">
        <ele>162.2</ele>
        <time>2021-07-17T13:51:13Z</time>
      </trkpt>
      <trkpt lat="44.42125" lon="1.44118">
        <ele>162.3</ele>
        <time>2021-07-17T13:51:14Z</time>
      </trkpt>
      <trkpt lat="44.42125" lon="1.44122">
        <ele>162.3</ele>
        <time>2021-07-17T13:51:15Z</time>
      </trkpt>
      <trkpt lat="44.42126" lon="1.44124">
        <ele>162.3</ele>
        <time>2021-07-17T13:51:17Z</time>
      </trkpt>
      <trkpt lat="44.42125" lon="1.44124">
        <ele>162.3</ele>
        <time>2021-07-17T13:51:18Z</time>
      </trkpt>
      <trkpt lat="44.42125" lon="1.44124">
        <ele>162.3</ele>
        <time>2021-07-17T13:51:20Z</time>
      </trkpt>
      <trkpt lat="44.42125" lon="1.44124">
        <ele>162.3</ele>
        <time>2021-07-17T13:51:22Z</time>
      </trkpt>
      <trkpt lat="44.42125" lon="1.44124">
        <ele>162.3</ele>
        <time>2021-07-17T13:51:23Z</time>
      </trkpt>
      <trkpt lat="44.42125" lon="1.44124">
        <ele>162.3</ele>
        <time>2021-07-17T13:51:24Z</time>
      </trkpt>
      <trkpt lat="44.42125" lon="1.44124">
        <ele>162.3</ele>
        <time>2021-07-17T13:51:26Z</time>
      </trkpt>
      <trkpt lat="44.42129" lon="1.44127">
        <ele>162.3</ele>
        <time>2021-07-17T13:51:50Z</time>
      </trkpt>
      <trkpt lat="44.42131" lon="1.44131">
        <ele>162.4</ele>
        <time>2021-07-17T13:51:52Z</time>
      </trkpt>
      <trkpt lat="44.42134" lon="1.44134">
        <ele>162.4</ele>
        <time>2021-07-17T13:51:53Z</time>
      </trkpt>
      <trkpt lat="44.42137" lon="1.44139">
        <ele>162.5</ele>
        <time>2021-07-17T13:51:55Z</time>
      </trkpt>
      <trkpt lat="44.42141" lon="1.44145">
        <ele>162.6</ele>
        <time>2021-07-17T13:51:56Z</time>
      </trkpt>
      <trkpt lat="44.42147" lon="1.44151">
        <ele>162.6</ele>
        <time>2021-07-17T13:51:58Z</time>
      </trkpt>
      <trkpt lat="44.42153" lon="1.44158">
        <ele>162.4</ele>
        <time>2021-07-17T13:51:59Z</time>
      </trkpt>
      <trkpt lat="44.42157" lon="1.44163">
        <ele>162.2</ele>
        <time>2021-07-17T13:52:00Z</time>
      </trkpt>
      <trkpt lat="44.42165" lon="1.44172">
        <ele>161.8</ele>
        <time>2021-07-17T13:52:02Z</time>
      </trkpt>
      <trkpt lat="44.42174" lon="1.44181">
        <ele>161.5</ele>
        <time>2021-07-17T13:52:04Z</time>
      </trkpt>
      <trkpt lat="44.42185" lon="1.4419">
        <ele>161.3</ele>
        <time>2021-07-17T13:52:06Z</time>
      </trkpt>
      <trkpt lat="44.42191" lon="1.44195">
        <ele>161.4</ele>
        <time>2021-07-17T13:52:07Z</time>
      </trkpt>
      <trkpt lat="44.42197" lon="1.44201">
        <ele>161.3</ele>
        <time>2021-07-17T13:52:08Z</time>
      </trkpt>
      <trkpt lat="44.42208" lon="1.44212">
        <ele>161.3</ele>
        <time>2021-07-17T13:52:10Z</time>
      </trkpt>
      <trkpt lat="44.42214" lon="1.44219">
        <ele>161.4</ele>
        <time>2021-07-17T13:52:11Z</time>
      </trkpt>
      <trkpt lat="44.42225" lon="1.44232">
        <ele>161.2</ele>
        <time>2021-07-17T13:52:13Z</time>
      </trkpt>
      <trkpt lat="44.4223" lon="1.4424">
        <ele>160.8</ele>
        <time>2021-07-17T13:52:14Z</time>
      </trkpt>
      <trkpt lat="44.42239" lon="1.44256">
        <ele>159.9</ele>
        <time>2021-07-17T13:52:16Z</time>
      </trkpt>
      <trkpt lat="44.42243" lon="1.44264">
        <ele>159.3</ele>
        <time>2021-07-17T13:52:17Z</time>
      </trkpt>
      <trkpt lat="44.42253" lon="1.4428">
        <ele>158.3</ele>
        <time>2021-07-17T13:52:19Z</time>
      </trkpt>
      <trkpt lat="44.42259" lon="1.44288">
        <ele>157.7</ele>
        <time>2021-07-17T13:52:20Z</time>
      </trkpt>
      <trkpt lat="44.42271" lon="1.44302">
        <ele>156.5</ele>
        <time>2021-07-17T13:52:22Z</time>
      </trkpt>
      <trkpt lat="44.42279" lon="1.44309">
        <ele>155.8</ele>
        <time>2021-07-17T13:52:23Z</time>
      </trkpt>
      <trkpt lat="44.42286" lon="1.44316">
        <ele>155.1</ele>
        <time>2021-07-17T13:52:24Z</time>
      </trkpt>
      <trkpt lat="44.42301" lon="1.4433">
        <ele>153.5</ele>
        <time>2021-07-17T13:52:26Z</time>
      </trkpt>
      <trkpt lat="44.42315" lon="1.44342">
        <ele>152.1</ele>
        <time>2021-07-17T13:52:28Z</time>
      </trkpt>
      <trkpt lat="44.42323" lon="1.44348">
        <ele>151.4</ele>
        <time>2021-07-17T13:52:29Z</time>
      </trkpt>
      <trkpt lat="44.42339" lon="1.44359">
        <ele>149.9</ele>
        <time>2021-07-17T13:52:31Z</time>
      </trkpt>
      <trkpt lat="44.42347" lon="1.44364">
        <ele>149.1</ele>
        <time>2021-07-17T13:52:32Z</time>
      </trkpt>
      <trkpt lat="44.42363" lon="1.44374">
        <ele>147.7</ele>
        <time>2021-07-17T13:52:34Z</time>
      </trkpt>
      <trkpt lat="44.42371" lon="1.44379">
        <ele>147</ele>
        <time>2021-07-17T13:52:35Z</time>
      </trkpt>
      <trkpt lat="44.42388" lon="1.44392">
        <ele>145.9</ele>
        <time>2021-07-17T13:52:37Z</time>
      </trkpt>
      <trkpt lat="44.42397" lon="1.44398">
        <ele>145.5</ele>
        <time>2021-07-17T13:52:38Z</time>
      </trkpt>
      <trkpt lat="44.42414" lon="1.44409">
        <ele>142.3</ele>
        <time>2021-07-17T13:52:40Z</time>
      </trkpt>
      <trkpt lat="44.42422" lon="1.44416">
        <ele>141.1</ele>
        <time>2021-07-17T13:52:41Z</time>
      </trkpt>
      <trkpt lat="44.42436" lon="1.44428">
        <ele>139.5</ele>
        <time>2021-07-17T13:52:43Z</time>
      </trkpt>
      <trkpt lat="44.4244" lon="1.44431">
        <ele>139</ele>
        <time>2021-07-17T13:52:44Z</time>
      </trkpt>
      <trkpt lat="44.42445" lon="1.44434">
        <ele>138.5</ele>
        <time>2021-07-17T13:52:46Z</time>
      </trkpt>
      <trkpt lat="44.42447" lon="1.44433">
        <ele>138.4</ele>
        <time>2021-07-17T13:52:47Z</time>
      </trkpt>
      <trkpt lat="44.4245" lon="1.44429">
        <ele>138.3</ele>
        <time>2021-07-17T13:52:49Z</time>
      </trkpt>
      <trkpt lat="44.42451" lon="1.44427">
        <ele>138.2</ele>
        <time>2021-07-17T13:52:50Z</time>
      </trkpt>
      <trkpt lat="44.42454" lon="1.44424">
        <ele>138.1</ele>
        <time>2021-07-17T13:52:52Z</time>
      </trkpt>
      <trkpt lat="44.42455" lon="1.4442">
        <ele>137.9</ele>
        <time>2021-07-17T13:52:53Z</time>
      </trkpt>
      <trkpt lat="44.42456" lon="1.44418">
        <ele>137.9</ele>
        <time>2021-07-17T13:52:54Z</time>
      </trkpt>
      <trkpt lat="44.42458" lon="1.44415">
        <ele>137.8</ele>
        <time>2021-07-17T13:52:55Z</time>
      </trkpt>
      <trkpt lat="44.4246" lon="1.44412">
        <ele>137.7</ele>
        <time>2021-07-17T13:52:56Z</time>
      </trkpt>
      <trkpt lat="44.42464" lon="1.44406">
        <ele>137.4</ele>
        <time>2021-07-17T13:52:58Z</time>
      </trkpt>
      <trkpt lat="44.42468" lon="1.44399">
        <ele>137.2</ele>
        <time>2021-07-17T13:53:00Z</time>
      </trkpt>
      <trkpt lat="44.42471" lon="1.44394">
        <ele>137</ele>
        <time>2021-07-17T13:53:01Z</time>
      </trkpt>
      <trkpt lat="44.42474" lon="1.4439">
        <ele>136.8</ele>
        <time>2021-07-17T13:53:02Z</time>
      </trkpt>
      <trkpt lat="44.42477" lon="1.44383">
        <ele>136.5</ele>
        <time>2021-07-17T13:53:04Z</time>
      </trkpt>
      <trkpt lat="44.4248" lon="1.44374">
        <ele>136.2</ele>
        <time>2021-07-17T13:53:05Z</time>
      </trkpt>
      <trkpt lat="44.42483" lon="1.44368">
        <ele>135.9</ele>
        <time>2021-07-17T13:53:06Z</time>
      </trkpt>
      <trkpt lat="44.42485" lon="1.44363">
        <ele>135.7</ele>
        <time>2021-07-17T13:53:07Z</time>
      </trkpt>
      <trkpt lat="44.42487" lon="1.44359">
        <ele>135.5</ele>
        <time>2021-07-17T13:53:08Z</time>
      </trkpt>
      <trkpt lat="44.42492" lon="1.44346">
        <ele>134.9</ele>
        <time>2021-07-17T13:53:10Z</time>
      </trkpt>
      <trkpt lat="44.42497" lon="1.44333">
        <ele>134.4</ele>
        <time>2021-07-17T13:53:12Z</time>
      </trkpt>
      <trkpt lat="44.42499" lon="1.44326">
        <ele>134.2</ele>
        <time>2021-07-17T13:53:13Z</time>
      </trkpt>
      <trkpt lat="44.42501" lon="1.44318">
        <ele>134</ele>
        <time>2021-07-17T13:53:14Z</time>
      </trkpt>
      <trkpt lat="44.42505" lon="1.44303">
        <ele>133.5</ele>
        <time>2021-07-17T13:53:16Z</time>
      </trkpt>
      <trkpt lat="44.4251" lon="1.44288">
        <ele>133.1</ele>
        <time>2021-07-17T13:53:18Z</time>
      </trkpt>
      <trkpt lat="44.42516" lon="1.44272">
        <ele>132.6</ele>
        <time>2021-07-17T13:53:20Z</time>
      </trkpt>
      <trkpt lat="44.42523" lon="1.44257">
        <ele>132.1</ele>
        <time>2021-07-17T13:53:22Z</time>
      </trkpt>
      <trkpt lat="44.42526" lon="1.4425">
        <ele>131.9</ele>
        <time>2021-07-17T13:53:23Z</time>
      </trkpt>
      <trkpt lat="44.42529" lon="1.44242">
        <ele>131.7</ele>
        <time>2021-07-17T13:53:24Z</time>
      </trkpt>
      <trkpt lat="44.42533" lon="1.44235">
        <ele>131.5</ele>
        <time>2021-07-17T13:53:25Z</time>
      </trkpt>
      <trkpt lat="44.4254" lon="1.44222">
        <ele>131.2</ele>
        <time>2021-07-17T13:53:27Z</time>
      </trkpt>
      <trkpt lat="44.42548" lon="1.4421">
        <ele>130.9</ele>
        <time>2021-07-17T13:53:29Z</time>
      </trkpt>
      <trkpt lat="44.42555" lon="1.44197">
        <ele>130.8</ele>
        <time>2021-07-17T13:53:31Z</time>
      </trkpt>
      <trkpt lat="44.4256" lon="1.44192">
        <ele>130.8</ele>
        <time>2021-07-17T13:53:32Z</time>
      </trkpt>
      <trkpt lat="44.4257" lon="1.44184">
        <ele>130.7</ele>
        <time>2021-07-17T13:53:34Z</time>
      </trkpt>
      <trkpt lat="44.42576" lon="1.44182">
        <ele>130.7</ele>
        <time>2021-07-17T13:53:35Z</time>
      </trkpt>
      <trkpt lat="44.42588" lon="1.4418">
        <ele>130.8</ele>
        <time>2021-07-17T13:53:37Z</time>
      </trkpt>
      <trkpt lat="44.42594" lon="1.44179">
        <ele>130.8</ele>
        <time>2021-07-17T13:53:38Z</time>
      </trkpt>
      <trkpt lat="44.42602" lon="1.44177">
        <ele>130.8</ele>
        <time>2021-07-17T13:53:40Z</time>
      </trkpt>
      <trkpt lat="44.42605" lon="1.44177">
        <ele>130.8</ele>
        <time>2021-07-17T13:53:41Z</time>
      </trkpt>
      <trkpt lat="44.42609" lon="1.44177">
        <ele>130.8</ele>
        <time>2021-07-17T13:53:42Z</time>
      </trkpt>
      <trkpt lat="44.42615" lon="1.44179">
        <ele>130.8</ele>
        <time>2021-07-17T13:53:44Z</time>
      </trkpt>
      <trkpt lat="44.4262" lon="1.44186">
        <ele>130.8</ele>
        <time>2021-07-17T13:53:46Z</time>
      </trkpt>
      <trkpt lat="44.42623" lon="1.44189">
        <ele>130.7</ele>
        <time>2021-07-17T13:53:47Z</time>
      </trkpt>
      <trkpt lat="44.42625" lon="1.4419">
        <ele>130.7</ele>
        <time>2021-07-17T13:53:48Z</time>
      </trkpt>
      <trkpt lat="44.42631" lon="1.44191">
        <ele>130.7</ele>
        <time>2021-07-17T13:53:50Z</time>
      </trkpt>
      <trkpt lat="44.42637" lon="1.44193">
        <ele>130.7</ele>
        <time>2021-07-17T13:53:52Z</time>
      </trkpt>
      <trkpt lat="44.42641" lon="1.44194">
        <ele>130.6</ele>
        <time>2021-07-17T13:53:53Z</time>
      </trkpt>
      <trkpt lat="44.42645" lon="1.44196">
        <ele>130.6</ele>
        <time>2021-07-17T13:53:54Z</time>
      </trkpt>
      <trkpt lat="44.42649" lon="1.44198">
        <ele>130.5</ele>
        <time>2021-07-17T13:53:55Z</time>
      </trkpt>
      <trkpt lat="44.42654" lon="1.44201">
        <ele>130.4</ele>
        <time>2021-07-17T13:53:56Z</time>
      </trkpt>
      <trkpt lat="44.42661" lon="1.44205">
        <ele>130.2</ele>
        <time>2021-07-17T13:53:58Z</time>
      </trkpt>
      <trkpt lat="44.42668" lon="1.44207">
        <ele>130</ele>
        <time>2021-07-17T13:54:00Z</time>
      </trkpt>
      <trkpt lat="44.42671" lon="1.44207">
        <ele>130</ele>
        <time>2021-07-17T13:54:01Z</time>
      </trkpt>
      <trkpt lat="44.42678" lon="1.44205">
        <ele>129.8</ele>
        <time>2021-07-17T13:54:03Z</time>
      </trkpt>
      <trkpt lat="44.42683" lon="1.44202">
        <ele>129.7</ele>
        <time>2021-07-17T13:54:04Z</time>
      </trkpt>
      <trkpt lat="44.42687" lon="1.442">
        <ele>129.6</ele>
        <time>2021-07-17T13:54:05Z</time>
      </trkpt>
      <trkpt lat="44.4269" lon="1.44198">
        <ele>129.6</ele>
        <time>2021-07-17T13:54:07Z</time>
      </trkpt>
      <trkpt lat="44.42689" lon="1.44198">
        <ele>129.6</ele>
        <time>2021-07-17T13:54:08Z</time>
      </trkpt>
      <trkpt lat="44.42694" lon="1.44198">
        <ele>129.6</ele>
        <time>2021-07-17T13:54:09Z</time>
      </trkpt>
      <trkpt lat="44.42699" lon="1.44198">
        <ele>129.5</ele>
        <time>2021-07-17T13:54:10Z</time>
      </trkpt>
      <trkpt lat="44.42709" lon="1.44199">
        <ele>129.4</ele>
        <time>2021-07-17T13:54:11Z</time>
      </trkpt>
      <trkpt lat="44.42714" lon="1.442">
        <ele>129.4</ele>
        <time>2021-07-17T13:54:12Z</time>
      </trkpt>
      <trkpt lat="44.42725" lon="1.44199">
        <ele>129.3</ele>
        <time>2021-07-17T13:54:14Z</time>
      </trkpt>
      <trkpt lat="44.42735" lon="1.44199">
        <ele>129.2</ele>
        <time>2021-07-17T13:54:16Z</time>
      </trkpt>
      <trkpt lat="44.4274" lon="1.44199">
        <ele>129.1</ele>
        <time>2021-07-17T13:54:17Z</time>
      </trkpt>
      <trkpt lat="44.4275" lon="1.442">
        <ele>129</ele>
        <time>2021-07-17T13:54:19Z</time>
      </trkpt>
      <trkpt lat="44.42755" lon="1.442">
        <ele>129</ele>
        <time>2021-07-17T13:54:20Z</time>
      </trkpt>
      <trkpt lat="44.42765" lon="1.442">
        <ele>128.9</ele>
        <time>2021-07-17T13:54:22Z</time>
      </trkpt>
      <trkpt lat="44.4277" lon="1.44199">
        <ele>128.9</ele>
        <time>2021-07-17T13:54:23Z</time>
      </trkpt>
      <trkpt lat="44.42779" lon="1.44198">
        <ele>128.8</ele>
        <time>2021-07-17T13:54:25Z</time>
      </trkpt>
      <trkpt lat="44.42783" lon="1.44197">
        <ele>128.8</ele>
        <time>2021-07-17T13:54:26Z</time>
      </trkpt>
      <trkpt lat="44.42791" lon="1.44196">
        <ele>128.7</ele>
        <time>2021-07-17T13:54:28Z</time>
      </trkpt>
      <trkpt lat="44.42798" lon="1.442">
        <ele>128.7</ele>
        <time>2021-07-17T13:54:30Z</time>
      </trkpt>
      <trkpt lat="44.42802" lon="1.44202">
        <ele>128.6</ele>
        <time>2021-07-17T13:54:31Z</time>
      </trkpt>
      <trkpt lat="44.42806" lon="1.44205">
        <ele>128.6</ele>
        <time>2021-07-17T13:54:32Z</time>
      </trkpt>
      <trkpt lat="44.42812" lon="1.44208">
        <ele>128.5</ele>
        <time>2021-07-17T13:54:34Z</time>
      </trkpt>
      <trkpt lat="44.42816" lon="1.44208">
        <ele>128.5</ele>
        <time>2021-07-17T13:54:35Z</time>
      </trkpt>
      <trkpt lat="44.42818" lon="1.44208">
        <ele>128.5</ele>
        <time>2021-07-17T13:54:36Z</time>
      </trkpt>
      <trkpt lat="44.42824" lon="1.44201">
        <ele>128.4</ele>
        <time>2021-07-17T13:54:38Z</time>
      </trkpt>
      <trkpt lat="44.4283" lon="1.44201">
        <ele>128.4</ele>
        <time>2021-07-17T13:54:40Z</time>
      </trkpt>
      <trkpt lat="44.42836" lon="1.44199">
        <ele>128.3</ele>
        <time>2021-07-17T13:54:42Z</time>
      </trkpt>
      <trkpt lat="44.42839" lon="1.44198">
        <ele>128.3</ele>
        <time>2021-07-17T13:54:43Z</time>
      </trkpt>
      <trkpt lat="44.42843" lon="1.44198">
        <ele>128.3</ele>
        <time>2021-07-17T13:54:44Z</time>
      </trkpt>
      <trkpt lat="44.42851" lon="1.44199">
        <ele>128.2</ele>
        <time>2021-07-17T13:54:46Z</time>
      </trkpt>
      <trkpt lat="44.42855" lon="1.44199">
        <ele>128.2</ele>
        <time>2021-07-17T13:54:47Z</time>
      </trkpt>
      <trkpt lat="44.42858" lon="1.44199">
        <ele>128.1</ele>
        <time>2021-07-17T13:54:48Z</time>
      </trkpt>
      <trkpt lat="44.42862" lon="1.44195">
        <ele>128.1</ele>
        <time>2021-07-17T13:54:50Z</time>
      </trkpt>
      <trkpt lat="44.42868" lon="1.44195">
        <ele>128</ele>
        <time>2021-07-17T13:54:51Z</time>
      </trkpt>
      <trkpt lat="44.42873" lon="1.44196">
        <ele>128</ele>
        <time>2021-07-17T13:54:52Z</time>
      </trkpt>
      <trkpt lat="44.42878" lon="1.44196">
        <ele>127.9</ele>
        <time>2021-07-17T13:54:53Z</time>
      </trkpt>
      <trkpt lat="44.42883" lon="1.44197">
        <ele>127.9</ele>
        <time>2021-07-17T13:54:54Z</time>
      </trkpt>
      <trkpt lat="44.42893" lon="1.44201">
        <ele>127.8</ele>
        <time>2021-07-17T13:54:56Z</time>
      </trkpt>
      <trkpt lat="44.42902" lon="1.44202">
        <ele>127.8</ele>
        <time>2021-07-17T13:54:58Z</time>
      </trkpt>
      <trkpt lat="44.42905" lon="1.44199">
        <ele>127.7</ele>
        <time>2021-07-17T13:54:59Z</time>
      </trkpt>
      <trkpt lat="44.4291" lon="1.44201">
        <ele>127.7</ele>
        <time>2021-07-17T13:55:00Z</time>
      </trkpt>
      <trkpt lat="44.42918" lon="1.44205">
        <ele>127.7</ele>
        <time>2021-07-17T13:55:02Z</time>
      </trkpt>
      <trkpt lat="44.42925" lon="1.44208">
        <ele>127.6</ele>
        <time>2021-07-17T13:55:04Z</time>
      </trkpt>
      <trkpt lat="44.4293" lon="1.4421">
        <ele>127.6</ele>
        <time>2021-07-17T13:55:05Z</time>
      </trkpt>
      <trkpt lat="44.42935" lon="1.44212">
        <ele>127.6</ele>
        <time>2021-07-17T13:55:06Z</time>
      </trkpt>
      <trkpt lat="44.4294" lon="1.44214">
        <ele>127.5</ele>
        <time>2021-07-17T13:55:07Z</time>
      </trkpt>
      <trkpt lat="44.42944" lon="1.44217">
        <ele>127.5</ele>
        <time>2021-07-17T13:55:08Z</time>
      </trkpt>
      <trkpt lat="44.4295" lon="1.44222">
        <ele>127.5</ele>
        <time>2021-07-17T13:55:10Z</time>
      </trkpt>
      <trkpt lat="44.42955" lon="1.44225">
        <ele>127.5</ele>
        <time>2021-07-17T13:55:12Z</time>
      </trkpt>
      <trkpt lat="44.42959" lon="1.44229">
        <ele>127.5</ele>
        <time>2021-07-17T13:55:13Z</time>
      </trkpt>
      <trkpt lat="44.42963" lon="1.44232">
        <ele>127.5</ele>
        <time>2021-07-17T13:55:14Z</time>
      </trkpt>
      <trkpt lat="44.42969" lon="1.44239">
        <ele>127.4</ele>
        <time>2021-07-17T13:55:16Z</time>
      </trkpt>
      <trkpt lat="44.42974" lon="1.44244">
        <ele>127.4</ele>
        <time>2021-07-17T13:55:18Z</time>
      </trkpt>
      <trkpt lat="44.42981" lon="1.44251">
        <ele>127.4</ele>
        <time>2021-07-17T13:55:19Z</time>
      </trkpt>
      <trkpt lat="44.42985" lon="1.44255">
        <ele>127.4</ele>
        <time>2021-07-17T13:55:20Z</time>
      </trkpt>
      <trkpt lat="44.42992" lon="1.44264">
        <ele>127.4</ele>
        <time>2021-07-17T13:55:22Z</time>
      </trkpt>
      <trkpt lat="44.42996" lon="1.44269">
        <ele>127.4</ele>
        <time>2021-07-17T13:55:23Z</time>
      </trkpt>
      <trkpt lat="44.42998" lon="1.44271">
        <ele>127.4</ele>
        <time>2021-07-17T13:55:24Z</time>
      </trkpt>
      <trkpt lat="44.43003" lon="1.44278">
        <ele>127.4</ele>
        <time>2021-07-17T13:55:26Z</time>
      </trkpt>
      <trkpt lat="44.43007" lon="1.44283">
        <ele>127.4</ele>
        <time>2021-07-17T13:55:27Z</time>
      </trkpt>
      <trkpt lat="44.4301" lon="1.44288">
        <ele>127.3</ele>
        <time>2021-07-17T13:55:28Z</time>
      </trkpt>
      <trkpt lat="44.43013" lon="1.44294">
        <ele>127.3</ele>
        <time>2021-07-17T13:55:29Z</time>
      </trkpt>
      <trkpt lat="44.43017" lon="1.44299">
        <ele>127.2</ele>
        <time>2021-07-17T13:55:30Z</time>
      </trkpt>
      <trkpt lat="44.4302" lon="1.44307">
        <ele>127.1</ele>
        <time>2021-07-17T13:55:32Z</time>
      </trkpt>
      <trkpt lat="44.43025" lon="1.44314">
        <ele>127.1</ele>
        <time>2021-07-17T13:55:33Z</time>
      </trkpt>
      <trkpt lat="44.43029" lon="1.44322">
        <ele>127</ele>
        <time>2021-07-17T13:55:35Z</time>
      </trkpt>
      <trkpt lat="44.43032" lon="1.44327">
        <ele>126.9</ele>
        <time>2021-07-17T13:55:36Z</time>
      </trkpt>
      <trkpt lat="44.43034" lon="1.44333">
        <ele>126.9</ele>
        <time>2021-07-17T13:55:37Z</time>
      </trkpt>
      <trkpt lat="44.43037" lon="1.44339">
        <ele>126.8</ele>
        <time>2021-07-17T13:55:39Z</time>
      </trkpt>
      <trkpt lat="44.43041" lon="1.44345">
        <ele>126.7</ele>
        <time>2021-07-17T13:55:40Z</time>
      </trkpt>
      <trkpt lat="44.43043" lon="1.44348">
        <ele>126.7</ele>
        <time>2021-07-17T13:55:41Z</time>
      </trkpt>
      <trkpt lat="44.43045" lon="1.44351">
        <ele>126.7</ele>
        <time>2021-07-17T13:55:42Z</time>
      </trkpt>
      <trkpt lat="44.43048" lon="1.44355">
        <ele>126.6</ele>
        <time>2021-07-17T13:55:44Z</time>
      </trkpt>
      <trkpt lat="44.4305" lon="1.4436">
        <ele>126.6</ele>
        <time>2021-07-17T13:55:45Z</time>
      </trkpt>
      <trkpt lat="44.43052" lon="1.44362">
        <ele>126.6</ele>
        <time>2021-07-17T13:55:46Z</time>
      </trkpt>
      <trkpt lat="44.43054" lon="1.44365">
        <ele>126.6</ele>
        <time>2021-07-17T13:55:47Z</time>
      </trkpt>
      <trkpt lat="44.43056" lon="1.44371">
        <ele>127.2</ele>
        <time>2021-07-17T13:55:49Z</time>
      </trkpt>
      <trkpt lat="44.43056" lon="1.44372">
        <ele>127.3</ele>
        <time>2021-07-17T13:55:50Z</time>
      </trkpt>
      <trkpt lat="44.43054" lon="1.44371">
        <ele>127.5</ele>
        <time>2021-07-17T13:55:52Z</time>
      </trkpt>
      <trkpt lat="44.43053" lon="1.44368">
        <ele>127.7</ele>
        <time>2021-07-17T13:55:53Z</time>
      </trkpt>
      <trkpt lat="44.43052" lon="1.44366">
        <ele>127.9</ele>
        <time>2021-07-17T13:55:54Z</time>
      </trkpt>
      <trkpt lat="44.43051" lon="1.44361">
        <ele>128.2</ele>
        <time>2021-07-17T13:55:56Z</time>
      </trkpt>
      <trkpt lat="44.43048" lon="1.44358">
        <ele>128.6</ele>
        <time>2021-07-17T13:55:58Z</time>
      </trkpt>
      <trkpt lat="44.43045" lon="1.44355">
        <ele>128.9</ele>
        <time>2021-07-17T13:56:00Z</time>
      </trkpt>
      <trkpt lat="44.43045" lon="1.44354">
        <ele>129</ele>
        <time>2021-07-17T13:56:01Z</time>
      </trkpt>
      <trkpt lat="44.43042" lon="1.44351">
        <ele>129.3</ele>
        <time>2021-07-17T13:56:03Z</time>
      </trkpt>
      <trkpt lat="44.43041" lon="1.4435">
        <ele>129.4</ele>
        <time>2021-07-17T13:56:04Z</time>
      </trkpt>
      <trkpt lat="44.4304" lon="1.44349">
        <ele>129.5</ele>
        <time>2021-07-17T13:56:05Z</time>
      </trkpt>
      <trkpt lat="44.4304" lon="1.44347">
        <ele>129.7</ele>
        <time>2021-07-17T13:56:06Z</time>
      </trkpt>
      <trkpt lat="44.43038" lon="1.44345">
        <ele>129.8</ele>
        <time>2021-07-17T13:56:07Z</time>
      </trkpt>
      <trkpt lat="44.43037" lon="1.44344">
        <ele>130</ele>
        <time>2021-07-17T13:56:08Z</time>
      </trkpt>
      <trkpt lat="44.43035" lon="1.44342">
        <ele>130.2</ele>
        <time>2021-07-17T13:56:10Z</time>
      </trkpt>
      <trkpt lat="44.43033" lon="1.4434">
        <ele>130.4</ele>
        <time>2021-07-17T13:56:12Z</time>
      </trkpt>
      <trkpt lat="44.4303" lon="1.44338">
        <ele>130.7</ele>
        <time>2021-07-17T13:56:14Z</time>
      </trkpt>
      <trkpt lat="44.43028" lon="1.44337">
        <ele>130.9</ele>
        <time>2021-07-17T13:56:16Z</time>
      </trkpt>
      <trkpt lat="44.43027" lon="1.44336">
        <ele>131</ele>
        <time>2021-07-17T13:56:17Z</time>
      </trkpt>
      <trkpt lat="44.43025" lon="1.44335">
        <ele>131.1</ele>
        <time>2021-07-17T13:56:18Z</time>
      </trkpt>
      <trkpt lat="44.43024" lon="1.44335">
        <ele>131.2</ele>
        <time>2021-07-17T13:56:19Z</time>
      </trkpt>
      <trkpt lat="44.43022" lon="1.44335">
        <ele>131.3</ele>
        <time>2021-07-17T13:56:20Z</time>
      </trkpt>
      <trkpt lat="44.43019" lon="1.44335">
        <ele>131.5</ele>
        <time>2021-07-17T13:56:22Z</time>
      </trkpt>
      <trkpt lat="44.43019" lon="1.44335">
        <ele>131.5</ele>
        <time>2021-07-17T13:56:23Z</time>
      </trkpt>
      <trkpt lat="44.43016" lon="1.44335">
        <ele>131.7</ele>
        <time>2021-07-17T13:56:24Z</time>
      </trkpt>
      <trkpt lat="44.43015" lon="1.44336">
        <ele>131.7</ele>
        <time>2021-07-17T13:56:25Z</time>
      </trkpt>
      <trkpt lat="44.43014" lon="1.44336">
        <ele>131.8</ele>
        <time>2021-07-17T13:56:26Z</time>
      </trkpt>
      <trkpt lat="44.43012" lon="1.44337">
        <ele>131.9</ele>
        <time>2021-07-17T13:56:27Z</time>
      </trkpt>
      <trkpt lat="44.4301" lon="1.44337">
        <ele>132</ele>
        <time>2021-07-17T13:56:29Z</time>
      </trkpt>
      <trkpt lat="44.43006" lon="1.44338">
        <ele>132.2</ele>
        <time>2021-07-17T13:56:31Z</time>
      </trkpt>
      <trkpt lat="44.43004" lon="1.44339">
        <ele>132.3</ele>
        <time>2021-07-17T13:56:32Z</time>
      </trkpt>
      <trkpt lat="44.43003" lon="1.44339">
        <ele>132.4</ele>
        <time>2021-07-17T13:56:33Z</time>
      </trkpt>
      <trkpt lat="44.43001" lon="1.44339">
        <ele>132.4</ele>
        <time>2021-07-17T13:56:34Z</time>
      </trkpt>
      <trkpt lat="44.42999" lon="1.4434">
        <ele>132.5</ele>
        <time>2021-07-17T13:56:35Z</time>
      </trkpt>
      <trkpt lat="44.42996" lon="1.4434">
        <ele>132.7</ele>
        <time>2021-07-17T13:56:37Z</time>
      </trkpt>
      <trkpt lat="44.42994" lon="1.44341">
        <ele>132.7</ele>
        <time>2021-07-17T13:56:38Z</time>
      </trkpt>
      <trkpt lat="44.42991" lon="1.44341">
        <ele>132.9</ele>
        <time>2021-07-17T13:56:40Z</time>
      </trkpt>
      <trkpt lat="44.4299" lon="1.44342">
        <ele>133</ele>
        <time>2021-07-17T13:56:41Z</time>
      </trkpt>
      <trkpt lat="44.42988" lon="1.44342">
        <ele>133.1</ele>
        <time>2021-07-17T13:56:42Z</time>
      </trkpt>
      <trkpt lat="44.42984" lon="1.44343">
        <ele>133.3</ele>
        <time>2021-07-17T13:56:44Z</time>
      </trkpt>
      <trkpt lat="44.42979" lon="1.44344">
        <ele>133.7</ele>
        <time>2021-07-17T13:56:46Z</time>
      </trkpt>
      <trkpt lat="44.42978" lon="1.44344">
        <ele>133.7</ele>
        <time>2021-07-17T13:56:47Z</time>
      </trkpt>
      <trkpt lat="44.42976" lon="1.44345">
        <ele>133.8</ele>
        <time>2021-07-17T13:56:48Z</time>
      </trkpt>
      <trkpt lat="44.42975" lon="1.44345">
        <ele>133.9</ele>
        <time>2021-07-17T13:56:49Z</time>
      </trkpt>
      <trkpt lat="44.42973" lon="1.44345">
        <ele>134</ele>
        <time>2021-07-17T13:56:50Z</time>
      </trkpt>
      <trkpt lat="44.4297" lon="1.44345">
        <ele>134.2</ele>
        <time>2021-07-17T13:56:52Z</time>
      </trkpt>
      <trkpt lat="44.42967" lon="1.44347">
        <ele>134.5</ele>
        <time>2021-07-17T13:56:54Z</time>
      </trkpt>
      <trkpt lat="44.42962" lon="1.44349">
        <ele>134.8</ele>
        <time>2021-07-17T13:56:56Z</time>
      </trkpt>
      <trkpt lat="44.4296" lon="1.44349">
        <ele>134.9</ele>
        <time>2021-07-17T13:56:58Z</time>
      </trkpt>
      <trkpt lat="44.42959" lon="1.4435">
        <ele>135</ele>
        <time>2021-07-17T13:56:59Z</time>
      </trkpt>
      <trkpt lat="44.42957" lon="1.4435">
        <ele>135.2</ele>
        <time>2021-07-17T13:57:00Z</time>
      </trkpt>
      <trkpt lat="44.42955" lon="1.4435">
        <ele>135.3</ele>
        <time>2021-07-17T13:57:01Z</time>
      </trkpt>
      <trkpt lat="44.42954" lon="1.4435">
        <ele>135.4</ele>
        <time>2021-07-17T13:57:02Z</time>
      </trkpt>
      <trkpt lat="44.42953" lon="1.4435">
        <ele>135.4</ele>
        <time>2021-07-17T13:57:04Z</time>
      </trkpt>
      <trkpt lat="44.4295" lon="1.4435">
        <ele>135.6</ele>
        <time>2021-07-17T13:57:05Z</time>
      </trkpt>
      <trkpt lat="44.42948" lon="1.44351">
        <ele>135.8</ele>
        <time>2021-07-17T13:57:06Z</time>
      </trkpt>
      <trkpt lat="44.42947" lon="1.44351">
        <ele>135.8</ele>
        <time>2021-07-17T13:57:07Z</time>
      </trkpt>
      <trkpt lat="44.42945" lon="1.44351">
        <ele>135.9</ele>
        <time>2021-07-17T13:57:08Z</time>
      </trkpt>
      <trkpt lat="44.42941" lon="1.44353">
        <ele>136.2</ele>
        <time>2021-07-17T13:57:10Z</time>
      </trkpt>
      <trkpt lat="44.42938" lon="1.44354">
        <ele>136.4</ele>
        <time>2021-07-17T13:57:12Z</time>
      </trkpt>
      <trkpt lat="44.42936" lon="1.44355">
        <ele>136.5</ele>
        <time>2021-07-17T13:57:13Z</time>
      </trkpt>
      <trkpt lat="44.42934" lon="1.44356">
        <ele>136.7</ele>
        <time>2021-07-17T13:57:14Z</time>
      </trkpt>
      <trkpt lat="44.42931" lon="1.44357">
        <ele>136.9</ele>
        <time>2021-07-17T13:57:16Z</time>
      </trkpt>
      <trkpt lat="44.4293" lon="1.44359">
        <ele>137</ele>
        <time>2021-07-17T13:57:17Z</time>
      </trkpt>
      <trkpt lat="44.42928" lon="1.44361">
        <ele>137.2</ele>
        <time>2021-07-17T13:57:19Z</time>
      </trkpt>
      <trkpt lat="44.42927" lon="1.44362">
        <ele>137.3</ele>
        <time>2021-07-17T13:57:20Z</time>
      </trkpt>
      <trkpt lat="44.42924" lon="1.44362">
        <ele>137.5</ele>
        <time>2021-07-17T13:57:22Z</time>
      </trkpt>
      <trkpt lat="44.42923" lon="1.44362">
        <ele>137.6</ele>
        <time>2021-07-17T13:57:23Z</time>
      </trkpt>
      <trkpt lat="44.42921" lon="1.44361">
        <ele>137.8</ele>
        <time>2021-07-17T13:57:25Z</time>
      </trkpt>
      <trkpt lat="44.42921" lon="1.4436">
        <ele>137.9</ele>
        <time>2021-07-17T13:57:26Z</time>
      </trkpt>
      <trkpt lat="44.4292" lon="1.44359">
        <ele>138</ele>
        <time>2021-07-17T13:57:28Z</time>
      </trkpt>
      <trkpt lat="44.4292" lon="1.44359">
        <ele>138</ele>
        <time>2021-07-17T13:57:29Z</time>
      </trkpt>
      <trkpt lat="44.4292" lon="1.44359">
        <ele>138</ele>
        <time>2021-07-17T13:57:31Z</time>
      </trkpt>
      <trkpt lat="44.4292" lon="1.44359">
        <ele>138</ele>
        <time>2021-07-17T13:57:32Z</time>
      </trkpt>
      <trkpt lat="44.42915" lon="1.44359">
        <ele>138.5</ele>
        <time>2021-07-17T13:57:34Z</time>
      </trkpt>
      <trkpt lat="44.42915" lon="1.44359">
        <ele>138.5</ele>
        <time>2021-07-17T13:57:34Z</time>
      </trkpt>
      <trkpt lat="44.42913" lon="1.44359">
        <ele>138.7</ele>
        <time>2021-07-17T13:57:35Z</time>
      </trkpt>
      <trkpt lat="44.42909" lon="1.4436">
        <ele>139</ele>
        <time>2021-07-17T13:57:37Z</time>
      </trkpt>
      <trkpt lat="44.42908" lon="1.44361">
        <ele>139.1</ele>
        <time>2021-07-17T13:57:38Z</time>
      </trkpt>
      <trkpt lat="44.42905" lon="1.4436">
        <ele>139.4</ele>
        <time>2021-07-17T13:57:40Z</time>
      </trkpt>
      <trkpt lat="44.42904" lon="1.44359">
        <ele>139.6</ele>
        <time>2021-07-17T13:57:41Z</time>
      </trkpt>
      <trkpt lat="44.42902" lon="1.44359">
        <ele>139.8</ele>
        <time>2021-07-17T13:57:42Z</time>
      </trkpt>
      <trkpt lat="44.42898" lon="1.44357">
        <ele>140.1</ele>
        <time>2021-07-17T13:57:44Z</time>
      </trkpt>
      <trkpt lat="44.42897" lon="1.44356">
        <ele>140.3</ele>
        <time>2021-07-17T13:57:46Z</time>
      </trkpt>
      <trkpt lat="44.42896" lon="1.44356">
        <ele>140.4</ele>
        <time>2021-07-17T13:57:47Z</time>
      </trkpt>
      <trkpt lat="44.42893" lon="1.44355">
        <ele>140.6</ele>
        <time>2021-07-17T13:57:48Z</time>
      </trkpt>
      <trkpt lat="44.42892" lon="1.44354">
        <ele>140.7</ele>
        <time>2021-07-17T13:57:49Z</time>
      </trkpt>
      <trkpt lat="44.42892" lon="1.44354">
        <ele>140.8</ele>
        <time>2021-07-17T13:57:50Z</time>
      </trkpt>
      <trkpt lat="44.42889" lon="1.44354">
        <ele>141</ele>
        <time>2021-07-17T13:57:52Z</time>
      </trkpt>
      <trkpt lat="44.42888" lon="1.44353">
        <ele>141.1</ele>
        <time>2021-07-17T13:57:53Z</time>
      </trkpt>
      <trkpt lat="44.42886" lon="1.44353">
        <ele>141.4</ele>
        <time>2021-07-17T13:57:55Z</time>
      </trkpt>
      <trkpt lat="44.42884" lon="1.44352">
        <ele>141.6</ele>
        <time>2021-07-17T13:57:57Z</time>
      </trkpt>
      <trkpt lat="44.42881" lon="1.44352">
        <ele>141.9</ele>
        <time>2021-07-17T13:57:58Z</time>
      </trkpt>
      <trkpt lat="44.42878" lon="1.44351">
        <ele>142.2</ele>
        <time>2021-07-17T13:58:00Z</time>
      </trkpt>
      <trkpt lat="44.42877" lon="1.44351">
        <ele>142.4</ele>
        <time>2021-07-17T13:58:01Z</time>
      </trkpt>
      <trkpt lat="44.42876" lon="1.4435">
        <ele>142.5</ele>
        <time>2021-07-17T13:58:02Z</time>
      </trkpt>
      <trkpt lat="44.42874" lon="1.4435">
        <ele>142.7</ele>
        <time>2021-07-17T13:58:04Z</time>
      </trkpt>
      <trkpt lat="44.42872" lon="1.44348">
        <ele>143</ele>
        <time>2021-07-17T13:58:06Z</time>
      </trkpt>
      <trkpt lat="44.4287" lon="1.44347">
        <ele>143.2</ele>
        <time>2021-07-17T13:58:07Z</time>
      </trkpt>
      <trkpt lat="44.42869" lon="1.44347">
        <ele>143.3</ele>
        <time>2021-07-17T13:58:08Z</time>
      </trkpt>
      <trkpt lat="44.42867" lon="1.44345">
        <ele>143.6</ele>
        <time>2021-07-17T13:58:10Z</time>
      </trkpt>
      <trkpt lat="44.42867" lon="1.44345">
        <ele>143.6</ele>
        <time>2021-07-17T13:58:12Z</time>
      </trkpt>
      <trkpt lat="44.42866" lon="1.44344">
        <ele>143.7</ele>
        <time>2021-07-17T13:58:13Z</time>
      </trkpt>
      <trkpt lat="44.42866" lon="1.44344">
        <ele>143.8</ele>
        <time>2021-07-17T13:58:14Z</time>
      </trkpt>
      <trkpt lat="44.42866" lon="1.44343">
        <ele>143.8</ele>
        <time>2021-07-17T13:58:16Z</time>
      </trkpt>
      <trkpt lat="44.42865" lon="1.44343">
        <ele>143.9</ele>
        <time>2021-07-17T13:58:17Z</time>
      </trkpt>
      <trkpt lat="44.42865" lon="1.44342">
        <ele>143.9</ele>
        <time>2021-07-17T13:58:18Z</time>
      </trkpt>
      <trkpt lat="44.42864" lon="1.44342">
        <ele>144</ele>
        <time>2021-07-17T13:58:36Z</time>
      </trkpt>
      <trkpt lat="44.42864" lon="1.44341">
        <ele>144.1</ele>
        <time>2021-07-17T13:58:37Z</time>
      </trkpt>
      <trkpt lat="44.42864" lon="1.44341">
        <ele>144.1</ele>
        <time>2021-07-17T13:58:38Z</time>
      </trkpt>
      <trkpt lat="44.4286" lon="1.44337">
        <ele>144.6</ele>
        <time>2021-07-17T13:58:40Z</time>
      </trkpt>
      <trkpt lat="44.42859" lon="1.44335">
        <ele>144.8</ele>
        <time>2021-07-17T13:58:42Z</time>
      </trkpt>
      <trkpt lat="44.42858" lon="1.44334">
        <ele>144.9</ele>
        <time>2021-07-17T13:58:43Z</time>
      </trkpt>
      <trkpt lat="44.42857" lon="1.44333">
        <ele>145.1</ele>
        <time>2021-07-17T13:58:44Z</time>
      </trkpt>
      <trkpt lat="44.42854" lon="1.44331">
        <ele>145.4</ele>
        <time>2021-07-17T13:58:46Z</time>
      </trkpt>
      <trkpt lat="44.42853" lon="1.4433">
        <ele>145.5</ele>
        <time>2021-07-17T13:58:47Z</time>
      </trkpt>
      <trkpt lat="44.42851" lon="1.44327">
        <ele>145.9</ele>
        <time>2021-07-17T13:58:49Z</time>
      </trkpt>
      <trkpt lat="44.4285" lon="1.44326">
        <ele>146</ele>
        <time>2021-07-17T13:58:50Z</time>
      </trkpt>
      <trkpt lat="44.42847" lon="1.44324">
        <ele>146.4</ele>
        <time>2021-07-17T13:58:52Z</time>
      </trkpt>
      <trkpt lat="44.42846" lon="1.44323">
        <ele>146.5</ele>
        <time>2021-07-17T13:58:53Z</time>
      </trkpt>
      <trkpt lat="44.42845" lon="1.44322">
        <ele>146.7</ele>
        <time>2021-07-17T13:58:54Z</time>
      </trkpt>
      <trkpt lat="44.42844" lon="1.44321">
        <ele>146.9</ele>
        <time>2021-07-17T13:58:55Z</time>
      </trkpt>
      <trkpt lat="44.42842" lon="1.44319">
        <ele>147.2</ele>
        <time>2021-07-17T13:58:57Z</time>
      </trkpt>
      <trkpt lat="44.42841" lon="1.44318">
        <ele>147.4</ele>
        <time>2021-07-17T13:58:58Z</time>
      </trkpt>
      <trkpt lat="44.42838" lon="1.44317">
        <ele>147.7</ele>
        <time>2021-07-17T13:59:00Z</time>
      </trkpt>
      <trkpt lat="44.42836" lon="1.44316">
        <ele>148</ele>
        <time>2021-07-17T13:59:02Z</time>
      </trkpt>
      <trkpt lat="44.42834" lon="1.44316">
        <ele>148.3</ele>
        <time>2021-07-17T13:59:04Z</time>
      </trkpt>
      <trkpt lat="44.42833" lon="1.44315">
        <ele>148.5</ele>
        <time>2021-07-17T13:59:06Z</time>
      </trkpt>
      <trkpt lat="44.4283" lon="1.44314">
        <ele>148.9</ele>
        <time>2021-07-17T13:59:08Z</time>
      </trkpt>
      <trkpt lat="44.42829" lon="1.44314">
        <ele>149</ele>
        <time>2021-07-17T13:59:10Z</time>
      </trkpt>
      <trkpt lat="44.42828" lon="1.44314">
        <ele>149</ele>
        <time>2021-07-17T13:59:11Z</time>
      </trkpt>
      <trkpt lat="44.42828" lon="1.44314">
        <ele>149</ele>
        <time>2021-07-17T13:59:12Z</time>
      </trkpt>
      <trkpt lat="44.42821" lon="1.4431">
        <ele>150</ele>
        <time>2021-07-17T13:59:22Z</time>
      </trkpt>
      <trkpt lat="44.42818" lon="1.44309">
        <ele>150.4</ele>
        <time>2021-07-17T13:59:23Z</time>
      </trkpt>
      <trkpt lat="44.42817" lon="1.44309">
        <ele>150.5</ele>
        <time>2021-07-17T13:59:24Z</time>
      </trkpt>
      <trkpt lat="44.42816" lon="1.44309">
        <ele>150.6</ele>
        <time>2021-07-17T13:59:26Z</time>
      </trkpt>
      <trkpt lat="44.42816" lon="1.44309">
        <ele>150.6</ele>
        <time>2021-07-17T13:59:27Z</time>
      </trkpt>
      <trkpt lat="44.42815" lon="1.44308">
        <ele>150.8</ele>
        <time>2021-07-17T13:59:29Z</time>
      </trkpt>
      <trkpt lat="44.42813" lon="1.44306">
        <ele>151.1</ele>
        <time>2021-07-17T13:59:30Z</time>
      </trkpt>
      <trkpt lat="44.4281" lon="1.44304">
        <ele>151.6</ele>
        <time>2021-07-17T13:59:32Z</time>
      </trkpt>
      <trkpt lat="44.4281" lon="1.44304">
        <ele>151.6</ele>
        <time>2021-07-17T13:59:34Z</time>
      </trkpt>
      <trkpt lat="44.42807" lon="1.44302">
        <ele>152</ele>
        <time>2021-07-17T13:59:36Z</time>
      </trkpt>
      <trkpt lat="44.42804" lon="1.44301">
        <ele>152.4</ele>
        <time>2021-07-17T13:59:37Z</time>
      </trkpt>
      <trkpt lat="44.42801" lon="1.44299">
        <ele>152.8</ele>
        <time>2021-07-17T13:59:39Z</time>
      </trkpt>
      <trkpt lat="44.428" lon="1.44299">
        <ele>152.9</ele>
        <time>2021-07-17T13:59:40Z</time>
      </trkpt>
      <trkpt lat="44.42797" lon="1.44298">
        <ele>153.3</ele>
        <time>2021-07-17T13:59:42Z</time>
      </trkpt>
      <trkpt lat="44.42797" lon="1.44298">
        <ele>153.4</ele>
        <time>2021-07-17T13:59:43Z</time>
      </trkpt>
      <trkpt lat="44.42797" lon="1.44298">
        <ele>153.5</ele>
        <time>2021-07-17T13:59:45Z</time>
      </trkpt>
      <trkpt lat="44.42796" lon="1.44298">
        <ele>153.6</ele>
        <time>2021-07-17T13:59:46Z</time>
      </trkpt>
      <trkpt lat="44.42794" lon="1.44297">
        <ele>153.8</ele>
        <time>2021-07-17T13:59:47Z</time>
      </trkpt>
      <trkpt lat="44.42792" lon="1.44296">
        <ele>154.1</ele>
        <time>2021-07-17T13:59:49Z</time>
      </trkpt>
      <trkpt lat="44.4279" lon="1.44296">
        <ele>154.3</ele>
        <time>2021-07-17T13:59:50Z</time>
      </trkpt>
      <trkpt lat="44.42789" lon="1.44295">
        <ele>154.5</ele>
        <time>2021-07-17T13:59:51Z</time>
      </trkpt>
      <trkpt lat="44.42786" lon="1.44294">
        <ele>155</ele>
        <time>2021-07-17T13:59:53Z</time>
      </trkpt>
      <trkpt lat="44.42784" lon="1.44293">
        <ele>155.2</ele>
        <time>2021-07-17T13:59:54Z</time>
      </trkpt>
      <trkpt lat="44.42783" lon="1.44292">
        <ele>155.5</ele>
        <time>2021-07-17T13:59:55Z</time>
      </trkpt>
      <trkpt lat="44.42782" lon="1.44292">
        <ele>155.6</ele>
        <time>2021-07-17T13:59:57Z</time>
      </trkpt>
      <trkpt lat="44.42781" lon="1.44292">
        <ele>155.8</ele>
        <time>2021-07-17T13:59:58Z</time>
      </trkpt>
      <trkpt lat="44.4278" lon="1.44292">
        <ele>155.8</ele>
        <time>2021-07-17T13:59:59Z</time>
      </trkpt>
      <trkpt lat="44.42778" lon="1.44291">
        <ele>156.2</ele>
        <time>2021-07-17T14:00:01Z</time>
      </trkpt>
      <trkpt lat="44.42774" lon="1.4429">
        <ele>156.8</ele>
        <time>2021-07-17T14:00:02Z</time>
      </trkpt>
      <trkpt lat="44.42773" lon="1.4429">
        <ele>156.9</ele>
        <time>2021-07-17T14:00:03Z</time>
      </trkpt>
      <trkpt lat="44.42772" lon="1.4429">
        <ele>157.1</ele>
        <time>2021-07-17T14:00:04Z</time>
      </trkpt>
      <trkpt lat="44.42769" lon="1.4429">
        <ele>157.5</ele>
        <time>2021-07-17T14:00:06Z</time>
      </trkpt>
      <trkpt lat="44.42767" lon="1.4429">
        <ele>157.9</ele>
        <time>2021-07-17T14:00:07Z</time>
      </trkpt>
      <trkpt lat="44.42767" lon="1.4429">
        <ele>157.9</ele>
        <time>2021-07-17T14:00:08Z</time>
      </trkpt>
      <trkpt lat="44.42765" lon="1.44291">
        <ele>158.4</ele>
        <time>2021-07-17T14:00:10Z</time>
      </trkpt>
      <trkpt lat="44.42762" lon="1.44294">
        <ele>159.1</ele>
        <time>2021-07-17T14:00:12Z</time>
      </trkpt>
      <trkpt lat="44.42762" lon="1.44296">
        <ele>159.4</ele>
        <time>2021-07-17T14:00:13Z</time>
      </trkpt>
      <trkpt lat="44.42762" lon="1.44296">
        <ele>159.5</ele>
        <time>2021-07-17T14:00:14Z</time>
      </trkpt>
      <trkpt lat="44.42761" lon="1.44297">
        <ele>159.7</ele>
        <time>2021-07-17T14:00:16Z</time>
      </trkpt>
      <trkpt lat="44.42761" lon="1.44299">
        <ele>160</ele>
        <time>2021-07-17T14:00:17Z</time>
      </trkpt>
      <trkpt lat="44.42761" lon="1.44302">
        <ele>160.5</ele>
        <time>2021-07-17T14:00:18Z</time>
      </trkpt>
      <trkpt lat="44.4276" lon="1.44305">
        <ele>160.9</ele>
        <time>2021-07-17T14:00:20Z</time>
      </trkpt>
      <trkpt lat="44.4276" lon="1.44307">
        <ele>161.2</ele>
        <time>2021-07-17T14:00:21Z</time>
      </trkpt>
      <trkpt lat="44.4276" lon="1.4431">
        <ele>161.6</ele>
        <time>2021-07-17T14:00:22Z</time>
      </trkpt>
      <trkpt lat="44.42759" lon="1.44312">
        <ele>162</ele>
        <time>2021-07-17T14:00:24Z</time>
      </trkpt>
      <trkpt lat="44.42757" lon="1.44315">
        <ele>162.4</ele>
        <time>2021-07-17T14:00:26Z</time>
      </trkpt>
      <trkpt lat="44.42755" lon="1.44317">
        <ele>162.9</ele>
        <time>2021-07-17T14:00:28Z</time>
      </trkpt>
      <trkpt lat="44.42754" lon="1.44318">
        <ele>163.2</ele>
        <time>2021-07-17T14:00:29Z</time>
      </trkpt>
      <trkpt lat="44.42752" lon="1.4432">
        <ele>163.4</ele>
        <time>2021-07-17T14:00:31Z</time>
      </trkpt>
      <trkpt lat="44.42751" lon="1.44321">
        <ele>163.7</ele>
        <time>2021-07-17T14:00:32Z</time>
      </trkpt>
      <trkpt lat="44.4275" lon="1.44323">
        <ele>163.9</ele>
        <time>2021-07-17T14:00:33Z</time>
      </trkpt>
      <trkpt lat="44.42749" lon="1.44326">
        <ele>164.4</ele>
        <time>2021-07-17T14:00:35Z</time>
      </trkpt>
      <trkpt lat="44.42748" lon="1.44328">
        <ele>164.7</ele>
        <time>2021-07-17T14:00:37Z</time>
      </trkpt>
      <trkpt lat="44.42746" lon="1.44329">
        <ele>165</ele>
        <time>2021-07-17T14:00:38Z</time>
      </trkpt>
      <trkpt lat="44.42745" lon="1.4433">
        <ele>165.2</ele>
        <time>2021-07-17T14:00:40Z</time>
      </trkpt>
      <trkpt lat="44.42745" lon="1.44331">
        <ele>165.3</ele>
        <time>2021-07-17T14:00:41Z</time>
      </trkpt>
      <trkpt lat="44.42744" lon="1.44331">
        <ele>165.5</ele>
        <time>2021-07-17T14:00:43Z</time>
      </trkpt>
      <trkpt lat="44.42743" lon="1.44332">
        <ele>165.7</ele>
        <time>2021-07-17T14:00:45Z</time>
      </trkpt>
      <trkpt lat="44.42742" lon="1.44333">
        <ele>165.9</ele>
        <time>2021-07-17T14:00:46Z</time>
      </trkpt>
      <trkpt lat="44.42741" lon="1.44335">
        <ele>166.2</ele>
        <time>2021-07-17T14:00:48Z</time>
      </trkpt>
      <trkpt lat="44.42741" lon="1.44337">
        <ele>166.4</ele>
        <time>2021-07-17T14:00:49Z</time>
      </trkpt>
      <trkpt lat="44.42739" lon="1.44341">
        <ele>166.9</ele>
        <time>2021-07-17T14:00:51Z</time>
      </trkpt>
      <trkpt lat="44.42737" lon="1.44343">
        <ele>167.4</ele>
        <time>2021-07-17T14:00:53Z</time>
      </trkpt>
      <trkpt lat="44.42735" lon="1.44344">
        <ele>167.6</ele>
        <time>2021-07-17T14:00:54Z</time>
      </trkpt>
      <trkpt lat="44.42734" lon="1.44345">
        <ele>167.9</ele>
        <time>2021-07-17T14:00:55Z</time>
      </trkpt>
      <trkpt lat="44.42733" lon="1.44345">
        <ele>168</ele>
        <time>2021-07-17T14:00:58Z</time>
      </trkpt>
      <trkpt lat="44.42733" lon="1.44345">
        <ele>168</ele>
        <time>2021-07-17T14:00:59Z</time>
      </trkpt>
      <trkpt lat="44.42733" lon="1.44345">
        <ele>168.1</ele>
        <time>2021-07-17T14:01:01Z</time>
      </trkpt>
      <trkpt lat="44.42733" lon="1.44346">
        <ele>168.1</ele>
        <time>2021-07-17T14:01:02Z</time>
      </trkpt>
      <trkpt lat="44.42733" lon="1.44346">
        <ele>168.1</ele>
        <time>2021-07-17T14:01:03Z</time>
      </trkpt>
      <trkpt lat="44.42733" lon="1.44346">
        <ele>168.1</ele>
        <time>2021-07-17T14:01:04Z</time>
      </trkpt>
      <trkpt lat="44.42719" lon="1.44352">
        <ele>170.3</ele>
        <time>2021-07-17T14:01:20Z</time>
      </trkpt>
      <trkpt lat="44.42717" lon="1.44353">
        <ele>170.6</ele>
        <time>2021-07-17T14:01:21Z</time>
      </trkpt>
      <trkpt lat="44.42715" lon="1.44355">
        <ele>170.9</ele>
        <time>2021-07-17T14:01:23Z</time>
      </trkpt>
      <trkpt lat="44.42712" lon="1.44356">
        <ele>171.3</ele>
        <time>2021-07-17T14:01:24Z</time>
      </trkpt>
      <trkpt lat="44.42711" lon="1.44357">
        <ele>171.5</ele>
        <time>2021-07-17T14:01:25Z</time>
      </trkpt>
      <trkpt lat="44.4271" lon="1.44358">
        <ele>171.7</ele>
        <time>2021-07-17T14:01:26Z</time>
      </trkpt>
      <trkpt lat="44.42706" lon="1.44359">
        <ele>172.3</ele>
        <time>2021-07-17T14:01:28Z</time>
      </trkpt>
      <trkpt lat="44.42703" lon="1.4436">
        <ele>172.8</ele>
        <time>2021-07-17T14:01:29Z</time>
      </trkpt>
      <trkpt lat="44.42701" lon="1.44362">
        <ele>173.2</ele>
        <time>2021-07-17T14:01:30Z</time>
      </trkpt>
      <trkpt lat="44.42697" lon="1.44363">
        <ele>173.7</ele>
        <time>2021-07-17T14:01:32Z</time>
      </trkpt>
      <trkpt lat="44.42694" lon="1.44364">
        <ele>174.2</ele>
        <time>2021-07-17T14:01:33Z</time>
      </trkpt>
      <trkpt lat="44.42693" lon="1.44364">
        <ele>174.3</ele>
        <time>2021-07-17T14:01:34Z</time>
      </trkpt>
      <trkpt lat="44.42691" lon="1.44364">
        <ele>174.5</ele>
        <time>2021-07-17T14:01:35Z</time>
      </trkpt>
      <trkpt lat="44.42689" lon="1.44365">
        <ele>174.8</ele>
        <time>2021-07-17T14:01:37Z</time>
      </trkpt>
      <trkpt lat="44.42688" lon="1.44367">
        <ele>175.1</ele>
        <time>2021-07-17T14:01:38Z</time>
      </trkpt>
      <trkpt lat="44.42687" lon="1.44368">
        <ele>175.2</ele>
        <time>2021-07-17T14:01:39Z</time>
      </trkpt>
      <trkpt lat="44.42684" lon="1.4437">
        <ele>175.7</ele>
        <time>2021-07-17T14:01:41Z</time>
      </trkpt>
      <trkpt lat="44.42683" lon="1.4437">
        <ele>175.8</ele>
        <time>2021-07-17T14:01:42Z</time>
      </trkpt>
      <trkpt lat="44.42682" lon="1.44371">
        <ele>176.1</ele>
        <time>2021-07-17T14:01:43Z</time>
      </trkpt>
      <trkpt lat="44.42681" lon="1.44372">
        <ele>176.2</ele>
        <time>2021-07-17T14:01:45Z</time>
      </trkpt>
      <trkpt lat="44.4268" lon="1.44372">
        <ele>176.3</ele>
        <time>2021-07-17T14:01:46Z</time>
      </trkpt>
      <trkpt lat="44.42679" lon="1.44373">
        <ele>176.5</ele>
        <time>2021-07-17T14:01:48Z</time>
      </trkpt>
      <trkpt lat="44.42678" lon="1.44373">
        <ele>176.6</ele>
        <time>2021-07-17T14:01:50Z</time>
      </trkpt>
      <trkpt lat="44.42677" lon="1.44374">
        <ele>176.8</ele>
        <time>2021-07-17T14:01:51Z</time>
      </trkpt>
      <trkpt lat="44.42676" lon="1.44374">
        <ele>177</ele>
        <time>2021-07-17T14:01:53Z</time>
      </trkpt>
      <trkpt lat="44.42675" lon="1.44375">
        <ele>177.2</ele>
        <time>2021-07-17T14:01:54Z</time>
      </trkpt>
      <trkpt lat="44.42673" lon="1.44378">
        <ele>177.7</ele>
        <time>2021-07-17T14:01:56Z</time>
      </trkpt>
      <trkpt lat="44.4267" lon="1.4438">
        <ele>178.3</ele>
        <time>2021-07-17T14:01:57Z</time>
      </trkpt>
      <trkpt lat="44.42669" lon="1.4438">
        <ele>178.5</ele>
        <time>2021-07-17T14:01:58Z</time>
      </trkpt>
      <trkpt lat="44.42666" lon="1.44382">
        <ele>179</ele>
        <time>2021-07-17T14:02:00Z</time>
      </trkpt>
      <trkpt lat="44.42665" lon="1.44382">
        <ele>179.2</ele>
        <time>2021-07-17T14:02:01Z</time>
      </trkpt>
      <trkpt lat="44.42663" lon="1.44382">
        <ele>179.4</ele>
        <time>2021-07-17T14:02:02Z</time>
      </trkpt>
      <trkpt lat="44.42661" lon="1.44383">
        <ele>179.8</ele>
        <time>2021-07-17T14:02:04Z</time>
      </trkpt>
      <trkpt lat="44.4266" lon="1.44384">
        <ele>180</ele>
        <time>2021-07-17T14:02:05Z</time>
      </trkpt>
      <trkpt lat="44.42658" lon="1.44384">
        <ele>180.3</ele>
        <time>2021-07-17T14:02:06Z</time>
      </trkpt>
      <trkpt lat="44.42655" lon="1.44386">
        <ele>180.8</ele>
        <time>2021-07-17T14:02:08Z</time>
      </trkpt>
      <trkpt lat="44.42655" lon="1.44387">
        <ele>180.9</ele>
        <time>2021-07-17T14:02:09Z</time>
      </trkpt>
      <trkpt lat="44.42654" lon="1.44387">
        <ele>181.1</ele>
        <time>2021-07-17T14:02:11Z</time>
      </trkpt>
      <trkpt lat="44.42654" lon="1.44388">
        <ele>181.1</ele>
        <time>2021-07-17T14:02:12Z</time>
      </trkpt>
      <trkpt lat="44.42654" lon="1.44388">
        <ele>181.2</ele>
        <time>2021-07-17T14:02:13Z</time>
      </trkpt>
      <trkpt lat="44.42653" lon="1.44389">
        <ele>181.4</ele>
        <time>2021-07-17T14:02:15Z</time>
      </trkpt>
      <trkpt lat="44.42651" lon="1.4439">
        <ele>181.7</ele>
        <time>2021-07-17T14:02:16Z</time>
      </trkpt>
      <trkpt lat="44.4265" lon="1.44391">
        <ele>182</ele>
        <time>2021-07-17T14:02:17Z</time>
      </trkpt>
      <trkpt lat="44.42649" lon="1.44394">
        <ele>182.4</ele>
        <time>2021-07-17T14:02:18Z</time>
      </trkpt>
      <trkpt lat="44.42648" lon="1.44395">
        <ele>182.6</ele>
        <time>2021-07-17T14:02:19Z</time>
      </trkpt>
      <trkpt lat="44.42647" lon="1.44396">
        <ele>182.8</ele>
        <time>2021-07-17T14:02:20Z</time>
      </trkpt>
      <trkpt lat="44.42647" lon="1.44397">
        <ele>182.9</ele>
        <time>2021-07-17T14:02:21Z</time>
      </trkpt>
      <trkpt lat="44.42647" lon="1.44398">
        <ele>183.1</ele>
        <time>2021-07-17T14:02:23Z</time>
      </trkpt>
      <trkpt lat="44.42647" lon="1.44398">
        <ele>183.1</ele>
        <time>2021-07-17T14:02:24Z</time>
      </trkpt>
      <trkpt lat="44.42646" lon="1.44399">
        <ele>183.3</ele>
        <time>2021-07-17T14:02:26Z</time>
      </trkpt>
      <trkpt lat="44.42646" lon="1.44402">
        <ele>183.7</ele>
        <time>2021-07-17T14:02:27Z</time>
      </trkpt>
      <trkpt lat="44.42645" lon="1.44405">
        <ele>184.1</ele>
        <time>2021-07-17T14:02:28Z</time>
      </trkpt>
      <trkpt lat="44.42645" lon="1.44405">
        <ele>184.2</ele>
        <time>2021-07-17T14:02:30Z</time>
      </trkpt>
      <trkpt lat="44.42644" lon="1.44407">
        <ele>184.4</ele>
        <time>2021-07-17T14:02:32Z</time>
      </trkpt>
      <trkpt lat="44.42644" lon="1.44408">
        <ele>184.6</ele>
        <time>2021-07-17T14:02:34Z</time>
      </trkpt>
      <trkpt lat="44.42644" lon="1.44408">
        <ele>184.6</ele>
        <time>2021-07-17T14:02:36Z</time>
      </trkpt>
      <trkpt lat="44.42643" lon="1.44408">
        <ele>184.6</ele>
        <time>2021-07-17T14:02:37Z</time>
      </trkpt>
      <trkpt lat="44.42641" lon="1.44413">
        <ele>185.5</ele>
        <time>2021-07-17T14:05:04Z</time>
      </trkpt>
      <trkpt lat="44.42638" lon="1.44417">
        <ele>186.1</ele>
        <time>2021-07-17T14:05:06Z</time>
      </trkpt>
      <trkpt lat="44.42635" lon="1.4442">
        <ele>186.8</ele>
        <time>2021-07-17T14:05:08Z</time>
      </trkpt>
      <trkpt lat="44.42634" lon="1.44422">
        <ele>187.1</ele>
        <time>2021-07-17T14:05:09Z</time>
      </trkpt>
      <trkpt lat="44.42633" lon="1.44424">
        <ele>187.4</ele>
        <time>2021-07-17T14:05:10Z</time>
      </trkpt>
      <trkpt lat="44.42632" lon="1.44427">
        <ele>187.9</ele>
        <time>2021-07-17T14:05:12Z</time>
      </trkpt>
      <trkpt lat="44.42631" lon="1.44429">
        <ele>188.1</ele>
        <time>2021-07-17T14:05:13Z</time>
      </trkpt>
      <trkpt lat="44.4263" lon="1.4443">
        <ele>188.3</ele>
        <time>2021-07-17T14:05:14Z</time>
      </trkpt>
      <trkpt lat="44.42629" lon="1.44433">
        <ele>188.7</ele>
        <time>2021-07-17T14:05:16Z</time>
      </trkpt>
      <trkpt lat="44.42628" lon="1.44435">
        <ele>189</ele>
        <time>2021-07-17T14:05:17Z</time>
      </trkpt>
      <trkpt lat="44.42628" lon="1.44437">
        <ele>189.1</ele>
        <time>2021-07-17T14:05:19Z</time>
      </trkpt>
      <trkpt lat="44.42627" lon="1.44438">
        <ele>189.3</ele>
        <time>2021-07-17T14:05:20Z</time>
      </trkpt>
      <trkpt lat="44.42627" lon="1.4444">
        <ele>189.5</ele>
        <time>2021-07-17T14:05:22Z</time>
      </trkpt>
      <trkpt lat="44.42627" lon="1.44441">
        <ele>189.6</ele>
        <time>2021-07-17T14:05:23Z</time>
      </trkpt>
      <trkpt lat="44.42627" lon="1.44441">
        <ele>189.7</ele>
        <time>2021-07-17T14:05:24Z</time>
      </trkpt>
      <trkpt lat="44.42627" lon="1.44441">
        <ele>189.7</ele>
        <time>2021-07-17T14:05:26Z</time>
      </trkpt>
      <trkpt lat="44.42627" lon="1.44441">
        <ele>189.7</ele>
        <time>2021-07-17T14:05:28Z</time>
      </trkpt>
      <trkpt lat="44.42627" lon="1.44441">
        <ele>189.7</ele>
        <time>2021-07-17T14:05:29Z</time>
      </trkpt>
      <trkpt lat="44.42626" lon="1.44444">
        <ele>190</ele>
        <time>2021-07-17T14:05:35Z</time>
      </trkpt>
      <trkpt lat="44.42625" lon="1.44445">
        <ele>190.3</ele>
        <time>2021-07-17T14:05:36Z</time>
      </trkpt>
      <trkpt lat="44.42623" lon="1.44448">
        <ele>190.6</ele>
        <time>2021-07-17T14:05:38Z</time>
      </trkpt>
      <trkpt lat="44.42623" lon="1.44451">
        <ele>190.9</ele>
        <time>2021-07-17T14:05:39Z</time>
      </trkpt>
      <trkpt lat="44.42622" lon="1.44451">
        <ele>191</ele>
        <time>2021-07-17T14:05:40Z</time>
      </trkpt>
      <trkpt lat="44.42622" lon="1.44453">
        <ele>191.2</ele>
        <time>2021-07-17T14:05:42Z</time>
      </trkpt>
      <trkpt lat="44.42621" lon="1.44455">
        <ele>191.5</ele>
        <time>2021-07-17T14:05:44Z</time>
      </trkpt>
      <trkpt lat="44.4262" lon="1.44456">
        <ele>191.6</ele>
        <time>2021-07-17T14:05:45Z</time>
      </trkpt>
      <trkpt lat="44.4262" lon="1.44457">
        <ele>191.8</ele>
        <time>2021-07-17T14:05:47Z</time>
      </trkpt>
      <trkpt lat="44.42619" lon="1.44458">
        <ele>191.9</ele>
        <time>2021-07-17T14:05:48Z</time>
      </trkpt>
      <trkpt lat="44.42619" lon="1.44459">
        <ele>192.1</ele>
        <time>2021-07-17T14:05:50Z</time>
      </trkpt>
      <trkpt lat="44.42618" lon="1.4446">
        <ele>192.2</ele>
        <time>2021-07-17T14:05:51Z</time>
      </trkpt>
      <trkpt lat="44.42618" lon="1.44461">
        <ele>192.4</ele>
        <time>2021-07-17T14:05:52Z</time>
      </trkpt>
      <trkpt lat="44.42617" lon="1.44462">
        <ele>192.6</ele>
        <time>2021-07-17T14:05:53Z</time>
      </trkpt>
      <trkpt lat="44.42616" lon="1.44463">
        <ele>192.8</ele>
        <time>2021-07-17T14:05:54Z</time>
      </trkpt>
      <trkpt lat="44.42615" lon="1.44465">
        <ele>193</ele>
        <time>2021-07-17T14:05:56Z</time>
      </trkpt>
      <trkpt lat="44.42611" lon="1.44473">
        <ele>194.2</ele>
        <time>2021-07-17T14:05:57Z</time>
      </trkpt>
      <trkpt lat="44.42608" lon="1.4448">
        <ele>195.1</ele>
        <time>2021-07-17T14:05:59Z</time>
      </trkpt>
      <trkpt lat="44.42605" lon="1.44487">
        <ele>196</ele>
        <time>2021-07-17T14:06:01Z</time>
      </trkpt>
      <trkpt lat="44.42602" lon="1.44494">
        <ele>196.9</ele>
        <time>2021-07-17T14:06:39Z</time>
      </trkpt>
      <trkpt lat="44.42599" lon="1.44501">
        <ele>197.7</ele>
        <time>2021-07-17T14:06:40Z</time>
      </trkpt>
      <trkpt lat="44.42595" lon="1.44508">
        <ele>198.4</ele>
        <time>2021-07-17T14:06:41Z</time>
      </trkpt>
      <trkpt lat="44.42594" lon="1.44511">
        <ele>198.7</ele>
        <time>2021-07-17T14:06:42Z</time>
      </trkpt>
      <trkpt lat="44.42594" lon="1.44511">
        <ele>198.7</ele>
        <time>2021-07-17T14:06:43Z</time>
      </trkpt>
      <trkpt lat="44.42591" lon="1.44515">
        <ele>199.2</ele>
        <time>2021-07-17T14:06:45Z</time>
      </trkpt>
      <trkpt lat="44.42589" lon="1.44518">
        <ele>199.5</ele>
        <time>2021-07-17T14:06:46Z</time>
      </trkpt>
      <trkpt lat="44.42588" lon="1.44519">
        <ele>199.6</ele>
        <time>2021-07-17T14:06:47Z</time>
      </trkpt>
      <trkpt lat="44.42587" lon="1.44521">
        <ele>199.8</ele>
        <time>2021-07-17T14:06:48Z</time>
      </trkpt>
      <trkpt lat="44.42586" lon="1.44522">
        <ele>199.9</ele>
        <time>2021-07-17T14:06:49Z</time>
      </trkpt>
      <trkpt lat="44.42585" lon="1.44524">
        <ele>200.1</ele>
        <time>2021-07-17T14:06:51Z</time>
      </trkpt>
      <trkpt lat="44.42584" lon="1.44524">
        <ele>200.1</ele>
        <time>2021-07-17T14:06:52Z</time>
      </trkpt>
      <trkpt lat="44.42584" lon="1.44524">
        <ele>200.2</ele>
        <time>2021-07-17T14:06:53Z</time>
      </trkpt>
      <trkpt lat="44.42583" lon="1.44525">
        <ele>200.2</ele>
        <time>2021-07-17T14:06:54Z</time>
      </trkpt>
      <trkpt lat="44.42583" lon="1.44525">
        <ele>200.3</ele>
        <time>2021-07-17T14:06:56Z</time>
      </trkpt>
      <trkpt lat="44.42582" lon="1.44526">
        <ele>200.4</ele>
        <time>2021-07-17T14:06:58Z</time>
      </trkpt>
      <trkpt lat="44.42581" lon="1.44528">
        <ele>200.5</ele>
        <time>2021-07-17T14:06:59Z</time>
      </trkpt>
      <trkpt lat="44.42581" lon="1.44529">
        <ele>200.6</ele>
        <time>2021-07-17T14:07:00Z</time>
      </trkpt>
      <trkpt lat="44.42578" lon="1.44532">
        <ele>200.8</ele>
        <time>2021-07-17T14:07:02Z</time>
      </trkpt>
      <trkpt lat="44.42577" lon="1.44533">
        <ele>201</ele>
        <time>2021-07-17T14:07:03Z</time>
      </trkpt>
      <trkpt lat="44.42576" lon="1.44534">
        <ele>201.1</ele>
        <time>2021-07-17T14:07:05Z</time>
      </trkpt>
      <trkpt lat="44.42576" lon="1.44535">
        <ele>201.2</ele>
        <time>2021-07-17T14:07:06Z</time>
      </trkpt>
      <trkpt lat="44.42574" lon="1.44539">
        <ele>201.4</ele>
        <time>2021-07-17T14:07:08Z</time>
      </trkpt>
      <trkpt lat="44.42573" lon="1.4454">
        <ele>201.5</ele>
        <time>2021-07-17T14:07:10Z</time>
      </trkpt>
      <trkpt lat="44.42573" lon="1.44541">
        <ele>201.6</ele>
        <time>2021-07-17T14:07:11Z</time>
      </trkpt>
      <trkpt lat="44.42573" lon="1.44542">
        <ele>201.6</ele>
        <time>2021-07-17T14:07:12Z</time>
      </trkpt>
      <trkpt lat="44.42571" lon="1.44545">
        <ele>201.8</ele>
        <time>2021-07-17T14:07:20Z</time>
      </trkpt>
      <trkpt lat="44.4257" lon="1.44549">
        <ele>202.1</ele>
        <time>2021-07-17T14:07:22Z</time>
      </trkpt>
      <trkpt lat="44.42569" lon="1.44552">
        <ele>202.3</ele>
        <time>2021-07-17T14:07:23Z</time>
      </trkpt>
      <trkpt lat="44.42568" lon="1.44555">
        <ele>202.5</ele>
        <time>2021-07-17T14:07:25Z</time>
      </trkpt>
      <trkpt lat="44.42568" lon="1.44557">
        <ele>202.6</ele>
        <time>2021-07-17T14:07:26Z</time>
      </trkpt>
      <trkpt lat="44.42566" lon="1.44562">
        <ele>202.8</ele>
        <time>2021-07-17T14:07:28Z</time>
      </trkpt>
      <trkpt lat="44.42565" lon="1.44567">
        <ele>203</ele>
        <time>2021-07-17T14:07:30Z</time>
      </trkpt>
      <trkpt lat="44.42564" lon="1.44568">
        <ele>203.1</ele>
        <time>2021-07-17T14:07:32Z</time>
      </trkpt>
      <trkpt lat="44.42563" lon="1.4457">
        <ele>203.2</ele>
        <time>2021-07-17T14:07:33Z</time>
      </trkpt>
      <trkpt lat="44.42563" lon="1.4457">
        <ele>203.2</ele>
        <time>2021-07-17T14:07:34Z</time>
      </trkpt>
      <trkpt lat="44.42562" lon="1.44573">
        <ele>203.3</ele>
        <time>2021-07-17T14:07:35Z</time>
      </trkpt>
      <trkpt lat="44.42561" lon="1.44574">
        <ele>203.4</ele>
        <time>2021-07-17T14:07:37Z</time>
      </trkpt>
      <trkpt lat="44.42561" lon="1.44575">
        <ele>203.4</ele>
        <time>2021-07-17T14:07:38Z</time>
      </trkpt>
      <trkpt lat="44.4256" lon="1.44577">
        <ele>203.5</ele>
        <time>2021-07-17T14:07:39Z</time>
      </trkpt>
      <trkpt lat="44.42559" lon="1.44578">
        <ele>203.6</ele>
        <time>2021-07-17T14:07:41Z</time>
      </trkpt>
      <trkpt lat="44.42559" lon="1.44578">
        <ele>203.6</ele>
        <time>2021-07-17T14:07:42Z</time>
      </trkpt>
      <trkpt lat="44.42559" lon="1.44579">
        <ele>203.6</ele>
        <time>2021-07-17T14:07:43Z</time>
      </trkpt>
      <trkpt lat="44.42558" lon="1.44579">
        <ele>203.6</ele>
        <time>2021-07-17T14:07:44Z</time>
      </trkpt>
      <trkpt lat="44.42558" lon="1.44579">
        <ele>203.6</ele>
        <time>2021-07-17T14:07:45Z</time>
      </trkpt>
      <trkpt lat="44.42562" lon="1.44572">
        <ele>204</ele>
        <time>2021-07-17T14:07:55Z</time>
      </trkpt>
      <trkpt lat="44.42563" lon="1.44569">
        <ele>204.1</ele>
        <time>2021-07-17T14:07:56Z</time>
      </trkpt>
      <trkpt lat="44.42561" lon="1.44567">
        <ele>204.2</ele>
        <time>2021-07-17T14:07:58Z</time>
      </trkpt>
      <trkpt lat="44.42558" lon="1.44568">
        <ele>204.4</ele>
        <time>2021-07-17T14:08:00Z</time>
      </trkpt>
      <trkpt lat="44.42557" lon="1.44568">
        <ele>204.4</ele>
        <time>2021-07-17T14:08:01Z</time>
      </trkpt>
      <trkpt lat="44.42555" lon="1.44568">
        <ele>204.5</ele>
        <time>2021-07-17T14:08:02Z</time>
      </trkpt>
      <trkpt lat="44.42554" lon="1.44569">
        <ele>204.6</ele>
        <time>2021-07-17T14:08:04Z</time>
      </trkpt>
      <trkpt lat="44.42553" lon="1.44569">
        <ele>204.6</ele>
        <time>2021-07-17T14:08:05Z</time>
      </trkpt>
      <trkpt lat="44.42551" lon="1.44569">
        <ele>204.7</ele>
        <time>2021-07-17T14:08:07Z</time>
      </trkpt>
      <trkpt lat="44.42551" lon="1.4457">
        <ele>204.7</ele>
        <time>2021-07-17T14:08:08Z</time>
      </trkpt>
      <trkpt lat="44.42549" lon="1.44571">
        <ele>204.8</ele>
        <time>2021-07-17T14:08:10Z</time>
      </trkpt>
      <trkpt lat="44.42548" lon="1.44571">
        <ele>204.8</ele>
        <time>2021-07-17T14:08:11Z</time>
      </trkpt>
      <trkpt lat="44.42547" lon="1.44572">
        <ele>204.9</ele>
        <time>2021-07-17T14:08:13Z</time>
      </trkpt>
      <trkpt lat="44.42546" lon="1.44572">
        <ele>204.9</ele>
        <time>2021-07-17T14:08:14Z</time>
      </trkpt>
      <trkpt lat="44.42545" lon="1.44573">
        <ele>205</ele>
        <time>2021-07-17T14:08:15Z</time>
      </trkpt>
      <trkpt lat="44.42544" lon="1.44573">
        <ele>205</ele>
        <time>2021-07-17T14:08:20Z</time>
      </trkpt>
      <trkpt lat="44.42543" lon="1.44574">
        <ele>205.1</ele>
        <time>2021-07-17T14:08:22Z</time>
      </trkpt>
      <trkpt lat="44.42542" lon="1.44574">
        <ele>205.1</ele>
        <time>2021-07-17T14:08:23Z</time>
      </trkpt>
      <trkpt lat="44.42541" lon="1.44575">
        <ele>205.2</ele>
        <time>2021-07-17T14:08:24Z</time>
      </trkpt>
      <trkpt lat="44.42539" lon="1.44577">
        <ele>205.3</ele>
        <time>2021-07-17T14:08:25Z</time>
      </trkpt>
      <trkpt lat="44.42537" lon="1.4458">
        <ele>205.4</ele>
        <time>2021-07-17T14:08:27Z</time>
      </trkpt>
      <trkpt lat="44.42535" lon="1.44583">
        <ele>205.6</ele>
        <time>2021-07-17T14:08:28Z</time>
      </trkpt>
      <trkpt lat="44.42533" lon="1.44587">
        <ele>205.8</ele>
        <time>2021-07-17T14:08:29Z</time>
      </trkpt>
      <trkpt lat="44.42532" lon="1.44589">
        <ele>205.8</ele>
        <time>2021-07-17T14:08:30Z</time>
      </trkpt>
      <trkpt lat="44.4253" lon="1.44592">
        <ele>206</ele>
        <time>2021-07-17T14:08:32Z</time>
      </trkpt>
      <trkpt lat="44.42528" lon="1.44596">
        <ele>206.1</ele>
        <time>2021-07-17T14:08:33Z</time>
      </trkpt>
      <trkpt lat="44.42526" lon="1.446">
        <ele>206.2</ele>
        <time>2021-07-17T14:08:35Z</time>
      </trkpt>
      <trkpt lat="44.42525" lon="1.44601">
        <ele>206.2</ele>
        <time>2021-07-17T14:08:36Z</time>
      </trkpt>
      <trkpt lat="44.42524" lon="1.44603">
        <ele>206.3</ele>
        <time>2021-07-17T14:08:37Z</time>
      </trkpt>
      <trkpt lat="44.42523" lon="1.44604">
        <ele>206.3</ele>
        <time>2021-07-17T14:08:38Z</time>
      </trkpt>
      <trkpt lat="44.42523" lon="1.44606">
        <ele>206.3</ele>
        <time>2021-07-17T14:08:40Z</time>
      </trkpt>
      <trkpt lat="44.42522" lon="1.44608">
        <ele>206.3</ele>
        <time>2021-07-17T14:08:41Z</time>
      </trkpt>
      <trkpt lat="44.42521" lon="1.44609">
        <ele>206.3</ele>
        <time>2021-07-17T14:08:42Z</time>
      </trkpt>
      <trkpt lat="44.42519" lon="1.44611">
        <ele>206.3</ele>
        <time>2021-07-17T14:08:43Z</time>
      </trkpt>
      <trkpt lat="44.42519" lon="1.44613">
        <ele>206.3</ele>
        <time>2021-07-17T14:08:45Z</time>
      </trkpt>
      <trkpt lat="44.42519" lon="1.44614">
        <ele>206.3</ele>
        <time>2021-07-17T14:08:46Z</time>
      </trkpt>
      <trkpt lat="44.4252" lon="1.44617">
        <ele>206.3</ele>
        <time>2021-07-17T14:08:48Z</time>
      </trkpt>
      <trkpt lat="44.42518" lon="1.44619">
        <ele>206.3</ele>
        <time>2021-07-17T14:08:49Z</time>
      </trkpt>
      <trkpt lat="44.42517" lon="1.4462">
        <ele>206.2</ele>
        <time>2021-07-17T14:08:51Z</time>
      </trkpt>
      <trkpt lat="44.42515" lon="1.44621">
        <ele>206.1</ele>
        <time>2021-07-17T14:08:52Z</time>
      </trkpt>
      <trkpt lat="44.42514" lon="1.44622">
        <ele>206.1</ele>
        <time>2021-07-17T14:08:53Z</time>
      </trkpt>
      <trkpt lat="44.42511" lon="1.44625">
        <ele>206</ele>
        <time>2021-07-17T14:08:55Z</time>
      </trkpt>
      <trkpt lat="44.4251" lon="1.44626">
        <ele>205.9</ele>
        <time>2021-07-17T14:08:56Z</time>
      </trkpt>
      <trkpt lat="44.42508" lon="1.44629">
        <ele>205.8</ele>
        <time>2021-07-17T14:08:58Z</time>
      </trkpt>
      <trkpt lat="44.42505" lon="1.44632">
        <ele>205.6</ele>
        <time>2021-07-17T14:08:59Z</time>
      </trkpt>
      <trkpt lat="44.42502" lon="1.44635">
        <ele>205.4</ele>
        <time>2021-07-17T14:09:00Z</time>
      </trkpt>
      <trkpt lat="44.425" lon="1.44638">
        <ele>205.2</ele>
        <time>2021-07-17T14:09:02Z</time>
      </trkpt>
      <trkpt lat="44.42497" lon="1.44639">
        <ele>205</ele>
        <time>2021-07-17T14:09:03Z</time>
      </trkpt>
      <trkpt lat="44.42495" lon="1.44642">
        <ele>204.9</ele>
        <time>2021-07-17T14:09:04Z</time>
      </trkpt>
      <trkpt lat="44.42493" lon="1.44645">
        <ele>204.6</ele>
        <time>2021-07-17T14:09:06Z</time>
      </trkpt>
      <trkpt lat="44.4249" lon="1.44648">
        <ele>204.4</ele>
        <time>2021-07-17T14:09:07Z</time>
      </trkpt>
      <trkpt lat="44.42487" lon="1.44651">
        <ele>204.1</ele>
        <time>2021-07-17T14:09:08Z</time>
      </trkpt>
      <trkpt lat="44.42486" lon="1.44652">
        <ele>204</ele>
        <time>2021-07-17T14:09:09Z</time>
      </trkpt>
      <trkpt lat="44.42483" lon="1.44654">
        <ele>203.7</ele>
        <time>2021-07-17T14:09:10Z</time>
      </trkpt>
      <trkpt lat="44.42481" lon="1.44656">
        <ele>203.4</ele>
        <time>2021-07-17T14:09:11Z</time>
      </trkpt>
      <trkpt lat="44.42477" lon="1.44661">
        <ele>203</ele>
        <time>2021-07-17T14:09:13Z</time>
      </trkpt>
      <trkpt lat="44.42473" lon="1.44665">
        <ele>202.7</ele>
        <time>2021-07-17T14:09:14Z</time>
      </trkpt>
      <trkpt lat="44.4247" lon="1.4467">
        <ele>202.3</ele>
        <time>2021-07-17T14:09:15Z</time>
      </trkpt>
      <trkpt lat="44.42464" lon="1.44675">
        <ele>201.8</ele>
        <time>2021-07-17T14:09:16Z</time>
      </trkpt>
      <trkpt lat="44.4246" lon="1.44678">
        <ele>201.4</ele>
        <time>2021-07-17T14:09:17Z</time>
      </trkpt>
      <trkpt lat="44.42456" lon="1.44682">
        <ele>201</ele>
        <time>2021-07-17T14:09:18Z</time>
      </trkpt>
      <trkpt lat="44.42451" lon="1.44684">
        <ele>200.5</ele>
        <time>2021-07-17T14:09:19Z</time>
      </trkpt>
      <trkpt lat="44.42447" lon="1.44686">
        <ele>200.2</ele>
        <time>2021-07-17T14:09:20Z</time>
      </trkpt>
      <trkpt lat="44.42442" lon="1.44684">
        <ele>199.9</ele>
        <time>2021-07-17T14:09:22Z</time>
      </trkpt>
      <trkpt lat="44.42438" lon="1.44684">
        <ele>199.6</ele>
        <time>2021-07-17T14:09:23Z</time>
      </trkpt>
      <trkpt lat="44.4243" lon="1.44693">
        <ele>199.1</ele>
        <time>2021-07-17T14:09:24Z</time>
      </trkpt>
      <trkpt lat="44.42421" lon="1.44704">
        <ele>198.7</ele>
        <time>2021-07-17T14:09:26Z</time>
      </trkpt>
      <trkpt lat="44.42412" lon="1.44712">
        <ele>198.6</ele>
        <time>2021-07-17T14:09:28Z</time>
      </trkpt>
      <trkpt lat="44.42403" lon="1.44722">
        <ele>198.8</ele>
        <time>2021-07-17T14:09:30Z</time>
      </trkpt>
      <trkpt lat="44.42399" lon="1.44727">
        <ele>198.9</ele>
        <time>2021-07-17T14:09:31Z</time>
      </trkpt>
      <trkpt lat="44.42395" lon="1.44731">
        <ele>199.2</ele>
        <time>2021-07-17T14:09:32Z</time>
      </trkpt>
      <trkpt lat="44.42389" lon="1.44736">
        <ele>199.6</ele>
        <time>2021-07-17T14:09:34Z</time>
      </trkpt>
      <trkpt lat="44.42387" lon="1.4474">
        <ele>199.8</ele>
        <time>2021-07-17T14:09:35Z</time>
      </trkpt>
      <trkpt lat="44.42383" lon="1.44741">
        <ele>200.1</ele>
        <time>2021-07-17T14:09:36Z</time>
      </trkpt>
      <trkpt lat="44.42379" lon="1.44744">
        <ele>200.4</ele>
        <time>2021-07-17T14:09:38Z</time>
      </trkpt>
      <trkpt lat="44.42377" lon="1.44745">
        <ele>200.6</ele>
        <time>2021-07-17T14:09:39Z</time>
      </trkpt>
      <trkpt lat="44.42373" lon="1.44747">
        <ele>200.8</ele>
        <time>2021-07-17T14:09:40Z</time>
      </trkpt>
      <trkpt lat="44.42371" lon="1.4475">
        <ele>201</ele>
        <time>2021-07-17T14:09:42Z</time>
      </trkpt>
      <trkpt lat="44.42369" lon="1.44752">
        <ele>201.2</ele>
        <time>2021-07-17T14:09:43Z</time>
      </trkpt>
      <trkpt lat="44.42366" lon="1.44755">
        <ele>201.5</ele>
        <time>2021-07-17T14:09:45Z</time>
      </trkpt>
      <trkpt lat="44.42363" lon="1.44758">
        <ele>201.7</ele>
        <time>2021-07-17T14:09:46Z</time>
      </trkpt>
      <trkpt lat="44.42362" lon="1.44759">
        <ele>201.7</ele>
        <time>2021-07-17T14:09:47Z</time>
      </trkpt>
      <trkpt lat="44.4236" lon="1.44762">
        <ele>201.9</ele>
        <time>2021-07-17T14:09:49Z</time>
      </trkpt>
      <trkpt lat="44.42359" lon="1.44763">
        <ele>202</ele>
        <time>2021-07-17T14:09:50Z</time>
      </trkpt>
      <trkpt lat="44.42356" lon="1.44766">
        <ele>202.2</ele>
        <time>2021-07-17T14:09:51Z</time>
      </trkpt>
      <trkpt lat="44.42356" lon="1.44767">
        <ele>202.3</ele>
        <time>2021-07-17T14:09:52Z</time>
      </trkpt>
      <trkpt lat="44.42354" lon="1.44769">
        <ele>202.4</ele>
        <time>2021-07-17T14:09:53Z</time>
      </trkpt>
      <trkpt lat="44.42352" lon="1.44771">
        <ele>202.6</ele>
        <time>2021-07-17T14:09:55Z</time>
      </trkpt>
      <trkpt lat="44.42349" lon="1.44774">
        <ele>202.8</ele>
        <time>2021-07-17T14:09:56Z</time>
      </trkpt>
      <trkpt lat="44.42349" lon="1.44776">
        <ele>202.9</ele>
        <time>2021-07-17T14:09:57Z</time>
      </trkpt>
      <trkpt lat="44.42346" lon="1.44778">
        <ele>203.1</ele>
        <time>2021-07-17T14:09:58Z</time>
      </trkpt>
      <trkpt lat="44.42345" lon="1.44778">
        <ele>203.2</ele>
        <time>2021-07-17T14:09:59Z</time>
      </trkpt>
      <trkpt lat="44.42343" lon="1.4478">
        <ele>203.4</ele>
        <time>2021-07-17T14:10:00Z</time>
      </trkpt>
      <trkpt lat="44.42342" lon="1.44781">
        <ele>203.5</ele>
        <time>2021-07-17T14:10:01Z</time>
      </trkpt>
      <trkpt lat="44.42341" lon="1.44782">
        <ele>203.7</ele>
        <time>2021-07-17T14:10:03Z</time>
      </trkpt>
      <trkpt lat="44.4234" lon="1.44783">
        <ele>203.8</ele>
        <time>2021-07-17T14:10:04Z</time>
      </trkpt>
      <trkpt lat="44.42339" lon="1.44784">
        <ele>203.9</ele>
        <time>2021-07-17T14:10:05Z</time>
      </trkpt>
      <trkpt lat="44.42338" lon="1.44786">
        <ele>204.1</ele>
        <time>2021-07-17T14:10:07Z</time>
      </trkpt>
      <trkpt lat="44.42337" lon="1.44788">
        <ele>204.3</ele>
        <time>2021-07-17T14:10:08Z</time>
      </trkpt>
      <trkpt lat="44.42335" lon="1.4479">
        <ele>204.6</ele>
        <time>2021-07-17T14:10:09Z</time>
      </trkpt>
      <trkpt lat="44.42334" lon="1.44791">
        <ele>204.7</ele>
        <time>2021-07-17T14:10:10Z</time>
      </trkpt>
      <trkpt lat="44.42331" lon="1.44794">
        <ele>205.1</ele>
        <time>2021-07-17T14:10:12Z</time>
      </trkpt>
      <trkpt lat="44.42329" lon="1.44795">
        <ele>205.4</ele>
        <time>2021-07-17T14:10:13Z</time>
      </trkpt>
      <trkpt lat="44.42326" lon="1.44797">
        <ele>205.8</ele>
        <time>2021-07-17T14:10:15Z</time>
      </trkpt>
      <trkpt lat="44.42323" lon="1.44799">
        <ele>206.1</ele>
        <time>2021-07-17T14:10:16Z</time>
      </trkpt>
      <trkpt lat="44.42322" lon="1.448">
        <ele>206.2</ele>
        <time>2021-07-17T14:10:17Z</time>
      </trkpt>
      <trkpt lat="44.42322" lon="1.44801">
        <ele>206.2</ele>
        <time>2021-07-17T14:10:18Z</time>
      </trkpt>
      <trkpt lat="44.42322" lon="1.44801">
        <ele>206.2</ele>
        <time>2021-07-17T14:10:20Z</time>
      </trkpt>
      <trkpt lat="44.42322" lon="1.448">
        <ele>206.2</ele>
        <time>2021-07-17T14:10:21Z</time>
      </trkpt>
      <trkpt lat="44.42321" lon="1.448">
        <ele>206.3</ele>
        <time>2021-07-17T14:10:22Z</time>
      </trkpt>
      <trkpt lat="44.42321" lon="1.448">
        <ele>206.3</ele>
        <time>2021-07-17T14:10:24Z</time>
      </trkpt>
      <trkpt lat="44.42321" lon="1.448">
        <ele>206.3</ele>
        <time>2021-07-17T14:10:25Z</time>
      </trkpt>
      <trkpt lat="44.42321" lon="1.448">
        <ele>206.3</ele>
        <time>2021-07-17T14:10:26Z</time>
      </trkpt>
      <trkpt lat="44.42317" lon="1.44803">
        <ele>206.7</ele>
        <time>2021-07-17T14:12:34Z</time>
      </trkpt>
      <trkpt lat="44.42316" lon="1.44804">
        <ele>206.7</ele>
        <time>2021-07-17T14:12:35Z</time>
      </trkpt>
      <trkpt lat="44.42317" lon="1.44803">
        <ele>206.8</ele>
        <time>2021-07-17T14:12:37Z</time>
      </trkpt>
      <trkpt lat="44.42317" lon="1.44803">
        <ele>206.8</ele>
        <time>2021-07-17T14:12:38Z</time>
      </trkpt>
      <trkpt lat="44.42317" lon="1.44803">
        <ele>206.8</ele>
        <time>2021-07-17T14:12:39Z</time>
      </trkpt>
      <trkpt lat="44.42317" lon="1.44803">
        <ele>206.8</ele>
        <time>2021-07-17T14:12:40Z</time>
      </trkpt>
      <trkpt lat="44.42317" lon="1.44804">
        <ele>206.8</ele>
        <time>2021-07-17T14:12:42Z</time>
      </trkpt>
      <trkpt lat="44.42317" lon="1.44804">
        <ele>206.8</ele>
        <time>2021-07-17T14:12:43Z</time>
      </trkpt>
      <trkpt lat="44.42317" lon="1.44804">
        <ele>206.8</ele>
        <time>2021-07-17T14:12:45Z</time>
      </trkpt>
      <trkpt lat="44.42317" lon="1.44804">
        <ele>206.8</ele>
        <time>2021-07-17T14:12:47Z</time>
      </trkpt>
      <trkpt lat="44.42317" lon="1.44805">
        <ele>206.8</ele>
        <time>2021-07-17T14:12:48Z</time>
      </trkpt>
      <trkpt lat="44.42317" lon="1.44805">
        <ele>206.8</ele>
        <time>2021-07-17T14:12:49Z</time>
      </trkpt>
      <trkpt lat="44.42317" lon="1.44805">
        <ele>206.8</ele>
        <time>2021-07-17T14:12:51Z</time>
      </trkpt>
      <trkpt lat="44.42317" lon="1.44805">
        <ele>206.9</ele>
        <time>2021-07-17T14:12:52Z</time>
      </trkpt>
      <trkpt lat="44.42317" lon="1.44805">
        <ele>206.9</ele>
        <time>2021-07-17T14:12:54Z</time>
      </trkpt>
      <trkpt lat="44.42317" lon="1.44805">
        <ele>206.9</ele>
        <time>2021-07-17T14:12:55Z</time>
      </trkpt>
      <trkpt lat="44.42317" lon="1.44805">
        <ele>206.9</ele>
        <time>2021-07-17T14:12:56Z</time>
      </trkpt>
      <trkpt lat="44.42317" lon="1.44805">
        <ele>206.9</ele>
        <time>2021-07-17T14:12:58Z</time>
      </trkpt>
      <trkpt lat="44.42317" lon="1.44805">
        <ele>206.9</ele>
        <time>2021-07-17T14:13:00Z</time>
      </trkpt>
      <trkpt lat="44.42316" lon="1.44805">
        <ele>206.9</ele>
        <time>2021-07-17T14:13:02Z</time>
      </trkpt>
      <trkpt lat="44.42316" lon="1.44805">
        <ele>206.9</ele>
        <time>2021-07-17T14:13:04Z</time>
      </trkpt>
      <trkpt lat="44.42316" lon="1.44805">
        <ele>206.9</ele>
        <time>2021-07-17T14:13:05Z</time>
      </trkpt>
      <trkpt lat="44.42316" lon="1.44805">
        <ele>206.9</ele>
        <time>2021-07-17T14:13:06Z</time>
      </trkpt>
      <trkpt lat="44.42316" lon="1.44806">
        <ele>207</ele>
        <time>2021-07-17T14:13:07Z</time>
      </trkpt>
      <trkpt lat="44.42315" lon="1.44808">
        <ele>207.1</ele>
        <time>2021-07-17T14:13:09Z</time>
      </trkpt>
      <trkpt lat="44.42312" lon="1.44812">
        <ele>207.2</ele>
        <time>2021-07-17T14:13:10Z</time>
      </trkpt>
      <trkpt lat="44.4231" lon="1.44813">
        <ele>207.2</ele>
        <time>2021-07-17T14:13:11Z</time>
      </trkpt>
      <trkpt lat="44.42309" lon="1.44814">
        <ele>207.3</ele>
        <time>2021-07-17T14:13:12Z</time>
      </trkpt>
      <trkpt lat="44.42307" lon="1.44817">
        <ele>207.3</ele>
        <time>2021-07-17T14:13:14Z</time>
      </trkpt>
      <trkpt lat="44.42304" lon="1.4482">
        <ele>207.4</ele>
        <time>2021-07-17T14:13:15Z</time>
      </trkpt>
      <trkpt lat="44.42302" lon="1.44823">
        <ele>207.4</ele>
        <time>2021-07-17T14:13:16Z</time>
      </trkpt>
      <trkpt lat="44.42301" lon="1.44824">
        <ele>207.4</ele>
        <time>2021-07-17T14:13:17Z</time>
      </trkpt>
      <trkpt lat="44.42299" lon="1.44826">
        <ele>207.4</ele>
        <time>2021-07-17T14:13:19Z</time>
      </trkpt>
      <trkpt lat="44.42298" lon="1.44827">
        <ele>207.4</ele>
        <time>2021-07-17T14:13:20Z</time>
      </trkpt>
      <trkpt lat="44.42296" lon="1.44828">
        <ele>207.4</ele>
        <time>2021-07-17T14:13:22Z</time>
      </trkpt>
      <trkpt lat="44.42296" lon="1.44829">
        <ele>207.4</ele>
        <time>2021-07-17T14:13:23Z</time>
      </trkpt>
      <trkpt lat="44.42295" lon="1.44829">
        <ele>207.4</ele>
        <time>2021-07-17T14:13:24Z</time>
      </trkpt>
      <trkpt lat="44.42293" lon="1.44829">
        <ele>207.4</ele>
        <time>2021-07-17T14:13:25Z</time>
      </trkpt>
      <trkpt lat="44.4229" lon="1.44829">
        <ele>207.3</ele>
        <time>2021-07-17T14:13:27Z</time>
      </trkpt>
      <trkpt lat="44.42286" lon="1.44831">
        <ele>207.3</ele>
        <time>2021-07-17T14:13:28Z</time>
      </trkpt>
      <trkpt lat="44.42284" lon="1.44833">
        <ele>207.3</ele>
        <time>2021-07-17T14:13:29Z</time>
      </trkpt>
      <trkpt lat="44.42282" lon="1.44835">
        <ele>207.4</ele>
        <time>2021-07-17T14:13:30Z</time>
      </trkpt>
      <trkpt lat="44.42279" lon="1.44837">
        <ele>207.4</ele>
        <time>2021-07-17T14:13:32Z</time>
      </trkpt>
      <trkpt lat="44.42279" lon="1.44837">
        <ele>207.4</ele>
        <time>2021-07-17T14:13:33Z</time>
      </trkpt>
      <trkpt lat="44.42279" lon="1.44836">
        <ele>207.4</ele>
        <time>2021-07-17T14:13:34Z</time>
      </trkpt>
      <trkpt lat="44.42279" lon="1.44836">
        <ele>207.5</ele>
        <time>2021-07-17T14:13:36Z</time>
      </trkpt>
      <trkpt lat="44.42279" lon="1.44836">
        <ele>207.5</ele>
        <time>2021-07-17T14:13:38Z</time>
      </trkpt>
      <trkpt lat="44.42279" lon="1.44836">
        <ele>207.5</ele>
        <time>2021-07-17T14:13:40Z</time>
      </trkpt>
      <trkpt lat="44.42273" lon="1.44841">
        <ele>207.7</ele>
        <time>2021-07-17T14:14:39Z</time>
      </trkpt>
      <trkpt lat="44.4227" lon="1.44843">
        <ele>207.9</ele>
        <time>2021-07-17T14:14:41Z</time>
      </trkpt>
      <trkpt lat="44.42267" lon="1.44847">
        <ele>208.1</ele>
        <time>2021-07-17T14:14:43Z</time>
      </trkpt>
      <trkpt lat="44.42267" lon="1.44847">
        <ele>208.2</ele>
        <time>2021-07-17T14:14:44Z</time>
      </trkpt>
      <trkpt lat="44.42266" lon="1.44849">
        <ele>208.3</ele>
        <time>2021-07-17T14:14:45Z</time>
      </trkpt>
      <trkpt lat="44.42262" lon="1.44851">
        <ele>208.7</ele>
        <time>2021-07-17T14:14:47Z</time>
      </trkpt>
      <trkpt lat="44.42258" lon="1.44853">
        <ele>209.1</ele>
        <time>2021-07-17T14:14:49Z</time>
      </trkpt>
      <trkpt lat="44.42255" lon="1.44855">
        <ele>209.5</ele>
        <time>2021-07-17T14:14:50Z</time>
      </trkpt>
      <trkpt lat="44.42253" lon="1.44858">
        <ele>209.8</ele>
        <time>2021-07-17T14:14:51Z</time>
      </trkpt>
      <trkpt lat="44.42251" lon="1.44861">
        <ele>210.2</ele>
        <time>2021-07-17T14:14:53Z</time>
      </trkpt>
      <trkpt lat="44.4225" lon="1.44865">
        <ele>210.6</ele>
        <time>2021-07-17T14:14:54Z</time>
      </trkpt>
      <trkpt lat="44.42249" lon="1.44867">
        <ele>210.8</ele>
        <time>2021-07-17T14:14:55Z</time>
      </trkpt>
      <trkpt lat="44.42249" lon="1.44869">
        <ele>211.1</ele>
        <time>2021-07-17T14:14:57Z</time>
      </trkpt>
      <trkpt lat="44.42248" lon="1.44872">
        <ele>211.4</ele>
        <time>2021-07-17T14:14:58Z</time>
      </trkpt>
      <trkpt lat="44.42247" lon="1.44874">
        <ele>211.6</ele>
        <time>2021-07-17T14:14:59Z</time>
      </trkpt>
      <trkpt lat="44.42245" lon="1.44876">
        <ele>212</ele>
        <time>2021-07-17T14:15:00Z</time>
      </trkpt>
      <trkpt lat="44.42245" lon="1.44876">
        <ele>212.1</ele>
        <time>2021-07-17T14:15:01Z</time>
      </trkpt>
      <trkpt lat="44.42244" lon="1.44877">
        <ele>212.2</ele>
        <time>2021-07-17T14:15:02Z</time>
      </trkpt>
      <trkpt lat="44.42244" lon="1.4488">
        <ele>212.6</ele>
        <time>2021-07-17T14:15:04Z</time>
      </trkpt>
      <trkpt lat="44.42243" lon="1.44881">
        <ele>212.6</ele>
        <time>2021-07-17T14:15:05Z</time>
      </trkpt>
      <trkpt lat="44.42243" lon="1.44881">
        <ele>212.7</ele>
        <time>2021-07-17T14:15:06Z</time>
      </trkpt>
      <trkpt lat="44.42243" lon="1.44882">
        <ele>212.8</ele>
        <time>2021-07-17T14:15:08Z</time>
      </trkpt>
      <trkpt lat="44.42243" lon="1.44882">
        <ele>212.8</ele>
        <time>2021-07-17T14:15:09Z</time>
      </trkpt>
      <trkpt lat="44.42242" lon="1.44885">
        <ele>213.2</ele>
        <time>2021-07-17T14:15:10Z</time>
      </trkpt>
      <trkpt lat="44.42241" lon="1.44889">
        <ele>213.7</ele>
        <time>2021-07-17T14:15:12Z</time>
      </trkpt>
      <trkpt lat="44.42241" lon="1.44893">
        <ele>214.1</ele>
        <time>2021-07-17T14:15:13Z</time>
      </trkpt>
      <trkpt lat="44.42241" lon="1.44895">
        <ele>214.4</ele>
        <time>2021-07-17T14:15:15Z</time>
      </trkpt>
      <trkpt lat="44.42241" lon="1.44898">
        <ele>214.7</ele>
        <time>2021-07-17T14:15:16Z</time>
      </trkpt>
      <trkpt lat="44.42241" lon="1.449">
        <ele>214.9</ele>
        <time>2021-07-17T14:15:17Z</time>
      </trkpt>
      <trkpt lat="44.4224" lon="1.449">
        <ele>215</ele>
        <time>2021-07-17T14:15:18Z</time>
      </trkpt>
      <trkpt lat="44.4224" lon="1.449">
        <ele>215</ele>
        <time>2021-07-17T14:15:19Z</time>
      </trkpt>
      <trkpt lat="44.4224" lon="1.449">
        <ele>215</ele>
        <time>2021-07-17T14:15:21Z</time>
      </trkpt>
      <trkpt lat="44.4224" lon="1.449">
        <ele>215.1</ele>
        <time>2021-07-17T14:15:23Z</time>
      </trkpt>
      <trkpt lat="44.42241" lon="1.449">
        <ele>215.1</ele>
        <time>2021-07-17T14:15:24Z</time>
      </trkpt>
      <trkpt lat="44.42241" lon="1.449">
        <ele>215.1</ele>
        <time>2021-07-17T14:15:25Z</time>
      </trkpt>
      <trkpt lat="44.42241" lon="1.449">
        <ele>215.1</ele>
        <time>2021-07-17T14:15:26Z</time>
      </trkpt>
      <trkpt lat="44.42241" lon="1.44904">
        <ele>215.6</ele>
        <time>2021-07-17T14:16:28Z</time>
      </trkpt>
      <trkpt lat="44.42241" lon="1.44909">
        <ele>216.1</ele>
        <time>2021-07-17T14:16:29Z</time>
      </trkpt>
      <trkpt lat="44.4224" lon="1.44915">
        <ele>216.5</ele>
        <time>2021-07-17T14:16:30Z</time>
      </trkpt>
      <trkpt lat="44.4224" lon="1.44918">
        <ele>216.8</ele>
        <time>2021-07-17T14:16:31Z</time>
      </trkpt>
      <trkpt lat="44.42239" lon="1.4492">
        <ele>217.1</ele>
        <time>2021-07-17T14:16:33Z</time>
      </trkpt>
      <trkpt lat="44.42238" lon="1.44924">
        <ele>217.6</ele>
        <time>2021-07-17T14:16:34Z</time>
      </trkpt>
      <trkpt lat="44.42237" lon="1.44925">
        <ele>217.7</ele>
        <time>2021-07-17T14:16:35Z</time>
      </trkpt>
      <trkpt lat="44.42237" lon="1.44926">
        <ele>217.9</ele>
        <time>2021-07-17T14:16:36Z</time>
      </trkpt>
      <trkpt lat="44.42237" lon="1.44929">
        <ele>218.3</ele>
        <time>2021-07-17T14:16:38Z</time>
      </trkpt>
      <trkpt lat="44.42237" lon="1.44932">
        <ele>218.7</ele>
        <time>2021-07-17T14:16:40Z</time>
      </trkpt>
      <trkpt lat="44.42238" lon="1.44936">
        <ele>219.1</ele>
        <time>2021-07-17T14:16:41Z</time>
      </trkpt>
      <trkpt lat="44.42238" lon="1.44938">
        <ele>219.3</ele>
        <time>2021-07-17T14:16:42Z</time>
      </trkpt>
      <trkpt lat="44.42237" lon="1.44939">
        <ele>219.5</ele>
        <time>2021-07-17T14:16:44Z</time>
      </trkpt>
      <trkpt lat="44.42237" lon="1.4494">
        <ele>219.6</ele>
        <time>2021-07-17T14:16:45Z</time>
      </trkpt>
      <trkpt lat="44.42236" lon="1.44943">
        <ele>220</ele>
        <time>2021-07-17T14:16:47Z</time>
      </trkpt>
      <trkpt lat="44.42235" lon="1.44945">
        <ele>220.3</ele>
        <time>2021-07-17T14:16:48Z</time>
      </trkpt>
      <trkpt lat="44.42234" lon="1.44945">
        <ele>220.4</ele>
        <time>2021-07-17T14:16:49Z</time>
      </trkpt>
      <trkpt lat="44.42233" lon="1.44945">
        <ele>220.5</ele>
        <time>2021-07-17T14:16:51Z</time>
      </trkpt>
      <trkpt lat="44.42233" lon="1.44946">
        <ele>220.6</ele>
        <time>2021-07-17T14:16:52Z</time>
      </trkpt>
      <trkpt lat="44.42233" lon="1.44946">
        <ele>220.6</ele>
        <time>2021-07-17T14:16:53Z</time>
      </trkpt>
      <trkpt lat="44.42233" lon="1.44946">
        <ele>220.6</ele>
        <time>2021-07-17T14:16:55Z</time>
      </trkpt>
      <trkpt lat="44.42233" lon="1.44946">
        <ele>220.7</ele>
        <time>2021-07-17T14:16:56Z</time>
      </trkpt>
      <trkpt lat="44.42233" lon="1.44947">
        <ele>220.7</ele>
        <time>2021-07-17T14:16:58Z</time>
      </trkpt>
      <trkpt lat="44.42231" lon="1.44951">
        <ele>221.2</ele>
        <time>2021-07-17T14:17:54Z</time>
      </trkpt>
      <trkpt lat="44.42231" lon="1.4495">
        <ele>221.3</ele>
        <time>2021-07-17T14:17:56Z</time>
      </trkpt>
      <trkpt lat="44.4223" lon="1.44952">
        <ele>221.5</ele>
        <time>2021-07-17T14:17:57Z</time>
      </trkpt>
      <trkpt lat="44.42229" lon="1.44954">
        <ele>221.9</ele>
        <time>2021-07-17T14:17:58Z</time>
      </trkpt>
      <trkpt lat="44.42228" lon="1.44956">
        <ele>222.1</ele>
        <time>2021-07-17T14:18:00Z</time>
      </trkpt>
      <trkpt lat="44.42227" lon="1.44958">
        <ele>222.3</ele>
        <time>2021-07-17T14:18:01Z</time>
      </trkpt>
      <trkpt lat="44.42227" lon="1.44958">
        <ele>222.4</ele>
        <time>2021-07-17T14:18:02Z</time>
      </trkpt>
      <trkpt lat="44.42226" lon="1.4496">
        <ele>222.6</ele>
        <time>2021-07-17T14:18:04Z</time>
      </trkpt>
      <trkpt lat="44.42225" lon="1.44961">
        <ele>222.7</ele>
        <time>2021-07-17T14:18:05Z</time>
      </trkpt>
      <trkpt lat="44.42225" lon="1.44962">
        <ele>222.8</ele>
        <time>2021-07-17T14:18:06Z</time>
      </trkpt>
      <trkpt lat="44.42225" lon="1.44963">
        <ele>222.9</ele>
        <time>2021-07-17T14:18:08Z</time>
      </trkpt>
      <trkpt lat="44.42218" lon="1.44979">
        <ele>225.2</ele>
        <time>2021-07-17T14:19:12Z</time>
      </trkpt>
      <trkpt lat="44.42215" lon="1.44982">
        <ele>225.7</ele>
        <time>2021-07-17T14:19:14Z</time>
      </trkpt>
      <trkpt lat="44.42212" lon="1.44984">
        <ele>226.3</ele>
        <time>2021-07-17T14:19:16Z</time>
      </trkpt>
      <trkpt lat="44.4221" lon="1.44986">
        <ele>226.9</ele>
        <time>2021-07-17T14:19:18Z</time>
      </trkpt>
      <trkpt lat="44.42207" lon="1.44989">
        <ele>227.4</ele>
        <time>2021-07-17T14:19:20Z</time>
      </trkpt>
      <trkpt lat="44.42206" lon="1.44993">
        <ele>227.9</ele>
        <time>2021-07-17T14:19:22Z</time>
      </trkpt>
      <trkpt lat="44.42205" lon="1.44995">
        <ele>228.2</ele>
        <time>2021-07-17T14:19:23Z</time>
      </trkpt>
      <trkpt lat="44.42205" lon="1.44996">
        <ele>228.3</ele>
        <time>2021-07-17T14:19:24Z</time>
      </trkpt>
      <trkpt lat="44.42204" lon="1.45">
        <ele>228.7</ele>
        <time>2021-07-17T14:19:26Z</time>
      </trkpt>
      <trkpt lat="44.42204" lon="1.45004">
        <ele>229.2</ele>
        <time>2021-07-17T14:19:28Z</time>
      </trkpt>
      <trkpt lat="44.42204" lon="1.45006">
        <ele>229.4</ele>
        <time>2021-07-17T14:19:29Z</time>
      </trkpt>
      <trkpt lat="44.42204" lon="1.45008">
        <ele>229.6</ele>
        <time>2021-07-17T14:19:30Z</time>
      </trkpt>
      <trkpt lat="44.42204" lon="1.45012">
        <ele>230</ele>
        <time>2021-07-17T14:19:32Z</time>
      </trkpt>
      <trkpt lat="44.42204" lon="1.45016">
        <ele>230.4</ele>
        <time>2021-07-17T14:19:34Z</time>
      </trkpt>
      <trkpt lat="44.42204" lon="1.45018">
        <ele>230.6</ele>
        <time>2021-07-17T14:19:35Z</time>
      </trkpt>
      <trkpt lat="44.42202" lon="1.45021">
        <ele>231.1</ele>
        <time>2021-07-17T14:19:37Z</time>
      </trkpt>
      <trkpt lat="44.42201" lon="1.45023">
        <ele>231.3</ele>
        <time>2021-07-17T14:19:38Z</time>
      </trkpt>
      <trkpt lat="44.422" lon="1.45024">
        <ele>231.5</ele>
        <time>2021-07-17T14:19:39Z</time>
      </trkpt>
      <trkpt lat="44.42199" lon="1.45027">
        <ele>231.9</ele>
        <time>2021-07-17T14:19:41Z</time>
      </trkpt>
      <trkpt lat="44.42198" lon="1.45029">
        <ele>232.1</ele>
        <time>2021-07-17T14:19:42Z</time>
      </trkpt>
      <trkpt lat="44.42197" lon="1.45031">
        <ele>232.4</ele>
        <time>2021-07-17T14:19:43Z</time>
      </trkpt>
      <trkpt lat="44.42196" lon="1.45032">
        <ele>232.6</ele>
        <time>2021-07-17T14:19:44Z</time>
      </trkpt>
      <trkpt lat="44.42195" lon="1.45034">
        <ele>232.8</ele>
        <time>2021-07-17T14:19:45Z</time>
      </trkpt>
      <trkpt lat="44.42195" lon="1.45035">
        <ele>233</ele>
        <time>2021-07-17T14:19:47Z</time>
      </trkpt>
      <trkpt lat="44.42194" lon="1.45036">
        <ele>233.1</ele>
        <time>2021-07-17T14:19:48Z</time>
      </trkpt>
      <trkpt lat="44.42193" lon="1.45039">
        <ele>233.4</ele>
        <time>2021-07-17T14:19:50Z</time>
      </trkpt>
      <trkpt lat="44.42193" lon="1.4504">
        <ele>233.6</ele>
        <time>2021-07-17T14:19:51Z</time>
      </trkpt>
      <trkpt lat="44.42192" lon="1.45043">
        <ele>233.9</ele>
        <time>2021-07-17T14:19:53Z</time>
      </trkpt>
      <trkpt lat="44.42192" lon="1.45044">
        <ele>234</ele>
        <time>2021-07-17T14:19:54Z</time>
      </trkpt>
      <trkpt lat="44.42192" lon="1.45046">
        <ele>234.2</ele>
        <time>2021-07-17T14:19:56Z</time>
      </trkpt>
      <trkpt lat="44.42192" lon="1.45048">
        <ele>234.5</ele>
        <time>2021-07-17T14:19:58Z</time>
      </trkpt>
      <trkpt lat="44.42191" lon="1.45052">
        <ele>234.9</ele>
        <time>2021-07-17T14:19:59Z</time>
      </trkpt>
      <trkpt lat="44.42191" lon="1.45053">
        <ele>235</ele>
        <time>2021-07-17T14:20:01Z</time>
      </trkpt>
      <trkpt lat="44.42191" lon="1.45055">
        <ele>235.2</ele>
        <time>2021-07-17T14:20:02Z</time>
      </trkpt>
      <trkpt lat="44.4219" lon="1.45056">
        <ele>235.3</ele>
        <time>2021-07-17T14:20:03Z</time>
      </trkpt>
      <trkpt lat="44.4219" lon="1.45057">
        <ele>235.5</ele>
        <time>2021-07-17T14:20:05Z</time>
      </trkpt>
      <trkpt lat="44.42189" lon="1.45059">
        <ele>235.6</ele>
        <time>2021-07-17T14:20:06Z</time>
      </trkpt>
      <trkpt lat="44.42189" lon="1.4506">
        <ele>235.8</ele>
        <time>2021-07-17T14:20:08Z</time>
      </trkpt>
      <trkpt lat="44.42188" lon="1.45062">
        <ele>235.9</ele>
        <time>2021-07-17T14:20:27Z</time>
      </trkpt>
      <trkpt lat="44.42188" lon="1.45063">
        <ele>236</ele>
        <time>2021-07-17T14:20:28Z</time>
      </trkpt>
      <trkpt lat="44.42187" lon="1.45065">
        <ele>236.2</ele>
        <time>2021-07-17T14:20:29Z</time>
      </trkpt>
      <trkpt lat="44.42187" lon="1.45068">
        <ele>236.4</ele>
        <time>2021-07-17T14:20:31Z</time>
      </trkpt>
      <trkpt lat="44.42186" lon="1.45068">
        <ele>236.5</ele>
        <time>2021-07-17T14:20:32Z</time>
      </trkpt>
      <trkpt lat="44.42186" lon="1.45069">
        <ele>236.6</ele>
        <time>2021-07-17T14:20:34Z</time>
      </trkpt>
      <trkpt lat="44.42186" lon="1.4507">
        <ele>236.7</ele>
        <time>2021-07-17T14:20:35Z</time>
      </trkpt>
      <trkpt lat="44.42186" lon="1.4507">
        <ele>236.7</ele>
        <time>2021-07-17T14:20:36Z</time>
      </trkpt>
      <trkpt lat="44.42186" lon="1.4507">
        <ele>236.7</ele>
        <time>2021-07-17T14:20:37Z</time>
      </trkpt>
      <trkpt lat="44.42186" lon="1.45071">
        <ele>236.8</ele>
        <time>2021-07-17T14:20:39Z</time>
      </trkpt>
      <trkpt lat="44.42185" lon="1.45073">
        <ele>237</ele>
        <time>2021-07-17T14:20:41Z</time>
      </trkpt>
      <trkpt lat="44.42185" lon="1.45079">
        <ele>237.4</ele>
        <time>2021-07-17T14:20:43Z</time>
      </trkpt>
      <trkpt lat="44.42186" lon="1.45083">
        <ele>237.8</ele>
        <time>2021-07-17T14:20:44Z</time>
      </trkpt>
      <trkpt lat="44.42186" lon="1.45089">
        <ele>238.2</ele>
        <time>2021-07-17T14:20:46Z</time>
      </trkpt>
      <trkpt lat="44.42186" lon="1.45091">
        <ele>238.3</ele>
        <time>2021-07-17T14:20:47Z</time>
      </trkpt>
      <trkpt lat="44.42186" lon="1.45093">
        <ele>238.4</ele>
        <time>2021-07-17T14:20:48Z</time>
      </trkpt>
      <trkpt lat="44.42185" lon="1.45094">
        <ele>238.5</ele>
        <time>2021-07-17T14:20:50Z</time>
      </trkpt>
      <trkpt lat="44.42185" lon="1.45094">
        <ele>238.5</ele>
        <time>2021-07-17T14:20:51Z</time>
      </trkpt>
      <trkpt lat="44.42185" lon="1.45094">
        <ele>238.5</ele>
        <time>2021-07-17T14:20:52Z</time>
      </trkpt>
      <trkpt lat="44.42185" lon="1.45094">
        <ele>238.5</ele>
        <time>2021-07-17T14:20:53Z</time>
      </trkpt>
      <trkpt lat="44.42185" lon="1.45094">
        <ele>238.6</ele>
        <time>2021-07-17T14:20:54Z</time>
      </trkpt>
      <trkpt lat="44.42185" lon="1.45094">
        <ele>238.6</ele>
        <time>2021-07-17T14:20:56Z</time>
      </trkpt>
      <trkpt lat="44.42185" lon="1.45094">
        <ele>238.6</ele>
        <time>2021-07-17T14:20:58Z</time>
      </trkpt>
      <trkpt lat="44.42184" lon="1.45096">
        <ele>238.7</ele>
        <time>2021-07-17T14:21:10Z</time>
      </trkpt>
      <trkpt lat="44.42184" lon="1.45098">
        <ele>238.8</ele>
        <time>2021-07-17T14:21:11Z</time>
      </trkpt>
      <trkpt lat="44.42183" lon="1.451">
        <ele>239</ele>
        <time>2021-07-17T14:21:12Z</time>
      </trkpt>
      <trkpt lat="44.42181" lon="1.45104">
        <ele>239.3</ele>
        <time>2021-07-17T14:21:14Z</time>
      </trkpt>
      <trkpt lat="44.42181" lon="1.45106">
        <ele>239.4</ele>
        <time>2021-07-17T14:21:15Z</time>
      </trkpt>
      <trkpt lat="44.42181" lon="1.45108">
        <ele>239.5</ele>
        <time>2021-07-17T14:21:16Z</time>
      </trkpt>
      <trkpt lat="44.4218" lon="1.45113">
        <ele>239.8</ele>
        <time>2021-07-17T14:21:18Z</time>
      </trkpt>
      <trkpt lat="44.42179" lon="1.45114">
        <ele>239.9</ele>
        <time>2021-07-17T14:21:19Z</time>
      </trkpt>
      <trkpt lat="44.42179" lon="1.45116">
        <ele>240</ele>
        <time>2021-07-17T14:21:20Z</time>
      </trkpt>
      <trkpt lat="44.42179" lon="1.45119">
        <ele>240.2</ele>
        <time>2021-07-17T14:21:21Z</time>
      </trkpt>
      <trkpt lat="44.42178" lon="1.45121">
        <ele>240.3</ele>
        <time>2021-07-17T14:21:22Z</time>
      </trkpt>
      <trkpt lat="44.42177" lon="1.45124">
        <ele>240.5</ele>
        <time>2021-07-17T14:21:24Z</time>
      </trkpt>
      <trkpt lat="44.42177" lon="1.45126">
        <ele>240.7</ele>
        <time>2021-07-17T14:21:25Z</time>
      </trkpt>
      <trkpt lat="44.42176" lon="1.45127">
        <ele>240.8</ele>
        <time>2021-07-17T14:21:26Z</time>
      </trkpt>
      <trkpt lat="44.42176" lon="1.45129">
        <ele>240.9</ele>
        <time>2021-07-17T14:21:28Z</time>
      </trkpt>
      <trkpt lat="44.42175" lon="1.4513">
        <ele>241</ele>
        <time>2021-07-17T14:21:29Z</time>
      </trkpt>
      <trkpt lat="44.42174" lon="1.45132">
        <ele>241.1</ele>
        <time>2021-07-17T14:21:31Z</time>
      </trkpt>
      <trkpt lat="44.42174" lon="1.45133">
        <ele>241.2</ele>
        <time>2021-07-17T14:21:32Z</time>
      </trkpt>
      <trkpt lat="44.42173" lon="1.45136">
        <ele>241.4</ele>
        <time>2021-07-17T14:21:34Z</time>
      </trkpt>
      <trkpt lat="44.42172" lon="1.45138">
        <ele>241.6</ele>
        <time>2021-07-17T14:21:35Z</time>
      </trkpt>
      <trkpt lat="44.4217" lon="1.45141">
        <ele>241.8</ele>
        <time>2021-07-17T14:21:37Z</time>
      </trkpt>
      <trkpt lat="44.42169" lon="1.45144">
        <ele>241.9</ele>
        <time>2021-07-17T14:21:38Z</time>
      </trkpt>
      <trkpt lat="44.42168" lon="1.45148">
        <ele>242.1</ele>
        <time>2021-07-17T14:21:40Z</time>
      </trkpt>
      <trkpt lat="44.42168" lon="1.4515">
        <ele>242.3</ele>
        <time>2021-07-17T14:21:41Z</time>
      </trkpt>
      <trkpt lat="44.42167" lon="1.45152">
        <ele>242.4</ele>
        <time>2021-07-17T14:21:42Z</time>
      </trkpt>
      <trkpt lat="44.42166" lon="1.45156">
        <ele>242.6</ele>
        <time>2021-07-17T14:21:44Z</time>
      </trkpt>
      <trkpt lat="44.42166" lon="1.45157">
        <ele>242.7</ele>
        <time>2021-07-17T14:21:45Z</time>
      </trkpt>
      <trkpt lat="44.42165" lon="1.45159">
        <ele>242.8</ele>
        <time>2021-07-17T14:21:46Z</time>
      </trkpt>
      <trkpt lat="44.42165" lon="1.45161">
        <ele>242.9</ele>
        <time>2021-07-17T14:21:48Z</time>
      </trkpt>
      <trkpt lat="44.42164" lon="1.45164">
        <ele>243</ele>
        <time>2021-07-17T14:21:49Z</time>
      </trkpt>
      <trkpt lat="44.42164" lon="1.45166">
        <ele>243.1</ele>
        <time>2021-07-17T14:21:50Z</time>
      </trkpt>
      <trkpt lat="44.42164" lon="1.45169">
        <ele>243.2</ele>
        <time>2021-07-17T14:21:51Z</time>
      </trkpt>
      <trkpt lat="44.42163" lon="1.45172">
        <ele>243.4</ele>
        <time>2021-07-17T14:21:53Z</time>
      </trkpt>
      <trkpt lat="44.42163" lon="1.45175">
        <ele>243.5</ele>
        <time>2021-07-17T14:21:54Z</time>
      </trkpt>
      <trkpt lat="44.42163" lon="1.45179">
        <ele>243.7</ele>
        <time>2021-07-17T14:21:56Z</time>
      </trkpt>
      <trkpt lat="44.42165" lon="1.45183">
        <ele>243.9</ele>
        <time>2021-07-17T14:21:57Z</time>
      </trkpt>
      <trkpt lat="44.42166" lon="1.45184">
        <ele>244</ele>
        <time>2021-07-17T14:21:58Z</time>
      </trkpt>
      <trkpt lat="44.42168" lon="1.45189">
        <ele>244.3</ele>
        <time>2021-07-17T14:22:00Z</time>
      </trkpt>
      <trkpt lat="44.42169" lon="1.45194">
        <ele>244.5</ele>
        <time>2021-07-17T14:22:01Z</time>
      </trkpt>
      <trkpt lat="44.42169" lon="1.45196">
        <ele>244.6</ele>
        <time>2021-07-17T14:22:02Z</time>
      </trkpt>
      <trkpt lat="44.42171" lon="1.452">
        <ele>244.9</ele>
        <time>2021-07-17T14:22:04Z</time>
      </trkpt>
      <trkpt lat="44.42171" lon="1.45204">
        <ele>245.1</ele>
        <time>2021-07-17T14:22:05Z</time>
      </trkpt>
      <trkpt lat="44.42171" lon="1.4521">
        <ele>245.4</ele>
        <time>2021-07-17T14:22:06Z</time>
      </trkpt>
      <trkpt lat="44.42171" lon="1.45212">
        <ele>245.5</ele>
        <time>2021-07-17T14:22:07Z</time>
      </trkpt>
      <trkpt lat="44.4217" lon="1.45215">
        <ele>245.7</ele>
        <time>2021-07-17T14:22:09Z</time>
      </trkpt>
      <trkpt lat="44.4217" lon="1.45215">
        <ele>245.8</ele>
        <time>2021-07-17T14:22:10Z</time>
      </trkpt>
      <trkpt lat="44.4217" lon="1.45218">
        <ele>245.9</ele>
        <time>2021-07-17T14:22:12Z</time>
      </trkpt>
      <trkpt lat="44.4217" lon="1.4522">
        <ele>246</ele>
        <time>2021-07-17T14:22:14Z</time>
      </trkpt>
      <trkpt lat="44.42169" lon="1.45221">
        <ele>246.1</ele>
        <time>2021-07-17T14:22:15Z</time>
      </trkpt>
      <trkpt lat="44.42169" lon="1.45223">
        <ele>246.2</ele>
        <time>2021-07-17T14:22:16Z</time>
      </trkpt>
      <trkpt lat="44.42169" lon="1.45225">
        <ele>246.3</ele>
        <time>2021-07-17T14:22:17Z</time>
      </trkpt>
      <trkpt lat="44.42168" lon="1.45227">
        <ele>246.5</ele>
        <time>2021-07-17T14:32:02Z</time>
      </trkpt>
      <trkpt lat="44.42168" lon="1.45229">
        <ele>246.6</ele>
        <time>2021-07-17T14:32:04Z</time>
      </trkpt>
      <trkpt lat="44.42168" lon="1.45231">
        <ele>246.7</ele>
        <time>2021-07-17T14:32:06Z</time>
      </trkpt>
      <trkpt lat="44.42167" lon="1.45233">
        <ele>246.8</ele>
        <time>2021-07-17T14:32:07Z</time>
      </trkpt>
      <trkpt lat="44.42167" lon="1.45235">
        <ele>246.9</ele>
        <time>2021-07-17T14:32:08Z</time>
      </trkpt>
      <trkpt lat="44.42165" lon="1.45239">
        <ele>247.1</ele>
        <time>2021-07-17T14:32:10Z</time>
      </trkpt>
      <trkpt lat="44.42162" lon="1.45242">
        <ele>247.4</ele>
        <time>2021-07-17T14:32:11Z</time>
      </trkpt>
      <trkpt lat="44.4216" lon="1.45245">
        <ele>247.5</ele>
        <time>2021-07-17T14:32:12Z</time>
      </trkpt>
      <trkpt lat="44.4216" lon="1.45246">
        <ele>247.6</ele>
        <time>2021-07-17T14:32:13Z</time>
      </trkpt>
      <trkpt lat="44.42159" lon="1.45249">
        <ele>247.7</ele>
        <time>2021-07-17T14:32:14Z</time>
      </trkpt>
      <trkpt lat="44.42159" lon="1.45251">
        <ele>247.8</ele>
        <time>2021-07-17T14:32:15Z</time>
      </trkpt>
      <trkpt lat="44.42158" lon="1.45253">
        <ele>247.9</ele>
        <time>2021-07-17T14:32:17Z</time>
      </trkpt>
      <trkpt lat="44.42158" lon="1.45255">
        <ele>247.9</ele>
        <time>2021-07-17T14:32:18Z</time>
      </trkpt>
      <trkpt lat="44.42157" lon="1.45257">
        <ele>248</ele>
        <time>2021-07-17T14:32:19Z</time>
      </trkpt>
      <trkpt lat="44.42157" lon="1.45262">
        <ele>248.2</ele>
        <time>2021-07-17T14:32:21Z</time>
      </trkpt>
      <trkpt lat="44.42156" lon="1.45265">
        <ele>248.3</ele>
        <time>2021-07-17T14:32:22Z</time>
      </trkpt>
      <trkpt lat="44.42154" lon="1.4527">
        <ele>248.5</ele>
        <time>2021-07-17T14:32:24Z</time>
      </trkpt>
      <trkpt lat="44.42152" lon="1.45275">
        <ele>248.7</ele>
        <time>2021-07-17T14:32:25Z</time>
      </trkpt>
      <trkpt lat="44.42152" lon="1.45277">
        <ele>248.8</ele>
        <time>2021-07-17T14:32:26Z</time>
      </trkpt>
      <trkpt lat="44.42151" lon="1.45281">
        <ele>249.1</ele>
        <time>2021-07-17T14:32:27Z</time>
      </trkpt>
      <trkpt lat="44.4215" lon="1.45283">
        <ele>249.1</ele>
        <time>2021-07-17T14:32:28Z</time>
      </trkpt>
      <trkpt lat="44.4215" lon="1.45286">
        <ele>249.3</ele>
        <time>2021-07-17T14:32:29Z</time>
      </trkpt>
      <trkpt lat="44.4215" lon="1.45289">
        <ele>249.5</ele>
        <time>2021-07-17T14:32:31Z</time>
      </trkpt>
      <trkpt lat="44.42149" lon="1.45293">
        <ele>249.7</ele>
        <time>2021-07-17T14:32:32Z</time>
      </trkpt>
      <trkpt lat="44.42148" lon="1.45297">
        <ele>249.9</ele>
        <time>2021-07-17T14:32:33Z</time>
      </trkpt>
      <trkpt lat="44.42148" lon="1.45301">
        <ele>250.1</ele>
        <time>2021-07-17T14:32:34Z</time>
      </trkpt>
      <trkpt lat="44.42148" lon="1.45305">
        <ele>250.3</ele>
        <time>2021-07-17T14:32:36Z</time>
      </trkpt>
      <trkpt lat="44.42149" lon="1.45309">
        <ele>250.5</ele>
        <time>2021-07-17T14:32:37Z</time>
      </trkpt>
      <trkpt lat="44.42149" lon="1.45311">
        <ele>250.5</ele>
        <time>2021-07-17T14:32:38Z</time>
      </trkpt>
      <trkpt lat="44.42149" lon="1.45315">
        <ele>250.7</ele>
        <time>2021-07-17T14:32:39Z</time>
      </trkpt>
      <trkpt lat="44.42149" lon="1.45316">
        <ele>250.8</ele>
        <time>2021-07-17T14:32:40Z</time>
      </trkpt>
      <trkpt lat="44.42148" lon="1.45321">
        <ele>251</ele>
        <time>2021-07-17T14:32:42Z</time>
      </trkpt>
      <trkpt lat="44.42148" lon="1.45323">
        <ele>251.1</ele>
        <time>2021-07-17T14:32:43Z</time>
      </trkpt>
      <trkpt lat="44.42148" lon="1.45326">
        <ele>251.2</ele>
        <time>2021-07-17T14:32:44Z</time>
      </trkpt>
      <trkpt lat="44.42146" lon="1.45332">
        <ele>251.4</ele>
        <time>2021-07-17T14:32:45Z</time>
      </trkpt>
      <trkpt lat="44.42146" lon="1.45334">
        <ele>251.5</ele>
        <time>2021-07-17T14:32:46Z</time>
      </trkpt>
      <trkpt lat="44.42145" lon="1.4534">
        <ele>251.8</ele>
        <time>2021-07-17T14:32:48Z</time>
      </trkpt>
      <trkpt lat="44.42144" lon="1.45342">
        <ele>251.9</ele>
        <time>2021-07-17T14:32:49Z</time>
      </trkpt>
      <trkpt lat="44.42144" lon="1.45345">
        <ele>251.9</ele>
        <time>2021-07-17T14:32:50Z</time>
      </trkpt>
      <trkpt lat="44.42143" lon="1.45349">
        <ele>252.1</ele>
        <time>2021-07-17T14:32:51Z</time>
      </trkpt>
      <trkpt lat="44.42143" lon="1.45353">
        <ele>252.3</ele>
        <time>2021-07-17T14:32:52Z</time>
      </trkpt>
      <trkpt lat="44.42142" lon="1.45355">
        <ele>252.3</ele>
        <time>2021-07-17T14:32:53Z</time>
      </trkpt>
      <trkpt lat="44.42143" lon="1.4536">
        <ele>252.5</ele>
        <time>2021-07-17T14:32:55Z</time>
      </trkpt>
      <trkpt lat="44.42142" lon="1.45366">
        <ele>252.7</ele>
        <time>2021-07-17T14:32:56Z</time>
      </trkpt>
      <trkpt lat="44.42141" lon="1.45371">
        <ele>252.8</ele>
        <time>2021-07-17T14:32:57Z</time>
      </trkpt>
      <trkpt lat="44.42141" lon="1.45376">
        <ele>253</ele>
        <time>2021-07-17T14:32:58Z</time>
      </trkpt>
      <trkpt lat="44.42141" lon="1.4538">
        <ele>253.1</ele>
        <time>2021-07-17T14:32:59Z</time>
      </trkpt>
      <trkpt lat="44.42141" lon="1.45385">
        <ele>253.2</ele>
        <time>2021-07-17T14:33:01Z</time>
      </trkpt>
      <trkpt lat="44.42141" lon="1.45389">
        <ele>253.3</ele>
        <time>2021-07-17T14:33:02Z</time>
      </trkpt>
      <trkpt lat="44.42141" lon="1.45392">
        <ele>253.4</ele>
        <time>2021-07-17T14:33:03Z</time>
      </trkpt>
      <trkpt lat="44.42141" lon="1.45397">
        <ele>253.5</ele>
        <time>2021-07-17T14:33:05Z</time>
      </trkpt>
      <trkpt lat="44.42141" lon="1.45401">
        <ele>253.6</ele>
        <time>2021-07-17T14:33:06Z</time>
      </trkpt>
      <trkpt lat="44.42143" lon="1.45404">
        <ele>253.7</ele>
        <time>2021-07-17T14:33:07Z</time>
      </trkpt>
      <trkpt lat="44.42142" lon="1.45408">
        <ele>253.8</ele>
        <time>2021-07-17T14:33:09Z</time>
      </trkpt>
      <trkpt lat="44.42142" lon="1.45412">
        <ele>253.9</ele>
        <time>2021-07-17T14:33:10Z</time>
      </trkpt>
      <trkpt lat="44.42142" lon="1.45415">
        <ele>254</ele>
        <time>2021-07-17T14:33:11Z</time>
      </trkpt>
      <trkpt lat="44.42141" lon="1.45419">
        <ele>254</ele>
        <time>2021-07-17T14:33:13Z</time>
      </trkpt>
      <trkpt lat="44.42139" lon="1.45424">
        <ele>254.1</ele>
        <time>2021-07-17T14:33:14Z</time>
      </trkpt>
      <trkpt lat="44.42138" lon="1.45425">
        <ele>254.1</ele>
        <time>2021-07-17T14:33:15Z</time>
      </trkpt>
      <trkpt lat="44.42136" lon="1.45429">
        <ele>254.2</ele>
        <time>2021-07-17T14:33:16Z</time>
      </trkpt>
      <trkpt lat="44.42135" lon="1.4543">
        <ele>254.2</ele>
        <time>2021-07-17T14:33:17Z</time>
      </trkpt>
      <trkpt lat="44.42134" lon="1.45433">
        <ele>254.3</ele>
        <time>2021-07-17T14:33:18Z</time>
      </trkpt>
      <trkpt lat="44.42131" lon="1.45436">
        <ele>254.3</ele>
        <time>2021-07-17T14:33:20Z</time>
      </trkpt>
      <trkpt lat="44.42128" lon="1.45437">
        <ele>254.4</ele>
        <time>2021-07-17T14:33:22Z</time>
      </trkpt>
      <trkpt lat="44.42126" lon="1.45438">
        <ele>254.4</ele>
        <time>2021-07-17T14:33:23Z</time>
      </trkpt>
      <trkpt lat="44.42124" lon="1.45437">
        <ele>254.4</ele>
        <time>2021-07-17T14:33:24Z</time>
      </trkpt>
      <trkpt lat="44.42121" lon="1.45437">
        <ele>254.4</ele>
        <time>2021-07-17T14:33:26Z</time>
      </trkpt>
      <trkpt lat="44.42118" lon="1.45437">
        <ele>254.4</ele>
        <time>2021-07-17T14:33:27Z</time>
      </trkpt>
      <trkpt lat="44.42116" lon="1.45438">
        <ele>254.3</ele>
        <time>2021-07-17T14:33:28Z</time>
      </trkpt>
      <trkpt lat="44.42112" lon="1.45438">
        <ele>254.3</ele>
        <time>2021-07-17T14:33:29Z</time>
      </trkpt>
      <trkpt lat="44.4211" lon="1.45438">
        <ele>254.3</ele>
        <time>2021-07-17T14:33:30Z</time>
      </trkpt>
      <trkpt lat="44.42107" lon="1.45438">
        <ele>254.3</ele>
        <time>2021-07-17T14:33:32Z</time>
      </trkpt>
      <trkpt lat="44.42104" lon="1.45439">
        <ele>254.3</ele>
        <time>2021-07-17T14:33:33Z</time>
      </trkpt>
      <trkpt lat="44.421" lon="1.45441">
        <ele>254.3</ele>
        <time>2021-07-17T14:33:35Z</time>
      </trkpt>
      <trkpt lat="44.42097" lon="1.45444">
        <ele>254.3</ele>
        <time>2021-07-17T14:33:36Z</time>
      </trkpt>
      <trkpt lat="44.42093" lon="1.45446">
        <ele>254.3</ele>
        <time>2021-07-17T14:33:37Z</time>
      </trkpt>
      <trkpt lat="44.4209" lon="1.45448">
        <ele>254.3</ele>
        <time>2021-07-17T14:33:38Z</time>
      </trkpt>
      <trkpt lat="44.42087" lon="1.4545">
        <ele>254.3</ele>
        <time>2021-07-17T14:33:40Z</time>
      </trkpt>
      <trkpt lat="44.42083" lon="1.45453">
        <ele>254.3</ele>
        <time>2021-07-17T14:33:41Z</time>
      </trkpt>
      <trkpt lat="44.42076" lon="1.45456">
        <ele>254.2</ele>
        <time>2021-07-17T14:33:42Z</time>
      </trkpt>
      <trkpt lat="44.42065" lon="1.45463">
        <ele>254.2</ele>
        <time>2021-07-17T14:33:44Z</time>
      </trkpt>
      <trkpt lat="44.42055" lon="1.45471">
        <ele>254</ele>
        <time>2021-07-17T14:33:46Z</time>
      </trkpt>
      <trkpt lat="44.42045" lon="1.4548">
        <ele>253.7</ele>
        <time>2021-07-17T14:33:48Z</time>
      </trkpt>
      <trkpt lat="44.4204" lon="1.45485">
        <ele>253.4</ele>
        <time>2021-07-17T14:33:49Z</time>
      </trkpt>
      <trkpt lat="44.42037" lon="1.45492">
        <ele>253.2</ele>
        <time>2021-07-17T14:33:50Z</time>
      </trkpt>
      <trkpt lat="44.42034" lon="1.455">
        <ele>253</ele>
        <time>2021-07-17T14:33:51Z</time>
      </trkpt>
      <trkpt lat="44.42031" lon="1.45507">
        <ele>252.9</ele>
        <time>2021-07-17T14:33:52Z</time>
      </trkpt>
      <trkpt lat="44.42023" lon="1.45517">
        <ele>252.8</ele>
        <time>2021-07-17T14:33:54Z</time>
      </trkpt>
      <trkpt lat="44.42018" lon="1.45522">
        <ele>252.7</ele>
        <time>2021-07-17T14:33:55Z</time>
      </trkpt>
      <trkpt lat="44.42014" lon="1.45526">
        <ele>252.6</ele>
        <time>2021-07-17T14:33:56Z</time>
      </trkpt>
      <trkpt lat="44.42005" lon="1.45533">
        <ele>252.5</ele>
        <time>2021-07-17T14:33:58Z</time>
      </trkpt>
      <trkpt lat="44.42003" lon="1.45536">
        <ele>252.4</ele>
        <time>2021-07-17T14:33:59Z</time>
      </trkpt>
      <trkpt lat="44.42" lon="1.45539">
        <ele>252.4</ele>
        <time>2021-07-17T14:34:00Z</time>
      </trkpt>
      <trkpt lat="44.41994" lon="1.45545">
        <ele>252.4</ele>
        <time>2021-07-17T14:34:02Z</time>
      </trkpt>
      <trkpt lat="44.4199" lon="1.4555">
        <ele>252.4</ele>
        <time>2021-07-17T14:34:04Z</time>
      </trkpt>
      <trkpt lat="44.41988" lon="1.45554">
        <ele>252.4</ele>
        <time>2021-07-17T14:34:06Z</time>
      </trkpt>
      <trkpt lat="44.41987" lon="1.45556">
        <ele>252.4</ele>
        <time>2021-07-17T14:34:07Z</time>
      </trkpt>
      <trkpt lat="44.41983" lon="1.45561">
        <ele>252.5</ele>
        <time>2021-07-17T14:34:08Z</time>
      </trkpt>
      <trkpt lat="44.41979" lon="1.45566">
        <ele>252.5</ele>
        <time>2021-07-17T14:34:10Z</time>
      </trkpt>
      <trkpt lat="44.41975" lon="1.45567">
        <ele>252.6</ele>
        <time>2021-07-17T14:34:11Z</time>
      </trkpt>
      <trkpt lat="44.41973" lon="1.4557">
        <ele>252.6</ele>
        <time>2021-07-17T14:34:13Z</time>
      </trkpt>
      <trkpt lat="44.4197" lon="1.45571">
        <ele>252.7</ele>
        <time>2021-07-17T14:34:14Z</time>
      </trkpt>
      <trkpt lat="44.41967" lon="1.45574">
        <ele>252.7</ele>
        <time>2021-07-17T14:34:15Z</time>
      </trkpt>
      <trkpt lat="44.41965" lon="1.45576">
        <ele>252.7</ele>
        <time>2021-07-17T14:34:16Z</time>
      </trkpt>
      <trkpt lat="44.4196" lon="1.4558">
        <ele>252.8</ele>
        <time>2021-07-17T14:34:18Z</time>
      </trkpt>
      <trkpt lat="44.41957" lon="1.45582">
        <ele>252.8</ele>
        <time>2021-07-17T14:34:19Z</time>
      </trkpt>
      <trkpt lat="44.41954" lon="1.45584">
        <ele>252.8</ele>
        <time>2021-07-17T14:34:20Z</time>
      </trkpt>
      <trkpt lat="44.41951" lon="1.45585">
        <ele>252.8</ele>
        <time>2021-07-17T14:34:21Z</time>
      </trkpt>
      <trkpt lat="44.41948" lon="1.45587">
        <ele>252.8</ele>
        <time>2021-07-17T14:34:22Z</time>
      </trkpt>
      <trkpt lat="44.41945" lon="1.45589">
        <ele>252.8</ele>
        <time>2021-07-17T14:34:23Z</time>
      </trkpt>
      <trkpt lat="44.41941" lon="1.45592">
        <ele>252.9</ele>
        <time>2021-07-17T14:34:25Z</time>
      </trkpt>
      <trkpt lat="44.41937" lon="1.45594">
        <ele>252.9</ele>
        <time>2021-07-17T14:34:26Z</time>
      </trkpt>
      <trkpt lat="44.41932" lon="1.45597">
        <ele>252.9</ele>
        <time>2021-07-17T14:34:27Z</time>
      </trkpt>
      <trkpt lat="44.41929" lon="1.45599">
        <ele>252.9</ele>
        <time>2021-07-17T14:34:28Z</time>
      </trkpt>
      <trkpt lat="44.41921" lon="1.45603">
        <ele>252.9</ele>
        <time>2021-07-17T14:34:30Z</time>
      </trkpt>
      <trkpt lat="44.41917" lon="1.45606">
        <ele>252.9</ele>
        <time>2021-07-17T14:34:31Z</time>
      </trkpt>
      <trkpt lat="44.41914" lon="1.45608">
        <ele>252.9</ele>
        <time>2021-07-17T14:34:32Z</time>
      </trkpt>
      <trkpt lat="44.41909" lon="1.45613">
        <ele>253</ele>
        <time>2021-07-17T14:34:34Z</time>
      </trkpt>
      <trkpt lat="44.41906" lon="1.45615">
        <ele>253.1</ele>
        <time>2021-07-17T14:34:35Z</time>
      </trkpt>
      <trkpt lat="44.41902" lon="1.45614">
        <ele>253.1</ele>
        <time>2021-07-17T14:34:36Z</time>
      </trkpt>
      <trkpt lat="44.41898" lon="1.45617">
        <ele>253.2</ele>
        <time>2021-07-17T14:34:37Z</time>
      </trkpt>
      <trkpt lat="44.41894" lon="1.45617">
        <ele>253.3</ele>
        <time>2021-07-17T14:34:39Z</time>
      </trkpt>
      <trkpt lat="44.41889" lon="1.45619">
        <ele>253.4</ele>
        <time>2021-07-17T14:34:40Z</time>
      </trkpt>
      <trkpt lat="44.41885" lon="1.4562">
        <ele>253.5</ele>
        <time>2021-07-17T14:34:41Z</time>
      </trkpt>
      <trkpt lat="44.41882" lon="1.45621">
        <ele>253.6</ele>
        <time>2021-07-17T14:34:42Z</time>
      </trkpt>
      <trkpt lat="44.41879" lon="1.45623">
        <ele>253.7</ele>
        <time>2021-07-17T14:34:44Z</time>
      </trkpt>
      <trkpt lat="44.41874" lon="1.45625">
        <ele>253.9</ele>
        <time>2021-07-17T14:34:45Z</time>
      </trkpt>
      <trkpt lat="44.41872" lon="1.45626">
        <ele>254</ele>
        <time>2021-07-17T14:34:46Z</time>
      </trkpt>
      <trkpt lat="44.41869" lon="1.45628">
        <ele>254.1</ele>
        <time>2021-07-17T14:34:47Z</time>
      </trkpt>
      <trkpt lat="44.41865" lon="1.4563">
        <ele>254.2</ele>
        <time>2021-07-17T14:34:48Z</time>
      </trkpt>
      <trkpt lat="44.41859" lon="1.45634">
        <ele>254.5</ele>
        <time>2021-07-17T14:34:50Z</time>
      </trkpt>
      <trkpt lat="44.41855" lon="1.45637">
        <ele>254.7</ele>
        <time>2021-07-17T14:34:51Z</time>
      </trkpt>
      <trkpt lat="44.41851" lon="1.4564">
        <ele>254.8</ele>
        <time>2021-07-17T14:34:52Z</time>
      </trkpt>
      <trkpt lat="44.41848" lon="1.45643">
        <ele>255</ele>
        <time>2021-07-17T14:34:53Z</time>
      </trkpt>
      <trkpt lat="44.41844" lon="1.45646">
        <ele>255.2</ele>
        <time>2021-07-17T14:34:55Z</time>
      </trkpt>
      <trkpt lat="44.41841" lon="1.45648">
        <ele>255.4</ele>
        <time>2021-07-17T14:34:56Z</time>
      </trkpt>
      <trkpt lat="44.41838" lon="1.4565">
        <ele>255.5</ele>
        <time>2021-07-17T14:34:57Z</time>
      </trkpt>
      <trkpt lat="44.41836" lon="1.4565">
        <ele>255.7</ele>
        <time>2021-07-17T14:34:59Z</time>
      </trkpt>
      <trkpt lat="44.41832" lon="1.45653">
        <ele>255.8</ele>
        <time>2021-07-17T14:35:00Z</time>
      </trkpt>
      <trkpt lat="44.41829" lon="1.45654">
        <ele>256</ele>
        <time>2021-07-17T14:35:01Z</time>
      </trkpt>
      <trkpt lat="44.41826" lon="1.45655">
        <ele>256.1</ele>
        <time>2021-07-17T14:35:02Z</time>
      </trkpt>
      <trkpt lat="44.41822" lon="1.45658">
        <ele>256.3</ele>
        <time>2021-07-17T14:35:04Z</time>
      </trkpt>
      <trkpt lat="44.41819" lon="1.4566">
        <ele>256.5</ele>
        <time>2021-07-17T14:35:05Z</time>
      </trkpt>
      <trkpt lat="44.41816" lon="1.45661">
        <ele>256.7</ele>
        <time>2021-07-17T14:35:06Z</time>
      </trkpt>
      <trkpt lat="44.41812" lon="1.45664">
        <ele>256.9</ele>
        <time>2021-07-17T14:35:08Z</time>
      </trkpt>
      <trkpt lat="44.41809" lon="1.45666">
        <ele>257</ele>
        <time>2021-07-17T14:35:10Z</time>
      </trkpt>
      <trkpt lat="44.41806" lon="1.45668">
        <ele>257.2</ele>
        <time>2021-07-17T14:35:12Z</time>
      </trkpt>
      <trkpt lat="44.41804" lon="1.45668">
        <ele>257.3</ele>
        <time>2021-07-17T14:35:13Z</time>
      </trkpt>
      <trkpt lat="44.41802" lon="1.45669">
        <ele>257.4</ele>
        <time>2021-07-17T14:35:15Z</time>
      </trkpt>
      <trkpt lat="44.41802" lon="1.45668">
        <ele>257.4</ele>
        <time>2021-07-17T14:35:16Z</time>
      </trkpt>
      <trkpt lat="44.41801" lon="1.45669">
        <ele>257.4</ele>
        <time>2021-07-17T14:35:17Z</time>
      </trkpt>
      <trkpt lat="44.41799" lon="1.45671">
        <ele>257.6</ele>
        <time>2021-07-17T14:35:19Z</time>
      </trkpt>
      <trkpt lat="44.41798" lon="1.45672">
        <ele>257.6</ele>
        <time>2021-07-17T14:35:20Z</time>
      </trkpt>
      <trkpt lat="44.41796" lon="1.45676">
        <ele>257.7</ele>
        <time>2021-07-17T14:35:22Z</time>
      </trkpt>
      <trkpt lat="44.41793" lon="1.45679">
        <ele>257.9</ele>
        <time>2021-07-17T14:35:24Z</time>
      </trkpt>
      <trkpt lat="44.41789" lon="1.45681">
        <ele>258</ele>
        <time>2021-07-17T14:35:26Z</time>
      </trkpt>
      <trkpt lat="44.41786" lon="1.45685">
        <ele>258.2</ele>
        <time>2021-07-17T14:35:28Z</time>
      </trkpt>
      <trkpt lat="44.41785" lon="1.45686">
        <ele>258.3</ele>
        <time>2021-07-17T14:35:29Z</time>
      </trkpt>
      <trkpt lat="44.4178" lon="1.45691">
        <ele>258.4</ele>
        <time>2021-07-17T14:35:31Z</time>
      </trkpt>
      <trkpt lat="44.41779" lon="1.45693">
        <ele>258.4</ele>
        <time>2021-07-17T14:35:32Z</time>
      </trkpt>
      <trkpt lat="44.41776" lon="1.45696">
        <ele>258.5</ele>
        <time>2021-07-17T14:35:34Z</time>
      </trkpt>
      <trkpt lat="44.41774" lon="1.457">
        <ele>258.5</ele>
        <time>2021-07-17T14:35:35Z</time>
      </trkpt>
      <trkpt lat="44.41773" lon="1.45701">
        <ele>258.5</ele>
        <time>2021-07-17T14:35:36Z</time>
      </trkpt>
      <trkpt lat="44.4177" lon="1.45707">
        <ele>258.6</ele>
        <time>2021-07-17T14:35:38Z</time>
      </trkpt>
      <trkpt lat="44.41769" lon="1.45709">
        <ele>258.6</ele>
        <time>2021-07-17T14:35:39Z</time>
      </trkpt>
      <trkpt lat="44.41768" lon="1.45712">
        <ele>258.6</ele>
        <time>2021-07-17T14:35:40Z</time>
      </trkpt>
      <trkpt lat="44.41766" lon="1.45717">
        <ele>258.6</ele>
        <time>2021-07-17T14:35:42Z</time>
      </trkpt>
      <trkpt lat="44.41766" lon="1.45722">
        <ele>258.6</ele>
        <time>2021-07-17T14:35:43Z</time>
      </trkpt>
      <trkpt lat="44.41765" lon="1.45724">
        <ele>258.6</ele>
        <time>2021-07-17T14:35:44Z</time>
      </trkpt>
      <trkpt lat="44.41766" lon="1.45729">
        <ele>258.5</ele>
        <time>2021-07-17T14:35:45Z</time>
      </trkpt>
      <trkpt lat="44.41766" lon="1.45731">
        <ele>258.5</ele>
        <time>2021-07-17T14:35:46Z</time>
      </trkpt>
      <trkpt lat="44.41766" lon="1.45736">
        <ele>258.5</ele>
        <time>2021-07-17T14:35:48Z</time>
      </trkpt>
      <trkpt lat="44.41765" lon="1.45742">
        <ele>258.5</ele>
        <time>2021-07-17T14:35:49Z</time>
      </trkpt>
      <trkpt lat="44.41765" lon="1.45747">
        <ele>258.5</ele>
        <time>2021-07-17T14:35:50Z</time>
      </trkpt>
      <trkpt lat="44.41763" lon="1.45751">
        <ele>258.5</ele>
        <time>2021-07-17T14:35:51Z</time>
      </trkpt>
      <trkpt lat="44.41761" lon="1.45758">
        <ele>258.5</ele>
        <time>2021-07-17T14:35:53Z</time>
      </trkpt>
      <trkpt lat="44.41758" lon="1.45763">
        <ele>258.5</ele>
        <time>2021-07-17T14:35:55Z</time>
      </trkpt>
      <trkpt lat="44.41757" lon="1.45767">
        <ele>258.5</ele>
        <time>2021-07-17T14:35:56Z</time>
      </trkpt>
      <trkpt lat="44.41754" lon="1.45772">
        <ele>258.6</ele>
        <time>2021-07-17T14:35:57Z</time>
      </trkpt>
      <trkpt lat="44.41752" lon="1.45777">
        <ele>258.6</ele>
        <time>2021-07-17T14:35:58Z</time>
      </trkpt>
      <trkpt lat="44.41751" lon="1.45782">
        <ele>258.6</ele>
        <time>2021-07-17T14:35:59Z</time>
      </trkpt>
      <trkpt lat="44.4175" lon="1.4579">
        <ele>258.7</ele>
        <time>2021-07-17T14:36:01Z</time>
      </trkpt>
      <trkpt lat="44.41749" lon="1.45795">
        <ele>258.7</ele>
        <time>2021-07-17T14:36:02Z</time>
      </trkpt>
      <trkpt lat="44.41749" lon="1.45799">
        <ele>258.8</ele>
        <time>2021-07-17T14:36:03Z</time>
      </trkpt>
      <trkpt lat="44.4175" lon="1.45803">
        <ele>258.8</ele>
        <time>2021-07-17T14:36:04Z</time>
      </trkpt>
      <trkpt lat="44.41752" lon="1.45809">
        <ele>258.9</ele>
        <time>2021-07-17T14:36:06Z</time>
      </trkpt>
      <trkpt lat="44.41753" lon="1.45815">
        <ele>258.9</ele>
        <time>2021-07-17T14:36:08Z</time>
      </trkpt>
      <trkpt lat="44.41753" lon="1.45822">
        <ele>259</ele>
        <time>2021-07-17T14:36:09Z</time>
      </trkpt>
      <trkpt lat="44.41752" lon="1.45829">
        <ele>259.1</ele>
        <time>2021-07-17T14:36:11Z</time>
      </trkpt>
      <trkpt lat="44.41752" lon="1.45833">
        <ele>259.2</ele>
        <time>2021-07-17T14:36:12Z</time>
      </trkpt>
      <trkpt lat="44.41752" lon="1.45837">
        <ele>259.3</ele>
        <time>2021-07-17T14:36:13Z</time>
      </trkpt>
      <trkpt lat="44.41751" lon="1.45841">
        <ele>259.4</ele>
        <time>2021-07-17T14:36:15Z</time>
      </trkpt>
      <trkpt lat="44.4175" lon="1.45846">
        <ele>259.5</ele>
        <time>2021-07-17T14:36:16Z</time>
      </trkpt>
      <trkpt lat="44.41749" lon="1.45848">
        <ele>259.5</ele>
        <time>2021-07-17T14:36:17Z</time>
      </trkpt>
      <trkpt lat="44.41749" lon="1.45851">
        <ele>259.6</ele>
        <time>2021-07-17T14:36:18Z</time>
      </trkpt>
      <trkpt lat="44.41747" lon="1.45854">
        <ele>259.7</ele>
        <time>2021-07-17T14:36:20Z</time>
      </trkpt>
      <trkpt lat="44.41746" lon="1.45859">
        <ele>259.9</ele>
        <time>2021-07-17T14:36:21Z</time>
      </trkpt>
      <trkpt lat="44.41744" lon="1.45863">
        <ele>260</ele>
        <time>2021-07-17T14:36:22Z</time>
      </trkpt>
      <trkpt lat="44.41744" lon="1.45866">
        <ele>260.1</ele>
        <time>2021-07-17T14:36:23Z</time>
      </trkpt>
      <trkpt lat="44.41742" lon="1.45871">
        <ele>260.2</ele>
        <time>2021-07-17T14:36:25Z</time>
      </trkpt>
      <trkpt lat="44.41741" lon="1.45874">
        <ele>260.3</ele>
        <time>2021-07-17T14:36:26Z</time>
      </trkpt>
      <trkpt lat="44.4174" lon="1.45878">
        <ele>260.5</ele>
        <time>2021-07-17T14:36:28Z</time>
      </trkpt>
      <trkpt lat="44.41739" lon="1.45882">
        <ele>260.6</ele>
        <time>2021-07-17T14:36:29Z</time>
      </trkpt>
      <trkpt lat="44.41738" lon="1.45886">
        <ele>260.7</ele>
        <time>2021-07-17T14:36:30Z</time>
      </trkpt>
      <trkpt lat="44.41737" lon="1.4589">
        <ele>260.9</ele>
        <time>2021-07-17T14:36:32Z</time>
      </trkpt>
      <trkpt lat="44.41735" lon="1.45895">
        <ele>261.1</ele>
        <time>2021-07-17T14:36:33Z</time>
      </trkpt>
      <trkpt lat="44.41734" lon="1.45901">
        <ele>261.3</ele>
        <time>2021-07-17T14:36:35Z</time>
      </trkpt>
      <trkpt lat="44.41733" lon="1.45904">
        <ele>261.4</ele>
        <time>2021-07-17T14:36:36Z</time>
      </trkpt>
      <trkpt lat="44.41732" lon="1.45906">
        <ele>261.4</ele>
        <time>2021-07-17T14:36:37Z</time>
      </trkpt>
      <trkpt lat="44.41731" lon="1.45911">
        <ele>261.6</ele>
        <time>2021-07-17T14:36:39Z</time>
      </trkpt>
      <trkpt lat="44.4173" lon="1.45915">
        <ele>261.8</ele>
        <time>2021-07-17T14:36:40Z</time>
      </trkpt>
      <trkpt lat="44.41729" lon="1.45921">
        <ele>261.9</ele>
        <time>2021-07-17T14:36:42Z</time>
      </trkpt>
      <trkpt lat="44.41729" lon="1.45922">
        <ele>262</ele>
        <time>2021-07-17T14:36:43Z</time>
      </trkpt>
      <trkpt lat="44.41729" lon="1.45926">
        <ele>262.1</ele>
        <time>2021-07-17T14:36:44Z</time>
      </trkpt>
      <trkpt lat="44.41728" lon="1.4593">
        <ele>262.3</ele>
        <time>2021-07-17T14:36:46Z</time>
      </trkpt>
      <trkpt lat="44.41728" lon="1.45933">
        <ele>262.4</ele>
        <time>2021-07-17T14:36:47Z</time>
      </trkpt>
      <trkpt lat="44.41727" lon="1.45937">
        <ele>262.5</ele>
        <time>2021-07-17T14:36:49Z</time>
      </trkpt>
      <trkpt lat="44.41727" lon="1.45941">
        <ele>262.7</ele>
        <time>2021-07-17T14:36:50Z</time>
      </trkpt>
      <trkpt lat="44.41727" lon="1.45943">
        <ele>262.8</ele>
        <time>2021-07-17T14:36:51Z</time>
      </trkpt>
      <trkpt lat="44.41726" lon="1.45946">
        <ele>262.9</ele>
        <time>2021-07-17T14:36:52Z</time>
      </trkpt>
      <trkpt lat="44.41725" lon="1.45949">
        <ele>263</ele>
        <time>2021-07-17T14:36:54Z</time>
      </trkpt>
      <trkpt lat="44.41725" lon="1.45953">
        <ele>263.2</ele>
        <time>2021-07-17T14:36:55Z</time>
      </trkpt>
      <trkpt lat="44.41725" lon="1.45955">
        <ele>263.3</ele>
        <time>2021-07-17T14:36:56Z</time>
      </trkpt>
      <trkpt lat="44.41725" lon="1.45962">
        <ele>263.6</ele>
        <time>2021-07-17T14:36:58Z</time>
      </trkpt>
      <trkpt lat="44.41725" lon="1.45963">
        <ele>263.7</ele>
        <time>2021-07-17T14:36:59Z</time>
      </trkpt>
      <trkpt lat="44.41725" lon="1.45965">
        <ele>263.8</ele>
        <time>2021-07-17T14:37:00Z</time>
      </trkpt>
      <trkpt lat="44.41724" lon="1.4597">
        <ele>264</ele>
        <time>2021-07-17T14:37:02Z</time>
      </trkpt>
      <trkpt lat="44.41724" lon="1.45971">
        <ele>264.1</ele>
        <time>2021-07-17T14:37:03Z</time>
      </trkpt>
      <trkpt lat="44.41723" lon="1.45975">
        <ele>264.2</ele>
        <time>2021-07-17T14:37:04Z</time>
      </trkpt>
      <trkpt lat="44.41723" lon="1.45976">
        <ele>264.3</ele>
        <time>2021-07-17T14:37:05Z</time>
      </trkpt>
      <trkpt lat="44.41722" lon="1.45981">
        <ele>264.5</ele>
        <time>2021-07-17T14:37:07Z</time>
      </trkpt>
      <trkpt lat="44.41722" lon="1.45982">
        <ele>264.6</ele>
        <time>2021-07-17T14:37:08Z</time>
      </trkpt>
      <trkpt lat="44.41721" lon="1.45986">
        <ele>264.8</ele>
        <time>2021-07-17T14:37:10Z</time>
      </trkpt>
      <trkpt lat="44.41721" lon="1.45988">
        <ele>264.9</ele>
        <time>2021-07-17T14:37:11Z</time>
      </trkpt>
      <trkpt lat="44.4172" lon="1.45991">
        <ele>265</ele>
        <time>2021-07-17T14:37:13Z</time>
      </trkpt>
      <trkpt lat="44.41719" lon="1.45994">
        <ele>265.2</ele>
        <time>2021-07-17T14:37:14Z</time>
      </trkpt>
      <trkpt lat="44.41719" lon="1.45998">
        <ele>265.4</ele>
        <time>2021-07-17T14:37:16Z</time>
      </trkpt>
      <trkpt lat="44.41718" lon="1.46001">
        <ele>265.6</ele>
        <time>2021-07-17T14:37:17Z</time>
      </trkpt>
      <trkpt lat="44.41717" lon="1.46003">
        <ele>265.7</ele>
        <time>2021-07-17T14:37:19Z</time>
      </trkpt>
      <trkpt lat="44.41717" lon="1.46005">
        <ele>265.8</ele>
        <time>2021-07-17T14:37:20Z</time>
      </trkpt>
      <trkpt lat="44.41716" lon="1.46007">
        <ele>265.9</ele>
        <time>2021-07-17T14:37:21Z</time>
      </trkpt>
      <trkpt lat="44.41715" lon="1.46011">
        <ele>266.1</ele>
        <time>2021-07-17T14:37:23Z</time>
      </trkpt>
      <trkpt lat="44.41714" lon="1.46012">
        <ele>266.2</ele>
        <time>2021-07-17T14:37:24Z</time>
      </trkpt>
      <trkpt lat="44.41714" lon="1.46014">
        <ele>266.3</ele>
        <time>2021-07-17T14:37:25Z</time>
      </trkpt>
      <trkpt lat="44.41713" lon="1.46016">
        <ele>266.4</ele>
        <time>2021-07-17T14:37:26Z</time>
      </trkpt>
      <trkpt lat="44.41713" lon="1.46021">
        <ele>266.6</ele>
        <time>2021-07-17T14:37:28Z</time>
      </trkpt>
      <trkpt lat="44.41713" lon="1.46022">
        <ele>266.7</ele>
        <time>2021-07-17T14:37:29Z</time>
      </trkpt>
      <trkpt lat="44.41712" lon="1.46024">
        <ele>266.8</ele>
        <time>2021-07-17T14:37:31Z</time>
      </trkpt>
      <trkpt lat="44.41712" lon="1.46026">
        <ele>266.9</ele>
        <time>2021-07-17T14:37:32Z</time>
      </trkpt>
      <trkpt lat="44.41712" lon="1.46029">
        <ele>267</ele>
        <time>2021-07-17T14:37:33Z</time>
      </trkpt>
      <trkpt lat="44.41711" lon="1.46032">
        <ele>267.2</ele>
        <time>2021-07-17T14:37:35Z</time>
      </trkpt>
      <trkpt lat="44.41711" lon="1.46035">
        <ele>267.3</ele>
        <time>2021-07-17T14:37:36Z</time>
      </trkpt>
      <trkpt lat="44.4171" lon="1.46037">
        <ele>267.4</ele>
        <time>2021-07-17T14:37:37Z</time>
      </trkpt>
      <trkpt lat="44.4171" lon="1.46038">
        <ele>267.5</ele>
        <time>2021-07-17T14:37:38Z</time>
      </trkpt>
      <trkpt lat="44.41709" lon="1.4604">
        <ele>267.6</ele>
        <time>2021-07-17T14:37:39Z</time>
      </trkpt>
      <trkpt lat="44.41709" lon="1.46045">
        <ele>267.8</ele>
        <time>2021-07-17T14:37:41Z</time>
      </trkpt>
      <trkpt lat="44.41708" lon="1.46047">
        <ele>267.9</ele>
        <time>2021-07-17T14:37:42Z</time>
      </trkpt>
      <trkpt lat="44.41707" lon="1.4605">
        <ele>268.1</ele>
        <time>2021-07-17T14:37:43Z</time>
      </trkpt>
      <trkpt lat="44.41707" lon="1.46052">
        <ele>268.2</ele>
        <time>2021-07-17T14:37:44Z</time>
      </trkpt>
      <trkpt lat="44.41705" lon="1.46056">
        <ele>268.4</ele>
        <time>2021-07-17T14:37:46Z</time>
      </trkpt>
      <trkpt lat="44.41705" lon="1.46058">
        <ele>268.5</ele>
        <time>2021-07-17T14:37:47Z</time>
      </trkpt>
      <trkpt lat="44.41704" lon="1.4606">
        <ele>268.6</ele>
        <time>2021-07-17T14:37:48Z</time>
      </trkpt>
      <trkpt lat="44.41702" lon="1.46064">
        <ele>268.8</ele>
        <time>2021-07-17T14:37:50Z</time>
      </trkpt>
      <trkpt lat="44.41702" lon="1.46067">
        <ele>269</ele>
        <time>2021-07-17T14:37:51Z</time>
      </trkpt>
      <trkpt lat="44.41701" lon="1.46069">
        <ele>269.1</ele>
        <time>2021-07-17T14:37:52Z</time>
      </trkpt>
      <trkpt lat="44.417" lon="1.46074">
        <ele>269.3</ele>
        <time>2021-07-17T14:37:54Z</time>
      </trkpt>
      <trkpt lat="44.417" lon="1.46075">
        <ele>269.3</ele>
        <time>2021-07-17T14:37:55Z</time>
      </trkpt>
      <trkpt lat="44.41699" lon="1.46078">
        <ele>269.5</ele>
        <time>2021-07-17T14:37:56Z</time>
      </trkpt>
      <trkpt lat="44.41699" lon="1.4608">
        <ele>269.6</ele>
        <time>2021-07-17T14:37:57Z</time>
      </trkpt>
      <trkpt lat="44.41697" lon="1.46084">
        <ele>269.8</ele>
        <time>2021-07-17T14:37:59Z</time>
      </trkpt>
      <trkpt lat="44.41697" lon="1.46085">
        <ele>269.8</ele>
        <time>2021-07-17T14:38:00Z</time>
      </trkpt>
      <trkpt lat="44.41696" lon="1.46087">
        <ele>269.9</ele>
        <time>2021-07-17T14:38:01Z</time>
      </trkpt>
      <trkpt lat="44.41695" lon="1.46089">
        <ele>270</ele>
        <time>2021-07-17T14:38:02Z</time>
      </trkpt>
      <trkpt lat="44.41695" lon="1.46093">
        <ele>270.2</ele>
        <time>2021-07-17T14:38:04Z</time>
      </trkpt>
      <trkpt lat="44.41694" lon="1.46095">
        <ele>270.3</ele>
        <time>2021-07-17T14:38:05Z</time>
      </trkpt>
      <trkpt lat="44.41693" lon="1.46099">
        <ele>270.5</ele>
        <time>2021-07-17T14:38:06Z</time>
      </trkpt>
      <trkpt lat="44.41693" lon="1.46101">
        <ele>270.5</ele>
        <time>2021-07-17T14:38:07Z</time>
      </trkpt>
      <trkpt lat="44.41692" lon="1.46106">
        <ele>270.8</ele>
        <time>2021-07-17T14:38:09Z</time>
      </trkpt>
      <trkpt lat="44.41691" lon="1.46108">
        <ele>270.9</ele>
        <time>2021-07-17T14:38:10Z</time>
      </trkpt>
      <trkpt lat="44.41691" lon="1.4611">
        <ele>271</ele>
        <time>2021-07-17T14:38:11Z</time>
      </trkpt>
      <trkpt lat="44.41691" lon="1.46115">
        <ele>271.2</ele>
        <time>2021-07-17T14:38:13Z</time>
      </trkpt>
      <trkpt lat="44.4169" lon="1.46117">
        <ele>271.3</ele>
        <time>2021-07-17T14:38:14Z</time>
      </trkpt>
      <trkpt lat="44.41689" lon="1.46122">
        <ele>271.5</ele>
        <time>2021-07-17T14:38:16Z</time>
      </trkpt>
      <trkpt lat="44.41689" lon="1.46123">
        <ele>271.5</ele>
        <time>2021-07-17T14:38:17Z</time>
      </trkpt>
      <trkpt lat="44.41688" lon="1.46129">
        <ele>271.8</ele>
        <time>2021-07-17T14:38:19Z</time>
      </trkpt>
      <trkpt lat="44.41687" lon="1.46131">
        <ele>271.8</ele>
        <time>2021-07-17T14:38:21Z</time>
      </trkpt>
      <trkpt lat="44.41687" lon="1.46133">
        <ele>271.9</ele>
        <time>2021-07-17T14:38:22Z</time>
      </trkpt>
      <trkpt lat="44.41686" lon="1.46135">
        <ele>272</ele>
        <time>2021-07-17T14:38:23Z</time>
      </trkpt>
      <trkpt lat="44.41686" lon="1.46138">
        <ele>272.1</ele>
        <time>2021-07-17T14:38:24Z</time>
      </trkpt>
      <trkpt lat="44.41685" lon="1.46142">
        <ele>272.3</ele>
        <time>2021-07-17T14:38:26Z</time>
      </trkpt>
      <trkpt lat="44.41685" lon="1.46144">
        <ele>272.3</ele>
        <time>2021-07-17T14:38:27Z</time>
      </trkpt>
      <trkpt lat="44.41686" lon="1.46148">
        <ele>272.5</ele>
        <time>2021-07-17T14:38:29Z</time>
      </trkpt>
      <trkpt lat="44.41686" lon="1.4615">
        <ele>272.5</ele>
        <time>2021-07-17T14:38:30Z</time>
      </trkpt>
      <trkpt lat="44.41685" lon="1.46154">
        <ele>272.7</ele>
        <time>2021-07-17T14:38:32Z</time>
      </trkpt>
      <trkpt lat="44.41685" lon="1.46155">
        <ele>272.7</ele>
        <time>2021-07-17T14:38:33Z</time>
      </trkpt>
      <trkpt lat="44.41684" lon="1.46157">
        <ele>272.8</ele>
        <time>2021-07-17T14:38:35Z</time>
      </trkpt>
      <trkpt lat="44.41683" lon="1.46159">
        <ele>272.8</ele>
        <time>2021-07-17T14:38:36Z</time>
      </trkpt>
      <trkpt lat="44.4168" lon="1.46161">
        <ele>272.9</ele>
        <time>2021-07-17T14:38:38Z</time>
      </trkpt>
      <trkpt lat="44.41678" lon="1.46162">
        <ele>272.9</ele>
        <time>2021-07-17T14:38:39Z</time>
      </trkpt>
      <trkpt lat="44.41676" lon="1.46164">
        <ele>273</ele>
        <time>2021-07-17T14:38:40Z</time>
      </trkpt>
      <trkpt lat="44.41675" lon="1.46165">
        <ele>273</ele>
        <time>2021-07-17T14:38:41Z</time>
      </trkpt>
      <trkpt lat="44.41673" lon="1.46166">
        <ele>273.1</ele>
        <time>2021-07-17T14:38:42Z</time>
      </trkpt>
      <trkpt lat="44.41672" lon="1.46169">
        <ele>273.1</ele>
        <time>2021-07-17T14:38:44Z</time>
      </trkpt>
      <trkpt lat="44.41669" lon="1.46171">
        <ele>273.1</ele>
        <time>2021-07-17T14:38:45Z</time>
      </trkpt>
      <trkpt lat="44.41668" lon="1.46172">
        <ele>273.1</ele>
        <time>2021-07-17T14:38:46Z</time>
      </trkpt>
      <trkpt lat="44.41667" lon="1.46173">
        <ele>273.2</ele>
        <time>2021-07-17T14:38:47Z</time>
      </trkpt>
      <trkpt lat="44.41664" lon="1.46176">
        <ele>273.2</ele>
        <time>2021-07-17T14:38:49Z</time>
      </trkpt>
      <trkpt lat="44.41662" lon="1.46179">
        <ele>273.2</ele>
        <time>2021-07-17T14:38:50Z</time>
      </trkpt>
      <trkpt lat="44.41661" lon="1.4618">
        <ele>273.2</ele>
        <time>2021-07-17T14:38:51Z</time>
      </trkpt>
      <trkpt lat="44.41659" lon="1.46181">
        <ele>273.2</ele>
        <time>2021-07-17T14:38:52Z</time>
      </trkpt>
      <trkpt lat="44.41656" lon="1.46184">
        <ele>273.2</ele>
        <time>2021-07-17T14:38:54Z</time>
      </trkpt>
      <trkpt lat="44.41655" lon="1.46187">
        <ele>273.2</ele>
        <time>2021-07-17T14:38:55Z</time>
      </trkpt>
      <trkpt lat="44.41652" lon="1.4619">
        <ele>273.2</ele>
        <time>2021-07-17T14:38:57Z</time>
      </trkpt>
      <trkpt lat="44.4165" lon="1.46193">
        <ele>273.2</ele>
        <time>2021-07-17T14:38:58Z</time>
      </trkpt>
      <trkpt lat="44.41649" lon="1.46194">
        <ele>273.2</ele>
        <time>2021-07-17T14:38:59Z</time>
      </trkpt>
      <trkpt lat="44.41647" lon="1.46197">
        <ele>273.2</ele>
        <time>2021-07-17T14:39:00Z</time>
      </trkpt>
      <trkpt lat="44.41644" lon="1.462">
        <ele>273.2</ele>
        <time>2021-07-17T14:39:02Z</time>
      </trkpt>
      <trkpt lat="44.41642" lon="1.46202">
        <ele>273.2</ele>
        <time>2021-07-17T14:39:03Z</time>
      </trkpt>
      <trkpt lat="44.41641" lon="1.46203">
        <ele>273.2</ele>
        <time>2021-07-17T14:39:04Z</time>
      </trkpt>
      <trkpt lat="44.41639" lon="1.46206">
        <ele>273.2</ele>
        <time>2021-07-17T14:39:05Z</time>
      </trkpt>
      <trkpt lat="44.41638" lon="1.46207">
        <ele>273.2</ele>
        <time>2021-07-17T14:39:06Z</time>
      </trkpt>
      <trkpt lat="44.41636" lon="1.46209">
        <ele>273.2</ele>
        <time>2021-07-17T14:39:07Z</time>
      </trkpt>
      <trkpt lat="44.41633" lon="1.4621">
        <ele>273.2</ele>
        <time>2021-07-17T14:39:08Z</time>
      </trkpt>
      <trkpt lat="44.4163" lon="1.46211">
        <ele>273.1</ele>
        <time>2021-07-17T14:39:10Z</time>
      </trkpt>
      <trkpt lat="44.41628" lon="1.46213">
        <ele>273.1</ele>
        <time>2021-07-17T14:39:11Z</time>
      </trkpt>
      <trkpt lat="44.41624" lon="1.46216">
        <ele>273.1</ele>
        <time>2021-07-17T14:39:13Z</time>
      </trkpt>
      <trkpt lat="44.41621" lon="1.46219">
        <ele>273.1</ele>
        <time>2021-07-17T14:39:14Z</time>
      </trkpt>
      <trkpt lat="44.4162" lon="1.4622">
        <ele>273.1</ele>
        <time>2021-07-17T14:39:15Z</time>
      </trkpt>
      <trkpt lat="44.41617" lon="1.46223">
        <ele>273.1</ele>
        <time>2021-07-17T14:39:16Z</time>
      </trkpt>
      <trkpt lat="44.41616" lon="1.46224">
        <ele>273.1</ele>
        <time>2021-07-17T14:39:17Z</time>
      </trkpt>
      <trkpt lat="44.41613" lon="1.46227">
        <ele>273.1</ele>
        <time>2021-07-17T14:39:18Z</time>
      </trkpt>
      <trkpt lat="44.41612" lon="1.46228">
        <ele>273.1</ele>
        <time>2021-07-17T14:39:19Z</time>
      </trkpt>
      <trkpt lat="44.41609" lon="1.46231">
        <ele>273</ele>
        <time>2021-07-17T14:39:21Z</time>
      </trkpt>
      <trkpt lat="44.41606" lon="1.46233">
        <ele>273</ele>
        <time>2021-07-17T14:39:22Z</time>
      </trkpt>
      <trkpt lat="44.41603" lon="1.46236">
        <ele>273</ele>
        <time>2021-07-17T14:39:23Z</time>
      </trkpt>
      <trkpt lat="44.41601" lon="1.46237">
        <ele>273</ele>
        <time>2021-07-17T14:39:24Z</time>
      </trkpt>
      <trkpt lat="44.41598" lon="1.46239">
        <ele>272.9</ele>
        <time>2021-07-17T14:39:25Z</time>
      </trkpt>
      <trkpt lat="44.41595" lon="1.46241">
        <ele>272.9</ele>
        <time>2021-07-17T14:39:26Z</time>
      </trkpt>
      <trkpt lat="44.41591" lon="1.46244">
        <ele>272.8</ele>
        <time>2021-07-17T14:39:28Z</time>
      </trkpt>
      <trkpt lat="44.41589" lon="1.46248">
        <ele>272.7</ele>
        <time>2021-07-17T14:39:29Z</time>
      </trkpt>
      <trkpt lat="44.41586" lon="1.46253">
        <ele>272.6</ele>
        <time>2021-07-17T14:39:31Z</time>
      </trkpt>
      <trkpt lat="44.41584" lon="1.46257">
        <ele>272.5</ele>
        <time>2021-07-17T14:39:32Z</time>
      </trkpt>
      <trkpt lat="44.41583" lon="1.46261">
        <ele>272.4</ele>
        <time>2021-07-17T14:39:34Z</time>
      </trkpt>
      <trkpt lat="44.41582" lon="1.46266">
        <ele>272.3</ele>
        <time>2021-07-17T14:39:35Z</time>
      </trkpt>
      <trkpt lat="44.4158" lon="1.46271">
        <ele>272.2</ele>
        <time>2021-07-17T14:39:36Z</time>
      </trkpt>
      <trkpt lat="44.4158" lon="1.46272">
        <ele>272.1</ele>
        <time>2021-07-17T14:39:37Z</time>
      </trkpt>
      <trkpt lat="44.41578" lon="1.46277">
        <ele>272</ele>
        <time>2021-07-17T14:39:38Z</time>
      </trkpt>
      <trkpt lat="44.41576" lon="1.46281">
        <ele>271.9</ele>
        <time>2021-07-17T14:39:40Z</time>
      </trkpt>
      <trkpt lat="44.41575" lon="1.46282">
        <ele>271.9</ele>
        <time>2021-07-17T14:39:41Z</time>
      </trkpt>
      <trkpt lat="44.41574" lon="1.46283">
        <ele>271.9</ele>
        <time>2021-07-17T14:39:42Z</time>
      </trkpt>
      <trkpt lat="44.41574" lon="1.46283">
        <ele>271.9</ele>
        <time>2021-07-17T14:39:43Z</time>
      </trkpt>
      <trkpt lat="44.41574" lon="1.46283">
        <ele>271.9</ele>
        <time>2021-07-17T14:39:44Z</time>
      </trkpt>
      <trkpt lat="44.41574" lon="1.46283">
        <ele>271.9</ele>
        <time>2021-07-17T14:39:45Z</time>
      </trkpt>
      <trkpt lat="44.41574" lon="1.46283">
        <ele>271.9</ele>
        <time>2021-07-17T14:39:47Z</time>
      </trkpt>
      <trkpt lat="44.41574" lon="1.46283">
        <ele>271.9</ele>
        <time>2021-07-17T14:39:48Z</time>
      </trkpt>
      <trkpt lat="44.41574" lon="1.46283">
        <ele>271.9</ele>
        <time>2021-07-17T14:39:50Z</time>
      </trkpt>
      <trkpt lat="44.41574" lon="1.46283">
        <ele>271.9</ele>
        <time>2021-07-17T14:39:51Z</time>
      </trkpt>
      <trkpt lat="44.41576" lon="1.46277">
        <ele>272.1</ele>
        <time>2021-07-17T14:39:58Z</time>
      </trkpt>
      <trkpt lat="44.41578" lon="1.46272">
        <ele>272.2</ele>
        <time>2021-07-17T14:40:00Z</time>
      </trkpt>
      <trkpt lat="44.4158" lon="1.46268">
        <ele>272.3</ele>
        <time>2021-07-17T14:40:01Z</time>
      </trkpt>
      <trkpt lat="44.41581" lon="1.46264">
        <ele>272.4</ele>
        <time>2021-07-17T14:40:02Z</time>
      </trkpt>
      <trkpt lat="44.41584" lon="1.46259">
        <ele>272.6</ele>
        <time>2021-07-17T14:40:04Z</time>
      </trkpt>
      <trkpt lat="44.41586" lon="1.46255">
        <ele>272.6</ele>
        <time>2021-07-17T14:40:05Z</time>
      </trkpt>
      <trkpt lat="44.41587" lon="1.46251">
        <ele>272.7</ele>
        <time>2021-07-17T14:40:06Z</time>
      </trkpt>
      <trkpt lat="44.41589" lon="1.46247">
        <ele>272.8</ele>
        <time>2021-07-17T14:40:08Z</time>
      </trkpt>
      <trkpt lat="44.41593" lon="1.46243">
        <ele>272.9</ele>
        <time>2021-07-17T14:40:09Z</time>
      </trkpt>
      <trkpt lat="44.41597" lon="1.46241">
        <ele>272.9</ele>
        <time>2021-07-17T14:40:10Z</time>
      </trkpt>
      <trkpt lat="44.416" lon="1.46238">
        <ele>273</ele>
        <time>2021-07-17T14:40:12Z</time>
      </trkpt>
      <trkpt lat="44.41603" lon="1.46235">
        <ele>273</ele>
        <time>2021-07-17T14:40:13Z</time>
      </trkpt>
      <trkpt lat="44.41605" lon="1.46233">
        <ele>273</ele>
        <time>2021-07-17T14:40:14Z</time>
      </trkpt>
      <trkpt lat="44.41608" lon="1.4623">
        <ele>273.1</ele>
        <time>2021-07-17T14:40:15Z</time>
      </trkpt>
      <trkpt lat="44.41611" lon="1.46227">
        <ele>273.1</ele>
        <time>2021-07-17T14:40:16Z</time>
      </trkpt>
      <trkpt lat="44.41614" lon="1.46223">
        <ele>273.1</ele>
        <time>2021-07-17T14:40:18Z</time>
      </trkpt>
      <trkpt lat="44.41617" lon="1.4622">
        <ele>273.1</ele>
        <time>2021-07-17T14:40:19Z</time>
      </trkpt>
      <trkpt lat="44.41619" lon="1.46217">
        <ele>273.1</ele>
        <time>2021-07-17T14:40:20Z</time>
      </trkpt>
      <trkpt lat="44.41624" lon="1.46212">
        <ele>273.1</ele>
        <time>2021-07-17T14:40:22Z</time>
      </trkpt>
      <trkpt lat="44.41627" lon="1.4621">
        <ele>273.2</ele>
        <time>2021-07-17T14:40:23Z</time>
      </trkpt>
      <trkpt lat="44.41629" lon="1.46207">
        <ele>273.2</ele>
        <time>2021-07-17T14:40:24Z</time>
      </trkpt>
      <trkpt lat="44.41633" lon="1.46204">
        <ele>273.2</ele>
        <time>2021-07-17T14:40:26Z</time>
      </trkpt>
      <trkpt lat="44.41637" lon="1.46202">
        <ele>273.2</ele>
        <time>2021-07-17T14:40:27Z</time>
      </trkpt>
      <trkpt lat="44.41638" lon="1.46201">
        <ele>273.2</ele>
        <time>2021-07-17T14:40:28Z</time>
      </trkpt>
      <trkpt lat="44.41641" lon="1.46197">
        <ele>273.2</ele>
        <time>2021-07-17T14:40:30Z</time>
      </trkpt>
      <trkpt lat="44.41642" lon="1.46195">
        <ele>273.2</ele>
        <time>2021-07-17T14:40:31Z</time>
      </trkpt>
      <trkpt lat="44.41645" lon="1.46193">
        <ele>273.2</ele>
        <time>2021-07-17T14:40:33Z</time>
      </trkpt>
      <trkpt lat="44.41647" lon="1.4619">
        <ele>273.2</ele>
        <time>2021-07-17T14:40:34Z</time>
      </trkpt>
      <trkpt lat="44.41648" lon="1.46189">
        <ele>273.2</ele>
        <time>2021-07-17T14:40:35Z</time>
      </trkpt>
      <trkpt lat="44.41651" lon="1.46186">
        <ele>273.2</ele>
        <time>2021-07-17T14:40:37Z</time>
      </trkpt>
      <trkpt lat="44.41654" lon="1.46184">
        <ele>273.2</ele>
        <time>2021-07-17T14:40:38Z</time>
      </trkpt>
      <trkpt lat="44.41657" lon="1.4618">
        <ele>273.2</ele>
        <time>2021-07-17T14:40:40Z</time>
      </trkpt>
      <trkpt lat="44.41659" lon="1.46177">
        <ele>273.2</ele>
        <time>2021-07-17T14:40:41Z</time>
      </trkpt>
      <trkpt lat="44.41661" lon="1.46174">
        <ele>273.2</ele>
        <time>2021-07-17T14:40:42Z</time>
      </trkpt>
      <trkpt lat="44.41664" lon="1.46171">
        <ele>273.2</ele>
        <time>2021-07-17T14:40:43Z</time>
      </trkpt>
      <trkpt lat="44.41666" lon="1.46168">
        <ele>273.1</ele>
        <time>2021-07-17T14:40:44Z</time>
      </trkpt>
      <trkpt lat="44.4167" lon="1.46165">
        <ele>273.1</ele>
        <time>2021-07-17T14:40:46Z</time>
      </trkpt>
      <trkpt lat="44.41673" lon="1.46162">
        <ele>273</ele>
        <time>2021-07-17T14:40:47Z</time>
      </trkpt>
      <trkpt lat="44.41676" lon="1.4616">
        <ele>272.9</ele>
        <time>2021-07-17T14:40:48Z</time>
      </trkpt>
      <trkpt lat="44.4168" lon="1.46157">
        <ele>272.9</ele>
        <time>2021-07-17T14:40:50Z</time>
      </trkpt>
      <trkpt lat="44.41683" lon="1.46156">
        <ele>272.8</ele>
        <time>2021-07-17T14:40:51Z</time>
      </trkpt>
      <trkpt lat="44.41686" lon="1.46156">
        <ele>272.8</ele>
        <time>2021-07-17T14:40:52Z</time>
      </trkpt>
      <trkpt lat="44.41689" lon="1.46154">
        <ele>272.7</ele>
        <time>2021-07-17T14:40:53Z</time>
      </trkpt>
      <trkpt lat="44.41691" lon="1.46153">
        <ele>272.7</ele>
        <time>2021-07-17T14:40:54Z</time>
      </trkpt>
      <trkpt lat="44.41695" lon="1.46151">
        <ele>272.7</ele>
        <time>2021-07-17T14:40:56Z</time>
      </trkpt>
      <trkpt lat="44.41699" lon="1.4615">
        <ele>272.6</ele>
        <time>2021-07-17T14:40:57Z</time>
      </trkpt>
      <trkpt lat="44.41701" lon="1.4615">
        <ele>272.6</ele>
        <time>2021-07-17T14:40:58Z</time>
      </trkpt>
      <trkpt lat="44.41705" lon="1.46148">
        <ele>272.5</ele>
        <time>2021-07-17T14:41:00Z</time>
      </trkpt>
      <trkpt lat="44.41709" lon="1.4615">
        <ele>272.3</ele>
        <time>2021-07-17T14:41:01Z</time>
      </trkpt>
      <trkpt lat="44.41712" lon="1.46151">
        <ele>272.2</ele>
        <time>2021-07-17T14:41:02Z</time>
      </trkpt>
      <trkpt lat="44.41716" lon="1.46151">
        <ele>272</ele>
        <time>2021-07-17T14:41:03Z</time>
      </trkpt>
      <trkpt lat="44.4172" lon="1.4615">
        <ele>271.8</ele>
        <time>2021-07-17T14:41:04Z</time>
      </trkpt>
      <trkpt lat="44.41727" lon="1.46148">
        <ele>271.5</ele>
        <time>2021-07-17T14:41:06Z</time>
      </trkpt>
      <trkpt lat="44.41731" lon="1.46147">
        <ele>271.3</ele>
        <time>2021-07-17T14:41:07Z</time>
      </trkpt>
      <trkpt lat="44.41736" lon="1.46147">
        <ele>271.1</ele>
        <time>2021-07-17T14:41:08Z</time>
      </trkpt>
      <trkpt lat="44.41743" lon="1.46149">
        <ele>270.9</ele>
        <time>2021-07-17T14:41:09Z</time>
      </trkpt>
      <trkpt lat="44.41749" lon="1.46152">
        <ele>270.7</ele>
        <time>2021-07-17T14:41:11Z</time>
      </trkpt>
      <trkpt lat="44.41754" lon="1.46152">
        <ele>270.6</ele>
        <time>2021-07-17T14:41:12Z</time>
      </trkpt>
      <trkpt lat="44.41759" lon="1.46153">
        <ele>270.5</ele>
        <time>2021-07-17T14:41:13Z</time>
      </trkpt>
      <trkpt lat="44.41768" lon="1.46155">
        <ele>270.4</ele>
        <time>2021-07-17T14:41:15Z</time>
      </trkpt>
      <trkpt lat="44.41774" lon="1.46157">
        <ele>270.3</ele>
        <time>2021-07-17T14:41:17Z</time>
      </trkpt>
      <trkpt lat="44.41778" lon="1.46159">
        <ele>270.3</ele>
        <time>2021-07-17T14:41:18Z</time>
      </trkpt>
      <trkpt lat="44.41783" lon="1.4616">
        <ele>270.2</ele>
        <time>2021-07-17T14:41:19Z</time>
      </trkpt>
      <trkpt lat="44.41787" lon="1.4616">
        <ele>270.2</ele>
        <time>2021-07-17T14:41:20Z</time>
      </trkpt>
      <trkpt lat="44.41793" lon="1.46157">
        <ele>270.2</ele>
        <time>2021-07-17T14:41:22Z</time>
      </trkpt>
      <trkpt lat="44.41797" lon="1.46153">
        <ele>270.1</ele>
        <time>2021-07-17T14:41:24Z</time>
      </trkpt>
      <trkpt lat="44.41802" lon="1.4615">
        <ele>270.1</ele>
        <time>2021-07-17T14:41:25Z</time>
      </trkpt>
      <trkpt lat="44.41806" lon="1.46148">
        <ele>270.1</ele>
        <time>2021-07-17T14:41:26Z</time>
      </trkpt>
      <trkpt lat="44.41812" lon="1.46147">
        <ele>270.1</ele>
        <time>2021-07-17T14:41:28Z</time>
      </trkpt>
      <trkpt lat="44.41816" lon="1.46146">
        <ele>270.1</ele>
        <time>2021-07-17T14:41:29Z</time>
      </trkpt>
      <trkpt lat="44.4182" lon="1.46145">
        <ele>270.1</ele>
        <time>2021-07-17T14:41:30Z</time>
      </trkpt>
      <trkpt lat="44.41824" lon="1.46144">
        <ele>270.1</ele>
        <time>2021-07-17T14:41:32Z</time>
      </trkpt>
      <trkpt lat="44.41828" lon="1.46143">
        <ele>270</ele>
        <time>2021-07-17T14:41:33Z</time>
      </trkpt>
      <trkpt lat="44.41832" lon="1.4614">
        <ele>270</ele>
        <time>2021-07-17T14:41:34Z</time>
      </trkpt>
      <trkpt lat="44.41835" lon="1.46138">
        <ele>270</ele>
        <time>2021-07-17T14:41:35Z</time>
      </trkpt>
      <trkpt lat="44.41841" lon="1.46135">
        <ele>269.9</ele>
        <time>2021-07-17T14:41:37Z</time>
      </trkpt>
      <trkpt lat="44.41844" lon="1.46133">
        <ele>269.9</ele>
        <time>2021-07-17T14:41:38Z</time>
      </trkpt>
      <trkpt lat="44.4185" lon="1.46129">
        <ele>269.8</ele>
        <time>2021-07-17T14:41:40Z</time>
      </trkpt>
      <trkpt lat="44.41854" lon="1.46128">
        <ele>269.8</ele>
        <time>2021-07-17T14:41:41Z</time>
      </trkpt>
      <trkpt lat="44.41857" lon="1.46127">
        <ele>269.7</ele>
        <time>2021-07-17T14:41:42Z</time>
      </trkpt>
      <trkpt lat="44.41861" lon="1.46125">
        <ele>269.6</ele>
        <time>2021-07-17T14:41:44Z</time>
      </trkpt>
      <trkpt lat="44.41866" lon="1.46124">
        <ele>269.6</ele>
        <time>2021-07-17T14:41:45Z</time>
      </trkpt>
      <trkpt lat="44.41869" lon="1.46122">
        <ele>269.5</ele>
        <time>2021-07-17T14:41:46Z</time>
      </trkpt>
      <trkpt lat="44.41875" lon="1.4612">
        <ele>269.4</ele>
        <time>2021-07-17T14:41:48Z</time>
      </trkpt>
      <trkpt lat="44.41878" lon="1.46118">
        <ele>269.3</ele>
        <time>2021-07-17T14:41:49Z</time>
      </trkpt>
      <trkpt lat="44.41881" lon="1.46116">
        <ele>269.2</ele>
        <time>2021-07-17T14:41:50Z</time>
      </trkpt>
      <trkpt lat="44.41884" lon="1.46115">
        <ele>269.1</ele>
        <time>2021-07-17T14:41:51Z</time>
      </trkpt>
      <trkpt lat="44.41888" lon="1.46114">
        <ele>269</ele>
        <time>2021-07-17T14:41:52Z</time>
      </trkpt>
      <trkpt lat="44.41894" lon="1.46112">
        <ele>268.8</ele>
        <time>2021-07-17T14:41:54Z</time>
      </trkpt>
      <trkpt lat="44.41897" lon="1.46111">
        <ele>268.7</ele>
        <time>2021-07-17T14:41:55Z</time>
      </trkpt>
      <trkpt lat="44.41901" lon="1.46111">
        <ele>268.6</ele>
        <time>2021-07-17T14:41:56Z</time>
      </trkpt>
      <trkpt lat="44.41906" lon="1.4611">
        <ele>268.4</ele>
        <time>2021-07-17T14:41:57Z</time>
      </trkpt>
      <trkpt lat="44.41909" lon="1.4611">
        <ele>268.3</ele>
        <time>2021-07-17T14:41:58Z</time>
      </trkpt>
      <trkpt lat="44.41912" lon="1.4611">
        <ele>268.3</ele>
        <time>2021-07-17T14:41:59Z</time>
      </trkpt>
      <trkpt lat="44.41919" lon="1.46111">
        <ele>268.1</ele>
        <time>2021-07-17T14:42:01Z</time>
      </trkpt>
      <trkpt lat="44.41923" lon="1.46112">
        <ele>267.9</ele>
        <time>2021-07-17T14:42:02Z</time>
      </trkpt>
      <trkpt lat="44.41929" lon="1.46116">
        <ele>267.6</ele>
        <time>2021-07-17T14:42:04Z</time>
      </trkpt>
      <trkpt lat="44.41934" lon="1.4612">
        <ele>267.3</ele>
        <time>2021-07-17T14:42:05Z</time>
      </trkpt>
      <trkpt lat="44.41937" lon="1.46123">
        <ele>267</ele>
        <time>2021-07-17T14:42:06Z</time>
      </trkpt>
      <trkpt lat="44.41943" lon="1.46125">
        <ele>266.7</ele>
        <time>2021-07-17T14:42:08Z</time>
      </trkpt>
      <trkpt lat="44.41948" lon="1.46126">
        <ele>266.4</ele>
        <time>2021-07-17T14:42:09Z</time>
      </trkpt>
      <trkpt lat="44.41953" lon="1.46124">
        <ele>266</ele>
        <time>2021-07-17T14:42:10Z</time>
      </trkpt>
      <trkpt lat="44.4196" lon="1.46122">
        <ele>265.5</ele>
        <time>2021-07-17T14:42:12Z</time>
      </trkpt>
      <trkpt lat="44.41965" lon="1.46122">
        <ele>265.2</ele>
        <time>2021-07-17T14:42:13Z</time>
      </trkpt>
      <trkpt lat="44.41969" lon="1.46121">
        <ele>264.9</ele>
        <time>2021-07-17T14:42:14Z</time>
      </trkpt>
      <trkpt lat="44.41975" lon="1.46121">
        <ele>264.5</ele>
        <time>2021-07-17T14:42:16Z</time>
      </trkpt>
      <trkpt lat="44.4198" lon="1.46118">
        <ele>264.2</ele>
        <time>2021-07-17T14:42:17Z</time>
      </trkpt>
      <trkpt lat="44.41985" lon="1.46117">
        <ele>263.8</ele>
        <time>2021-07-17T14:42:18Z</time>
      </trkpt>
      <trkpt lat="44.41993" lon="1.46114">
        <ele>263.3</ele>
        <time>2021-07-17T14:42:20Z</time>
      </trkpt>
      <trkpt lat="44.41998" lon="1.46112">
        <ele>263</ele>
        <time>2021-07-17T14:42:21Z</time>
      </trkpt>
      <trkpt lat="44.42005" lon="1.46109">
        <ele>262.5</ele>
        <time>2021-07-17T14:42:23Z</time>
      </trkpt>
      <trkpt lat="44.4201" lon="1.46107">
        <ele>262.1</ele>
        <time>2021-07-17T14:42:24Z</time>
      </trkpt>
      <trkpt lat="44.42014" lon="1.46108">
        <ele>261.9</ele>
        <time>2021-07-17T14:42:25Z</time>
      </trkpt>
      <trkpt lat="44.42019" lon="1.46109">
        <ele>261.6</ele>
        <time>2021-07-17T14:42:26Z</time>
      </trkpt>
      <trkpt lat="44.42026" lon="1.4611">
        <ele>261.2</ele>
        <time>2021-07-17T14:42:28Z</time>
      </trkpt>
      <trkpt lat="44.4203" lon="1.4611">
        <ele>260.9</ele>
        <time>2021-07-17T14:42:29Z</time>
      </trkpt>
      <trkpt lat="44.42035" lon="1.46111">
        <ele>260.7</ele>
        <time>2021-07-17T14:42:30Z</time>
      </trkpt>
      <trkpt lat="44.42039" lon="1.46111">
        <ele>260.5</ele>
        <time>2021-07-17T14:42:31Z</time>
      </trkpt>
      <trkpt lat="44.42046" lon="1.46111">
        <ele>260</ele>
        <time>2021-07-17T14:42:33Z</time>
      </trkpt>
      <trkpt lat="44.42052" lon="1.4611">
        <ele>259.7</ele>
        <time>2021-07-17T14:42:35Z</time>
      </trkpt>
      <trkpt lat="44.42057" lon="1.46109">
        <ele>259.4</ele>
        <time>2021-07-17T14:42:36Z</time>
      </trkpt>
      <trkpt lat="44.42064" lon="1.46107">
        <ele>259.1</ele>
        <time>2021-07-17T14:42:38Z</time>
      </trkpt>
      <trkpt lat="44.42069" lon="1.46106">
        <ele>258.8</ele>
        <time>2021-07-17T14:42:39Z</time>
      </trkpt>
      <trkpt lat="44.42074" lon="1.46105">
        <ele>258.5</ele>
        <time>2021-07-17T14:42:41Z</time>
      </trkpt>
      <trkpt lat="44.42079" lon="1.46102">
        <ele>258.2</ele>
        <time>2021-07-17T14:42:42Z</time>
      </trkpt>
      <trkpt lat="44.42084" lon="1.46098">
        <ele>258</ele>
        <time>2021-07-17T14:42:43Z</time>
      </trkpt>
      <trkpt lat="44.42087" lon="1.46095">
        <ele>257.7</ele>
        <time>2021-07-17T14:42:44Z</time>
      </trkpt>
      <trkpt lat="44.42091" lon="1.46092">
        <ele>257.5</ele>
        <time>2021-07-17T14:42:45Z</time>
      </trkpt>
      <trkpt lat="44.42095" lon="1.4609">
        <ele>257.3</ele>
        <time>2021-07-17T14:42:47Z</time>
      </trkpt>
      <trkpt lat="44.42099" lon="1.46089">
        <ele>257.1</ele>
        <time>2021-07-17T14:42:48Z</time>
      </trkpt>
      <trkpt lat="44.42104" lon="1.46087">
        <ele>256.9</ele>
        <time>2021-07-17T14:42:49Z</time>
      </trkpt>
      <trkpt lat="44.42108" lon="1.46086">
        <ele>256.7</ele>
        <time>2021-07-17T14:42:50Z</time>
      </trkpt>
      <trkpt lat="44.42114" lon="1.46083">
        <ele>256.4</ele>
        <time>2021-07-17T14:42:52Z</time>
      </trkpt>
      <trkpt lat="44.42118" lon="1.46081">
        <ele>256.2</ele>
        <time>2021-07-17T14:42:53Z</time>
      </trkpt>
      <trkpt lat="44.42122" lon="1.46079">
        <ele>256</ele>
        <time>2021-07-17T14:42:54Z</time>
      </trkpt>
      <trkpt lat="44.42128" lon="1.46077">
        <ele>255.7</ele>
        <time>2021-07-17T14:42:56Z</time>
      </trkpt>
      <trkpt lat="44.42133" lon="1.46076">
        <ele>255.5</ele>
        <time>2021-07-17T14:42:57Z</time>
      </trkpt>
      <trkpt lat="44.42137" lon="1.46075">
        <ele>255.3</ele>
        <time>2021-07-17T14:42:58Z</time>
      </trkpt>
      <trkpt lat="44.42142" lon="1.46075">
        <ele>255.1</ele>
        <time>2021-07-17T14:43:00Z</time>
      </trkpt>
      <trkpt lat="44.42146" lon="1.46075">
        <ele>254.9</ele>
        <time>2021-07-17T14:43:01Z</time>
      </trkpt>
      <trkpt lat="44.42152" lon="1.46077">
        <ele>254.6</ele>
        <time>2021-07-17T14:43:02Z</time>
      </trkpt>
      <trkpt lat="44.42157" lon="1.46077">
        <ele>254.4</ele>
        <time>2021-07-17T14:43:04Z</time>
      </trkpt>
      <trkpt lat="44.42161" lon="1.46076">
        <ele>254.1</ele>
        <time>2021-07-17T14:43:05Z</time>
      </trkpt>
      <trkpt lat="44.42165" lon="1.46073">
        <ele>254</ele>
        <time>2021-07-17T14:43:06Z</time>
      </trkpt>
      <trkpt lat="44.42168" lon="1.4607">
        <ele>253.8</ele>
        <time>2021-07-17T14:43:07Z</time>
      </trkpt>
      <trkpt lat="44.42172" lon="1.46065">
        <ele>253.5</ele>
        <time>2021-07-17T14:43:09Z</time>
      </trkpt>
      <trkpt lat="44.42175" lon="1.46061">
        <ele>253.3</ele>
        <time>2021-07-17T14:43:10Z</time>
      </trkpt>
      <trkpt lat="44.42178" lon="1.46057">
        <ele>253.1</ele>
        <time>2021-07-17T14:43:11Z</time>
      </trkpt>
      <trkpt lat="44.42181" lon="1.46052">
        <ele>252.9</ele>
        <time>2021-07-17T14:43:13Z</time>
      </trkpt>
      <trkpt lat="44.42184" lon="1.46048">
        <ele>252.7</ele>
        <time>2021-07-17T14:43:14Z</time>
      </trkpt>
      <trkpt lat="44.42187" lon="1.46044">
        <ele>252.5</ele>
        <time>2021-07-17T14:43:15Z</time>
      </trkpt>
      <trkpt lat="44.42191" lon="1.4604">
        <ele>252.4</ele>
        <time>2021-07-17T14:43:16Z</time>
      </trkpt>
      <trkpt lat="44.42194" lon="1.46038">
        <ele>252.2</ele>
        <time>2021-07-17T14:43:17Z</time>
      </trkpt>
      <trkpt lat="44.42199" lon="1.46032">
        <ele>251.9</ele>
        <time>2021-07-17T14:43:19Z</time>
      </trkpt>
      <trkpt lat="44.42201" lon="1.4603">
        <ele>251.8</ele>
        <time>2021-07-17T14:43:20Z</time>
      </trkpt>
      <trkpt lat="44.42204" lon="1.46026">
        <ele>251.7</ele>
        <time>2021-07-17T14:43:22Z</time>
      </trkpt>
      <trkpt lat="44.42204" lon="1.46026">
        <ele>251.7</ele>
        <time>2021-07-17T14:43:24Z</time>
      </trkpt>
      <trkpt lat="44.42204" lon="1.46027">
        <ele>251.7</ele>
        <time>2021-07-17T14:43:26Z</time>
      </trkpt>
      <trkpt lat="44.42203" lon="1.46027">
        <ele>251.7</ele>
        <time>2021-07-17T14:43:28Z</time>
      </trkpt>
      <trkpt lat="44.42203" lon="1.46027">
        <ele>251.6</ele>
        <time>2021-07-17T14:43:29Z</time>
      </trkpt>
      <trkpt lat="44.42203" lon="1.46027">
        <ele>251.6</ele>
        <time>2021-07-17T14:43:31Z</time>
      </trkpt>
      <trkpt lat="44.42203" lon="1.46027">
        <ele>251.6</ele>
        <time>2021-07-17T14:43:32Z</time>
      </trkpt>
      <trkpt lat="44.42205" lon="1.46021">
        <ele>251.4</ele>
        <time>2021-07-17T14:47:38Z</time>
      </trkpt>
      <trkpt lat="44.42206" lon="1.46017">
        <ele>251.3</ele>
        <time>2021-07-17T14:47:40Z</time>
      </trkpt>
      <trkpt lat="44.42207" lon="1.46014">
        <ele>251.2</ele>
        <time>2021-07-17T14:47:41Z</time>
      </trkpt>
      <trkpt lat="44.42209" lon="1.46012">
        <ele>251.1</ele>
        <time>2021-07-17T14:47:43Z</time>
      </trkpt>
      <trkpt lat="44.42211" lon="1.46007">
        <ele>250.9</ele>
        <time>2021-07-17T14:47:44Z</time>
      </trkpt>
      <trkpt lat="44.42212" lon="1.46005">
        <ele>250.9</ele>
        <time>2021-07-17T14:47:45Z</time>
      </trkpt>
      <trkpt lat="44.42212" lon="1.46001">
        <ele>250.7</ele>
        <time>2021-07-17T14:47:46Z</time>
      </trkpt>
      <trkpt lat="44.42211" lon="1.45995">
        <ele>250.6</ele>
        <time>2021-07-17T14:47:47Z</time>
      </trkpt>
      <trkpt lat="44.42213" lon="1.4599">
        <ele>250.4</ele>
        <time>2021-07-17T14:47:48Z</time>
      </trkpt>
      <trkpt lat="44.42214" lon="1.45984">
        <ele>250.2</ele>
        <time>2021-07-17T14:47:50Z</time>
      </trkpt>
      <trkpt lat="44.42213" lon="1.45971">
        <ele>249.7</ele>
        <time>2021-07-17T14:47:51Z</time>
      </trkpt>
      <trkpt lat="44.42212" lon="1.45964">
        <ele>249.5</ele>
        <time>2021-07-17T14:47:52Z</time>
      </trkpt>
      <trkpt lat="44.42213" lon="1.45958">
        <ele>249.3</ele>
        <time>2021-07-17T14:47:53Z</time>
      </trkpt>
      <trkpt lat="44.42219" lon="1.4595">
        <ele>248.9</ele>
        <time>2021-07-17T14:47:55Z</time>
      </trkpt>
      <trkpt lat="44.42224" lon="1.45945">
        <ele>248.6</ele>
        <time>2021-07-17T14:47:56Z</time>
      </trkpt>
      <trkpt lat="44.42233" lon="1.45932">
        <ele>247.9</ele>
        <time>2021-07-17T14:47:58Z</time>
      </trkpt>
      <trkpt lat="44.42239" lon="1.45919">
        <ele>247.3</ele>
        <time>2021-07-17T14:48:00Z</time>
      </trkpt>
      <trkpt lat="44.42241" lon="1.45913">
        <ele>247.1</ele>
        <time>2021-07-17T14:48:01Z</time>
      </trkpt>
      <trkpt lat="44.42241" lon="1.45908">
        <ele>246.9</ele>
        <time>2021-07-17T14:48:02Z</time>
      </trkpt>
      <trkpt lat="44.42243" lon="1.45903">
        <ele>246.6</ele>
        <time>2021-07-17T14:48:03Z</time>
      </trkpt>
      <trkpt lat="44.42246" lon="1.45902">
        <ele>246.4</ele>
        <time>2021-07-17T14:48:05Z</time>
      </trkpt>
      <trkpt lat="44.42251" lon="1.45902">
        <ele>246.1</ele>
        <time>2021-07-17T14:48:06Z</time>
      </trkpt>
      <trkpt lat="44.42258" lon="1.45903">
        <ele>245.6</ele>
        <time>2021-07-17T14:48:07Z</time>
      </trkpt>
      <trkpt lat="44.42268" lon="1.45897">
        <ele>244.7</ele>
        <time>2021-07-17T14:48:09Z</time>
      </trkpt>
      <trkpt lat="44.42277" lon="1.45886">
        <ele>243.6</ele>
        <time>2021-07-17T14:48:11Z</time>
      </trkpt>
      <trkpt lat="44.4228" lon="1.45881">
        <ele>243.1</ele>
        <time>2021-07-17T14:48:12Z</time>
      </trkpt>
      <trkpt lat="44.42282" lon="1.45878">
        <ele>242.9</ele>
        <time>2021-07-17T14:48:13Z</time>
      </trkpt>
      <trkpt lat="44.42286" lon="1.45875">
        <ele>242.5</ele>
        <time>2021-07-17T14:48:15Z</time>
      </trkpt>
      <trkpt lat="44.42289" lon="1.45874">
        <ele>242.2</ele>
        <time>2021-07-17T14:48:16Z</time>
      </trkpt>
      <trkpt lat="44.42291" lon="1.45874">
        <ele>242</ele>
        <time>2021-07-17T14:48:17Z</time>
      </trkpt>
      <trkpt lat="44.42296" lon="1.45877">
        <ele>241.5</ele>
        <time>2021-07-17T14:48:19Z</time>
      </trkpt>
      <trkpt lat="44.42302" lon="1.45879">
        <ele>240.7</ele>
        <time>2021-07-17T14:48:20Z</time>
      </trkpt>
      <trkpt lat="44.42314" lon="1.45881">
        <ele>239.1</ele>
        <time>2021-07-17T14:48:22Z</time>
      </trkpt>
      <trkpt lat="44.42319" lon="1.45883">
        <ele>238.4</ele>
        <time>2021-07-17T14:48:23Z</time>
      </trkpt>
      <trkpt lat="44.42323" lon="1.45884">
        <ele>237.8</ele>
        <time>2021-07-17T14:48:24Z</time>
      </trkpt>
      <trkpt lat="44.42328" lon="1.45884">
        <ele>237.1</ele>
        <time>2021-07-17T14:48:25Z</time>
      </trkpt>
      <trkpt lat="44.42339" lon="1.45882">
        <ele>235.7</ele>
        <time>2021-07-17T14:48:27Z</time>
      </trkpt>
      <trkpt lat="44.42343" lon="1.45883">
        <ele>235.2</ele>
        <time>2021-07-17T14:48:28Z</time>
      </trkpt>
      <trkpt lat="44.42349" lon="1.45895">
        <ele>234</ele>
        <time>2021-07-17T14:48:30Z</time>
      </trkpt>
      <trkpt lat="44.42351" lon="1.45901">
        <ele>233.4</ele>
        <time>2021-07-17T14:48:31Z</time>
      </trkpt>
      <trkpt lat="44.42351" lon="1.45906">
        <ele>232.9</ele>
        <time>2021-07-17T14:48:33Z</time>
      </trkpt>
      <trkpt lat="44.42358" lon="1.45909">
        <ele>231.9</ele>
        <time>2021-07-17T14:48:34Z</time>
      </trkpt>
      <trkpt lat="44.42369" lon="1.45904">
        <ele>230.2</ele>
        <time>2021-07-17T14:48:35Z</time>
      </trkpt>
      <trkpt lat="44.42374" lon="1.45896">
        <ele>229.2</ele>
        <time>2021-07-17T14:48:36Z</time>
      </trkpt>
      <trkpt lat="44.42382" lon="1.45876">
        <ele>226.9</ele>
        <time>2021-07-17T14:48:38Z</time>
      </trkpt>
      <trkpt lat="44.4239" lon="1.45864">
        <ele>225.5</ele>
        <time>2021-07-17T14:48:40Z</time>
      </trkpt>
      <trkpt lat="44.424" lon="1.45864">
        <ele>224.6</ele>
        <time>2021-07-17T14:48:42Z</time>
      </trkpt>
      <trkpt lat="44.42412" lon="1.45862">
        <ele>223.5</ele>
        <time>2021-07-17T14:48:44Z</time>
      </trkpt>
      <trkpt lat="44.42422" lon="1.45857">
        <ele>222.3</ele>
        <time>2021-07-17T14:48:46Z</time>
      </trkpt>
      <trkpt lat="44.42424" lon="1.45855">
        <ele>222.1</ele>
        <time>2021-07-17T14:48:47Z</time>
      </trkpt>
      <trkpt lat="44.42424" lon="1.45853">
        <ele>221.9</ele>
        <time>2021-07-17T14:48:48Z</time>
      </trkpt>
      <trkpt lat="44.42423" lon="1.45852">
        <ele>221.8</ele>
        <time>2021-07-17T14:48:50Z</time>
      </trkpt>
      <trkpt lat="44.42423" lon="1.45852">
        <ele>221.8</ele>
        <time>2021-07-17T14:48:51Z</time>
      </trkpt>
      <trkpt lat="44.42423" lon="1.45852">
        <ele>221.8</ele>
        <time>2021-07-17T14:48:52Z</time>
      </trkpt>
      <trkpt lat="44.42423" lon="1.45852">
        <ele>221.8</ele>
        <time>2021-07-17T14:48:54Z</time>
      </trkpt>
      <trkpt lat="44.42423" lon="1.45852">
        <ele>221.7</ele>
        <time>2021-07-17T14:48:55Z</time>
      </trkpt>
      <trkpt lat="44.42423" lon="1.45852">
        <ele>221.7</ele>
        <time>2021-07-17T14:48:57Z</time>
      </trkpt>
      <trkpt lat="44.42422" lon="1.45851">
        <ele>221.7</ele>
        <time>2021-07-17T14:48:58Z</time>
      </trkpt>
      <trkpt lat="44.42428" lon="1.45854">
        <ele>221</ele>
        <time>2021-07-17T14:52:32Z</time>
      </trkpt>
      <trkpt lat="44.42434" lon="1.45857">
        <ele>220.3</ele>
        <time>2021-07-17T14:52:34Z</time>
      </trkpt>
      <trkpt lat="44.42441" lon="1.45856">
        <ele>219.5</ele>
        <time>2021-07-17T14:52:36Z</time>
      </trkpt>
      <trkpt lat="44.42449" lon="1.45853">
        <ele>218.6</ele>
        <time>2021-07-17T14:52:37Z</time>
      </trkpt>
      <trkpt lat="44.42456" lon="1.45848">
        <ele>217.6</ele>
        <time>2021-07-17T14:52:38Z</time>
      </trkpt>
      <trkpt lat="44.4246" lon="1.45843">
        <ele>217</ele>
        <time>2021-07-17T14:52:39Z</time>
      </trkpt>
      <trkpt lat="44.42468" lon="1.45841">
        <ele>216.1</ele>
        <time>2021-07-17T14:52:41Z</time>
      </trkpt>
      <trkpt lat="44.42474" lon="1.4584">
        <ele>215.4</ele>
        <time>2021-07-17T14:52:42Z</time>
      </trkpt>
      <trkpt lat="44.42488" lon="1.45846">
        <ele>213.6</ele>
        <time>2021-07-17T14:52:44Z</time>
      </trkpt>
      <trkpt lat="44.42493" lon="1.45849">
        <ele>212.8</ele>
        <time>2021-07-17T14:52:45Z</time>
      </trkpt>
      <trkpt lat="44.42498" lon="1.45851">
        <ele>212.1</ele>
        <time>2021-07-17T14:52:46Z</time>
      </trkpt>
      <trkpt lat="44.42501" lon="1.45846">
        <ele>211.4</ele>
        <time>2021-07-17T14:52:47Z</time>
      </trkpt>
      <trkpt lat="44.42503" lon="1.4584">
        <ele>210.7</ele>
        <time>2021-07-17T14:52:49Z</time>
      </trkpt>
      <trkpt lat="44.42507" lon="1.45835">
        <ele>209.9</ele>
        <time>2021-07-17T14:52:50Z</time>
      </trkpt>
      <trkpt lat="44.42516" lon="1.45835">
        <ele>208.4</ele>
        <time>2021-07-17T14:52:52Z</time>
      </trkpt>
      <trkpt lat="44.42529" lon="1.45837">
        <ele>206.4</ele>
        <time>2021-07-17T14:52:54Z</time>
      </trkpt>
      <trkpt lat="44.42534" lon="1.45838">
        <ele>205.1</ele>
        <time>2021-07-17T14:52:56Z</time>
      </trkpt>
      <trkpt lat="44.42532" lon="1.45838">
        <ele>205.6</ele>
        <time>2021-07-17T14:52:57Z</time>
      </trkpt>
      <trkpt lat="44.42532" lon="1.45837">
        <ele>205.5</ele>
        <time>2021-07-17T14:52:59Z</time>
      </trkpt>
      <trkpt lat="44.42532" lon="1.45836">
        <ele>205.3</ele>
        <time>2021-07-17T14:53:01Z</time>
      </trkpt>
      <trkpt lat="44.42532" lon="1.45836">
        <ele>205.2</ele>
        <time>2021-07-17T14:53:02Z</time>
      </trkpt>
      <trkpt lat="44.42532" lon="1.45836">
        <ele>205.1</ele>
        <time>2021-07-17T14:53:03Z</time>
      </trkpt>
      <trkpt lat="44.42531" lon="1.45836">
        <ele>205</ele>
        <time>2021-07-17T14:53:05Z</time>
      </trkpt>
      <trkpt lat="44.42531" lon="1.45836">
        <ele>204.9</ele>
        <time>2021-07-17T14:53:06Z</time>
      </trkpt>
      <trkpt lat="44.42537" lon="1.45835">
        <ele>203.6</ele>
        <time>2021-07-17T14:59:19Z</time>
      </trkpt>
      <trkpt lat="44.42547" lon="1.45828">
        <ele>201.8</ele>
        <time>2021-07-17T14:59:21Z</time>
      </trkpt>
      <trkpt lat="44.42552" lon="1.45824">
        <ele>200.5</ele>
        <time>2021-07-17T14:59:22Z</time>
      </trkpt>
      <trkpt lat="44.42562" lon="1.45814">
        <ele>198.5</ele>
        <time>2021-07-17T14:59:24Z</time>
      </trkpt>
      <trkpt lat="44.42564" lon="1.45811">
        <ele>197.8</ele>
        <time>2021-07-17T14:59:25Z</time>
      </trkpt>
      <trkpt lat="44.42567" lon="1.45809">
        <ele>197.2</ele>
        <time>2021-07-17T14:59:26Z</time>
      </trkpt>
      <trkpt lat="44.42576" lon="1.4581">
        <ele>195.7</ele>
        <time>2021-07-17T14:59:28Z</time>
      </trkpt>
      <trkpt lat="44.42581" lon="1.45811">
        <ele>195.1</ele>
        <time>2021-07-17T14:59:29Z</time>
      </trkpt>
      <trkpt lat="44.4259" lon="1.45807">
        <ele>193</ele>
        <time>2021-07-17T14:59:31Z</time>
      </trkpt>
      <trkpt lat="44.42595" lon="1.45803">
        <ele>192.2</ele>
        <time>2021-07-17T14:59:32Z</time>
      </trkpt>
      <trkpt lat="44.42604" lon="1.45796">
        <ele>190.5</ele>
        <time>2021-07-17T14:59:34Z</time>
      </trkpt>
      <trkpt lat="44.42606" lon="1.45795">
        <ele>189.9</ele>
        <time>2021-07-17T14:59:35Z</time>
      </trkpt>
      <trkpt lat="44.42612" lon="1.45796">
        <ele>188.6</ele>
        <time>2021-07-17T14:59:37Z</time>
      </trkpt>
      <trkpt lat="44.42615" lon="1.45798">
        <ele>187.7</ele>
        <time>2021-07-17T14:59:38Z</time>
      </trkpt>
      <trkpt lat="44.42618" lon="1.45799">
        <ele>187.6</ele>
        <time>2021-07-17T14:59:39Z</time>
      </trkpt>
      <trkpt lat="44.42622" lon="1.45795">
        <ele>186.6</ele>
        <time>2021-07-17T14:59:41Z</time>
      </trkpt>
      <trkpt lat="44.42629" lon="1.45793">
        <ele>185.4</ele>
        <time>2021-07-17T14:59:43Z</time>
      </trkpt>
      <trkpt lat="44.42635" lon="1.45791">
        <ele>184.5</ele>
        <time>2021-07-17T14:59:45Z</time>
      </trkpt>
      <trkpt lat="44.42639" lon="1.45788">
        <ele>183.9</ele>
        <time>2021-07-17T14:59:47Z</time>
      </trkpt>
      <trkpt lat="44.4264" lon="1.45788">
        <ele>183.3</ele>
        <time>2021-07-17T14:59:48Z</time>
      </trkpt>
      <trkpt lat="44.42642" lon="1.45788">
        <ele>183.6</ele>
        <time>2021-07-17T14:59:50Z</time>
      </trkpt>
      <trkpt lat="44.42643" lon="1.45786">
        <ele>183</ele>
        <time>2021-07-17T14:59:52Z</time>
      </trkpt>
      <trkpt lat="44.42643" lon="1.45783">
        <ele>183.4</ele>
        <time>2021-07-17T14:59:54Z</time>
      </trkpt>
      <trkpt lat="44.42643" lon="1.45779">
        <ele>183.7</ele>
        <time>2021-07-17T14:59:55Z</time>
      </trkpt>
      <trkpt lat="44.42644" lon="1.45778">
        <ele>183.6</ele>
        <time>2021-07-17T14:59:56Z</time>
      </trkpt>
      <trkpt lat="44.42646" lon="1.45778">
        <ele>183.1</ele>
        <time>2021-07-17T14:59:58Z</time>
      </trkpt>
      <trkpt lat="44.42647" lon="1.45777">
        <ele>183</ele>
        <time>2021-07-17T14:59:59Z</time>
      </trkpt>
      <trkpt lat="44.42652" lon="1.45782">
        <ele>181.7</ele>
        <time>2021-07-17T15:00:01Z</time>
      </trkpt>
      <trkpt lat="44.42653" lon="1.45785">
        <ele>181.1</ele>
        <time>2021-07-17T15:00:02Z</time>
      </trkpt>
      <trkpt lat="44.42655" lon="1.45791">
        <ele>180.3</ele>
        <time>2021-07-17T15:00:03Z</time>
      </trkpt>
      <trkpt lat="44.42661" lon="1.45798">
        <ele>178.9</ele>
        <time>2021-07-17T15:00:05Z</time>
      </trkpt>
      <trkpt lat="44.42666" lon="1.45798">
        <ele>178.6</ele>
        <time>2021-07-17T15:00:07Z</time>
      </trkpt>
      <trkpt lat="44.4267" lon="1.45798">
        <ele>178.1</ele>
        <time>2021-07-17T15:00:08Z</time>
      </trkpt>
      <trkpt lat="44.42672" lon="1.45799">
        <ele>177.9</ele>
        <time>2021-07-17T15:00:09Z</time>
      </trkpt>
      <trkpt lat="44.42676" lon="1.45799">
        <ele>177.7</ele>
        <time>2021-07-17T15:00:10Z</time>
      </trkpt>
      <trkpt lat="44.42679" lon="1.458">
        <ele>177.5</ele>
        <time>2021-07-17T15:00:11Z</time>
      </trkpt>
      <trkpt lat="44.42685" lon="1.45802">
        <ele>176.7</ele>
        <time>2021-07-17T15:00:13Z</time>
      </trkpt>
      <trkpt lat="44.4269" lon="1.45804">
        <ele>176.4</ele>
        <time>2021-07-17T15:00:14Z</time>
      </trkpt>
      <trkpt lat="44.42696" lon="1.45803">
        <ele>176.1</ele>
        <time>2021-07-17T15:00:15Z</time>
      </trkpt>
      <trkpt lat="44.42698" lon="1.45801">
        <ele>175.8</ele>
        <time>2021-07-17T15:00:16Z</time>
      </trkpt>
      <trkpt lat="44.42702" lon="1.45803">
        <ele>175.4</ele>
        <time>2021-07-17T15:00:18Z</time>
      </trkpt>
      <trkpt lat="44.42704" lon="1.45807">
        <ele>175.1</ele>
        <time>2021-07-17T15:00:20Z</time>
      </trkpt>
      <trkpt lat="44.42705" lon="1.45808">
        <ele>174.9</ele>
        <time>2021-07-17T15:00:21Z</time>
      </trkpt>
      <trkpt lat="44.42706" lon="1.45809">
        <ele>174.8</ele>
        <time>2021-07-17T15:00:23Z</time>
      </trkpt>
      <trkpt lat="44.42706" lon="1.45809">
        <ele>174.8</ele>
        <time>2021-07-17T15:00:24Z</time>
      </trkpt>
      <trkpt lat="44.42706" lon="1.45809">
        <ele>174.8</ele>
        <time>2021-07-17T15:00:25Z</time>
      </trkpt>
      <trkpt lat="44.42706" lon="1.45809">
        <ele>174.8</ele>
        <time>2021-07-17T15:00:26Z</time>
      </trkpt>
      <trkpt lat="44.42706" lon="1.4581">
        <ele>174.8</ele>
        <time>2021-07-17T15:00:28Z</time>
      </trkpt>
      <trkpt lat="44.42706" lon="1.4581">
        <ele>174.8</ele>
        <time>2021-07-17T15:00:30Z</time>
      </trkpt>
      <trkpt lat="44.42707" lon="1.45815">
        <ele>174.4</ele>
        <time>2021-07-17T15:00:34Z</time>
      </trkpt>
      <trkpt lat="44.42709" lon="1.45819">
        <ele>174.1</ele>
        <time>2021-07-17T15:00:35Z</time>
      </trkpt>
      <trkpt lat="44.4271" lon="1.45821">
        <ele>173.9</ele>
        <time>2021-07-17T15:00:36Z</time>
      </trkpt>
      <trkpt lat="44.42712" lon="1.45824">
        <ele>173.6</ele>
        <time>2021-07-17T15:00:38Z</time>
      </trkpt>
      <trkpt lat="44.42714" lon="1.45827">
        <ele>173.3</ele>
        <time>2021-07-17T15:00:39Z</time>
      </trkpt>
      <trkpt lat="44.42716" lon="1.45829">
        <ele>173.1</ele>
        <time>2021-07-17T15:00:40Z</time>
      </trkpt>
      <trkpt lat="44.42719" lon="1.45833">
        <ele>172.8</ele>
        <time>2021-07-17T15:00:41Z</time>
      </trkpt>
      <trkpt lat="44.4272" lon="1.45834">
        <ele>172.6</ele>
        <time>2021-07-17T15:00:42Z</time>
      </trkpt>
      <trkpt lat="44.42722" lon="1.45838">
        <ele>172.3</ele>
        <time>2021-07-17T15:00:44Z</time>
      </trkpt>
      <trkpt lat="44.42724" lon="1.4584">
        <ele>172.1</ele>
        <time>2021-07-17T15:00:46Z</time>
      </trkpt>
      <trkpt lat="44.42726" lon="1.45843">
        <ele>171.9</ele>
        <time>2021-07-17T15:00:47Z</time>
      </trkpt>
      <trkpt lat="44.42728" lon="1.45847">
        <ele>171.6</ele>
        <time>2021-07-17T15:00:48Z</time>
      </trkpt>
      <trkpt lat="44.42729" lon="1.45848">
        <ele>171.5</ele>
        <time>2021-07-17T15:00:49Z</time>
      </trkpt>
      <trkpt lat="44.4273" lon="1.45852">
        <ele>171.3</ele>
        <time>2021-07-17T15:00:51Z</time>
      </trkpt>
      <trkpt lat="44.42731" lon="1.45855">
        <ele>171.2</ele>
        <time>2021-07-17T15:00:52Z</time>
      </trkpt>
      <trkpt lat="44.42732" lon="1.45854">
        <ele>171.2</ele>
        <time>2021-07-17T15:00:53Z</time>
      </trkpt>
      <trkpt lat="44.42732" lon="1.45854">
        <ele>171.2</ele>
        <time>2021-07-17T15:00:55Z</time>
      </trkpt>
      <trkpt lat="44.42732" lon="1.45855">
        <ele>171.1</ele>
        <time>2021-07-17T15:00:56Z</time>
      </trkpt>
      <trkpt lat="44.42732" lon="1.45855">
        <ele>171.1</ele>
        <time>2021-07-17T15:00:58Z</time>
      </trkpt>
      <trkpt lat="44.42732" lon="1.45855">
        <ele>171.1</ele>
        <time>2021-07-17T15:00:59Z</time>
      </trkpt>
      <trkpt lat="44.42735" lon="1.45856">
        <ele>170.7</ele>
        <time>2021-07-17T15:01:00Z</time>
      </trkpt>
      <trkpt lat="44.42737" lon="1.45857">
        <ele>170.5</ele>
        <time>2021-07-17T15:01:02Z</time>
      </trkpt>
      <trkpt lat="44.4274" lon="1.45857">
        <ele>170.4</ele>
        <time>2021-07-17T15:02:07Z</time>
      </trkpt>
      <trkpt lat="44.42742" lon="1.45858">
        <ele>170.2</ele>
        <time>2021-07-17T15:02:08Z</time>
      </trkpt>
      <trkpt lat="44.42745" lon="1.45859">
        <ele>170</ele>
        <time>2021-07-17T15:02:09Z</time>
      </trkpt>
      <trkpt lat="44.42749" lon="1.45861">
        <ele>169.7</ele>
        <time>2021-07-17T15:02:11Z</time>
      </trkpt>
      <trkpt lat="44.4275" lon="1.45864">
        <ele>169.6</ele>
        <time>2021-07-17T15:02:12Z</time>
      </trkpt>
      <trkpt lat="44.42756" lon="1.45869">
        <ele>169.1</ele>
        <time>2021-07-17T15:02:14Z</time>
      </trkpt>
      <trkpt lat="44.42762" lon="1.45869">
        <ele>168.7</ele>
        <time>2021-07-17T15:02:15Z</time>
      </trkpt>
      <trkpt lat="44.42772" lon="1.45869">
        <ele>168.2</ele>
        <time>2021-07-17T15:02:17Z</time>
      </trkpt>
      <trkpt lat="44.42781" lon="1.45866">
        <ele>167.7</ele>
        <time>2021-07-17T15:02:19Z</time>
      </trkpt>
      <trkpt lat="44.42789" lon="1.45861">
        <ele>167.3</ele>
        <time>2021-07-17T15:02:20Z</time>
      </trkpt>
      <trkpt lat="44.42794" lon="1.45858">
        <ele>166.9</ele>
        <time>2021-07-17T15:02:21Z</time>
      </trkpt>
      <trkpt lat="44.42804" lon="1.45847">
        <ele>166.3</ele>
        <time>2021-07-17T15:02:23Z</time>
      </trkpt>
      <trkpt lat="44.42813" lon="1.45833">
        <ele>165.5</ele>
        <time>2021-07-17T15:02:25Z</time>
      </trkpt>
      <trkpt lat="44.42818" lon="1.45826">
        <ele>165.1</ele>
        <time>2021-07-17T15:02:26Z</time>
      </trkpt>
      <trkpt lat="44.42826" lon="1.45814">
        <ele>164.5</ele>
        <time>2021-07-17T15:02:28Z</time>
      </trkpt>
      <trkpt lat="44.42835" lon="1.45804">
        <ele>163.9</ele>
        <time>2021-07-17T15:02:30Z</time>
      </trkpt>
      <trkpt lat="44.42848" lon="1.45795">
        <ele>163.1</ele>
        <time>2021-07-17T15:02:32Z</time>
      </trkpt>
      <trkpt lat="44.42861" lon="1.45786">
        <ele>162.4</ele>
        <time>2021-07-17T15:02:34Z</time>
      </trkpt>
      <trkpt lat="44.42867" lon="1.45782">
        <ele>162.1</ele>
        <time>2021-07-17T15:02:35Z</time>
      </trkpt>
      <trkpt lat="44.42881" lon="1.45779">
        <ele>161.5</ele>
        <time>2021-07-17T15:02:37Z</time>
      </trkpt>
      <trkpt lat="44.42888" lon="1.45779">
        <ele>161.2</ele>
        <time>2021-07-17T15:02:38Z</time>
      </trkpt>
      <trkpt lat="44.42903" lon="1.45777">
        <ele>160.7</ele>
        <time>2021-07-17T15:02:40Z</time>
      </trkpt>
      <trkpt lat="44.4291" lon="1.45775">
        <ele>160.4</ele>
        <time>2021-07-17T15:02:41Z</time>
      </trkpt>
      <trkpt lat="44.42924" lon="1.45772">
        <ele>159.9</ele>
        <time>2021-07-17T15:02:43Z</time>
      </trkpt>
      <trkpt lat="44.42937" lon="1.45768">
        <ele>159.5</ele>
        <time>2021-07-17T15:02:45Z</time>
      </trkpt>
      <trkpt lat="44.42943" lon="1.45766">
        <ele>159.3</ele>
        <time>2021-07-17T15:02:46Z</time>
      </trkpt>
      <trkpt lat="44.42949" lon="1.45764">
        <ele>159.1</ele>
        <time>2021-07-17T15:02:47Z</time>
      </trkpt>
      <trkpt lat="44.42954" lon="1.45763">
        <ele>158.9</ele>
        <time>2021-07-17T15:02:48Z</time>
      </trkpt>
      <trkpt lat="44.42966" lon="1.45759">
        <ele>158.6</ele>
        <time>2021-07-17T15:02:50Z</time>
      </trkpt>
      <trkpt lat="44.42976" lon="1.45755">
        <ele>158.3</ele>
        <time>2021-07-17T15:02:52Z</time>
      </trkpt>
      <trkpt lat="44.42981" lon="1.45753">
        <ele>158.2</ele>
        <time>2021-07-17T15:02:53Z</time>
      </trkpt>
      <trkpt lat="44.42992" lon="1.45752">
        <ele>158</ele>
        <time>2021-07-17T15:02:55Z</time>
      </trkpt>
      <trkpt lat="44.42998" lon="1.45749">
        <ele>157.8</ele>
        <time>2021-07-17T15:02:56Z</time>
      </trkpt>
      <trkpt lat="44.43009" lon="1.45745">
        <ele>157.6</ele>
        <time>2021-07-17T15:02:58Z</time>
      </trkpt>
      <trkpt lat="44.43014" lon="1.45743">
        <ele>157.5</ele>
        <time>2021-07-17T15:02:59Z</time>
      </trkpt>
      <trkpt lat="44.4302" lon="1.45742">
        <ele>157.4</ele>
        <time>2021-07-17T15:03:00Z</time>
      </trkpt>
      <trkpt lat="44.43033" lon="1.45739">
        <ele>157.2</ele>
        <time>2021-07-17T15:03:02Z</time>
      </trkpt>
      <trkpt lat="44.43046" lon="1.45736">
        <ele>157</ele>
        <time>2021-07-17T15:03:04Z</time>
      </trkpt>
      <trkpt lat="44.43052" lon="1.45734">
        <ele>156.9</ele>
        <time>2021-07-17T15:03:05Z</time>
      </trkpt>
      <trkpt lat="44.43062" lon="1.45727">
        <ele>156.6</ele>
        <time>2021-07-17T15:03:07Z</time>
      </trkpt>
      <trkpt lat="44.43067" lon="1.45724">
        <ele>156.5</ele>
        <time>2021-07-17T15:03:08Z</time>
      </trkpt>
      <trkpt lat="44.43072" lon="1.45723">
        <ele>156.3</ele>
        <time>2021-07-17T15:03:09Z</time>
      </trkpt>
      <trkpt lat="44.43082" lon="1.45718">
        <ele>156.1</ele>
        <time>2021-07-17T15:03:11Z</time>
      </trkpt>
      <trkpt lat="44.43091" lon="1.45713">
        <ele>155.9</ele>
        <time>2021-07-17T15:03:13Z</time>
      </trkpt>
      <trkpt lat="44.43095" lon="1.4571">
        <ele>155.8</ele>
        <time>2021-07-17T15:03:14Z</time>
      </trkpt>
      <trkpt lat="44.43104" lon="1.45706">
        <ele>155.6</ele>
        <time>2021-07-17T15:03:16Z</time>
      </trkpt>
      <trkpt lat="44.43108" lon="1.45704">
        <ele>155.5</ele>
        <time>2021-07-17T15:03:17Z</time>
      </trkpt>
      <trkpt lat="44.43117" lon="1.45699">
        <ele>155.3</ele>
        <time>2021-07-17T15:03:19Z</time>
      </trkpt>
      <trkpt lat="44.43126" lon="1.45696">
        <ele>155.1</ele>
        <time>2021-07-17T15:03:21Z</time>
      </trkpt>
      <trkpt lat="44.43137" lon="1.4569">
        <ele>154.8</ele>
        <time>2021-07-17T15:03:23Z</time>
      </trkpt>
      <trkpt lat="44.43147" lon="1.45685">
        <ele>154.5</ele>
        <time>2021-07-17T15:03:25Z</time>
      </trkpt>
      <trkpt lat="44.43157" lon="1.45678">
        <ele>154.3</ele>
        <time>2021-07-17T15:03:27Z</time>
      </trkpt>
      <trkpt lat="44.43163" lon="1.45677">
        <ele>154.1</ele>
        <time>2021-07-17T15:03:28Z</time>
      </trkpt>
      <trkpt lat="44.43176" lon="1.45681">
        <ele>153.8</ele>
        <time>2021-07-17T15:03:30Z</time>
      </trkpt>
      <trkpt lat="44.43188" lon="1.4568">
        <ele>153.5</ele>
        <time>2021-07-17T15:03:32Z</time>
      </trkpt>
      <trkpt lat="44.43197" lon="1.45678">
        <ele>153.2</ele>
        <time>2021-07-17T15:03:34Z</time>
      </trkpt>
      <trkpt lat="44.43201" lon="1.45675">
        <ele>153.1</ele>
        <time>2021-07-17T15:03:35Z</time>
      </trkpt>
      <trkpt lat="44.43209" lon="1.45669">
        <ele>152.9</ele>
        <time>2021-07-17T15:03:37Z</time>
      </trkpt>
      <trkpt lat="44.43211" lon="1.45666">
        <ele>152.9</ele>
        <time>2021-07-17T15:03:38Z</time>
      </trkpt>
      <trkpt lat="44.4322" lon="1.45661">
        <ele>152.7</ele>
        <time>2021-07-17T15:03:40Z</time>
      </trkpt>
      <trkpt lat="44.43225" lon="1.45659">
        <ele>152.6</ele>
        <time>2021-07-17T15:03:41Z</time>
      </trkpt>
      <trkpt lat="44.43232" lon="1.45656">
        <ele>152.4</ele>
        <time>2021-07-17T15:03:43Z</time>
      </trkpt>
      <trkpt lat="44.43243" lon="1.45651">
        <ele>152.1</ele>
        <time>2021-07-17T15:03:45Z</time>
      </trkpt>
      <trkpt lat="44.43248" lon="1.45647">
        <ele>152</ele>
        <time>2021-07-17T15:03:46Z</time>
      </trkpt>
      <trkpt lat="44.43253" lon="1.45645">
        <ele>151.9</ele>
        <time>2021-07-17T15:03:47Z</time>
      </trkpt>
      <trkpt lat="44.43257" lon="1.45642">
        <ele>151.8</ele>
        <time>2021-07-17T15:03:48Z</time>
      </trkpt>
      <trkpt lat="44.43261" lon="1.4564">
        <ele>151.7</ele>
        <time>2021-07-17T15:03:49Z</time>
      </trkpt>
      <trkpt lat="44.43265" lon="1.45641">
        <ele>151.6</ele>
        <time>2021-07-17T15:03:51Z</time>
      </trkpt>
      <trkpt lat="44.43269" lon="1.45643">
        <ele>151.3</ele>
        <time>2021-07-17T15:03:52Z</time>
      </trkpt>
      <trkpt lat="44.43273" lon="1.45655">
        <ele>151.3</ele>
        <time>2021-07-17T15:03:53Z</time>
      </trkpt>
      <trkpt lat="44.43274" lon="1.4566">
        <ele>151.3</ele>
        <time>2021-07-17T15:03:55Z</time>
      </trkpt>
      <trkpt lat="44.43276" lon="1.45669">
        <ele>151.3</ele>
        <time>2021-07-17T15:03:56Z</time>
      </trkpt>
      <trkpt lat="44.43278" lon="1.45677">
        <ele>151.4</ele>
        <time>2021-07-17T15:03:57Z</time>
      </trkpt>
      <trkpt lat="44.4328" lon="1.45683">
        <ele>151.4</ele>
        <time>2021-07-17T15:03:58Z</time>
      </trkpt>
      <trkpt lat="44.43279" lon="1.45693">
        <ele>151.6</ele>
        <time>2021-07-17T15:04:00Z</time>
      </trkpt>
      <trkpt lat="44.43281" lon="1.45697">
        <ele>151.7</ele>
        <time>2021-07-17T15:04:01Z</time>
      </trkpt>
      <trkpt lat="44.43283" lon="1.457">
        <ele>151.7</ele>
        <time>2021-07-17T15:04:02Z</time>
      </trkpt>
      <trkpt lat="44.43283" lon="1.45706">
        <ele>151.9</ele>
        <time>2021-07-17T15:04:04Z</time>
      </trkpt>
      <trkpt lat="44.43284" lon="1.45713">
        <ele>152</ele>
        <time>2021-07-17T15:04:06Z</time>
      </trkpt>
      <trkpt lat="44.43283" lon="1.45718">
        <ele>152.2</ele>
        <time>2021-07-17T15:04:08Z</time>
      </trkpt>
      <trkpt lat="44.43282" lon="1.45723">
        <ele>152.3</ele>
        <time>2021-07-17T15:04:10Z</time>
      </trkpt>
      <trkpt lat="44.43282" lon="1.45725">
        <ele>152.3</ele>
        <time>2021-07-17T15:04:11Z</time>
      </trkpt>
      <trkpt lat="44.43283" lon="1.4573">
        <ele>152.5</ele>
        <time>2021-07-17T15:04:13Z</time>
      </trkpt>
      <trkpt lat="44.43283" lon="1.45732">
        <ele>152.5</ele>
        <time>2021-07-17T15:04:14Z</time>
      </trkpt>
      <trkpt lat="44.43284" lon="1.45735">
        <ele>152.6</ele>
        <time>2021-07-17T15:04:16Z</time>
      </trkpt>
      <trkpt lat="44.43284" lon="1.45739">
        <ele>152.7</ele>
        <time>2021-07-17T15:04:17Z</time>
      </trkpt>
      <trkpt lat="44.43285" lon="1.45744">
        <ele>152.8</ele>
        <time>2021-07-17T15:04:18Z</time>
      </trkpt>
      <trkpt lat="44.43285" lon="1.45746">
        <ele>152.9</ele>
        <time>2021-07-17T15:04:20Z</time>
      </trkpt>
      <trkpt lat="44.43285" lon="1.45748">
        <ele>153</ele>
        <time>2021-07-17T15:04:21Z</time>
      </trkpt>
      <trkpt lat="44.43285" lon="1.4575">
        <ele>153</ele>
        <time>2021-07-17T15:04:22Z</time>
      </trkpt>
      <trkpt lat="44.43285" lon="1.45756">
        <ele>153.2</ele>
        <time>2021-07-17T15:04:24Z</time>
      </trkpt>
      <trkpt lat="44.43285" lon="1.4576">
        <ele>153.3</ele>
        <time>2021-07-17T15:04:25Z</time>
      </trkpt>
      <trkpt lat="44.43286" lon="1.45766">
        <ele>153.5</ele>
        <time>2021-07-17T15:04:27Z</time>
      </trkpt>
      <trkpt lat="44.43286" lon="1.45769">
        <ele>153.6</ele>
        <time>2021-07-17T15:04:28Z</time>
      </trkpt>
      <trkpt lat="44.43287" lon="1.45775">
        <ele>153.8</ele>
        <time>2021-07-17T15:04:30Z</time>
      </trkpt>
      <trkpt lat="44.43287" lon="1.4578">
        <ele>153.9</ele>
        <time>2021-07-17T15:04:31Z</time>
      </trkpt>
      <trkpt lat="44.43287" lon="1.45782">
        <ele>154</ele>
        <time>2021-07-17T15:04:32Z</time>
      </trkpt>
      <trkpt lat="44.43287" lon="1.45787">
        <ele>154.2</ele>
        <time>2021-07-17T15:04:34Z</time>
      </trkpt>
      <trkpt lat="44.43287" lon="1.45791">
        <ele>154.3</ele>
        <time>2021-07-17T15:04:35Z</time>
      </trkpt>
      <trkpt lat="44.43287" lon="1.45793">
        <ele>154.4</ele>
        <time>2021-07-17T15:04:36Z</time>
      </trkpt>
      <trkpt lat="44.43288" lon="1.45798">
        <ele>154.6</ele>
        <time>2021-07-17T15:04:38Z</time>
      </trkpt>
      <trkpt lat="44.43288" lon="1.458">
        <ele>154.7</ele>
        <time>2021-07-17T15:04:39Z</time>
      </trkpt>
      <trkpt lat="44.43289" lon="1.45804">
        <ele>154.8</ele>
        <time>2021-07-17T15:04:41Z</time>
      </trkpt>
      <trkpt lat="44.43288" lon="1.45807">
        <ele>154.9</ele>
        <time>2021-07-17T15:04:42Z</time>
      </trkpt>
      <trkpt lat="44.43288" lon="1.45809">
        <ele>155.1</ele>
        <time>2021-07-17T15:04:43Z</time>
      </trkpt>
      <trkpt lat="44.43288" lon="1.45815">
        <ele>155.4</ele>
        <time>2021-07-17T15:04:45Z</time>
      </trkpt>
      <trkpt lat="44.43287" lon="1.45817">
        <ele>155.5</ele>
        <time>2021-07-17T15:04:46Z</time>
      </trkpt>
      <trkpt lat="44.43287" lon="1.45818">
        <ele>155.6</ele>
        <time>2021-07-17T15:04:47Z</time>
      </trkpt>
      <trkpt lat="44.43286" lon="1.45821">
        <ele>155.7</ele>
        <time>2021-07-17T15:04:48Z</time>
      </trkpt>
      <trkpt lat="44.43286" lon="1.45823">
        <ele>155.8</ele>
        <time>2021-07-17T15:04:49Z</time>
      </trkpt>
      <trkpt lat="44.43285" lon="1.45827">
        <ele>156.1</ele>
        <time>2021-07-17T15:04:51Z</time>
      </trkpt>
      <trkpt lat="44.43285" lon="1.45831">
        <ele>156.3</ele>
        <time>2021-07-17T15:04:53Z</time>
      </trkpt>
      <trkpt lat="44.43284" lon="1.45836">
        <ele>156.5</ele>
        <time>2021-07-17T15:04:55Z</time>
      </trkpt>
      <trkpt lat="44.43284" lon="1.45838">
        <ele>156.7</ele>
        <time>2021-07-17T15:04:56Z</time>
      </trkpt>
      <trkpt lat="44.43283" lon="1.45842">
        <ele>156.9</ele>
        <time>2021-07-17T15:04:58Z</time>
      </trkpt>
      <trkpt lat="44.43282" lon="1.45846">
        <ele>157.2</ele>
        <time>2021-07-17T15:05:00Z</time>
      </trkpt>
      <trkpt lat="44.43281" lon="1.45848">
        <ele>157.3</ele>
        <time>2021-07-17T15:05:01Z</time>
      </trkpt>
      <trkpt lat="44.4328" lon="1.45851">
        <ele>157.5</ele>
        <time>2021-07-17T15:05:02Z</time>
      </trkpt>
      <trkpt lat="44.43281" lon="1.45855">
        <ele>157.7</ele>
        <time>2021-07-17T15:05:04Z</time>
      </trkpt>
      <trkpt lat="44.43281" lon="1.45857">
        <ele>157.9</ele>
        <time>2021-07-17T15:05:05Z</time>
      </trkpt>
      <trkpt lat="44.4328" lon="1.45862">
        <ele>158.2</ele>
        <time>2021-07-17T15:05:07Z</time>
      </trkpt>
      <trkpt lat="44.4328" lon="1.45864">
        <ele>158.4</ele>
        <time>2021-07-17T15:05:08Z</time>
      </trkpt>
      <trkpt lat="44.4328" lon="1.45869">
        <ele>158.7</ele>
        <time>2021-07-17T15:05:10Z</time>
      </trkpt>
      <trkpt lat="44.4328" lon="1.45872">
        <ele>159</ele>
        <time>2021-07-17T15:05:12Z</time>
      </trkpt>
      <trkpt lat="44.43279" lon="1.45874">
        <ele>159.1</ele>
        <time>2021-07-17T15:05:13Z</time>
      </trkpt>
      <trkpt lat="44.43279" lon="1.45876">
        <ele>159.2</ele>
        <time>2021-07-17T15:05:14Z</time>
      </trkpt>
      <trkpt lat="44.4328" lon="1.4588">
        <ele>159.5</ele>
        <time>2021-07-17T15:05:16Z</time>
      </trkpt>
      <trkpt lat="44.4328" lon="1.45881">
        <ele>159.6</ele>
        <time>2021-07-17T15:05:17Z</time>
      </trkpt>
      <trkpt lat="44.43281" lon="1.45885">
        <ele>159.9</ele>
        <time>2021-07-17T15:05:19Z</time>
      </trkpt>
      <trkpt lat="44.43281" lon="1.45886">
        <ele>160</ele>
        <time>2021-07-17T15:05:20Z</time>
      </trkpt>
      <trkpt lat="44.43281" lon="1.45887">
        <ele>160.1</ele>
        <time>2021-07-17T15:05:22Z</time>
      </trkpt>
      <trkpt lat="44.43281" lon="1.45889">
        <ele>160.3</ele>
        <time>2021-07-17T15:05:23Z</time>
      </trkpt>
      <trkpt lat="44.43281" lon="1.45893">
        <ele>160.6</ele>
        <time>2021-07-17T15:05:25Z</time>
      </trkpt>
      <trkpt lat="44.4328" lon="1.45896">
        <ele>160.7</ele>
        <time>2021-07-17T15:05:26Z</time>
      </trkpt>
      <trkpt lat="44.4328" lon="1.45898">
        <ele>161</ele>
        <time>2021-07-17T15:05:28Z</time>
      </trkpt>
      <trkpt lat="44.43279" lon="1.45901">
        <ele>161.2</ele>
        <time>2021-07-17T15:05:29Z</time>
      </trkpt>
      <trkpt lat="44.43279" lon="1.45903">
        <ele>161.3</ele>
        <time>2021-07-17T15:05:30Z</time>
      </trkpt>
      <trkpt lat="44.43278" lon="1.45906">
        <ele>161.6</ele>
        <time>2021-07-17T15:05:32Z</time>
      </trkpt>
      <trkpt lat="44.43278" lon="1.45907">
        <ele>161.7</ele>
        <time>2021-07-17T15:05:33Z</time>
      </trkpt>
      <trkpt lat="44.43277" lon="1.45908">
        <ele>161.8</ele>
        <time>2021-07-17T15:05:35Z</time>
      </trkpt>
      <trkpt lat="44.43276" lon="1.45912">
        <ele>162.1</ele>
        <time>2021-07-17T15:05:37Z</time>
      </trkpt>
      <trkpt lat="44.43276" lon="1.45913">
        <ele>162.2</ele>
        <time>2021-07-17T15:05:38Z</time>
      </trkpt>
      <trkpt lat="44.43275" lon="1.45916">
        <ele>162.5</ele>
        <time>2021-07-17T15:05:40Z</time>
      </trkpt>
      <trkpt lat="44.43274" lon="1.45919">
        <ele>162.9</ele>
        <time>2021-07-17T15:05:41Z</time>
      </trkpt>
      <trkpt lat="44.43273" lon="1.45922">
        <ele>163.3</ele>
        <time>2021-07-17T15:05:43Z</time>
      </trkpt>
      <trkpt lat="44.43273" lon="1.45922">
        <ele>163.4</ele>
        <time>2021-07-17T15:05:44Z</time>
      </trkpt>
      <trkpt lat="44.43272" lon="1.45923">
        <ele>163.5</ele>
        <time>2021-07-17T15:05:46Z</time>
      </trkpt>
      <trkpt lat="44.43272" lon="1.45923">
        <ele>163.5</ele>
        <time>2021-07-17T15:05:48Z</time>
      </trkpt>
      <trkpt lat="44.43268" lon="1.45928">
        <ele>164.4</ele>
        <time>2021-07-17T15:05:50Z</time>
      </trkpt>
      <trkpt lat="44.43267" lon="1.45929">
        <ele>164.7</ele>
        <time>2021-07-17T15:05:52Z</time>
      </trkpt>
      <trkpt lat="44.43264" lon="1.45933">
        <ele>165.3</ele>
        <time>2021-07-17T15:05:54Z</time>
      </trkpt>
      <trkpt lat="44.43263" lon="1.45936">
        <ele>165.7</ele>
        <time>2021-07-17T15:05:55Z</time>
      </trkpt>
      <trkpt lat="44.43262" lon="1.45936">
        <ele>165.8</ele>
        <time>2021-07-17T15:05:56Z</time>
      </trkpt>
      <trkpt lat="44.4326" lon="1.45939">
        <ele>166.2</ele>
        <time>2021-07-17T15:05:58Z</time>
      </trkpt>
      <trkpt lat="44.43259" lon="1.45939">
        <ele>166.4</ele>
        <time>2021-07-17T15:05:59Z</time>
      </trkpt>
      <trkpt lat="44.43259" lon="1.4594">
        <ele>166.5</ele>
        <time>2021-07-17T15:06:00Z</time>
      </trkpt>
      <trkpt lat="44.43258" lon="1.45941">
        <ele>166.7</ele>
        <time>2021-07-17T15:06:02Z</time>
      </trkpt>
      <trkpt lat="44.43257" lon="1.45941">
        <ele>166.8</ele>
        <time>2021-07-17T15:06:03Z</time>
      </trkpt>
      <trkpt lat="44.43257" lon="1.45941">
        <ele>166.8</ele>
        <time>2021-07-17T15:06:04Z</time>
      </trkpt>
      <trkpt lat="44.43254" lon="1.45944">
        <ele>167.3</ele>
        <time>2021-07-17T15:06:05Z</time>
      </trkpt>
      <trkpt lat="44.43251" lon="1.45946">
        <ele>167.9</ele>
        <time>2021-07-17T15:06:07Z</time>
      </trkpt>
      <trkpt lat="44.43251" lon="1.45946">
        <ele>168</ele>
        <time>2021-07-17T15:06:08Z</time>
      </trkpt>
      <trkpt lat="44.43248" lon="1.4595">
        <ele>168.5</ele>
        <time>2021-07-17T15:06:10Z</time>
      </trkpt>
      <trkpt lat="44.43247" lon="1.45951">
        <ele>168.7</ele>
        <time>2021-07-17T15:06:11Z</time>
      </trkpt>
      <trkpt lat="44.43245" lon="1.45954">
        <ele>169.2</ele>
        <time>2021-07-17T15:06:13Z</time>
      </trkpt>
      <trkpt lat="44.43244" lon="1.45955">
        <ele>169.4</ele>
        <time>2021-07-17T15:06:15Z</time>
      </trkpt>
      <trkpt lat="44.43243" lon="1.45957">
        <ele>169.6</ele>
        <time>2021-07-17T15:06:16Z</time>
      </trkpt>
      <trkpt lat="44.43242" lon="1.45958">
        <ele>169.8</ele>
        <time>2021-07-17T15:06:17Z</time>
      </trkpt>
      <trkpt lat="44.43241" lon="1.4596">
        <ele>170.1</ele>
        <time>2021-07-17T15:06:18Z</time>
      </trkpt>
      <trkpt lat="44.43239" lon="1.45962">
        <ele>170.3</ele>
        <time>2021-07-17T15:06:20Z</time>
      </trkpt>
      <trkpt lat="44.43239" lon="1.45962">
        <ele>170.4</ele>
        <time>2021-07-17T15:06:21Z</time>
      </trkpt>
      <trkpt lat="44.43238" lon="1.45963">
        <ele>170.5</ele>
        <time>2021-07-17T15:06:23Z</time>
      </trkpt>
      <trkpt lat="44.43238" lon="1.45963">
        <ele>170.6</ele>
        <time>2021-07-17T15:06:24Z</time>
      </trkpt>
      <trkpt lat="44.43238" lon="1.45964">
        <ele>170.7</ele>
        <time>2021-07-17T15:06:26Z</time>
      </trkpt>
      <trkpt lat="44.43238" lon="1.45964">
        <ele>170.7</ele>
        <time>2021-07-17T15:06:27Z</time>
      </trkpt>
      <trkpt lat="44.43237" lon="1.45964">
        <ele>170.8</ele>
        <time>2021-07-17T15:06:28Z</time>
      </trkpt>
      <trkpt lat="44.4322" lon="1.45979">
        <ele>173.8</ele>
        <time>2021-07-17T15:06:44Z</time>
      </trkpt>
      <trkpt lat="44.43219" lon="1.4598">
        <ele>173.9</ele>
        <time>2021-07-17T15:06:46Z</time>
      </trkpt>
      <trkpt lat="44.43218" lon="1.45981">
        <ele>174.1</ele>
        <time>2021-07-17T15:06:47Z</time>
      </trkpt>
      <trkpt lat="44.43217" lon="1.45981">
        <ele>174.2</ele>
        <time>2021-07-17T15:06:48Z</time>
      </trkpt>
      <trkpt lat="44.43217" lon="1.45982">
        <ele>174.3</ele>
        <time>2021-07-17T15:06:49Z</time>
      </trkpt>
      <trkpt lat="44.43216" lon="1.45983">
        <ele>174.4</ele>
        <time>2021-07-17T15:06:50Z</time>
      </trkpt>
      <trkpt lat="44.43216" lon="1.45983">
        <ele>174.5</ele>
        <time>2021-07-17T15:06:52Z</time>
      </trkpt>
      <trkpt lat="44.43216" lon="1.45983">
        <ele>174.5</ele>
        <time>2021-07-17T15:06:53Z</time>
      </trkpt>
      <trkpt lat="44.43215" lon="1.45983">
        <ele>174.6</ele>
        <time>2021-07-17T15:06:54Z</time>
      </trkpt>
      <trkpt lat="44.43215" lon="1.45984">
        <ele>174.6</ele>
        <time>2021-07-17T15:06:55Z</time>
      </trkpt>
      <trkpt lat="44.43215" lon="1.45984">
        <ele>174.7</ele>
        <time>2021-07-17T15:06:56Z</time>
      </trkpt>
      <trkpt lat="44.43213" lon="1.45986">
        <ele>175</ele>
        <time>2021-07-17T15:06:58Z</time>
      </trkpt>
      <trkpt lat="44.43212" lon="1.45987">
        <ele>175.2</ele>
        <time>2021-07-17T15:06:59Z</time>
      </trkpt>
      <trkpt lat="44.4321" lon="1.45989">
        <ele>175.5</ele>
        <time>2021-07-17T15:07:00Z</time>
      </trkpt>
      <trkpt lat="44.4321" lon="1.45989">
        <ele>175.6</ele>
        <time>2021-07-17T15:07:01Z</time>
      </trkpt>
      <trkpt lat="44.43209" lon="1.4599">
        <ele>175.8</ele>
        <time>2021-07-17T15:07:02Z</time>
      </trkpt>
      <trkpt lat="44.43208" lon="1.45991">
        <ele>176</ele>
        <time>2021-07-17T15:07:04Z</time>
      </trkpt>
      <trkpt lat="44.43207" lon="1.45992">
        <ele>176.2</ele>
        <time>2021-07-17T15:07:06Z</time>
      </trkpt>
      <trkpt lat="44.43206" lon="1.45993">
        <ele>176.2</ele>
        <time>2021-07-17T15:07:07Z</time>
      </trkpt>
      <trkpt lat="44.43206" lon="1.45994">
        <ele>176.4</ele>
        <time>2021-07-17T15:07:09Z</time>
      </trkpt>
      <trkpt lat="44.43203" lon="1.45997">
        <ele>176.9</ele>
        <time>2021-07-17T15:07:11Z</time>
      </trkpt>
      <trkpt lat="44.43201" lon="1.46">
        <ele>177.4</ele>
        <time>2021-07-17T15:07:12Z</time>
      </trkpt>
      <trkpt lat="44.432" lon="1.46001">
        <ele>177.5</ele>
        <time>2021-07-17T15:07:13Z</time>
      </trkpt>
      <trkpt lat="44.43199" lon="1.46003">
        <ele>177.7</ele>
        <time>2021-07-17T15:07:14Z</time>
      </trkpt>
      <trkpt lat="44.43198" lon="1.46004">
        <ele>177.9</ele>
        <time>2021-07-17T15:07:15Z</time>
      </trkpt>
      <trkpt lat="44.43197" lon="1.46005">
        <ele>178.1</ele>
        <time>2021-07-17T15:07:17Z</time>
      </trkpt>
      <trkpt lat="44.43195" lon="1.46009">
        <ele>178.5</ele>
        <time>2021-07-17T15:07:19Z</time>
      </trkpt>
      <trkpt lat="44.43194" lon="1.4601">
        <ele>178.7</ele>
        <time>2021-07-17T15:07:20Z</time>
      </trkpt>
      <trkpt lat="44.43192" lon="1.46013">
        <ele>179.1</ele>
        <time>2021-07-17T15:07:21Z</time>
      </trkpt>
      <trkpt lat="44.43189" lon="1.46017">
        <ele>179.6</ele>
        <time>2021-07-17T15:07:23Z</time>
      </trkpt>
      <trkpt lat="44.43189" lon="1.46018">
        <ele>179.8</ele>
        <time>2021-07-17T15:07:24Z</time>
      </trkpt>
      <trkpt lat="44.43188" lon="1.46019">
        <ele>179.9</ele>
        <time>2021-07-17T15:07:25Z</time>
      </trkpt>
      <trkpt lat="44.43187" lon="1.4602">
        <ele>180</ele>
        <time>2021-07-17T15:07:26Z</time>
      </trkpt>
      <trkpt lat="44.43185" lon="1.46024">
        <ele>180.5</ele>
        <time>2021-07-17T15:07:28Z</time>
      </trkpt>
      <trkpt lat="44.43183" lon="1.46025">
        <ele>180.7</ele>
        <time>2021-07-17T15:07:30Z</time>
      </trkpt>
      <trkpt lat="44.43182" lon="1.46026">
        <ele>180.9</ele>
        <time>2021-07-17T15:07:31Z</time>
      </trkpt>
      <trkpt lat="44.4318" lon="1.46028">
        <ele>181.2</ele>
        <time>2021-07-17T15:07:32Z</time>
      </trkpt>
      <trkpt lat="44.43179" lon="1.46029">
        <ele>181.3</ele>
        <time>2021-07-17T15:07:33Z</time>
      </trkpt>
      <trkpt lat="44.43179" lon="1.46029">
        <ele>181.4</ele>
        <time>2021-07-17T15:07:34Z</time>
      </trkpt>
      <trkpt lat="44.43178" lon="1.4603">
        <ele>181.5</ele>
        <time>2021-07-17T15:07:36Z</time>
      </trkpt>
      <trkpt lat="44.43178" lon="1.46031">
        <ele>181.6</ele>
        <time>2021-07-17T15:07:38Z</time>
      </trkpt>
      <trkpt lat="44.43177" lon="1.46031">
        <ele>181.7</ele>
        <time>2021-07-17T15:07:40Z</time>
      </trkpt>
      <trkpt lat="44.43177" lon="1.46032">
        <ele>181.7</ele>
        <time>2021-07-17T15:07:41Z</time>
      </trkpt>
      <trkpt lat="44.43177" lon="1.46032">
        <ele>181.7</ele>
        <time>2021-07-17T15:07:42Z</time>
      </trkpt>
      <trkpt lat="44.43163" lon="1.46048">
        <ele>184.3</ele>
        <time>2021-07-17T15:08:01Z</time>
      </trkpt>
      <trkpt lat="44.43161" lon="1.4605">
        <ele>184.6</ele>
        <time>2021-07-17T15:08:02Z</time>
      </trkpt>
      <trkpt lat="44.4316" lon="1.46051">
        <ele>184.8</ele>
        <time>2021-07-17T15:08:04Z</time>
      </trkpt>
      <trkpt lat="44.43159" lon="1.46053">
        <ele>185.1</ele>
        <time>2021-07-17T15:08:05Z</time>
      </trkpt>
      <trkpt lat="44.43158" lon="1.46053">
        <ele>185.1</ele>
        <time>2021-07-17T15:08:06Z</time>
      </trkpt>
      <trkpt lat="44.43156" lon="1.46056">
        <ele>185.6</ele>
        <time>2021-07-17T15:08:08Z</time>
      </trkpt>
      <trkpt lat="44.43154" lon="1.46058">
        <ele>185.9</ele>
        <time>2021-07-17T15:08:10Z</time>
      </trkpt>
      <trkpt lat="44.43153" lon="1.46059">
        <ele>186.1</ele>
        <time>2021-07-17T15:08:11Z</time>
      </trkpt>
      <trkpt lat="44.43153" lon="1.4606">
        <ele>186.2</ele>
        <time>2021-07-17T15:08:12Z</time>
      </trkpt>
      <trkpt lat="44.43152" lon="1.46061">
        <ele>186.3</ele>
        <time>2021-07-17T15:08:14Z</time>
      </trkpt>
      <trkpt lat="44.43152" lon="1.46062">
        <ele>186.5</ele>
        <time>2021-07-17T15:08:16Z</time>
      </trkpt>
      <trkpt lat="44.43152" lon="1.46062">
        <ele>186.5</ele>
        <time>2021-07-17T15:08:17Z</time>
      </trkpt>
      <trkpt lat="44.43152" lon="1.46063">
        <ele>186.5</ele>
        <time>2021-07-17T15:08:18Z</time>
      </trkpt>
      <trkpt lat="44.43151" lon="1.46064">
        <ele>186.7</ele>
        <time>2021-07-17T15:08:20Z</time>
      </trkpt>
      <trkpt lat="44.43149" lon="1.46066">
        <ele>187</ele>
        <time>2021-07-17T15:08:21Z</time>
      </trkpt>
      <trkpt lat="44.43148" lon="1.46067">
        <ele>187.2</ele>
        <time>2021-07-17T15:08:22Z</time>
      </trkpt>
      <trkpt lat="44.43147" lon="1.46068">
        <ele>187.4</ele>
        <time>2021-07-17T15:08:23Z</time>
      </trkpt>
      <trkpt lat="44.43145" lon="1.46071">
        <ele>187.9</ele>
        <time>2021-07-17T15:08:25Z</time>
      </trkpt>
      <trkpt lat="44.43144" lon="1.46073">
        <ele>188.1</ele>
        <time>2021-07-17T15:08:26Z</time>
      </trkpt>
      <trkpt lat="44.43144" lon="1.46074">
        <ele>188.2</ele>
        <time>2021-07-17T15:08:28Z</time>
      </trkpt>
      <trkpt lat="44.43143" lon="1.46075">
        <ele>188.3</ele>
        <time>2021-07-17T15:08:29Z</time>
      </trkpt>
      <trkpt lat="44.43139" lon="1.46079">
        <ele>189.1</ele>
        <time>2021-07-17T15:08:30Z</time>
      </trkpt>
      <trkpt lat="44.43135" lon="1.46083">
        <ele>189.7</ele>
        <time>2021-07-17T15:08:34Z</time>
      </trkpt>
      <trkpt lat="44.43132" lon="1.46087">
        <ele>190.3</ele>
        <time>2021-07-17T15:08:35Z</time>
      </trkpt>
      <trkpt lat="44.43131" lon="1.46089">
        <ele>190.6</ele>
        <time>2021-07-17T15:08:37Z</time>
      </trkpt>
      <trkpt lat="44.4313" lon="1.46091">
        <ele>190.7</ele>
        <time>2021-07-17T15:08:38Z</time>
      </trkpt>
      <trkpt lat="44.43129" lon="1.46092">
        <ele>190.9</ele>
        <time>2021-07-17T15:08:39Z</time>
      </trkpt>
      <trkpt lat="44.43127" lon="1.46094">
        <ele>191.2</ele>
        <time>2021-07-17T15:08:41Z</time>
      </trkpt>
      <trkpt lat="44.43125" lon="1.46096">
        <ele>191.5</ele>
        <time>2021-07-17T15:08:43Z</time>
      </trkpt>
      <trkpt lat="44.43124" lon="1.46097">
        <ele>191.7</ele>
        <time>2021-07-17T15:08:44Z</time>
      </trkpt>
      <trkpt lat="44.43123" lon="1.461">
        <ele>192</ele>
        <time>2021-07-17T15:08:46Z</time>
      </trkpt>
      <trkpt lat="44.43122" lon="1.46101">
        <ele>192.2</ele>
        <time>2021-07-17T15:08:48Z</time>
      </trkpt>
      <trkpt lat="44.43122" lon="1.46102">
        <ele>192.3</ele>
        <time>2021-07-17T15:08:49Z</time>
      </trkpt>
      <trkpt lat="44.43121" lon="1.46103">
        <ele>192.5</ele>
        <time>2021-07-17T15:08:50Z</time>
      </trkpt>
      <trkpt lat="44.43119" lon="1.46105">
        <ele>192.8</ele>
        <time>2021-07-17T15:08:52Z</time>
      </trkpt>
      <trkpt lat="44.43118" lon="1.46107">
        <ele>193</ele>
        <time>2021-07-17T15:08:53Z</time>
      </trkpt>
      <trkpt lat="44.43117" lon="1.46109">
        <ele>193.3</ele>
        <time>2021-07-17T15:08:54Z</time>
      </trkpt>
      <trkpt lat="44.43115" lon="1.46112">
        <ele>193.6</ele>
        <time>2021-07-17T15:08:56Z</time>
      </trkpt>
      <trkpt lat="44.43114" lon="1.46115">
        <ele>193.9</ele>
        <time>2021-07-17T15:08:58Z</time>
      </trkpt>
      <trkpt lat="44.43113" lon="1.46116">
        <ele>194.1</ele>
        <time>2021-07-17T15:08:59Z</time>
      </trkpt>
      <trkpt lat="44.43112" lon="1.46117">
        <ele>194.3</ele>
        <time>2021-07-17T15:09:00Z</time>
      </trkpt>
      <trkpt lat="44.4311" lon="1.46119">
        <ele>194.6</ele>
        <time>2021-07-17T15:09:02Z</time>
      </trkpt>
      <trkpt lat="44.43109" lon="1.4612">
        <ele>194.7</ele>
        <time>2021-07-17T15:09:03Z</time>
      </trkpt>
      <trkpt lat="44.43108" lon="1.4612">
        <ele>194.9</ele>
        <time>2021-07-17T15:09:04Z</time>
      </trkpt>
      <trkpt lat="44.43107" lon="1.46122">
        <ele>195.2</ele>
        <time>2021-07-17T15:09:06Z</time>
      </trkpt>
      <trkpt lat="44.43106" lon="1.46123">
        <ele>195.3</ele>
        <time>2021-07-17T15:09:07Z</time>
      </trkpt>
      <trkpt lat="44.43105" lon="1.46124">
        <ele>195.4</ele>
        <time>2021-07-17T15:09:08Z</time>
      </trkpt>
      <trkpt lat="44.43104" lon="1.46127">
        <ele>195.8</ele>
        <time>2021-07-17T15:09:11Z</time>
      </trkpt>
      <trkpt lat="44.43104" lon="1.46127">
        <ele>195.8</ele>
        <time>2021-07-17T15:09:12Z</time>
      </trkpt>
      <trkpt lat="44.43103" lon="1.46127">
        <ele>195.8</ele>
        <time>2021-07-17T15:09:13Z</time>
      </trkpt>
      <trkpt lat="44.43103" lon="1.46127">
        <ele>195.9</ele>
        <time>2021-07-17T15:09:15Z</time>
      </trkpt>
      <trkpt lat="44.43102" lon="1.4613">
        <ele>196.2</ele>
        <time>2021-07-17T15:09:17Z</time>
      </trkpt>
      <trkpt lat="44.431" lon="1.46133">
        <ele>196.5</ele>
        <time>2021-07-17T15:09:18Z</time>
      </trkpt>
      <trkpt lat="44.43099" lon="1.46134">
        <ele>196.7</ele>
        <time>2021-07-17T15:09:20Z</time>
      </trkpt>
      <trkpt lat="44.43098" lon="1.46135">
        <ele>196.9</ele>
        <time>2021-07-17T15:09:21Z</time>
      </trkpt>
      <trkpt lat="44.43096" lon="1.46139">
        <ele>197.3</ele>
        <time>2021-07-17T15:09:22Z</time>
      </trkpt>
      <trkpt lat="44.43095" lon="1.4614">
        <ele>197.4</ele>
        <time>2021-07-17T15:09:23Z</time>
      </trkpt>
      <trkpt lat="44.43094" lon="1.46142">
        <ele>197.7</ele>
        <time>2021-07-17T15:09:24Z</time>
      </trkpt>
      <trkpt lat="44.43093" lon="1.46145">
        <ele>198</ele>
        <time>2021-07-17T15:09:26Z</time>
      </trkpt>
      <trkpt lat="44.43092" lon="1.46146">
        <ele>198.1</ele>
        <time>2021-07-17T15:09:28Z</time>
      </trkpt>
      <trkpt lat="44.43092" lon="1.46147">
        <ele>198.3</ele>
        <time>2021-07-17T15:09:29Z</time>
      </trkpt>
      <trkpt lat="44.4309" lon="1.4615">
        <ele>198.6</ele>
        <time>2021-07-17T15:09:31Z</time>
      </trkpt>
      <trkpt lat="44.43088" lon="1.46153">
        <ele>199</ele>
        <time>2021-07-17T15:09:32Z</time>
      </trkpt>
      <trkpt lat="44.43087" lon="1.46154">
        <ele>199.1</ele>
        <time>2021-07-17T15:09:33Z</time>
      </trkpt>
      <trkpt lat="44.43084" lon="1.46158">
        <ele>199.5</ele>
        <time>2021-07-17T15:09:35Z</time>
      </trkpt>
      <trkpt lat="44.43083" lon="1.46159">
        <ele>199.6</ele>
        <time>2021-07-17T15:09:36Z</time>
      </trkpt>
      <trkpt lat="44.43081" lon="1.46162">
        <ele>199.9</ele>
        <time>2021-07-17T15:09:37Z</time>
      </trkpt>
      <trkpt lat="44.4308" lon="1.46164">
        <ele>200.2</ele>
        <time>2021-07-17T15:09:38Z</time>
      </trkpt>
      <trkpt lat="44.43079" lon="1.46167">
        <ele>200.5</ele>
        <time>2021-07-17T15:09:40Z</time>
      </trkpt>
      <trkpt lat="44.43078" lon="1.46169">
        <ele>200.7</ele>
        <time>2021-07-17T15:09:41Z</time>
      </trkpt>
      <trkpt lat="44.43077" lon="1.46171">
        <ele>200.9</ele>
        <time>2021-07-17T15:09:42Z</time>
      </trkpt>
      <trkpt lat="44.43075" lon="1.46175">
        <ele>201.2</ele>
        <time>2021-07-17T15:09:44Z</time>
      </trkpt>
      <trkpt lat="44.43074" lon="1.46176">
        <ele>201.3</ele>
        <time>2021-07-17T15:09:45Z</time>
      </trkpt>
      <trkpt lat="44.43074" lon="1.46178">
        <ele>201.5</ele>
        <time>2021-07-17T15:09:46Z</time>
      </trkpt>
      <trkpt lat="44.43073" lon="1.46179">
        <ele>201.6</ele>
        <time>2021-07-17T15:09:47Z</time>
      </trkpt>
      <trkpt lat="44.43073" lon="1.4618">
        <ele>201.7</ele>
        <time>2021-07-17T15:09:48Z</time>
      </trkpt>
      <trkpt lat="44.43072" lon="1.46181">
        <ele>201.8</ele>
        <time>2021-07-17T15:09:49Z</time>
      </trkpt>
      <trkpt lat="44.4307" lon="1.46184">
        <ele>202.2</ele>
        <time>2021-07-17T15:09:51Z</time>
      </trkpt>
      <trkpt lat="44.43069" lon="1.46186">
        <ele>202.4</ele>
        <time>2021-07-17T15:09:52Z</time>
      </trkpt>
      <trkpt lat="44.43068" lon="1.46188">
        <ele>202.6</ele>
        <time>2021-07-17T15:09:53Z</time>
      </trkpt>
      <trkpt lat="44.43066" lon="1.46192">
        <ele>203</ele>
        <time>2021-07-17T15:09:55Z</time>
      </trkpt>
      <trkpt lat="44.43066" lon="1.46193">
        <ele>203.1</ele>
        <time>2021-07-17T15:09:56Z</time>
      </trkpt>
      <trkpt lat="44.43065" lon="1.46196">
        <ele>203.4</ele>
        <time>2021-07-17T15:09:57Z</time>
      </trkpt>
      <trkpt lat="44.43064" lon="1.46197">
        <ele>203.5</ele>
        <time>2021-07-17T15:09:58Z</time>
      </trkpt>
      <trkpt lat="44.43063" lon="1.46202">
        <ele>203.9</ele>
        <time>2021-07-17T15:10:00Z</time>
      </trkpt>
      <trkpt lat="44.43062" lon="1.46203">
        <ele>204.1</ele>
        <time>2021-07-17T15:10:01Z</time>
      </trkpt>
      <trkpt lat="44.43061" lon="1.46204">
        <ele>204.2</ele>
        <time>2021-07-17T15:10:02Z</time>
      </trkpt>
      <trkpt lat="44.43061" lon="1.46207">
        <ele>204.4</ele>
        <time>2021-07-17T15:10:04Z</time>
      </trkpt>
      <trkpt lat="44.4306" lon="1.46208">
        <ele>204.6</ele>
        <time>2021-07-17T15:10:05Z</time>
      </trkpt>
      <trkpt lat="44.4306" lon="1.4621">
        <ele>204.7</ele>
        <time>2021-07-17T15:10:06Z</time>
      </trkpt>
      <trkpt lat="44.43059" lon="1.46214">
        <ele>205.1</ele>
        <time>2021-07-17T15:10:08Z</time>
      </trkpt>
      <trkpt lat="44.43058" lon="1.46218">
        <ele>205.5</ele>
        <time>2021-07-17T15:10:10Z</time>
      </trkpt>
      <trkpt lat="44.43057" lon="1.4622">
        <ele>205.6</ele>
        <time>2021-07-17T15:10:11Z</time>
      </trkpt>
      <trkpt lat="44.43056" lon="1.46223">
        <ele>205.9</ele>
        <time>2021-07-17T15:10:13Z</time>
      </trkpt>
      <trkpt lat="44.43055" lon="1.46224">
        <ele>206.1</ele>
        <time>2021-07-17T15:10:14Z</time>
      </trkpt>
      <trkpt lat="44.43053" lon="1.46226">
        <ele>206.3</ele>
        <time>2021-07-17T15:10:16Z</time>
      </trkpt>
      <trkpt lat="44.43052" lon="1.46228">
        <ele>206.5</ele>
        <time>2021-07-17T15:10:17Z</time>
      </trkpt>
      <trkpt lat="44.43051" lon="1.4623">
        <ele>206.7</ele>
        <time>2021-07-17T15:10:19Z</time>
      </trkpt>
      <trkpt lat="44.43051" lon="1.46233">
        <ele>206.9</ele>
        <time>2021-07-17T15:10:20Z</time>
      </trkpt>
      <trkpt lat="44.43049" lon="1.46235">
        <ele>207.2</ele>
        <time>2021-07-17T15:10:22Z</time>
      </trkpt>
      <trkpt lat="44.43049" lon="1.46237">
        <ele>207.3</ele>
        <time>2021-07-17T15:10:23Z</time>
      </trkpt>
      <trkpt lat="44.43049" lon="1.46239">
        <ele>207.4</ele>
        <time>2021-07-17T15:10:24Z</time>
      </trkpt>
      <trkpt lat="44.43047" lon="1.46243">
        <ele>207.8</ele>
        <time>2021-07-17T15:10:26Z</time>
      </trkpt>
      <trkpt lat="44.43046" lon="1.46246">
        <ele>208.1</ele>
        <time>2021-07-17T15:10:28Z</time>
      </trkpt>
      <trkpt lat="44.43045" lon="1.46246">
        <ele>208.1</ele>
        <time>2021-07-17T15:10:30Z</time>
      </trkpt>
      <trkpt lat="44.43045" lon="1.46247">
        <ele>208.2</ele>
        <time>2021-07-17T15:10:31Z</time>
      </trkpt>
      <trkpt lat="44.43044" lon="1.46248">
        <ele>208.3</ele>
        <time>2021-07-17T15:10:32Z</time>
      </trkpt>
      <trkpt lat="44.43043" lon="1.4625">
        <ele>208.5</ele>
        <time>2021-07-17T15:10:34Z</time>
      </trkpt>
      <trkpt lat="44.43042" lon="1.46253">
        <ele>208.7</ele>
        <time>2021-07-17T15:10:35Z</time>
      </trkpt>
      <trkpt lat="44.43041" lon="1.46254">
        <ele>208.9</ele>
        <time>2021-07-17T15:10:36Z</time>
      </trkpt>
      <trkpt lat="44.4304" lon="1.46256">
        <ele>209.1</ele>
        <time>2021-07-17T15:10:38Z</time>
      </trkpt>
      <trkpt lat="44.4304" lon="1.46258">
        <ele>209.3</ele>
        <time>2021-07-17T15:10:39Z</time>
      </trkpt>
      <trkpt lat="44.43039" lon="1.4626">
        <ele>209.4</ele>
        <time>2021-07-17T15:10:41Z</time>
      </trkpt>
      <trkpt lat="44.43039" lon="1.46263">
        <ele>209.7</ele>
        <time>2021-07-17T15:10:42Z</time>
      </trkpt>
      <trkpt lat="44.43039" lon="1.46264">
        <ele>209.8</ele>
        <time>2021-07-17T15:10:43Z</time>
      </trkpt>
      <trkpt lat="44.43038" lon="1.46266">
        <ele>209.9</ele>
        <time>2021-07-17T15:10:44Z</time>
      </trkpt>
      <trkpt lat="44.43037" lon="1.4627">
        <ele>210.3</ele>
        <time>2021-07-17T15:10:46Z</time>
      </trkpt>
      <trkpt lat="44.43036" lon="1.46271">
        <ele>210.4</ele>
        <time>2021-07-17T15:10:47Z</time>
      </trkpt>
      <trkpt lat="44.43036" lon="1.46272">
        <ele>210.5</ele>
        <time>2021-07-17T15:10:48Z</time>
      </trkpt>
      <trkpt lat="44.43035" lon="1.46276">
        <ele>210.9</ele>
        <time>2021-07-17T15:10:50Z</time>
      </trkpt>
      <trkpt lat="44.43034" lon="1.4628">
        <ele>211.2</ele>
        <time>2021-07-17T15:10:52Z</time>
      </trkpt>
      <trkpt lat="44.43033" lon="1.46282">
        <ele>211.4</ele>
        <time>2021-07-17T15:10:53Z</time>
      </trkpt>
      <trkpt lat="44.43032" lon="1.46285">
        <ele>211.7</ele>
        <time>2021-07-17T15:10:55Z</time>
      </trkpt>
      <trkpt lat="44.43031" lon="1.46288">
        <ele>211.9</ele>
        <time>2021-07-17T15:10:56Z</time>
      </trkpt>
      <trkpt lat="44.43031" lon="1.4629">
        <ele>212.1</ele>
        <time>2021-07-17T15:10:57Z</time>
      </trkpt>
      <trkpt lat="44.43031" lon="1.46292">
        <ele>212.3</ele>
        <time>2021-07-17T15:10:59Z</time>
      </trkpt>
      <trkpt lat="44.4303" lon="1.46293">
        <ele>212.4</ele>
        <time>2021-07-17T15:11:00Z</time>
      </trkpt>
      <trkpt lat="44.43029" lon="1.46297">
        <ele>212.8</ele>
        <time>2021-07-17T15:11:02Z</time>
      </trkpt>
      <trkpt lat="44.43029" lon="1.463">
        <ele>213</ele>
        <time>2021-07-17T15:11:03Z</time>
      </trkpt>
      <trkpt lat="44.43028" lon="1.46302">
        <ele>213.2</ele>
        <time>2021-07-17T15:11:05Z</time>
      </trkpt>
      <trkpt lat="44.43027" lon="1.46305">
        <ele>213.5</ele>
        <time>2021-07-17T15:11:06Z</time>
      </trkpt>
      <trkpt lat="44.43026" lon="1.46308">
        <ele>213.8</ele>
        <time>2021-07-17T15:11:08Z</time>
      </trkpt>
      <trkpt lat="44.43026" lon="1.46311">
        <ele>214</ele>
        <time>2021-07-17T15:11:09Z</time>
      </trkpt>
      <trkpt lat="44.43025" lon="1.46314">
        <ele>214.3</ele>
        <time>2021-07-17T15:11:11Z</time>
      </trkpt>
      <trkpt lat="44.43025" lon="1.46316">
        <ele>214.5</ele>
        <time>2021-07-17T15:11:12Z</time>
      </trkpt>
      <trkpt lat="44.43024" lon="1.46317">
        <ele>214.6</ele>
        <time>2021-07-17T15:11:13Z</time>
      </trkpt>
      <trkpt lat="44.43024" lon="1.4632">
        <ele>214.8</ele>
        <time>2021-07-17T15:11:14Z</time>
      </trkpt>
      <trkpt lat="44.43023" lon="1.46322">
        <ele>215</ele>
        <time>2021-07-17T15:11:15Z</time>
      </trkpt>
      <trkpt lat="44.43022" lon="1.46324">
        <ele>215.3</ele>
        <time>2021-07-17T15:11:16Z</time>
      </trkpt>
      <trkpt lat="44.43022" lon="1.46326">
        <ele>215.4</ele>
        <time>2021-07-17T15:11:18Z</time>
      </trkpt>
      <trkpt lat="44.43021" lon="1.46327">
        <ele>215.5</ele>
        <time>2021-07-17T15:11:19Z</time>
      </trkpt>
      <trkpt lat="44.43021" lon="1.4633">
        <ele>215.8</ele>
        <time>2021-07-17T15:11:20Z</time>
      </trkpt>
      <trkpt lat="44.4302" lon="1.46331">
        <ele>215.9</ele>
        <time>2021-07-17T15:11:21Z</time>
      </trkpt>
      <trkpt lat="44.4302" lon="1.46333">
        <ele>216.1</ele>
        <time>2021-07-17T15:11:23Z</time>
      </trkpt>
      <trkpt lat="44.43019" lon="1.46335">
        <ele>216.3</ele>
        <time>2021-07-17T15:11:24Z</time>
      </trkpt>
      <trkpt lat="44.43019" lon="1.46338">
        <ele>216.6</ele>
        <time>2021-07-17T15:11:25Z</time>
      </trkpt>
      <trkpt lat="44.43019" lon="1.4634">
        <ele>216.7</ele>
        <time>2021-07-17T15:11:26Z</time>
      </trkpt>
      <trkpt lat="44.43018" lon="1.46343">
        <ele>217</ele>
        <time>2021-07-17T15:11:28Z</time>
      </trkpt>
      <trkpt lat="44.43017" lon="1.46344">
        <ele>217.2</ele>
        <time>2021-07-17T15:11:29Z</time>
      </trkpt>
      <trkpt lat="44.43017" lon="1.46347">
        <ele>217.4</ele>
        <time>2021-07-17T15:11:30Z</time>
      </trkpt>
      <trkpt lat="44.43016" lon="1.46349">
        <ele>217.6</ele>
        <time>2021-07-17T15:11:32Z</time>
      </trkpt>
      <trkpt lat="44.43016" lon="1.46351">
        <ele>217.8</ele>
        <time>2021-07-17T15:11:33Z</time>
      </trkpt>
      <trkpt lat="44.43016" lon="1.46354">
        <ele>218</ele>
        <time>2021-07-17T15:11:34Z</time>
      </trkpt>
      <trkpt lat="44.43015" lon="1.46356">
        <ele>218.3</ele>
        <time>2021-07-17T15:11:35Z</time>
      </trkpt>
      <trkpt lat="44.43015" lon="1.46357">
        <ele>218.4</ele>
        <time>2021-07-17T15:11:36Z</time>
      </trkpt>
      <trkpt lat="44.43013" lon="1.46362">
        <ele>218.9</ele>
        <time>2021-07-17T15:11:38Z</time>
      </trkpt>
      <trkpt lat="44.43013" lon="1.46363">
        <ele>219</ele>
        <time>2021-07-17T15:11:39Z</time>
      </trkpt>
      <trkpt lat="44.43013" lon="1.46366">
        <ele>219.4</ele>
        <time>2021-07-17T15:11:40Z</time>
      </trkpt>
      <trkpt lat="44.43013" lon="1.46368">
        <ele>219.5</ele>
        <time>2021-07-17T15:11:41Z</time>
      </trkpt>
      <trkpt lat="44.43012" lon="1.46369">
        <ele>219.6</ele>
        <time>2021-07-17T15:11:42Z</time>
      </trkpt>
      <trkpt lat="44.43012" lon="1.46371">
        <ele>219.8</ele>
        <time>2021-07-17T15:11:44Z</time>
      </trkpt>
      <trkpt lat="44.43011" lon="1.46373">
        <ele>220</ele>
        <time>2021-07-17T15:11:45Z</time>
      </trkpt>
      <trkpt lat="44.4301" lon="1.46376">
        <ele>220.4</ele>
        <time>2021-07-17T15:11:46Z</time>
      </trkpt>
      <trkpt lat="44.4301" lon="1.46377">
        <ele>220.5</ele>
        <time>2021-07-17T15:11:47Z</time>
      </trkpt>
      <trkpt lat="44.43009" lon="1.46381">
        <ele>220.9</ele>
        <time>2021-07-17T15:11:49Z</time>
      </trkpt>
      <trkpt lat="44.43008" lon="1.46384">
        <ele>221.3</ele>
        <time>2021-07-17T15:11:51Z</time>
      </trkpt>
      <trkpt lat="44.43007" lon="1.46386">
        <ele>221.6</ele>
        <time>2021-07-17T15:11:52Z</time>
      </trkpt>
      <trkpt lat="44.43007" lon="1.46388">
        <ele>221.8</ele>
        <time>2021-07-17T15:11:53Z</time>
      </trkpt>
      <trkpt lat="44.43006" lon="1.4639">
        <ele>222</ele>
        <time>2021-07-17T15:11:55Z</time>
      </trkpt>
      <trkpt lat="44.43006" lon="1.46392">
        <ele>222.2</ele>
        <time>2021-07-17T15:11:56Z</time>
      </trkpt>
      <trkpt lat="44.43005" lon="1.46395">
        <ele>222.5</ele>
        <time>2021-07-17T15:11:57Z</time>
      </trkpt>
      <trkpt lat="44.43005" lon="1.46397">
        <ele>222.7</ele>
        <time>2021-07-17T15:11:58Z</time>
      </trkpt>
      <trkpt lat="44.43004" lon="1.46399">
        <ele>222.9</ele>
        <time>2021-07-17T15:11:59Z</time>
      </trkpt>
      <trkpt lat="44.43004" lon="1.46401">
        <ele>223.2</ele>
        <time>2021-07-17T15:12:00Z</time>
      </trkpt>
      <trkpt lat="44.43003" lon="1.46405">
        <ele>223.6</ele>
        <time>2021-07-17T15:12:02Z</time>
      </trkpt>
      <trkpt lat="44.43003" lon="1.46406">
        <ele>223.8</ele>
        <time>2021-07-17T15:12:03Z</time>
      </trkpt>
      <trkpt lat="44.43003" lon="1.46409">
        <ele>224.1</ele>
        <time>2021-07-17T15:12:04Z</time>
      </trkpt>
      <trkpt lat="44.43002" lon="1.46411">
        <ele>224.3</ele>
        <time>2021-07-17T15:12:05Z</time>
      </trkpt>
      <trkpt lat="44.43002" lon="1.46413">
        <ele>224.5</ele>
        <time>2021-07-17T15:12:06Z</time>
      </trkpt>
      <trkpt lat="44.43001" lon="1.46416">
        <ele>224.9</ele>
        <time>2021-07-17T15:12:07Z</time>
      </trkpt>
      <trkpt lat="44.43" lon="1.46418">
        <ele>225.1</ele>
        <time>2021-07-17T15:12:08Z</time>
      </trkpt>
      <trkpt lat="44.42999" lon="1.46421">
        <ele>225.4</ele>
        <time>2021-07-17T15:12:10Z</time>
      </trkpt>
      <trkpt lat="44.42999" lon="1.46425">
        <ele>225.8</ele>
        <time>2021-07-17T15:12:11Z</time>
      </trkpt>
      <trkpt lat="44.42998" lon="1.46426">
        <ele>226</ele>
        <time>2021-07-17T15:12:12Z</time>
      </trkpt>
      <trkpt lat="44.42998" lon="1.46428">
        <ele>226.2</ele>
        <time>2021-07-17T15:12:13Z</time>
      </trkpt>
      <trkpt lat="44.42998" lon="1.46432">
        <ele>226.6</ele>
        <time>2021-07-17T15:12:15Z</time>
      </trkpt>
      <trkpt lat="44.42998" lon="1.46434">
        <ele>226.9</ele>
        <time>2021-07-17T15:12:16Z</time>
      </trkpt>
      <trkpt lat="44.42996" lon="1.46438">
        <ele>227.3</ele>
        <time>2021-07-17T15:12:18Z</time>
      </trkpt>
      <trkpt lat="44.42995" lon="1.4644">
        <ele>227.6</ele>
        <time>2021-07-17T15:12:19Z</time>
      </trkpt>
      <trkpt lat="44.42995" lon="1.46443">
        <ele>227.9</ele>
        <time>2021-07-17T15:12:21Z</time>
      </trkpt>
      <trkpt lat="44.42994" lon="1.46447">
        <ele>228.3</ele>
        <time>2021-07-17T15:12:22Z</time>
      </trkpt>
      <trkpt lat="44.42993" lon="1.46448">
        <ele>228.5</ele>
        <time>2021-07-17T15:12:23Z</time>
      </trkpt>
      <trkpt lat="44.42993" lon="1.46449">
        <ele>228.6</ele>
        <time>2021-07-17T15:12:24Z</time>
      </trkpt>
      <trkpt lat="44.42992" lon="1.46451">
        <ele>228.8</ele>
        <time>2021-07-17T15:12:25Z</time>
      </trkpt>
      <trkpt lat="44.42992" lon="1.46453">
        <ele>229</ele>
        <time>2021-07-17T15:12:26Z</time>
      </trkpt>
      <trkpt lat="44.42992" lon="1.46455">
        <ele>229.2</ele>
        <time>2021-07-17T15:12:27Z</time>
      </trkpt>
      <trkpt lat="44.42992" lon="1.46458">
        <ele>229.5</ele>
        <time>2021-07-17T15:12:29Z</time>
      </trkpt>
      <trkpt lat="44.42992" lon="1.4646">
        <ele>229.7</ele>
        <time>2021-07-17T15:12:30Z</time>
      </trkpt>
      <trkpt lat="44.42991" lon="1.46463">
        <ele>230</ele>
        <time>2021-07-17T15:12:31Z</time>
      </trkpt>
      <trkpt lat="44.42991" lon="1.46465">
        <ele>230.2</ele>
        <time>2021-07-17T15:12:32Z</time>
      </trkpt>
      <trkpt lat="44.42991" lon="1.46467">
        <ele>230.4</ele>
        <time>2021-07-17T15:12:33Z</time>
      </trkpt>
      <trkpt lat="44.4299" lon="1.46469">
        <ele>230.7</ele>
        <time>2021-07-17T15:12:35Z</time>
      </trkpt>
      <trkpt lat="44.4299" lon="1.46472">
        <ele>230.9</ele>
        <time>2021-07-17T15:12:36Z</time>
      </trkpt>
      <trkpt lat="44.42989" lon="1.46474">
        <ele>231.2</ele>
        <time>2021-07-17T15:12:37Z</time>
      </trkpt>
      <trkpt lat="44.42988" lon="1.46476">
        <ele>231.5</ele>
        <time>2021-07-17T15:12:38Z</time>
      </trkpt>
      <trkpt lat="44.42987" lon="1.46479">
        <ele>231.8</ele>
        <time>2021-07-17T15:12:40Z</time>
      </trkpt>
      <trkpt lat="44.42987" lon="1.46482">
        <ele>232.1</ele>
        <time>2021-07-17T15:12:42Z</time>
      </trkpt>
      <trkpt lat="44.42986" lon="1.46486">
        <ele>232.5</ele>
        <time>2021-07-17T15:12:43Z</time>
      </trkpt>
      <trkpt lat="44.42985" lon="1.46488">
        <ele>232.7</ele>
        <time>2021-07-17T15:12:44Z</time>
      </trkpt>
      <trkpt lat="44.42985" lon="1.4649">
        <ele>232.9</ele>
        <time>2021-07-17T15:12:45Z</time>
      </trkpt>
      <trkpt lat="44.42984" lon="1.46492">
        <ele>233.1</ele>
        <time>2021-07-17T15:12:46Z</time>
      </trkpt>
      <trkpt lat="44.42983" lon="1.46494">
        <ele>233.4</ele>
        <time>2021-07-17T15:12:47Z</time>
      </trkpt>
      <trkpt lat="44.42983" lon="1.46497">
        <ele>233.6</ele>
        <time>2021-07-17T15:12:49Z</time>
      </trkpt>
      <trkpt lat="44.42982" lon="1.46499">
        <ele>233.9</ele>
        <time>2021-07-17T15:12:50Z</time>
      </trkpt>
      <trkpt lat="44.42981" lon="1.46501">
        <ele>234.1</ele>
        <time>2021-07-17T15:12:51Z</time>
      </trkpt>
      <trkpt lat="44.4298" lon="1.46503">
        <ele>234.3</ele>
        <time>2021-07-17T15:12:52Z</time>
      </trkpt>
      <trkpt lat="44.42979" lon="1.46504">
        <ele>234.5</ele>
        <time>2021-07-17T15:12:53Z</time>
      </trkpt>
      <trkpt lat="44.42979" lon="1.46506">
        <ele>234.7</ele>
        <time>2021-07-17T15:12:54Z</time>
      </trkpt>
      <trkpt lat="44.42979" lon="1.46507">
        <ele>234.8</ele>
        <time>2021-07-17T15:12:56Z</time>
      </trkpt>
      <trkpt lat="44.42979" lon="1.46509">
        <ele>234.9</ele>
        <time>2021-07-17T15:12:57Z</time>
      </trkpt>
      <trkpt lat="44.42978" lon="1.46512">
        <ele>235.1</ele>
        <time>2021-07-17T15:12:58Z</time>
      </trkpt>
      <trkpt lat="44.42977" lon="1.46515">
        <ele>235.5</ele>
        <time>2021-07-17T15:13:00Z</time>
      </trkpt>
      <trkpt lat="44.42976" lon="1.46517">
        <ele>235.6</ele>
        <time>2021-07-17T15:13:01Z</time>
      </trkpt>
      <trkpt lat="44.42976" lon="1.46519">
        <ele>235.8</ele>
        <time>2021-07-17T15:13:02Z</time>
      </trkpt>
      <trkpt lat="44.42973" lon="1.46524">
        <ele>236.3</ele>
        <time>2021-07-17T15:13:04Z</time>
      </trkpt>
      <trkpt lat="44.42972" lon="1.46526">
        <ele>236.5</ele>
        <time>2021-07-17T15:13:06Z</time>
      </trkpt>
      <trkpt lat="44.42971" lon="1.46528">
        <ele>236.7</ele>
        <time>2021-07-17T15:13:07Z</time>
      </trkpt>
      <trkpt lat="44.4297" lon="1.4653">
        <ele>236.9</ele>
        <time>2021-07-17T15:13:08Z</time>
      </trkpt>
      <trkpt lat="44.42969" lon="1.46534">
        <ele>237.2</ele>
        <time>2021-07-17T15:13:10Z</time>
      </trkpt>
      <trkpt lat="44.42967" lon="1.46539">
        <ele>237.5</ele>
        <time>2021-07-17T15:13:12Z</time>
      </trkpt>
      <trkpt lat="44.42967" lon="1.4654">
        <ele>237.7</ele>
        <time>2021-07-17T15:13:13Z</time>
      </trkpt>
      <trkpt lat="44.42967" lon="1.46541">
        <ele>237.7</ele>
        <time>2021-07-17T15:13:14Z</time>
      </trkpt>
      <trkpt lat="44.42965" lon="1.46543">
        <ele>237.9</ele>
        <time>2021-07-17T15:13:16Z</time>
      </trkpt>
      <trkpt lat="44.42965" lon="1.46543">
        <ele>237.9</ele>
        <time>2021-07-17T15:13:17Z</time>
      </trkpt>
      <trkpt lat="44.42965" lon="1.46543">
        <ele>237.9</ele>
        <time>2021-07-17T15:13:19Z</time>
      </trkpt>
      <trkpt lat="44.42965" lon="1.46544">
        <ele>237.9</ele>
        <time>2021-07-17T15:13:21Z</time>
      </trkpt>
      <trkpt lat="44.42965" lon="1.46544">
        <ele>237.9</ele>
        <time>2021-07-17T15:13:23Z</time>
      </trkpt>
      <trkpt lat="44.42965" lon="1.46544">
        <ele>238</ele>
        <time>2021-07-17T15:13:25Z</time>
      </trkpt>
      <trkpt lat="44.42964" lon="1.4655">
        <ele>238.3</ele>
        <time>2021-07-17T15:17:43Z</time>
      </trkpt>
      <trkpt lat="44.42962" lon="1.46553">
        <ele>238.6</ele>
        <time>2021-07-17T15:17:44Z</time>
      </trkpt>
      <trkpt lat="44.42961" lon="1.46557">
        <ele>238.8</ele>
        <time>2021-07-17T15:17:46Z</time>
      </trkpt>
      <trkpt lat="44.42959" lon="1.46559">
        <ele>239</ele>
        <time>2021-07-17T15:17:48Z</time>
      </trkpt>
      <trkpt lat="44.42957" lon="1.46559">
        <ele>239.2</ele>
        <time>2021-07-17T15:17:50Z</time>
      </trkpt>
      <trkpt lat="44.42956" lon="1.46559">
        <ele>239.3</ele>
        <time>2021-07-17T15:17:51Z</time>
      </trkpt>
      <trkpt lat="44.42954" lon="1.46563">
        <ele>239.5</ele>
        <time>2021-07-17T15:17:53Z</time>
      </trkpt>
      <trkpt lat="44.42952" lon="1.46567">
        <ele>239.8</ele>
        <time>2021-07-17T15:17:54Z</time>
      </trkpt>
      <trkpt lat="44.42951" lon="1.46569">
        <ele>239.9</ele>
        <time>2021-07-17T15:17:55Z</time>
      </trkpt>
      <trkpt lat="44.42949" lon="1.46572">
        <ele>240.1</ele>
        <time>2021-07-17T15:17:56Z</time>
      </trkpt>
      <trkpt lat="44.42948" lon="1.46573">
        <ele>240.2</ele>
        <time>2021-07-17T15:17:57Z</time>
      </trkpt>
      <trkpt lat="44.42946" lon="1.46575">
        <ele>240.4</ele>
        <time>2021-07-17T15:17:59Z</time>
      </trkpt>
      <trkpt lat="44.42945" lon="1.46576">
        <ele>240.5</ele>
        <time>2021-07-17T15:18:00Z</time>
      </trkpt>
      <trkpt lat="44.42943" lon="1.46579">
        <ele>240.7</ele>
        <time>2021-07-17T15:18:02Z</time>
      </trkpt>
      <trkpt lat="44.42942" lon="1.4658">
        <ele>240.8</ele>
        <time>2021-07-17T15:18:03Z</time>
      </trkpt>
      <trkpt lat="44.42941" lon="1.46581">
        <ele>240.9</ele>
        <time>2021-07-17T15:18:04Z</time>
      </trkpt>
      <trkpt lat="44.42939" lon="1.46585">
        <ele>241.1</ele>
        <time>2021-07-17T15:18:06Z</time>
      </trkpt>
      <trkpt lat="44.42938" lon="1.46586">
        <ele>241.2</ele>
        <time>2021-07-17T15:18:07Z</time>
      </trkpt>
      <trkpt lat="44.42936" lon="1.46588">
        <ele>241.4</ele>
        <time>2021-07-17T15:18:08Z</time>
      </trkpt>
      <trkpt lat="44.42936" lon="1.46589">
        <ele>241.5</ele>
        <time>2021-07-17T15:18:09Z</time>
      </trkpt>
      <trkpt lat="44.42933" lon="1.46592">
        <ele>241.7</ele>
        <time>2021-07-17T15:18:11Z</time>
      </trkpt>
      <trkpt lat="44.42932" lon="1.46593">
        <ele>241.8</ele>
        <time>2021-07-17T15:18:12Z</time>
      </trkpt>
      <trkpt lat="44.42931" lon="1.46595">
        <ele>241.9</ele>
        <time>2021-07-17T15:18:13Z</time>
      </trkpt>
      <trkpt lat="44.4293" lon="1.46596">
        <ele>242</ele>
        <time>2021-07-17T15:18:14Z</time>
      </trkpt>
      <trkpt lat="44.42929" lon="1.466">
        <ele>242.2</ele>
        <time>2021-07-17T15:18:16Z</time>
      </trkpt>
      <trkpt lat="44.42927" lon="1.46603">
        <ele>242.4</ele>
        <time>2021-07-17T15:18:17Z</time>
      </trkpt>
      <trkpt lat="44.42925" lon="1.46606">
        <ele>242.7</ele>
        <time>2021-07-17T15:18:19Z</time>
      </trkpt>
      <trkpt lat="44.42923" lon="1.4661">
        <ele>242.9</ele>
        <time>2021-07-17T15:18:21Z</time>
      </trkpt>
      <trkpt lat="44.42922" lon="1.46612">
        <ele>243.1</ele>
        <time>2021-07-17T15:18:22Z</time>
      </trkpt>
      <trkpt lat="44.42921" lon="1.46615">
        <ele>243.3</ele>
        <time>2021-07-17T15:18:24Z</time>
      </trkpt>
      <trkpt lat="44.42919" lon="1.46619">
        <ele>243.6</ele>
        <time>2021-07-17T15:18:25Z</time>
      </trkpt>
      <trkpt lat="44.42918" lon="1.4662">
        <ele>243.7</ele>
        <time>2021-07-17T15:18:26Z</time>
      </trkpt>
      <trkpt lat="44.42916" lon="1.46626">
        <ele>244.1</ele>
        <time>2021-07-17T15:18:28Z</time>
      </trkpt>
      <trkpt lat="44.42915" lon="1.46627">
        <ele>244.2</ele>
        <time>2021-07-17T15:18:29Z</time>
      </trkpt>
      <trkpt lat="44.42914" lon="1.46629">
        <ele>244.3</ele>
        <time>2021-07-17T15:18:30Z</time>
      </trkpt>
      <trkpt lat="44.42912" lon="1.46633">
        <ele>244.7</ele>
        <time>2021-07-17T15:18:32Z</time>
      </trkpt>
      <trkpt lat="44.42912" lon="1.46634">
        <ele>244.8</ele>
        <time>2021-07-17T15:18:33Z</time>
      </trkpt>
      <trkpt lat="44.4291" lon="1.46637">
        <ele>245</ele>
        <time>2021-07-17T15:18:34Z</time>
      </trkpt>
      <trkpt lat="44.4291" lon="1.46639">
        <ele>245.2</ele>
        <time>2021-07-17T15:18:36Z</time>
      </trkpt>
      <trkpt lat="44.42908" lon="1.46644">
        <ele>245.5</ele>
        <time>2021-07-17T15:18:37Z</time>
      </trkpt>
      <trkpt lat="44.42907" lon="1.46645">
        <ele>245.7</ele>
        <time>2021-07-17T15:18:38Z</time>
      </trkpt>
      <trkpt lat="44.42907" lon="1.46647">
        <ele>245.8</ele>
        <time>2021-07-17T15:18:39Z</time>
      </trkpt>
      <trkpt lat="44.42905" lon="1.4665">
        <ele>246.1</ele>
        <time>2021-07-17T15:18:41Z</time>
      </trkpt>
      <trkpt lat="44.42904" lon="1.46652">
        <ele>246.2</ele>
        <time>2021-07-17T15:18:42Z</time>
      </trkpt>
      <trkpt lat="44.42903" lon="1.46656">
        <ele>246.6</ele>
        <time>2021-07-17T15:18:44Z</time>
      </trkpt>
      <trkpt lat="44.42902" lon="1.46658">
        <ele>246.8</ele>
        <time>2021-07-17T15:18:45Z</time>
      </trkpt>
      <trkpt lat="44.42901" lon="1.46661">
        <ele>247.1</ele>
        <time>2021-07-17T15:18:47Z</time>
      </trkpt>
      <trkpt lat="44.429" lon="1.46666">
        <ele>247.5</ele>
        <time>2021-07-17T15:18:49Z</time>
      </trkpt>
      <trkpt lat="44.429" lon="1.46668">
        <ele>247.6</ele>
        <time>2021-07-17T15:18:50Z</time>
      </trkpt>
      <trkpt lat="44.429" lon="1.4667">
        <ele>247.8</ele>
        <time>2021-07-17T15:18:51Z</time>
      </trkpt>
      <trkpt lat="44.429" lon="1.46673">
        <ele>248</ele>
        <time>2021-07-17T15:18:52Z</time>
      </trkpt>
      <trkpt lat="44.42899" lon="1.46675">
        <ele>248.2</ele>
        <time>2021-07-17T15:18:54Z</time>
      </trkpt>
      <trkpt lat="44.42899" lon="1.46677">
        <ele>248.3</ele>
        <time>2021-07-17T15:18:55Z</time>
      </trkpt>
      <trkpt lat="44.42898" lon="1.46679">
        <ele>248.5</ele>
        <time>2021-07-17T15:18:56Z</time>
      </trkpt>
      <trkpt lat="44.42897" lon="1.46681">
        <ele>248.7</ele>
        <time>2021-07-17T15:18:57Z</time>
      </trkpt>
      <trkpt lat="44.42895" lon="1.46684">
        <ele>249</ele>
        <time>2021-07-17T15:18:58Z</time>
      </trkpt>
      <trkpt lat="44.42895" lon="1.46685">
        <ele>249.2</ele>
        <time>2021-07-17T15:18:59Z</time>
      </trkpt>
      <trkpt lat="44.42893" lon="1.46688">
        <ele>249.5</ele>
        <time>2021-07-17T15:19:00Z</time>
      </trkpt>
      <trkpt lat="44.42892" lon="1.46689">
        <ele>249.6</ele>
        <time>2021-07-17T15:19:01Z</time>
      </trkpt>
      <trkpt lat="44.42891" lon="1.46693">
        <ele>250</ele>
        <time>2021-07-17T15:19:03Z</time>
      </trkpt>
      <trkpt lat="44.4289" lon="1.46694">
        <ele>250.1</ele>
        <time>2021-07-17T15:19:04Z</time>
      </trkpt>
      <trkpt lat="44.42889" lon="1.46699">
        <ele>250.5</ele>
        <time>2021-07-17T15:19:06Z</time>
      </trkpt>
      <trkpt lat="44.42888" lon="1.467">
        <ele>250.7</ele>
        <time>2021-07-17T15:19:07Z</time>
      </trkpt>
      <trkpt lat="44.42887" lon="1.46702">
        <ele>250.9</ele>
        <time>2021-07-17T15:19:09Z</time>
      </trkpt>
      <trkpt lat="44.42887" lon="1.46704">
        <ele>251</ele>
        <time>2021-07-17T15:19:10Z</time>
      </trkpt>
      <trkpt lat="44.42886" lon="1.46705">
        <ele>251.2</ele>
        <time>2021-07-17T15:19:11Z</time>
      </trkpt>
      <trkpt lat="44.42886" lon="1.46709">
        <ele>251.5</ele>
        <time>2021-07-17T15:19:13Z</time>
      </trkpt>
      <trkpt lat="44.42886" lon="1.46713">
        <ele>251.9</ele>
        <time>2021-07-17T15:19:15Z</time>
      </trkpt>
      <trkpt lat="44.42886" lon="1.46715">
        <ele>252.1</ele>
        <time>2021-07-17T15:19:16Z</time>
      </trkpt>
      <trkpt lat="44.42886" lon="1.46717">
        <ele>252.3</ele>
        <time>2021-07-17T15:19:17Z</time>
      </trkpt>
      <trkpt lat="44.42886" lon="1.46719">
        <ele>252.4</ele>
        <time>2021-07-17T15:19:18Z</time>
      </trkpt>
      <trkpt lat="44.42884" lon="1.46723">
        <ele>252.8</ele>
        <time>2021-07-17T15:19:20Z</time>
      </trkpt>
      <trkpt lat="44.42884" lon="1.46725">
        <ele>253</ele>
        <time>2021-07-17T15:19:21Z</time>
      </trkpt>
      <trkpt lat="44.42883" lon="1.46728">
        <ele>253.3</ele>
        <time>2021-07-17T15:19:23Z</time>
      </trkpt>
      <trkpt lat="44.42883" lon="1.46731">
        <ele>253.5</ele>
        <time>2021-07-17T15:19:24Z</time>
      </trkpt>
      <trkpt lat="44.42882" lon="1.46733">
        <ele>253.7</ele>
        <time>2021-07-17T15:19:25Z</time>
      </trkpt>
      <trkpt lat="44.42882" lon="1.46733">
        <ele>253.8</ele>
        <time>2021-07-17T15:19:27Z</time>
      </trkpt>
      <trkpt lat="44.42882" lon="1.46734">
        <ele>253.8</ele>
        <time>2021-07-17T15:19:28Z</time>
      </trkpt>
      <trkpt lat="44.42882" lon="1.46735">
        <ele>254</ele>
        <time>2021-07-17T15:19:29Z</time>
      </trkpt>
      <trkpt lat="44.42881" lon="1.46739">
        <ele>254.3</ele>
        <time>2021-07-17T15:19:31Z</time>
      </trkpt>
      <trkpt lat="44.42881" lon="1.46741">
        <ele>254.5</ele>
        <time>2021-07-17T15:19:32Z</time>
      </trkpt>
      <trkpt lat="44.4288" lon="1.46744">
        <ele>254.7</ele>
        <time>2021-07-17T15:19:33Z</time>
      </trkpt>
      <trkpt lat="44.4288" lon="1.46746">
        <ele>254.9</ele>
        <time>2021-07-17T15:19:34Z</time>
      </trkpt>
      <trkpt lat="44.4288" lon="1.4675">
        <ele>255.2</ele>
        <time>2021-07-17T15:19:36Z</time>
      </trkpt>
      <trkpt lat="44.4288" lon="1.46754">
        <ele>255.5</ele>
        <time>2021-07-17T15:19:37Z</time>
      </trkpt>
      <trkpt lat="44.4288" lon="1.46755">
        <ele>255.6</ele>
        <time>2021-07-17T15:19:38Z</time>
      </trkpt>
      <trkpt lat="44.4288" lon="1.46758">
        <ele>255.8</ele>
        <time>2021-07-17T15:19:39Z</time>
      </trkpt>
      <trkpt lat="44.42881" lon="1.46761">
        <ele>256</ele>
        <time>2021-07-17T15:19:41Z</time>
      </trkpt>
      <trkpt lat="44.42881" lon="1.46765">
        <ele>256.3</ele>
        <time>2021-07-17T15:19:42Z</time>
      </trkpt>
      <trkpt lat="44.42882" lon="1.46771">
        <ele>256.7</ele>
        <time>2021-07-17T15:19:44Z</time>
      </trkpt>
      <trkpt lat="44.42881" lon="1.46773">
        <ele>256.9</ele>
        <time>2021-07-17T15:19:45Z</time>
      </trkpt>
      <trkpt lat="44.42881" lon="1.46775">
        <ele>257</ele>
        <time>2021-07-17T15:19:46Z</time>
      </trkpt>
      <trkpt lat="44.4288" lon="1.46778">
        <ele>257.3</ele>
        <time>2021-07-17T15:19:48Z</time>
      </trkpt>
      <trkpt lat="44.4288" lon="1.46781">
        <ele>257.5</ele>
        <time>2021-07-17T15:19:50Z</time>
      </trkpt>
      <trkpt lat="44.4288" lon="1.46784">
        <ele>257.6</ele>
        <time>2021-07-17T15:19:51Z</time>
      </trkpt>
      <trkpt lat="44.42879" lon="1.46787">
        <ele>257.8</ele>
        <time>2021-07-17T15:19:53Z</time>
      </trkpt>
      <trkpt lat="44.42879" lon="1.46789">
        <ele>258</ele>
        <time>2021-07-17T15:19:54Z</time>
      </trkpt>
      <trkpt lat="44.42879" lon="1.46794">
        <ele>258.3</ele>
        <time>2021-07-17T15:19:56Z</time>
      </trkpt>
      <trkpt lat="44.42878" lon="1.46797">
        <ele>258.5</ele>
        <time>2021-07-17T15:19:58Z</time>
      </trkpt>
      <trkpt lat="44.42878" lon="1.46798">
        <ele>258.6</ele>
        <time>2021-07-17T15:19:59Z</time>
      </trkpt>
      <trkpt lat="44.42877" lon="1.468">
        <ele>258.7</ele>
        <time>2021-07-17T15:20:00Z</time>
      </trkpt>
      <trkpt lat="44.42877" lon="1.46801">
        <ele>258.8</ele>
        <time>2021-07-17T15:20:02Z</time>
      </trkpt>
      <trkpt lat="44.42876" lon="1.46806">
        <ele>259.1</ele>
        <time>2021-07-17T15:20:04Z</time>
      </trkpt>
      <trkpt lat="44.42875" lon="1.46812">
        <ele>259.4</ele>
        <time>2021-07-17T15:20:06Z</time>
      </trkpt>
      <trkpt lat="44.42875" lon="1.46814">
        <ele>259.5</ele>
        <time>2021-07-17T15:20:07Z</time>
      </trkpt>
      <trkpt lat="44.42875" lon="1.46817">
        <ele>259.7</ele>
        <time>2021-07-17T15:20:09Z</time>
      </trkpt>
      <trkpt lat="44.42875" lon="1.46822">
        <ele>260</ele>
        <time>2021-07-17T15:20:10Z</time>
      </trkpt>
      <trkpt lat="44.42874" lon="1.46823">
        <ele>260</ele>
        <time>2021-07-17T15:20:11Z</time>
      </trkpt>
      <trkpt lat="44.42874" lon="1.46827">
        <ele>260.2</ele>
        <time>2021-07-17T15:20:13Z</time>
      </trkpt>
      <trkpt lat="44.42874" lon="1.46829">
        <ele>260.3</ele>
        <time>2021-07-17T15:20:14Z</time>
      </trkpt>
      <trkpt lat="44.42873" lon="1.46831">
        <ele>260.4</ele>
        <time>2021-07-17T15:20:15Z</time>
      </trkpt>
      <trkpt lat="44.42873" lon="1.46834">
        <ele>260.6</ele>
        <time>2021-07-17T15:20:16Z</time>
      </trkpt>
      <trkpt lat="44.42872" lon="1.46837">
        <ele>260.8</ele>
        <time>2021-07-17T15:20:18Z</time>
      </trkpt>
      <trkpt lat="44.42872" lon="1.46842">
        <ele>261</ele>
        <time>2021-07-17T15:20:19Z</time>
      </trkpt>
      <trkpt lat="44.42871" lon="1.46844">
        <ele>261.1</ele>
        <time>2021-07-17T15:20:20Z</time>
      </trkpt>
      <trkpt lat="44.42871" lon="1.46845">
        <ele>261.1</ele>
        <time>2021-07-17T15:20:21Z</time>
      </trkpt>
      <trkpt lat="44.42871" lon="1.46847">
        <ele>261.2</ele>
        <time>2021-07-17T15:20:22Z</time>
      </trkpt>
      <trkpt lat="44.42871" lon="1.46851">
        <ele>261.4</ele>
        <time>2021-07-17T15:20:23Z</time>
      </trkpt>
      <trkpt lat="44.4287" lon="1.46856">
        <ele>261.6</ele>
        <time>2021-07-17T15:20:25Z</time>
      </trkpt>
      <trkpt lat="44.42869" lon="1.46858">
        <ele>261.7</ele>
        <time>2021-07-17T15:20:26Z</time>
      </trkpt>
      <trkpt lat="44.42869" lon="1.46863">
        <ele>262</ele>
        <time>2021-07-17T15:20:28Z</time>
      </trkpt>
      <trkpt lat="44.42868" lon="1.46865">
        <ele>262</ele>
        <time>2021-07-17T15:20:29Z</time>
      </trkpt>
      <trkpt lat="44.42867" lon="1.46868">
        <ele>262.2</ele>
        <time>2021-07-17T15:20:31Z</time>
      </trkpt>
      <trkpt lat="44.42866" lon="1.46871">
        <ele>262.4</ele>
        <time>2021-07-17T15:20:32Z</time>
      </trkpt>
      <trkpt lat="44.42865" lon="1.46875">
        <ele>262.5</ele>
        <time>2021-07-17T15:20:34Z</time>
      </trkpt>
      <trkpt lat="44.42865" lon="1.46878">
        <ele>262.7</ele>
        <time>2021-07-17T15:20:35Z</time>
      </trkpt>
      <trkpt lat="44.42864" lon="1.4688">
        <ele>262.8</ele>
        <time>2021-07-17T15:20:36Z</time>
      </trkpt>
      <trkpt lat="44.42863" lon="1.46884">
        <ele>263</ele>
        <time>2021-07-17T15:20:38Z</time>
      </trkpt>
      <trkpt lat="44.42862" lon="1.46889">
        <ele>263.2</ele>
        <time>2021-07-17T15:20:40Z</time>
      </trkpt>
      <trkpt lat="44.42861" lon="1.46892">
        <ele>263.3</ele>
        <time>2021-07-17T15:20:41Z</time>
      </trkpt>
      <trkpt lat="44.42861" lon="1.46897">
        <ele>263.5</ele>
        <time>2021-07-17T15:20:43Z</time>
      </trkpt>
      <trkpt lat="44.42861" lon="1.46899">
        <ele>263.6</ele>
        <time>2021-07-17T15:20:44Z</time>
      </trkpt>
      <trkpt lat="44.4286" lon="1.46904">
        <ele>263.8</ele>
        <time>2021-07-17T15:20:46Z</time>
      </trkpt>
      <trkpt lat="44.42859" lon="1.46908">
        <ele>263.9</ele>
        <time>2021-07-17T15:20:47Z</time>
      </trkpt>
      <trkpt lat="44.42859" lon="1.46909">
        <ele>264</ele>
        <time>2021-07-17T15:20:48Z</time>
      </trkpt>
      <trkpt lat="44.42858" lon="1.46915">
        <ele>264.2</ele>
        <time>2021-07-17T15:20:50Z</time>
      </trkpt>
      <trkpt lat="44.42858" lon="1.46917">
        <ele>264.2</ele>
        <time>2021-07-17T15:20:51Z</time>
      </trkpt>
      <trkpt lat="44.42858" lon="1.46919">
        <ele>264.3</ele>
        <time>2021-07-17T15:20:52Z</time>
      </trkpt>
      <trkpt lat="44.42858" lon="1.46924">
        <ele>264.5</ele>
        <time>2021-07-17T15:20:54Z</time>
      </trkpt>
      <trkpt lat="44.42857" lon="1.46928">
        <ele>264.7</ele>
        <time>2021-07-17T15:20:56Z</time>
      </trkpt>
      <trkpt lat="44.42856" lon="1.46933">
        <ele>264.8</ele>
        <time>2021-07-17T15:20:58Z</time>
      </trkpt>
      <trkpt lat="44.42856" lon="1.46935">
        <ele>265</ele>
        <time>2021-07-17T15:20:59Z</time>
      </trkpt>
      <trkpt lat="44.42855" lon="1.4694">
        <ele>265.1</ele>
        <time>2021-07-17T15:21:01Z</time>
      </trkpt>
      <trkpt lat="44.42855" lon="1.46942">
        <ele>265.2</ele>
        <time>2021-07-17T15:21:02Z</time>
      </trkpt>
      <trkpt lat="44.42855" lon="1.46946">
        <ele>265.4</ele>
        <time>2021-07-17T15:21:04Z</time>
      </trkpt>
      <trkpt lat="44.42854" lon="1.46948">
        <ele>265.5</ele>
        <time>2021-07-17T15:21:05Z</time>
      </trkpt>
      <trkpt lat="44.42854" lon="1.46953">
        <ele>265.7</ele>
        <time>2021-07-17T15:21:07Z</time>
      </trkpt>
      <trkpt lat="44.42853" lon="1.46955">
        <ele>265.8</ele>
        <time>2021-07-17T15:21:08Z</time>
      </trkpt>
      <trkpt lat="44.42853" lon="1.4696">
        <ele>266</ele>
        <time>2021-07-17T15:21:10Z</time>
      </trkpt>
      <trkpt lat="44.42852" lon="1.46962">
        <ele>266.1</ele>
        <time>2021-07-17T15:21:11Z</time>
      </trkpt>
      <trkpt lat="44.42852" lon="1.46967">
        <ele>266.3</ele>
        <time>2021-07-17T15:21:13Z</time>
      </trkpt>
      <trkpt lat="44.42852" lon="1.4697">
        <ele>266.4</ele>
        <time>2021-07-17T15:21:14Z</time>
      </trkpt>
      <trkpt lat="44.42851" lon="1.46975">
        <ele>266.6</ele>
        <time>2021-07-17T15:21:16Z</time>
      </trkpt>
      <trkpt lat="44.42849" lon="1.46979">
        <ele>266.8</ele>
        <time>2021-07-17T15:21:18Z</time>
      </trkpt>
      <trkpt lat="44.42849" lon="1.46982">
        <ele>266.9</ele>
        <time>2021-07-17T15:21:19Z</time>
      </trkpt>
      <trkpt lat="44.42849" lon="1.46984">
        <ele>267</ele>
        <time>2021-07-17T15:21:20Z</time>
      </trkpt>
      <trkpt lat="44.42848" lon="1.46987">
        <ele>267.1</ele>
        <time>2021-07-17T15:21:21Z</time>
      </trkpt>
      <trkpt lat="44.42848" lon="1.46991">
        <ele>267.3</ele>
        <time>2021-07-17T15:21:23Z</time>
      </trkpt>
      <trkpt lat="44.42847" lon="1.46994">
        <ele>267.4</ele>
        <time>2021-07-17T15:21:24Z</time>
      </trkpt>
      <trkpt lat="44.42846" lon="1.46999">
        <ele>267.6</ele>
        <time>2021-07-17T15:21:26Z</time>
      </trkpt>
      <trkpt lat="44.42846" lon="1.47003">
        <ele>267.7</ele>
        <time>2021-07-17T15:21:28Z</time>
      </trkpt>
      <trkpt lat="44.42845" lon="1.47007">
        <ele>267.9</ele>
        <time>2021-07-17T15:21:30Z</time>
      </trkpt>
      <trkpt lat="44.42845" lon="1.47009">
        <ele>268</ele>
        <time>2021-07-17T15:21:31Z</time>
      </trkpt>
      <trkpt lat="44.42845" lon="1.47012">
        <ele>268.1</ele>
        <time>2021-07-17T15:21:32Z</time>
      </trkpt>
      <trkpt lat="44.42844" lon="1.47016">
        <ele>268.3</ele>
        <time>2021-07-17T15:21:34Z</time>
      </trkpt>
      <trkpt lat="44.42844" lon="1.47018">
        <ele>268.4</ele>
        <time>2021-07-17T15:21:35Z</time>
      </trkpt>
      <trkpt lat="44.42844" lon="1.4702">
        <ele>268.5</ele>
        <time>2021-07-17T15:21:36Z</time>
      </trkpt>
      <trkpt lat="44.42844" lon="1.47022">
        <ele>268.6</ele>
        <time>2021-07-17T15:21:37Z</time>
      </trkpt>
      <trkpt lat="44.42844" lon="1.47027">
        <ele>268.8</ele>
        <time>2021-07-17T15:21:39Z</time>
      </trkpt>
      <trkpt lat="44.42843" lon="1.47034">
        <ele>269.1</ele>
        <time>2021-07-17T15:21:41Z</time>
      </trkpt>
      <trkpt lat="44.42843" lon="1.47035">
        <ele>269.1</ele>
        <time>2021-07-17T15:21:42Z</time>
      </trkpt>
      <trkpt lat="44.42843" lon="1.47037">
        <ele>269.2</ele>
        <time>2021-07-17T15:21:43Z</time>
      </trkpt>
      <trkpt lat="44.42842" lon="1.4704">
        <ele>269.3</ele>
        <time>2021-07-17T15:21:44Z</time>
      </trkpt>
      <trkpt lat="44.42842" lon="1.47041">
        <ele>269.4</ele>
        <time>2021-07-17T15:21:45Z</time>
      </trkpt>
      <trkpt lat="44.42842" lon="1.47048">
        <ele>269.7</ele>
        <time>2021-07-17T15:21:47Z</time>
      </trkpt>
      <trkpt lat="44.42842" lon="1.4705">
        <ele>269.8</ele>
        <time>2021-07-17T15:21:49Z</time>
      </trkpt>
      <trkpt lat="44.42842" lon="1.47052">
        <ele>269.9</ele>
        <time>2021-07-17T15:21:50Z</time>
      </trkpt>
      <trkpt lat="44.42841" lon="1.47055">
        <ele>270</ele>
        <time>2021-07-17T15:21:51Z</time>
      </trkpt>
      <trkpt lat="44.42842" lon="1.47059">
        <ele>270.2</ele>
        <time>2021-07-17T15:21:53Z</time>
      </trkpt>
      <trkpt lat="44.42841" lon="1.47062">
        <ele>270.4</ele>
        <time>2021-07-17T15:21:54Z</time>
      </trkpt>
      <trkpt lat="44.42841" lon="1.47064">
        <ele>270.5</ele>
        <time>2021-07-17T15:21:55Z</time>
      </trkpt>
      <trkpt lat="44.42841" lon="1.47067">
        <ele>270.6</ele>
        <time>2021-07-17T15:21:56Z</time>
      </trkpt>
      <trkpt lat="44.42841" lon="1.47071">
        <ele>270.8</ele>
        <time>2021-07-17T15:21:58Z</time>
      </trkpt>
      <trkpt lat="44.42841" lon="1.47073">
        <ele>270.9</ele>
        <time>2021-07-17T15:21:59Z</time>
      </trkpt>
      <trkpt lat="44.42841" lon="1.47075">
        <ele>271</ele>
        <time>2021-07-17T15:22:00Z</time>
      </trkpt>
      <trkpt lat="44.42841" lon="1.47081">
        <ele>271.2</ele>
        <time>2021-07-17T15:22:02Z</time>
      </trkpt>
      <trkpt lat="44.4284" lon="1.47085">
        <ele>271.4</ele>
        <time>2021-07-17T15:22:04Z</time>
      </trkpt>
      <trkpt lat="44.4284" lon="1.47088">
        <ele>271.6</ele>
        <time>2021-07-17T15:22:05Z</time>
      </trkpt>
      <trkpt lat="44.4284" lon="1.4709">
        <ele>271.6</ele>
        <time>2021-07-17T15:22:06Z</time>
      </trkpt>
      <trkpt lat="44.4284" lon="1.47095">
        <ele>271.9</ele>
        <time>2021-07-17T15:22:08Z</time>
      </trkpt>
      <trkpt lat="44.42838" lon="1.471">
        <ele>272.1</ele>
        <time>2021-07-17T15:22:10Z</time>
      </trkpt>
      <trkpt lat="44.42838" lon="1.47104">
        <ele>272.3</ele>
        <time>2021-07-17T15:22:11Z</time>
      </trkpt>
      <trkpt lat="44.42837" lon="1.47105">
        <ele>272.4</ele>
        <time>2021-07-17T15:22:12Z</time>
      </trkpt>
      <trkpt lat="44.42837" lon="1.47109">
        <ele>272.6</ele>
        <time>2021-07-17T15:22:14Z</time>
      </trkpt>
      <trkpt lat="44.42836" lon="1.47114">
        <ele>272.8</ele>
        <time>2021-07-17T15:22:16Z</time>
      </trkpt>
      <trkpt lat="44.42837" lon="1.47119">
        <ele>273</ele>
        <time>2021-07-17T15:22:18Z</time>
      </trkpt>
      <trkpt lat="44.42837" lon="1.47121">
        <ele>273.1</ele>
        <time>2021-07-17T15:22:19Z</time>
      </trkpt>
      <trkpt lat="44.42836" lon="1.47125">
        <ele>273.3</ele>
        <time>2021-07-17T15:22:21Z</time>
      </trkpt>
      <trkpt lat="44.42835" lon="1.47127">
        <ele>273.4</ele>
        <time>2021-07-17T15:22:22Z</time>
      </trkpt>
      <trkpt lat="44.42835" lon="1.47132">
        <ele>273.6</ele>
        <time>2021-07-17T15:22:24Z</time>
      </trkpt>
      <trkpt lat="44.42835" lon="1.47133">
        <ele>273.7</ele>
        <time>2021-07-17T15:22:25Z</time>
      </trkpt>
      <trkpt lat="44.42834" lon="1.47136">
        <ele>273.8</ele>
        <time>2021-07-17T15:22:26Z</time>
      </trkpt>
      <trkpt lat="44.42833" lon="1.4714">
        <ele>274</ele>
        <time>2021-07-17T15:22:28Z</time>
      </trkpt>
      <trkpt lat="44.42833" lon="1.47142">
        <ele>274.1</ele>
        <time>2021-07-17T15:22:29Z</time>
      </trkpt>
      <trkpt lat="44.42832" lon="1.47146">
        <ele>274.3</ele>
        <time>2021-07-17T15:22:31Z</time>
      </trkpt>
      <trkpt lat="44.42832" lon="1.4715">
        <ele>274.5</ele>
        <time>2021-07-17T15:22:33Z</time>
      </trkpt>
      <trkpt lat="44.42831" lon="1.47152">
        <ele>274.6</ele>
        <time>2021-07-17T15:22:34Z</time>
      </trkpt>
      <trkpt lat="44.42831" lon="1.47154">
        <ele>274.7</ele>
        <time>2021-07-17T15:22:35Z</time>
      </trkpt>
      <trkpt lat="44.4283" lon="1.47156">
        <ele>274.8</ele>
        <time>2021-07-17T15:22:36Z</time>
      </trkpt>
      <trkpt lat="44.4283" lon="1.4716">
        <ele>275</ele>
        <time>2021-07-17T15:22:38Z</time>
      </trkpt>
      <trkpt lat="44.4283" lon="1.47163">
        <ele>275.1</ele>
        <time>2021-07-17T15:22:39Z</time>
      </trkpt>
      <trkpt lat="44.42829" lon="1.47165">
        <ele>275.2</ele>
        <time>2021-07-17T15:22:40Z</time>
      </trkpt>
      <trkpt lat="44.42829" lon="1.47167">
        <ele>275.4</ele>
        <time>2021-07-17T15:22:41Z</time>
      </trkpt>
      <trkpt lat="44.42828" lon="1.47172">
        <ele>275.6</ele>
        <time>2021-07-17T15:22:43Z</time>
      </trkpt>
      <trkpt lat="44.42827" lon="1.47176">
        <ele>275.8</ele>
        <time>2021-07-17T15:22:45Z</time>
      </trkpt>
      <trkpt lat="44.42827" lon="1.47178">
        <ele>275.9</ele>
        <time>2021-07-17T15:22:46Z</time>
      </trkpt>
      <trkpt lat="44.42827" lon="1.4718">
        <ele>276</ele>
        <time>2021-07-17T15:22:47Z</time>
      </trkpt>
      <trkpt lat="44.42826" lon="1.47185">
        <ele>276.2</ele>
        <time>2021-07-17T15:22:49Z</time>
      </trkpt>
      <trkpt lat="44.42826" lon="1.47187">
        <ele>276.3</ele>
        <time>2021-07-17T15:22:51Z</time>
      </trkpt>
      <trkpt lat="44.42825" lon="1.47189">
        <ele>276.4</ele>
        <time>2021-07-17T15:22:52Z</time>
      </trkpt>
      <trkpt lat="44.42825" lon="1.47193">
        <ele>276.6</ele>
        <time>2021-07-17T15:22:53Z</time>
      </trkpt>
      <trkpt lat="44.42825" lon="1.47195">
        <ele>276.7</ele>
        <time>2021-07-17T15:22:54Z</time>
      </trkpt>
      <trkpt lat="44.42825" lon="1.47197">
        <ele>276.8</ele>
        <time>2021-07-17T15:22:55Z</time>
      </trkpt>
      <trkpt lat="44.42824" lon="1.47199">
        <ele>276.8</ele>
        <time>2021-07-17T15:22:56Z</time>
      </trkpt>
      <trkpt lat="44.42824" lon="1.47204">
        <ele>277</ele>
        <time>2021-07-17T15:22:58Z</time>
      </trkpt>
      <trkpt lat="44.42823" lon="1.47208">
        <ele>277.2</ele>
        <time>2021-07-17T15:23:00Z</time>
      </trkpt>
      <trkpt lat="44.42823" lon="1.4721">
        <ele>277.3</ele>
        <time>2021-07-17T15:23:01Z</time>
      </trkpt>
      <trkpt lat="44.42823" lon="1.47212">
        <ele>277.4</ele>
        <time>2021-07-17T15:23:02Z</time>
      </trkpt>
      <trkpt lat="44.42823" lon="1.47217">
        <ele>277.6</ele>
        <time>2021-07-17T15:23:04Z</time>
      </trkpt>
      <trkpt lat="44.42823" lon="1.47218">
        <ele>277.6</ele>
        <time>2021-07-17T15:23:05Z</time>
      </trkpt>
      <trkpt lat="44.42823" lon="1.47222">
        <ele>277.8</ele>
        <time>2021-07-17T15:23:07Z</time>
      </trkpt>
      <trkpt lat="44.42823" lon="1.47224">
        <ele>277.9</ele>
        <time>2021-07-17T15:23:08Z</time>
      </trkpt>
      <trkpt lat="44.42823" lon="1.47227">
        <ele>278</ele>
        <time>2021-07-17T15:23:10Z</time>
      </trkpt>
      <trkpt lat="44.42823" lon="1.47232">
        <ele>278.2</ele>
        <time>2021-07-17T15:23:12Z</time>
      </trkpt>
      <trkpt lat="44.42823" lon="1.47233">
        <ele>278.2</ele>
        <time>2021-07-17T15:23:13Z</time>
      </trkpt>
      <trkpt lat="44.42822" lon="1.47236">
        <ele>278.3</ele>
        <time>2021-07-17T15:23:14Z</time>
      </trkpt>
      <trkpt lat="44.42821" lon="1.47241">
        <ele>278.5</ele>
        <time>2021-07-17T15:23:16Z</time>
      </trkpt>
      <trkpt lat="44.42821" lon="1.47243">
        <ele>278.6</ele>
        <time>2021-07-17T15:23:17Z</time>
      </trkpt>
      <trkpt lat="44.42821" lon="1.47246">
        <ele>278.7</ele>
        <time>2021-07-17T15:23:18Z</time>
      </trkpt>
      <trkpt lat="44.4282" lon="1.4725">
        <ele>278.8</ele>
        <time>2021-07-17T15:23:20Z</time>
      </trkpt>
      <trkpt lat="44.4282" lon="1.47253">
        <ele>278.9</ele>
        <time>2021-07-17T15:23:21Z</time>
      </trkpt>
      <trkpt lat="44.42821" lon="1.47258">
        <ele>279.1</ele>
        <time>2021-07-17T15:23:23Z</time>
      </trkpt>
      <trkpt lat="44.4282" lon="1.4726">
        <ele>279.1</ele>
        <time>2021-07-17T15:23:24Z</time>
      </trkpt>
      <trkpt lat="44.4282" lon="1.47265">
        <ele>279.3</ele>
        <time>2021-07-17T15:23:26Z</time>
      </trkpt>
      <trkpt lat="44.42819" lon="1.47267">
        <ele>279.4</ele>
        <time>2021-07-17T15:23:27Z</time>
      </trkpt>
      <trkpt lat="44.42819" lon="1.47269">
        <ele>279.4</ele>
        <time>2021-07-17T15:23:28Z</time>
      </trkpt>
      <trkpt lat="44.42818" lon="1.47272">
        <ele>279.5</ele>
        <time>2021-07-17T15:23:29Z</time>
      </trkpt>
      <trkpt lat="44.42818" lon="1.47274">
        <ele>279.6</ele>
        <time>2021-07-17T15:23:30Z</time>
      </trkpt>
      <trkpt lat="44.42818" lon="1.47281">
        <ele>279.8</ele>
        <time>2021-07-17T15:23:32Z</time>
      </trkpt>
      <trkpt lat="44.42818" lon="1.47282">
        <ele>279.9</ele>
        <time>2021-07-17T15:23:33Z</time>
      </trkpt>
      <trkpt lat="44.42817" lon="1.47284">
        <ele>279.9</ele>
        <time>2021-07-17T15:23:34Z</time>
      </trkpt>
      <trkpt lat="44.42818" lon="1.47287">
        <ele>280</ele>
        <time>2021-07-17T15:23:35Z</time>
      </trkpt>
      <trkpt lat="44.42817" lon="1.47292">
        <ele>280.2</ele>
        <time>2021-07-17T15:23:37Z</time>
      </trkpt>
      <trkpt lat="44.42816" lon="1.47298">
        <ele>280.4</ele>
        <time>2021-07-17T15:23:39Z</time>
      </trkpt>
      <trkpt lat="44.42816" lon="1.473">
        <ele>280.5</ele>
        <time>2021-07-17T15:23:40Z</time>
      </trkpt>
      <trkpt lat="44.42815" lon="1.47302">
        <ele>280.5</ele>
        <time>2021-07-17T15:23:41Z</time>
      </trkpt>
      <trkpt lat="44.42815" lon="1.47307">
        <ele>280.7</ele>
        <time>2021-07-17T15:23:43Z</time>
      </trkpt>
      <trkpt lat="44.42814" lon="1.47309">
        <ele>280.8</ele>
        <time>2021-07-17T15:23:44Z</time>
      </trkpt>
      <trkpt lat="44.42814" lon="1.47311">
        <ele>280.9</ele>
        <time>2021-07-17T15:23:45Z</time>
      </trkpt>
      <trkpt lat="44.42814" lon="1.47313">
        <ele>281</ele>
        <time>2021-07-17T15:23:46Z</time>
      </trkpt>
      <trkpt lat="44.42814" lon="1.47315">
        <ele>281</ele>
        <time>2021-07-17T15:23:47Z</time>
      </trkpt>
      <trkpt lat="44.42814" lon="1.4732">
        <ele>281.2</ele>
        <time>2021-07-17T15:23:49Z</time>
      </trkpt>
      <trkpt lat="44.42814" lon="1.47322">
        <ele>281.3</ele>
        <time>2021-07-17T15:23:50Z</time>
      </trkpt>
      <trkpt lat="44.42813" lon="1.47326">
        <ele>281.4</ele>
        <time>2021-07-17T15:23:52Z</time>
      </trkpt>
      <trkpt lat="44.42813" lon="1.4733">
        <ele>281.6</ele>
        <time>2021-07-17T15:23:53Z</time>
      </trkpt>
      <trkpt lat="44.42813" lon="1.47332">
        <ele>281.7</ele>
        <time>2021-07-17T15:23:54Z</time>
      </trkpt>
      <trkpt lat="44.42813" lon="1.47335">
        <ele>281.8</ele>
        <time>2021-07-17T15:23:56Z</time>
      </trkpt>
      <trkpt lat="44.42812" lon="1.47339">
        <ele>281.9</ele>
        <time>2021-07-17T15:23:57Z</time>
      </trkpt>
      <trkpt lat="44.42812" lon="1.47341">
        <ele>282</ele>
        <time>2021-07-17T15:23:58Z</time>
      </trkpt>
      <trkpt lat="44.42812" lon="1.47348">
        <ele>282.2</ele>
        <time>2021-07-17T15:24:00Z</time>
      </trkpt>
      <trkpt lat="44.42812" lon="1.4735">
        <ele>282.3</ele>
        <time>2021-07-17T15:24:02Z</time>
      </trkpt>
      <trkpt lat="44.42812" lon="1.47353">
        <ele>282.4</ele>
        <time>2021-07-17T15:24:03Z</time>
      </trkpt>
      <trkpt lat="44.42812" lon="1.47355">
        <ele>282.5</ele>
        <time>2021-07-17T15:24:04Z</time>
      </trkpt>
      <trkpt lat="44.42812" lon="1.47358">
        <ele>282.6</ele>
        <time>2021-07-17T15:24:05Z</time>
      </trkpt>
      <trkpt lat="44.42811" lon="1.4736">
        <ele>282.6</ele>
        <time>2021-07-17T15:24:06Z</time>
      </trkpt>
      <trkpt lat="44.42811" lon="1.47364">
        <ele>282.8</ele>
        <time>2021-07-17T15:24:08Z</time>
      </trkpt>
      <trkpt lat="44.4281" lon="1.47369">
        <ele>282.9</ele>
        <time>2021-07-17T15:24:09Z</time>
      </trkpt>
      <trkpt lat="44.4281" lon="1.4737">
        <ele>283</ele>
        <time>2021-07-17T15:24:10Z</time>
      </trkpt>
      <trkpt lat="44.4281" lon="1.47375">
        <ele>283.1</ele>
        <time>2021-07-17T15:24:12Z</time>
      </trkpt>
      <trkpt lat="44.42811" lon="1.47378">
        <ele>283.2</ele>
        <time>2021-07-17T15:24:13Z</time>
      </trkpt>
      <trkpt lat="44.42811" lon="1.4738">
        <ele>283.2</ele>
        <time>2021-07-17T15:24:14Z</time>
      </trkpt>
      <trkpt lat="44.42812" lon="1.47385">
        <ele>283.2</ele>
        <time>2021-07-17T15:24:16Z</time>
      </trkpt>
      <trkpt lat="44.42813" lon="1.47386">
        <ele>283.2</ele>
        <time>2021-07-17T15:24:17Z</time>
      </trkpt>
      <trkpt lat="44.42815" lon="1.47391">
        <ele>283.2</ele>
        <time>2021-07-17T15:24:19Z</time>
      </trkpt>
      <trkpt lat="44.42816" lon="1.47393">
        <ele>283.2</ele>
        <time>2021-07-17T15:24:20Z</time>
      </trkpt>
      <trkpt lat="44.42817" lon="1.47395">
        <ele>283.2</ele>
        <time>2021-07-17T15:24:21Z</time>
      </trkpt>
      <trkpt lat="44.4282" lon="1.47399">
        <ele>283.1</ele>
        <time>2021-07-17T15:24:23Z</time>
      </trkpt>
      <trkpt lat="44.42822" lon="1.47403">
        <ele>283</ele>
        <time>2021-07-17T15:24:24Z</time>
      </trkpt>
      <trkpt lat="44.42823" lon="1.47406">
        <ele>282.9</ele>
        <time>2021-07-17T15:24:25Z</time>
      </trkpt>
      <trkpt lat="44.42826" lon="1.4741">
        <ele>282.8</ele>
        <time>2021-07-17T15:24:27Z</time>
      </trkpt>
      <trkpt lat="44.42828" lon="1.47414">
        <ele>282.7</ele>
        <time>2021-07-17T15:24:28Z</time>
      </trkpt>
      <trkpt lat="44.42829" lon="1.47419">
        <ele>282.5</ele>
        <time>2021-07-17T15:24:29Z</time>
      </trkpt>
      <trkpt lat="44.42832" lon="1.47423">
        <ele>282.4</ele>
        <time>2021-07-17T15:24:30Z</time>
      </trkpt>
      <trkpt lat="44.42836" lon="1.4743">
        <ele>282.1</ele>
        <time>2021-07-17T15:24:32Z</time>
      </trkpt>
      <trkpt lat="44.42839" lon="1.47437">
        <ele>281.7</ele>
        <time>2021-07-17T15:24:34Z</time>
      </trkpt>
      <trkpt lat="44.42841" lon="1.47443">
        <ele>281.5</ele>
        <time>2021-07-17T15:24:35Z</time>
      </trkpt>
      <trkpt lat="44.42844" lon="1.47449">
        <ele>281.2</ele>
        <time>2021-07-17T15:24:36Z</time>
      </trkpt>
      <trkpt lat="44.42848" lon="1.47456">
        <ele>280.9</ele>
        <time>2021-07-17T15:24:37Z</time>
      </trkpt>
      <trkpt lat="44.42851" lon="1.47462">
        <ele>280.6</ele>
        <time>2021-07-17T15:24:38Z</time>
      </trkpt>
      <trkpt lat="44.42857" lon="1.47473">
        <ele>280.1</ele>
        <time>2021-07-17T15:24:40Z</time>
      </trkpt>
      <trkpt lat="44.4286" lon="1.47478">
        <ele>279.9</ele>
        <time>2021-07-17T15:24:41Z</time>
      </trkpt>
      <trkpt lat="44.42865" lon="1.47482">
        <ele>279.5</ele>
        <time>2021-07-17T15:24:42Z</time>
      </trkpt>
      <trkpt lat="44.42875" lon="1.47487">
        <ele>279</ele>
        <time>2021-07-17T15:24:44Z</time>
      </trkpt>
      <trkpt lat="44.42885" lon="1.47491">
        <ele>278.6</ele>
        <time>2021-07-17T15:24:46Z</time>
      </trkpt>
      <trkpt lat="44.4289" lon="1.47494">
        <ele>278.4</ele>
        <time>2021-07-17T15:24:47Z</time>
      </trkpt>
      <trkpt lat="44.42895" lon="1.47497">
        <ele>278.3</ele>
        <time>2021-07-17T15:24:48Z</time>
      </trkpt>
      <trkpt lat="44.42904" lon="1.47503">
        <ele>278.1</ele>
        <time>2021-07-17T15:24:50Z</time>
      </trkpt>
      <trkpt lat="44.42908" lon="1.47501">
        <ele>278</ele>
        <time>2021-07-17T15:24:52Z</time>
      </trkpt>
      <trkpt lat="44.42912" lon="1.47507">
        <ele>277.9</ele>
        <time>2021-07-17T15:24:53Z</time>
      </trkpt>
      <trkpt lat="44.42919" lon="1.47515">
        <ele>277.8</ele>
        <time>2021-07-17T15:24:55Z</time>
      </trkpt>
      <trkpt lat="44.42924" lon="1.4752">
        <ele>277.8</ele>
        <time>2021-07-17T15:24:56Z</time>
      </trkpt>
      <trkpt lat="44.42929" lon="1.47525">
        <ele>277.7</ele>
        <time>2021-07-17T15:24:58Z</time>
      </trkpt>
      <trkpt lat="44.42933" lon="1.47527">
        <ele>277.6</ele>
        <time>2021-07-17T15:24:59Z</time>
      </trkpt>
      <trkpt lat="44.42938" lon="1.47532">
        <ele>277.6</ele>
        <time>2021-07-17T15:25:00Z</time>
      </trkpt>
      <trkpt lat="44.42941" lon="1.47535">
        <ele>277.5</ele>
        <time>2021-07-17T15:25:01Z</time>
      </trkpt>
      <trkpt lat="44.42947" lon="1.47541">
        <ele>277.3</ele>
        <time>2021-07-17T15:25:03Z</time>
      </trkpt>
      <trkpt lat="44.42951" lon="1.47545">
        <ele>277.2</ele>
        <time>2021-07-17T15:25:04Z</time>
      </trkpt>
      <trkpt lat="44.42955" lon="1.47549">
        <ele>277.1</ele>
        <time>2021-07-17T15:25:05Z</time>
      </trkpt>
      <trkpt lat="44.42958" lon="1.47552">
        <ele>276.9</ele>
        <time>2021-07-17T15:25:07Z</time>
      </trkpt>
      <trkpt lat="44.42963" lon="1.47556">
        <ele>276.8</ele>
        <time>2021-07-17T15:25:08Z</time>
      </trkpt>
      <trkpt lat="44.42967" lon="1.47559">
        <ele>276.7</ele>
        <time>2021-07-17T15:25:09Z</time>
      </trkpt>
      <trkpt lat="44.42972" lon="1.47563">
        <ele>276.6</ele>
        <time>2021-07-17T15:25:11Z</time>
      </trkpt>
      <trkpt lat="44.42976" lon="1.47567">
        <ele>276.5</ele>
        <time>2021-07-17T15:25:12Z</time>
      </trkpt>
      <trkpt lat="44.42981" lon="1.47572">
        <ele>276.3</ele>
        <time>2021-07-17T15:25:13Z</time>
      </trkpt>
      <trkpt lat="44.42984" lon="1.47576">
        <ele>276.1</ele>
        <time>2021-07-17T15:25:14Z</time>
      </trkpt>
      <trkpt lat="44.42986" lon="1.47579">
        <ele>275.9</ele>
        <time>2021-07-17T15:25:15Z</time>
      </trkpt>
      <trkpt lat="44.42997" lon="1.47583">
        <ele>275.8</ele>
        <time>2021-07-17T15:25:17Z</time>
      </trkpt>
      <trkpt lat="44.43004" lon="1.47583">
        <ele>275.3</ele>
        <time>2021-07-17T15:25:19Z</time>
      </trkpt>
      <trkpt lat="44.43006" lon="1.47586">
        <ele>275.4</ele>
        <time>2021-07-17T15:25:20Z</time>
      </trkpt>
      <trkpt lat="44.43008" lon="1.47589">
        <ele>275.3</ele>
        <time>2021-07-17T15:25:21Z</time>
      </trkpt>
      <trkpt lat="44.43008" lon="1.47591">
        <ele>275.3</ele>
        <time>2021-07-17T15:25:22Z</time>
      </trkpt>
      <trkpt lat="44.43007" lon="1.47592">
        <ele>275.3</ele>
        <time>2021-07-17T15:25:23Z</time>
      </trkpt>
      <trkpt lat="44.43006" lon="1.47592">
        <ele>275.3</ele>
        <time>2021-07-17T15:25:24Z</time>
      </trkpt>
      <trkpt lat="44.43006" lon="1.4759">
        <ele>275.2</ele>
        <time>2021-07-17T15:25:26Z</time>
      </trkpt>
      <trkpt lat="44.43007" lon="1.47592">
        <ele>275.3</ele>
        <time>2021-07-17T15:25:27Z</time>
      </trkpt>
      <trkpt lat="44.43007" lon="1.47593">
        <ele>275.1</ele>
        <time>2021-07-17T15:25:28Z</time>
      </trkpt>
      <trkpt lat="44.4301" lon="1.47596">
        <ele>275.2</ele>
        <time>2021-07-17T15:25:30Z</time>
      </trkpt>
      <trkpt lat="44.4301" lon="1.47601">
        <ele>275.2</ele>
        <time>2021-07-17T15:25:32Z</time>
      </trkpt>
      <trkpt lat="44.4301" lon="1.47606">
        <ele>275.1</ele>
        <time>2021-07-17T15:25:33Z</time>
      </trkpt>
      <trkpt lat="44.43012" lon="1.47612">
        <ele>275</ele>
        <time>2021-07-17T15:25:35Z</time>
      </trkpt>
      <trkpt lat="44.43013" lon="1.47614">
        <ele>275</ele>
        <time>2021-07-17T15:25:36Z</time>
      </trkpt>
      <trkpt lat="44.43014" lon="1.47616">
        <ele>274.9</ele>
        <time>2021-07-17T15:25:37Z</time>
      </trkpt>
      <trkpt lat="44.43016" lon="1.47618">
        <ele>274.8</ele>
        <time>2021-07-17T15:25:38Z</time>
      </trkpt>
      <trkpt lat="44.43018" lon="1.47621">
        <ele>274.8</ele>
        <time>2021-07-17T15:25:40Z</time>
      </trkpt>
      <trkpt lat="44.4302" lon="1.47626">
        <ele>274.8</ele>
        <time>2021-07-17T15:25:41Z</time>
      </trkpt>
      <trkpt lat="44.4302" lon="1.47627">
        <ele>274.7</ele>
        <time>2021-07-17T15:25:42Z</time>
      </trkpt>
      <trkpt lat="44.43022" lon="1.47631">
        <ele>274.6</ele>
        <time>2021-07-17T15:25:43Z</time>
      </trkpt>
      <trkpt lat="44.43023" lon="1.47633">
        <ele>274.6</ele>
        <time>2021-07-17T15:25:44Z</time>
      </trkpt>
      <trkpt lat="44.43023" lon="1.47635">
        <ele>274.6</ele>
        <time>2021-07-17T15:25:45Z</time>
      </trkpt>
      <trkpt lat="44.43025" lon="1.47638">
        <ele>274.5</ele>
        <time>2021-07-17T15:25:47Z</time>
      </trkpt>
      <trkpt lat="44.43028" lon="1.47641">
        <ele>274.5</ele>
        <time>2021-07-17T15:25:48Z</time>
      </trkpt>
      <trkpt lat="44.43031" lon="1.47643">
        <ele>274.4</ele>
        <time>2021-07-17T15:25:49Z</time>
      </trkpt>
      <trkpt lat="44.43032" lon="1.47644">
        <ele>274.4</ele>
        <time>2021-07-17T15:25:50Z</time>
      </trkpt>
      <trkpt lat="44.43035" lon="1.47644">
        <ele>274.4</ele>
        <time>2021-07-17T15:25:51Z</time>
      </trkpt>
      <trkpt lat="44.43038" lon="1.47645">
        <ele>274.4</ele>
        <time>2021-07-17T15:25:53Z</time>
      </trkpt>
      <trkpt lat="44.43042" lon="1.47647">
        <ele>274.4</ele>
        <time>2021-07-17T15:25:54Z</time>
      </trkpt>
      <trkpt lat="44.43043" lon="1.47648">
        <ele>274.4</ele>
        <time>2021-07-17T15:25:55Z</time>
      </trkpt>
      <trkpt lat="44.43047" lon="1.4765">
        <ele>274.4</ele>
        <time>2021-07-17T15:25:56Z</time>
      </trkpt>
      <trkpt lat="44.43049" lon="1.47652">
        <ele>274.3</ele>
        <time>2021-07-17T15:25:57Z</time>
      </trkpt>
      <trkpt lat="44.43052" lon="1.47653">
        <ele>274.4</ele>
        <time>2021-07-17T15:25:58Z</time>
      </trkpt>
      <trkpt lat="44.43054" lon="1.47654">
        <ele>274.4</ele>
        <time>2021-07-17T15:26:00Z</time>
      </trkpt>
      <trkpt lat="44.43057" lon="1.47658">
        <ele>274.2</ele>
        <time>2021-07-17T15:26:01Z</time>
      </trkpt>
      <trkpt lat="44.43058" lon="1.47659">
        <ele>274.2</ele>
        <time>2021-07-17T15:26:02Z</time>
      </trkpt>
      <trkpt lat="44.43061" lon="1.47662">
        <ele>273.9</ele>
        <time>2021-07-17T15:26:03Z</time>
      </trkpt>
      <trkpt lat="44.43061" lon="1.47663">
        <ele>273.9</ele>
        <time>2021-07-17T15:26:04Z</time>
      </trkpt>
      <trkpt lat="44.43063" lon="1.47664">
        <ele>273.6</ele>
        <time>2021-07-17T15:26:06Z</time>
      </trkpt>
      <trkpt lat="44.43064" lon="1.47666">
        <ele>273.5</ele>
        <time>2021-07-17T15:26:07Z</time>
      </trkpt>
      <trkpt lat="44.43067" lon="1.47667">
        <ele>273.5</ele>
        <time>2021-07-17T15:26:08Z</time>
      </trkpt>
      <trkpt lat="44.43068" lon="1.47668">
        <ele>273.1</ele>
        <time>2021-07-17T15:26:09Z</time>
      </trkpt>
      <trkpt lat="44.43067" lon="1.47667">
        <ele>273.4</ele>
        <time>2021-07-17T15:26:11Z</time>
      </trkpt>
      <trkpt lat="44.43067" lon="1.47668">
        <ele>273.1</ele>
        <time>2021-07-17T15:26:13Z</time>
      </trkpt>
      <trkpt lat="44.43067" lon="1.47668">
        <ele>273</ele>
        <time>2021-07-17T15:26:14Z</time>
      </trkpt>
      <trkpt lat="44.43067" lon="1.47668">
        <ele>273</ele>
        <time>2021-07-17T15:26:15Z</time>
      </trkpt>
      <trkpt lat="44.43067" lon="1.47668">
        <ele>272.9</ele>
        <time>2021-07-17T15:26:17Z</time>
      </trkpt>
      <trkpt lat="44.43067" lon="1.47668">
        <ele>272.9</ele>
        <time>2021-07-17T15:26:18Z</time>
      </trkpt>
      <trkpt lat="44.43067" lon="1.47668">
        <ele>272.9</ele>
        <time>2021-07-17T15:26:20Z</time>
      </trkpt>
      <trkpt lat="44.43069" lon="1.47673">
        <ele>272.5</ele>
        <time>2021-07-17T15:27:30Z</time>
      </trkpt>
      <trkpt lat="44.4307" lon="1.47677">
        <ele>272.1</ele>
        <time>2021-07-17T15:27:31Z</time>
      </trkpt>
      <trkpt lat="44.43071" lon="1.4768">
        <ele>272.1</ele>
        <time>2021-07-17T15:27:32Z</time>
      </trkpt>
      <trkpt lat="44.43073" lon="1.47684">
        <ele>271.6</ele>
        <time>2021-07-17T15:27:34Z</time>
      </trkpt>
      <trkpt lat="44.43076" lon="1.47688">
        <ele>271.2</ele>
        <time>2021-07-17T15:27:36Z</time>
      </trkpt>
      <trkpt lat="44.43077" lon="1.47689">
        <ele>271.2</ele>
        <time>2021-07-17T15:27:38Z</time>
      </trkpt>
      <trkpt lat="44.43078" lon="1.47689">
        <ele>270.7</ele>
        <time>2021-07-17T15:27:39Z</time>
      </trkpt>
      <trkpt lat="44.43079" lon="1.4769">
        <ele>270.7</ele>
        <time>2021-07-17T15:27:41Z</time>
      </trkpt>
      <trkpt lat="44.4308" lon="1.4769">
        <ele>270.7</ele>
        <time>2021-07-17T15:27:42Z</time>
      </trkpt>
      <trkpt lat="44.43081" lon="1.4769">
        <ele>270.6</ele>
        <time>2021-07-17T15:27:43Z</time>
      </trkpt>
      <trkpt lat="44.43082" lon="1.47691">
        <ele>270.5</ele>
        <time>2021-07-17T15:27:44Z</time>
      </trkpt>
      <trkpt lat="44.43082" lon="1.47691">
        <ele>270.5</ele>
        <time>2021-07-17T15:27:46Z</time>
      </trkpt>
      <trkpt lat="44.43083" lon="1.47692">
        <ele>270.5</ele>
        <time>2021-07-17T15:30:08Z</time>
      </trkpt>
      <trkpt lat="44.43084" lon="1.47692">
        <ele>270.4</ele>
        <time>2021-07-17T15:30:10Z</time>
      </trkpt>
      <trkpt lat="44.43085" lon="1.47693">
        <ele>270.3</ele>
        <time>2021-07-17T15:30:12Z</time>
      </trkpt>
      <trkpt lat="44.43086" lon="1.47693">
        <ele>270.3</ele>
        <time>2021-07-17T15:30:13Z</time>
      </trkpt>
      <trkpt lat="44.43089" lon="1.47692">
        <ele>270.2</ele>
        <time>2021-07-17T15:30:14Z</time>
      </trkpt>
      <trkpt lat="44.43093" lon="1.47689">
        <ele>270</ele>
        <time>2021-07-17T15:30:16Z</time>
      </trkpt>
      <trkpt lat="44.43097" lon="1.47688">
        <ele>270.2</ele>
        <time>2021-07-17T15:30:17Z</time>
      </trkpt>
      <trkpt lat="44.43101" lon="1.4769">
        <ele>269.8</ele>
        <time>2021-07-17T15:30:18Z</time>
      </trkpt>
      <trkpt lat="44.43106" lon="1.47691">
        <ele>269.6</ele>
        <time>2021-07-17T15:30:20Z</time>
      </trkpt>
      <trkpt lat="44.43113" lon="1.47692">
        <ele>269.3</ele>
        <time>2021-07-17T15:30:21Z</time>
      </trkpt>
      <trkpt lat="44.43119" lon="1.47691">
        <ele>269</ele>
        <time>2021-07-17T15:30:22Z</time>
      </trkpt>
      <trkpt lat="44.43129" lon="1.47692">
        <ele>268.6</ele>
        <time>2021-07-17T15:30:24Z</time>
      </trkpt>
      <trkpt lat="44.43131" lon="1.47696">
        <ele>268.3</ele>
        <time>2021-07-17T15:30:25Z</time>
      </trkpt>
      <trkpt lat="44.43132" lon="1.47703">
        <ele>268</ele>
        <time>2021-07-17T15:30:27Z</time>
      </trkpt>
      <trkpt lat="44.43132" lon="1.47715">
        <ele>267.5</ele>
        <time>2021-07-17T15:30:28Z</time>
      </trkpt>
      <trkpt lat="44.43132" lon="1.47721">
        <ele>267.3</ele>
        <time>2021-07-17T15:30:30Z</time>
      </trkpt>
      <trkpt lat="44.43134" lon="1.47724">
        <ele>267</ele>
        <time>2021-07-17T15:30:31Z</time>
      </trkpt>
      <trkpt lat="44.43137" lon="1.47727">
        <ele>266.9</ele>
        <time>2021-07-17T15:30:32Z</time>
      </trkpt>
      <trkpt lat="44.43138" lon="1.47727">
        <ele>266.8</ele>
        <time>2021-07-17T15:30:33Z</time>
      </trkpt>
      <trkpt lat="44.43138" lon="1.47727">
        <ele>266.8</ele>
        <time>2021-07-17T15:30:34Z</time>
      </trkpt>
      <trkpt lat="44.43139" lon="1.47726">
        <ele>266.7</ele>
        <time>2021-07-17T15:30:35Z</time>
      </trkpt>
      <trkpt lat="44.43141" lon="1.47727">
        <ele>266.6</ele>
        <time>2021-07-17T15:30:37Z</time>
      </trkpt>
      <trkpt lat="44.43143" lon="1.47729">
        <ele>266.2</ele>
        <time>2021-07-17T15:30:38Z</time>
      </trkpt>
      <trkpt lat="44.43146" lon="1.47735">
        <ele>265.8</ele>
        <time>2021-07-17T15:30:40Z</time>
      </trkpt>
      <trkpt lat="44.4315" lon="1.47741">
        <ele>265.1</ele>
        <time>2021-07-17T15:30:41Z</time>
      </trkpt>
      <trkpt lat="44.43156" lon="1.47744">
        <ele>264.8</ele>
        <time>2021-07-17T15:30:43Z</time>
      </trkpt>
      <trkpt lat="44.43162" lon="1.47745">
        <ele>264.1</ele>
        <time>2021-07-17T15:30:44Z</time>
      </trkpt>
      <trkpt lat="44.43166" lon="1.47747">
        <ele>264</ele>
        <time>2021-07-17T15:30:45Z</time>
      </trkpt>
      <trkpt lat="44.4317" lon="1.47746">
        <ele>263.9</ele>
        <time>2021-07-17T15:30:46Z</time>
      </trkpt>
      <trkpt lat="44.43174" lon="1.47747">
        <ele>263.9</ele>
        <time>2021-07-17T15:30:47Z</time>
      </trkpt>
      <trkpt lat="44.43178" lon="1.47746">
        <ele>263.9</ele>
        <time>2021-07-17T15:30:48Z</time>
      </trkpt>
      <trkpt lat="44.43184" lon="1.4775">
        <ele>263.4</ele>
        <time>2021-07-17T15:30:50Z</time>
      </trkpt>
      <trkpt lat="44.43189" lon="1.47754">
        <ele>263</ele>
        <time>2021-07-17T15:30:51Z</time>
      </trkpt>
      <trkpt lat="44.43195" lon="1.47762">
        <ele>262.8</ele>
        <time>2021-07-17T15:30:52Z</time>
      </trkpt>
      <trkpt lat="44.43205" lon="1.47767">
        <ele>262.4</ele>
        <time>2021-07-17T15:30:54Z</time>
      </trkpt>
      <trkpt lat="44.43208" lon="1.47771">
        <ele>261.9</ele>
        <time>2021-07-17T15:30:55Z</time>
      </trkpt>
      <trkpt lat="44.43211" lon="1.47777">
        <ele>261.5</ele>
        <time>2021-07-17T15:30:57Z</time>
      </trkpt>
      <trkpt lat="44.43214" lon="1.47786">
        <ele>260.1</ele>
        <time>2021-07-17T15:30:58Z</time>
      </trkpt>
      <trkpt lat="44.43217" lon="1.47789">
        <ele>259.5</ele>
        <time>2021-07-17T15:30:59Z</time>
      </trkpt>
      <trkpt lat="44.4322" lon="1.47792">
        <ele>259.1</ele>
        <time>2021-07-17T15:31:00Z</time>
      </trkpt>
      <trkpt lat="44.43223" lon="1.47801">
        <ele>258.1</ele>
        <time>2021-07-17T15:31:02Z</time>
      </trkpt>
      <trkpt lat="44.43227" lon="1.47805">
        <ele>258.4</ele>
        <time>2021-07-17T15:31:03Z</time>
      </trkpt>
      <trkpt lat="44.43231" lon="1.47807">
        <ele>258.6</ele>
        <time>2021-07-17T15:31:04Z</time>
      </trkpt>
      <trkpt lat="44.43236" lon="1.47812">
        <ele>258.5</ele>
        <time>2021-07-17T15:31:06Z</time>
      </trkpt>
      <trkpt lat="44.43241" lon="1.47819">
        <ele>258.3</ele>
        <time>2021-07-17T15:31:07Z</time>
      </trkpt>
      <trkpt lat="44.43245" lon="1.47821">
        <ele>258.7</ele>
        <time>2021-07-17T15:31:08Z</time>
      </trkpt>
      <trkpt lat="44.4325" lon="1.47825">
        <ele>259.1</ele>
        <time>2021-07-17T15:31:09Z</time>
      </trkpt>
      <trkpt lat="44.43259" lon="1.47834">
        <ele>259.6</ele>
        <time>2021-07-17T15:31:11Z</time>
      </trkpt>
      <trkpt lat="44.43264" lon="1.47836">
        <ele>259.6</ele>
        <time>2021-07-17T15:31:12Z</time>
      </trkpt>
      <trkpt lat="44.43274" lon="1.47842">
        <ele>260.9</ele>
        <time>2021-07-17T15:31:14Z</time>
      </trkpt>
      <trkpt lat="44.43276" lon="1.47845">
        <ele>260.4</ele>
        <time>2021-07-17T15:31:15Z</time>
      </trkpt>
      <trkpt lat="44.43282" lon="1.47858">
        <ele>259.9</ele>
        <time>2021-07-17T15:31:17Z</time>
      </trkpt>
      <trkpt lat="44.43285" lon="1.47863">
        <ele>259.8</ele>
        <time>2021-07-17T15:31:18Z</time>
      </trkpt>
      <trkpt lat="44.43294" lon="1.47866">
        <ele>260.4</ele>
        <time>2021-07-17T15:31:20Z</time>
      </trkpt>
      <trkpt lat="44.43304" lon="1.47868">
        <ele>261.1</ele>
        <time>2021-07-17T15:31:22Z</time>
      </trkpt>
      <trkpt lat="44.43307" lon="1.4787">
        <ele>260.8</ele>
        <time>2021-07-17T15:31:23Z</time>
      </trkpt>
      <trkpt lat="44.4331" lon="1.47873">
        <ele>260.9</ele>
        <time>2021-07-17T15:31:24Z</time>
      </trkpt>
      <trkpt lat="44.43313" lon="1.47876">
        <ele>260.6</ele>
        <time>2021-07-17T15:31:25Z</time>
      </trkpt>
      <trkpt lat="44.43317" lon="1.47878">
        <ele>260.4</ele>
        <time>2021-07-17T15:31:26Z</time>
      </trkpt>
      <trkpt lat="44.43325" lon="1.47882">
        <ele>260.4</ele>
        <time>2021-07-17T15:31:28Z</time>
      </trkpt>
      <trkpt lat="44.43327" lon="1.47884">
        <ele>260</ele>
        <time>2021-07-17T15:31:30Z</time>
      </trkpt>
      <trkpt lat="44.43328" lon="1.47886">
        <ele>260</ele>
        <time>2021-07-17T15:31:31Z</time>
      </trkpt>
      <trkpt lat="44.4333" lon="1.47891">
        <ele>259.3</ele>
        <time>2021-07-17T15:31:32Z</time>
      </trkpt>
      <trkpt lat="44.43334" lon="1.47899">
        <ele>258.8</ele>
        <time>2021-07-17T15:31:33Z</time>
      </trkpt>
      <trkpt lat="44.4334" lon="1.47904">
        <ele>257.8</ele>
        <time>2021-07-17T15:31:34Z</time>
      </trkpt>
      <trkpt lat="44.43347" lon="1.47915">
        <ele>256.5</ele>
        <time>2021-07-17T15:31:36Z</time>
      </trkpt>
      <trkpt lat="44.43349" lon="1.47918">
        <ele>255.8</ele>
        <time>2021-07-17T15:31:37Z</time>
      </trkpt>
      <trkpt lat="44.43354" lon="1.47921">
        <ele>255.1</ele>
        <time>2021-07-17T15:31:39Z</time>
      </trkpt>
      <trkpt lat="44.43353" lon="1.47923">
        <ele>255</ele>
        <time>2021-07-17T15:31:41Z</time>
      </trkpt>
      <trkpt lat="44.43353" lon="1.47923">
        <ele>254.9</ele>
        <time>2021-07-17T15:31:42Z</time>
      </trkpt>
      <trkpt lat="44.43353" lon="1.47923">
        <ele>254.9</ele>
        <time>2021-07-17T15:31:44Z</time>
      </trkpt>
      <trkpt lat="44.43353" lon="1.47923">
        <ele>254.9</ele>
        <time>2021-07-17T15:31:45Z</time>
      </trkpt>
      <trkpt lat="44.43353" lon="1.47922">
        <ele>254.8</ele>
        <time>2021-07-17T15:31:47Z</time>
      </trkpt>
      <trkpt lat="44.43353" lon="1.47922">
        <ele>254.8</ele>
        <time>2021-07-17T15:31:48Z</time>
      </trkpt>
      <trkpt lat="44.43352" lon="1.47922">
        <ele>254.7</ele>
        <time>2021-07-17T15:31:49Z</time>
      </trkpt>
      <trkpt lat="44.43348" lon="1.47918">
        <ele>255.4</ele>
        <time>2021-07-17T15:40:30Z</time>
      </trkpt>
      <trkpt lat="44.43345" lon="1.47915">
        <ele>256.1</ele>
        <time>2021-07-17T15:40:32Z</time>
      </trkpt>
      <trkpt lat="44.43344" lon="1.47914">
        <ele>256.1</ele>
        <time>2021-07-17T15:40:34Z</time>
      </trkpt>
      <trkpt lat="44.43344" lon="1.47914">
        <ele>256.3</ele>
        <time>2021-07-17T15:40:36Z</time>
      </trkpt>
      <trkpt lat="44.43344" lon="1.47914">
        <ele>256.2</ele>
        <time>2021-07-17T15:40:37Z</time>
      </trkpt>
      <trkpt lat="44.43344" lon="1.47914">
        <ele>256.2</ele>
        <time>2021-07-17T15:40:38Z</time>
      </trkpt>
      <trkpt lat="44.43344" lon="1.47914">
        <ele>256.1</ele>
        <time>2021-07-17T15:40:40Z</time>
      </trkpt>
      <trkpt lat="44.43344" lon="1.47914">
        <ele>256.1</ele>
        <time>2021-07-17T15:40:41Z</time>
      </trkpt>
      <trkpt lat="44.43344" lon="1.47914">
        <ele>256.1</ele>
        <time>2021-07-17T15:40:42Z</time>
      </trkpt>
      <trkpt lat="44.43344" lon="1.47914">
        <ele>256</ele>
        <time>2021-07-17T15:40:43Z</time>
      </trkpt>
      <trkpt lat="44.43344" lon="1.47914">
        <ele>256</ele>
        <time>2021-07-17T15:40:44Z</time>
      </trkpt>
      <trkpt lat="44.43344" lon="1.47914">
        <ele>255.9</ele>
        <time>2021-07-17T15:40:46Z</time>
      </trkpt>
      <trkpt lat="44.43344" lon="1.47914">
        <ele>255.9</ele>
        <time>2021-07-17T15:40:47Z</time>
      </trkpt>
      <trkpt lat="44.43344" lon="1.47914">
        <ele>255.9</ele>
        <time>2021-07-17T15:40:48Z</time>
      </trkpt>
      <trkpt lat="44.43344" lon="1.47914">
        <ele>255.8</ele>
        <time>2021-07-17T15:40:50Z</time>
      </trkpt>
      <trkpt lat="44.43344" lon="1.47914">
        <ele>255.8</ele>
        <time>2021-07-17T15:40:52Z</time>
      </trkpt>
      <trkpt lat="44.43344" lon="1.47914">
        <ele>255.7</ele>
        <time>2021-07-17T15:40:53Z</time>
      </trkpt>
      <trkpt lat="44.43344" lon="1.47914">
        <ele>255.7</ele>
        <time>2021-07-17T15:40:55Z</time>
      </trkpt>
      <trkpt lat="44.43344" lon="1.47914">
        <ele>255.7</ele>
        <time>2021-07-17T15:40:56Z</time>
      </trkpt>
      <trkpt lat="44.43344" lon="1.47914">
        <ele>255.6</ele>
        <time>2021-07-17T15:40:57Z</time>
      </trkpt>
      <trkpt lat="44.43344" lon="1.47914">
        <ele>255.6</ele>
        <time>2021-07-17T15:40:59Z</time>
      </trkpt>
      <trkpt lat="44.43344" lon="1.47914">
        <ele>255.5</ele>
        <time>2021-07-17T15:41:00Z</time>
      </trkpt>
      <trkpt lat="44.43344" lon="1.47914">
        <ele>255.5</ele>
        <time>2021-07-17T15:41:01Z</time>
      </trkpt>
      <trkpt lat="44.43344" lon="1.47914">
        <ele>255.4</ele>
        <time>2021-07-17T15:41:03Z</time>
      </trkpt>
      <trkpt lat="44.43344" lon="1.47914">
        <ele>255.4</ele>
        <time>2021-07-17T15:41:04Z</time>
      </trkpt>
      <trkpt lat="44.43344" lon="1.47914">
        <ele>255.4</ele>
        <time>2021-07-17T15:41:05Z</time>
      </trkpt>
      <trkpt lat="44.43344" lon="1.47914">
        <ele>255.3</ele>
        <time>2021-07-17T15:41:07Z</time>
      </trkpt>
      <trkpt lat="44.43344" lon="1.47914">
        <ele>255.3</ele>
        <time>2021-07-17T15:41:08Z</time>
      </trkpt>
      <trkpt lat="44.43344" lon="1.47914">
        <ele>255.2</ele>
        <time>2021-07-17T15:41:10Z</time>
      </trkpt>
      <trkpt lat="44.43344" lon="1.47914">
        <ele>255.2</ele>
        <time>2021-07-17T15:41:11Z</time>
      </trkpt>
      <trkpt lat="44.43344" lon="1.47914">
        <ele>255.2</ele>
        <time>2021-07-17T15:41:12Z</time>
      </trkpt>
      <trkpt lat="44.43344" lon="1.47914">
        <ele>255.1</ele>
        <time>2021-07-17T15:41:14Z</time>
      </trkpt>
      <trkpt lat="44.43344" lon="1.47914">
        <ele>255.1</ele>
        <time>2021-07-17T15:41:16Z</time>
      </trkpt>
      <trkpt lat="44.43344" lon="1.47914">
        <ele>255</ele>
        <time>2021-07-17T15:41:17Z</time>
      </trkpt>
      <trkpt lat="44.43344" lon="1.47914">
        <ele>255</ele>
        <time>2021-07-17T15:41:18Z</time>
      </trkpt>
      <trkpt lat="44.43344" lon="1.47914">
        <ele>255</ele>
        <time>2021-07-17T15:41:20Z</time>
      </trkpt>
      <trkpt lat="44.43344" lon="1.47914">
        <ele>254.9</ele>
        <time>2021-07-17T15:41:22Z</time>
      </trkpt>
      <trkpt lat="44.43344" lon="1.47914">
        <ele>254.9</ele>
        <time>2021-07-17T15:41:24Z</time>
      </trkpt>
      <trkpt lat="44.43344" lon="1.47914">
        <ele>254.8</ele>
        <time>2021-07-17T15:41:26Z</time>
      </trkpt>
      <trkpt lat="44.43344" lon="1.47914">
        <ele>254.8</ele>
        <time>2021-07-17T15:41:27Z</time>
      </trkpt>
      <trkpt lat="44.43344" lon="1.47914">
        <ele>254.8</ele>
        <time>2021-07-17T15:41:29Z</time>
      </trkpt>
      <trkpt lat="44.43344" lon="1.47914">
        <ele>254.7</ele>
        <time>2021-07-17T15:41:30Z</time>
      </trkpt>
      <trkpt lat="44.43345" lon="1.47916">
        <ele>254</ele>
        <time>2021-07-17T15:41:31Z</time>
      </trkpt>
      <trkpt lat="44.43346" lon="1.47916">
        <ele>254.4</ele>
        <time>2021-07-17T15:41:33Z</time>
      </trkpt>
      <trkpt lat="44.43347" lon="1.47916">
        <ele>253.9</ele>
        <time>2021-07-17T15:41:34Z</time>
      </trkpt>
      <trkpt lat="44.43348" lon="1.47917">
        <ele>253.6</ele>
        <time>2021-07-17T15:41:35Z</time>
      </trkpt>
      <trkpt lat="44.43348" lon="1.47918">
        <ele>253.6</ele>
        <time>2021-07-17T15:41:36Z</time>
      </trkpt>
      <trkpt lat="44.43349" lon="1.47918">
        <ele>253.5</ele>
        <time>2021-07-17T15:41:38Z</time>
      </trkpt>
      <trkpt lat="44.43349" lon="1.47917">
        <ele>253.5</ele>
        <time>2021-07-17T15:41:40Z</time>
      </trkpt>
      <trkpt lat="44.4335" lon="1.47917">
        <ele>253.4</ele>
        <time>2021-07-17T15:41:41Z</time>
      </trkpt>
      <trkpt lat="44.4335" lon="1.47917">
        <ele>253.4</ele>
        <time>2021-07-17T15:41:43Z</time>
      </trkpt>
      <trkpt lat="44.43353" lon="1.47924">
        <ele>252.6</ele>
        <time>2021-07-17T15:42:54Z</time>
      </trkpt>
      <trkpt lat="44.43358" lon="1.4793">
        <ele>250.9</ele>
        <time>2021-07-17T15:42:56Z</time>
      </trkpt>
      <trkpt lat="44.43364" lon="1.47937">
        <ele>249.5</ele>
        <time>2021-07-17T15:42:57Z</time>
      </trkpt>
      <trkpt lat="44.43367" lon="1.47942">
        <ele>248.5</ele>
        <time>2021-07-17T15:42:59Z</time>
      </trkpt>
      <trkpt lat="44.43372" lon="1.47946">
        <ele>247</ele>
        <time>2021-07-17T15:43:00Z</time>
      </trkpt>
      <trkpt lat="44.43372" lon="1.47952">
        <ele>246</ele>
        <time>2021-07-17T15:43:01Z</time>
      </trkpt>
      <trkpt lat="44.43374" lon="1.47959">
        <ele>245.4</ele>
        <time>2021-07-17T15:43:03Z</time>
      </trkpt>
      <trkpt lat="44.43375" lon="1.47963">
        <ele>244.3</ele>
        <time>2021-07-17T15:43:04Z</time>
      </trkpt>
      <trkpt lat="44.4338" lon="1.47976">
        <ele>241.6</ele>
        <time>2021-07-17T15:43:06Z</time>
      </trkpt>
      <trkpt lat="44.43383" lon="1.47983">
        <ele>239.8</ele>
        <time>2021-07-17T15:43:07Z</time>
      </trkpt>
      <trkpt lat="44.43385" lon="1.4799">
        <ele>238</ele>
        <time>2021-07-17T15:43:08Z</time>
      </trkpt>
      <trkpt lat="44.43387" lon="1.47993">
        <ele>238</ele>
        <time>2021-07-17T15:43:09Z</time>
      </trkpt>
      <trkpt lat="44.43391" lon="1.47995">
        <ele>236.4</ele>
        <time>2021-07-17T15:43:11Z</time>
      </trkpt>
      <trkpt lat="44.43396" lon="1.47991">
        <ele>236.4</ele>
        <time>2021-07-17T15:43:12Z</time>
      </trkpt>
      <trkpt lat="44.43403" lon="1.47986">
        <ele>235.4</ele>
        <time>2021-07-17T15:43:14Z</time>
      </trkpt>
      <trkpt lat="44.43413" lon="1.47983">
        <ele>234.1</ele>
        <time>2021-07-17T15:43:15Z</time>
      </trkpt>
      <trkpt lat="44.43419" lon="1.47981">
        <ele>232.8</ele>
        <time>2021-07-17T15:43:16Z</time>
      </trkpt>
      <trkpt lat="44.43425" lon="1.47981">
        <ele>231.6</ele>
        <time>2021-07-17T15:43:17Z</time>
      </trkpt>
      <trkpt lat="44.4343" lon="1.47979">
        <ele>230.9</ele>
        <time>2021-07-17T15:43:18Z</time>
      </trkpt>
      <trkpt lat="44.43435" lon="1.47977">
        <ele>230.2</ele>
        <time>2021-07-17T15:43:19Z</time>
      </trkpt>
      <trkpt lat="44.43437" lon="1.47975">
        <ele>230</ele>
        <time>2021-07-17T15:43:21Z</time>
      </trkpt>
      <trkpt lat="44.43439" lon="1.47972">
        <ele>230.3</ele>
        <time>2021-07-17T15:43:22Z</time>
      </trkpt>
      <trkpt lat="44.43441" lon="1.47967">
        <ele>230</ele>
        <time>2021-07-17T15:43:23Z</time>
      </trkpt>
      <trkpt lat="44.43445" lon="1.47965">
        <ele>229.2</ele>
        <time>2021-07-17T15:43:24Z</time>
      </trkpt>
      <trkpt lat="44.43448" lon="1.47964">
        <ele>228.5</ele>
        <time>2021-07-17T15:43:25Z</time>
      </trkpt>
      <trkpt lat="44.43452" lon="1.4796">
        <ele>227.4</ele>
        <time>2021-07-17T15:43:27Z</time>
      </trkpt>
      <trkpt lat="44.43455" lon="1.47954">
        <ele>227.7</ele>
        <time>2021-07-17T15:43:28Z</time>
      </trkpt>
      <trkpt lat="44.43458" lon="1.47954">
        <ele>226.4</ele>
        <time>2021-07-17T15:43:30Z</time>
      </trkpt>
      <trkpt lat="44.43461" lon="1.47961">
        <ele>225.3</ele>
        <time>2021-07-17T15:43:31Z</time>
      </trkpt>
      <trkpt lat="44.43464" lon="1.47968">
        <ele>224.9</ele>
        <time>2021-07-17T15:43:32Z</time>
      </trkpt>
      <trkpt lat="44.43467" lon="1.47982">
        <ele>222.9</ele>
        <time>2021-07-17T15:43:34Z</time>
      </trkpt>
      <trkpt lat="44.43469" lon="1.47987">
        <ele>222.7</ele>
        <time>2021-07-17T15:43:35Z</time>
      </trkpt>
      <trkpt lat="44.43471" lon="1.47991">
        <ele>221.8</ele>
        <time>2021-07-17T15:43:37Z</time>
      </trkpt>
      <trkpt lat="44.43475" lon="1.47993">
        <ele>221.1</ele>
        <time>2021-07-17T15:43:38Z</time>
      </trkpt>
      <trkpt lat="44.43479" lon="1.47992">
        <ele>220.5</ele>
        <time>2021-07-17T15:43:39Z</time>
      </trkpt>
      <trkpt lat="44.4348" lon="1.47997">
        <ele>219.6</ele>
        <time>2021-07-17T15:43:40Z</time>
      </trkpt>
      <trkpt lat="44.43481" lon="1.48002">
        <ele>219.4</ele>
        <time>2021-07-17T15:43:41Z</time>
      </trkpt>
      <trkpt lat="44.43486" lon="1.48006">
        <ele>218.1</ele>
        <time>2021-07-17T15:43:43Z</time>
      </trkpt>
      <trkpt lat="44.43492" lon="1.48008">
        <ele>216.9</ele>
        <time>2021-07-17T15:43:44Z</time>
      </trkpt>
      <trkpt lat="44.43495" lon="1.48013">
        <ele>216</ele>
        <time>2021-07-17T15:43:45Z</time>
      </trkpt>
      <trkpt lat="44.43497" lon="1.48018">
        <ele>215.7</ele>
        <time>2021-07-17T15:43:46Z</time>
      </trkpt>
      <trkpt lat="44.43498" lon="1.48025">
        <ele>214.5</ele>
        <time>2021-07-17T15:43:47Z</time>
      </trkpt>
      <trkpt lat="44.43498" lon="1.48034">
        <ele>213.8</ele>
        <time>2021-07-17T15:43:48Z</time>
      </trkpt>
      <trkpt lat="44.43496" lon="1.48049">
        <ele>212.7</ele>
        <time>2021-07-17T15:43:50Z</time>
      </trkpt>
      <trkpt lat="44.43497" lon="1.48056">
        <ele>212.2</ele>
        <time>2021-07-17T15:43:52Z</time>
      </trkpt>
      <trkpt lat="44.435" lon="1.48062">
        <ele>210.8</ele>
        <time>2021-07-17T15:43:53Z</time>
      </trkpt>
      <trkpt lat="44.43501" lon="1.48066">
        <ele>210.4</ele>
        <time>2021-07-17T15:43:54Z</time>
      </trkpt>
      <trkpt lat="44.43505" lon="1.4807">
        <ele>209.5</ele>
        <time>2021-07-17T15:43:55Z</time>
      </trkpt>
      <trkpt lat="44.43507" lon="1.4808">
        <ele>207.9</ele>
        <time>2021-07-17T15:43:58Z</time>
      </trkpt>
      <trkpt lat="44.43512" lon="1.4808">
        <ele>207.6</ele>
        <time>2021-07-17T15:43:59Z</time>
      </trkpt>
      <trkpt lat="44.43516" lon="1.48083">
        <ele>206.8</ele>
        <time>2021-07-17T15:44:00Z</time>
      </trkpt>
      <trkpt lat="44.4352" lon="1.48082">
        <ele>206.2</ele>
        <time>2021-07-17T15:44:01Z</time>
      </trkpt>
      <trkpt lat="44.43523" lon="1.4808">
        <ele>205.7</ele>
        <time>2021-07-17T15:44:02Z</time>
      </trkpt>
      <trkpt lat="44.43528" lon="1.48076">
        <ele>205.4</ele>
        <time>2021-07-17T15:44:04Z</time>
      </trkpt>
      <trkpt lat="44.43531" lon="1.48075">
        <ele>205.1</ele>
        <time>2021-07-17T15:44:05Z</time>
      </trkpt>
      <trkpt lat="44.43534" lon="1.48072">
        <ele>204.5</ele>
        <time>2021-07-17T15:44:06Z</time>
      </trkpt>
      <trkpt lat="44.43539" lon="1.48066">
        <ele>204.2</ele>
        <time>2021-07-17T15:44:08Z</time>
      </trkpt>
      <trkpt lat="44.43544" lon="1.48067">
        <ele>203.2</ele>
        <time>2021-07-17T15:44:09Z</time>
      </trkpt>
      <trkpt lat="44.43547" lon="1.48069">
        <ele>202.3</ele>
        <time>2021-07-17T15:44:10Z</time>
      </trkpt>
      <trkpt lat="44.43547" lon="1.48075">
        <ele>201.5</ele>
        <time>2021-07-17T15:44:11Z</time>
      </trkpt>
      <trkpt lat="44.43547" lon="1.48083">
        <ele>201.2</ele>
        <time>2021-07-17T15:44:13Z</time>
      </trkpt>
      <trkpt lat="44.43551" lon="1.48088">
        <ele>200.3</ele>
        <time>2021-07-17T15:44:14Z</time>
      </trkpt>
      <trkpt lat="44.43556" lon="1.48089">
        <ele>199.5</ele>
        <time>2021-07-17T15:44:15Z</time>
      </trkpt>
      <trkpt lat="44.43562" lon="1.48088">
        <ele>198.1</ele>
        <time>2021-07-17T15:44:16Z</time>
      </trkpt>
      <trkpt lat="44.43573" lon="1.48084">
        <ele>197.1</ele>
        <time>2021-07-17T15:44:18Z</time>
      </trkpt>
      <trkpt lat="44.43582" lon="1.48076">
        <ele>196.6</ele>
        <time>2021-07-17T15:44:20Z</time>
      </trkpt>
      <trkpt lat="44.43589" lon="1.48074">
        <ele>196</ele>
        <time>2021-07-17T15:44:22Z</time>
      </trkpt>
      <trkpt lat="44.43589" lon="1.48075">
        <ele>195.5</ele>
        <time>2021-07-17T15:44:23Z</time>
      </trkpt>
      <trkpt lat="44.4359" lon="1.48078">
        <ele>195</ele>
        <time>2021-07-17T15:44:24Z</time>
      </trkpt>
      <trkpt lat="44.4359" lon="1.48085">
        <ele>194.1</ele>
        <time>2021-07-17T15:44:26Z</time>
      </trkpt>
      <trkpt lat="44.43591" lon="1.48094">
        <ele>193.3</ele>
        <time>2021-07-17T15:44:27Z</time>
      </trkpt>
      <trkpt lat="44.43593" lon="1.48098">
        <ele>192.6</ele>
        <time>2021-07-17T15:44:29Z</time>
      </trkpt>
      <trkpt lat="44.43597" lon="1.48098">
        <ele>192.2</ele>
        <time>2021-07-17T15:44:30Z</time>
      </trkpt>
      <trkpt lat="44.436" lon="1.48098">
        <ele>191.9</ele>
        <time>2021-07-17T15:44:31Z</time>
      </trkpt>
      <trkpt lat="44.43603" lon="1.48101">
        <ele>191.6</ele>
        <time>2021-07-17T15:44:32Z</time>
      </trkpt>
      <trkpt lat="44.43607" lon="1.48104">
        <ele>191.1</ele>
        <time>2021-07-17T15:44:33Z</time>
      </trkpt>
      <trkpt lat="44.4361" lon="1.48107">
        <ele>190.5</ele>
        <time>2021-07-17T15:44:34Z</time>
      </trkpt>
      <trkpt lat="44.4361" lon="1.48112">
        <ele>190.3</ele>
        <time>2021-07-17T15:44:36Z</time>
      </trkpt>
      <trkpt lat="44.4361" lon="1.48117">
        <ele>190.1</ele>
        <time>2021-07-17T15:44:37Z</time>
      </trkpt>
      <trkpt lat="44.43611" lon="1.48122">
        <ele>189.9</ele>
        <time>2021-07-17T15:44:38Z</time>
      </trkpt>
      <trkpt lat="44.43615" lon="1.48126">
        <ele>189.3</ele>
        <time>2021-07-17T15:44:40Z</time>
      </trkpt>
      <trkpt lat="44.43623" lon="1.48132">
        <ele>188.6</ele>
        <time>2021-07-17T15:44:41Z</time>
      </trkpt>
      <trkpt lat="44.43629" lon="1.48136">
        <ele>188.3</ele>
        <time>2021-07-17T15:44:42Z</time>
      </trkpt>
      <trkpt lat="44.43641" lon="1.48139">
        <ele>186.9</ele>
        <time>2021-07-17T15:44:44Z</time>
      </trkpt>
      <trkpt lat="44.43649" lon="1.48137">
        <ele>187.3</ele>
        <time>2021-07-17T15:44:46Z</time>
      </trkpt>
      <trkpt lat="44.43651" lon="1.48134">
        <ele>187.4</ele>
        <time>2021-07-17T15:44:47Z</time>
      </trkpt>
      <trkpt lat="44.43654" lon="1.48133">
        <ele>187.6</ele>
        <time>2021-07-17T15:44:49Z</time>
      </trkpt>
      <trkpt lat="44.43655" lon="1.48131">
        <ele>187.6</ele>
        <time>2021-07-17T15:44:50Z</time>
      </trkpt>
      <trkpt lat="44.43656" lon="1.4813">
        <ele>187.7</ele>
        <time>2021-07-17T15:44:52Z</time>
      </trkpt>
      <trkpt lat="44.43655" lon="1.4813">
        <ele>187.7</ele>
        <time>2021-07-17T15:44:54Z</time>
      </trkpt>
      <trkpt lat="44.43655" lon="1.4813">
        <ele>187.7</ele>
        <time>2021-07-17T15:44:55Z</time>
      </trkpt>
      <trkpt lat="44.43655" lon="1.4813">
        <ele>187.7</ele>
        <time>2021-07-17T15:44:56Z</time>
      </trkpt>
      <trkpt lat="44.43655" lon="1.4813">
        <ele>187.7</ele>
        <time>2021-07-17T15:44:58Z</time>
      </trkpt>
      <trkpt lat="44.43654" lon="1.48134">
        <ele>187.9</ele>
        <time>2021-07-17T15:48:46Z</time>
      </trkpt>
      <trkpt lat="44.43652" lon="1.48137">
        <ele>188</ele>
        <time>2021-07-17T15:48:47Z</time>
      </trkpt>
      <trkpt lat="44.43652" lon="1.48138">
        <ele>188</ele>
        <time>2021-07-17T15:48:48Z</time>
      </trkpt>
      <trkpt lat="44.4365" lon="1.48141">
        <ele>188.2</ele>
        <time>2021-07-17T15:48:50Z</time>
      </trkpt>
      <trkpt lat="44.43647" lon="1.48144">
        <ele>188.3</ele>
        <time>2021-07-17T15:48:51Z</time>
      </trkpt>
      <trkpt lat="44.43645" lon="1.48147">
        <ele>188.5</ele>
        <time>2021-07-17T15:48:52Z</time>
      </trkpt>
      <trkpt lat="44.43644" lon="1.48149">
        <ele>188.6</ele>
        <time>2021-07-17T15:48:53Z</time>
      </trkpt>
      <trkpt lat="44.43642" lon="1.48152">
        <ele>188.7</ele>
        <time>2021-07-17T15:48:55Z</time>
      </trkpt>
      <trkpt lat="44.4364" lon="1.48155">
        <ele>188.9</ele>
        <time>2021-07-17T15:48:56Z</time>
      </trkpt>
      <trkpt lat="44.43639" lon="1.48156">
        <ele>188.9</ele>
        <time>2021-07-17T15:48:57Z</time>
      </trkpt>
      <trkpt lat="44.43637" lon="1.48159">
        <ele>189</ele>
        <time>2021-07-17T15:48:59Z</time>
      </trkpt>
      <trkpt lat="44.43636" lon="1.48159">
        <ele>189.1</ele>
        <time>2021-07-17T15:49:00Z</time>
      </trkpt>
      <trkpt lat="44.43633" lon="1.48162">
        <ele>189.2</ele>
        <time>2021-07-17T15:49:02Z</time>
      </trkpt>
      <trkpt lat="44.43632" lon="1.48163">
        <ele>189.3</ele>
        <time>2021-07-17T15:49:03Z</time>
      </trkpt>
      <trkpt lat="44.43629" lon="1.48166">
        <ele>189.4</ele>
        <time>2021-07-17T15:49:04Z</time>
      </trkpt>
      <trkpt lat="44.43628" lon="1.48168">
        <ele>189.5</ele>
        <time>2021-07-17T15:49:05Z</time>
      </trkpt>
      <trkpt lat="44.43626" lon="1.4817">
        <ele>189.6</ele>
        <time>2021-07-17T15:49:06Z</time>
      </trkpt>
      <trkpt lat="44.43622" lon="1.48172">
        <ele>189.8</ele>
        <time>2021-07-17T15:49:08Z</time>
      </trkpt>
      <trkpt lat="44.43621" lon="1.48173">
        <ele>189.8</ele>
        <time>2021-07-17T15:49:09Z</time>
      </trkpt>
      <trkpt lat="44.43619" lon="1.48174">
        <ele>189.9</ele>
        <time>2021-07-17T15:49:10Z</time>
      </trkpt>
      <trkpt lat="44.43618" lon="1.48175">
        <ele>190</ele>
        <time>2021-07-17T15:49:12Z</time>
      </trkpt>
      <trkpt lat="44.43617" lon="1.48176">
        <ele>190</ele>
        <time>2021-07-17T15:49:14Z</time>
      </trkpt>
      <trkpt lat="44.43616" lon="1.48177">
        <ele>190.1</ele>
        <time>2021-07-17T15:49:16Z</time>
      </trkpt>
      <trkpt lat="44.43614" lon="1.48178">
        <ele>190.2</ele>
        <time>2021-07-17T15:49:17Z</time>
      </trkpt>
      <trkpt lat="44.43611" lon="1.48182">
        <ele>190.3</ele>
        <time>2021-07-17T15:49:19Z</time>
      </trkpt>
      <trkpt lat="44.4361" lon="1.48184">
        <ele>190.4</ele>
        <time>2021-07-17T15:49:20Z</time>
      </trkpt>
      <trkpt lat="44.43608" lon="1.48187">
        <ele>190.5</ele>
        <time>2021-07-17T15:49:22Z</time>
      </trkpt>
      <trkpt lat="44.43606" lon="1.4819">
        <ele>190.6</ele>
        <time>2021-07-17T15:49:23Z</time>
      </trkpt>
      <trkpt lat="44.43605" lon="1.48191">
        <ele>190.7</ele>
        <time>2021-07-17T15:49:24Z</time>
      </trkpt>
      <trkpt lat="44.43603" lon="1.48193">
        <ele>190.8</ele>
        <time>2021-07-17T15:49:26Z</time>
      </trkpt>
      <trkpt lat="44.43601" lon="1.48194">
        <ele>190.9</ele>
        <time>2021-07-17T15:49:27Z</time>
      </trkpt>
      <trkpt lat="44.436" lon="1.48195">
        <ele>190.9</ele>
        <time>2021-07-17T15:49:28Z</time>
      </trkpt>
      <trkpt lat="44.43597" lon="1.48197">
        <ele>191</ele>
        <time>2021-07-17T15:49:30Z</time>
      </trkpt>
      <trkpt lat="44.43597" lon="1.48197">
        <ele>191.1</ele>
        <time>2021-07-17T15:49:31Z</time>
      </trkpt>
      <trkpt lat="44.43595" lon="1.48199">
        <ele>191.1</ele>
        <time>2021-07-17T15:49:32Z</time>
      </trkpt>
      <trkpt lat="44.43594" lon="1.48199">
        <ele>191.2</ele>
        <time>2021-07-17T15:49:34Z</time>
      </trkpt>
      <trkpt lat="44.43593" lon="1.482">
        <ele>191.2</ele>
        <time>2021-07-17T15:49:35Z</time>
      </trkpt>
      <trkpt lat="44.43589" lon="1.48203">
        <ele>191.3</ele>
        <time>2021-07-17T15:49:37Z</time>
      </trkpt>
      <trkpt lat="44.43588" lon="1.48204">
        <ele>191.4</ele>
        <time>2021-07-17T15:49:38Z</time>
      </trkpt>
      <trkpt lat="44.43587" lon="1.48205">
        <ele>191.4</ele>
        <time>2021-07-17T15:49:39Z</time>
      </trkpt>
      <trkpt lat="44.43586" lon="1.48206">
        <ele>191.4</ele>
        <time>2021-07-17T15:49:40Z</time>
      </trkpt>
      <trkpt lat="44.43583" lon="1.48208">
        <ele>191.5</ele>
        <time>2021-07-17T15:49:42Z</time>
      </trkpt>
      <trkpt lat="44.4358" lon="1.4821">
        <ele>191.6</ele>
        <time>2021-07-17T15:49:44Z</time>
      </trkpt>
      <trkpt lat="44.4358" lon="1.48211">
        <ele>191.6</ele>
        <time>2021-07-17T15:49:45Z</time>
      </trkpt>
      <trkpt lat="44.43579" lon="1.48211">
        <ele>191.6</ele>
        <time>2021-07-17T15:49:46Z</time>
      </trkpt>
      <trkpt lat="44.43579" lon="1.48211">
        <ele>191.7</ele>
        <time>2021-07-17T15:49:47Z</time>
      </trkpt>
      <trkpt lat="44.43576" lon="1.48212">
        <ele>191.7</ele>
        <time>2021-07-17T15:49:49Z</time>
      </trkpt>
      <trkpt lat="44.43576" lon="1.48212">
        <ele>191.7</ele>
        <time>2021-07-17T15:49:50Z</time>
      </trkpt>
      <trkpt lat="44.43576" lon="1.48212">
        <ele>191.8</ele>
        <time>2021-07-17T15:49:52Z</time>
      </trkpt>
      <trkpt lat="44.43576" lon="1.48212">
        <ele>191.8</ele>
        <time>2021-07-17T15:49:54Z</time>
      </trkpt>
      <trkpt lat="44.43576" lon="1.48212">
        <ele>191.8</ele>
        <time>2021-07-17T15:49:55Z</time>
      </trkpt>
      <trkpt lat="44.4357" lon="1.48213">
        <ele>191.9</ele>
        <time>2021-07-17T15:51:14Z</time>
      </trkpt>
      <trkpt lat="44.43566" lon="1.48215">
        <ele>192</ele>
        <time>2021-07-17T15:51:16Z</time>
      </trkpt>
      <trkpt lat="44.43564" lon="1.48217">
        <ele>192</ele>
        <time>2021-07-17T15:51:17Z</time>
      </trkpt>
      <trkpt lat="44.43563" lon="1.48217">
        <ele>192</ele>
        <time>2021-07-17T15:51:18Z</time>
      </trkpt>
      <trkpt lat="44.4356" lon="1.4822">
        <ele>192.1</ele>
        <time>2021-07-17T15:51:20Z</time>
      </trkpt>
      <trkpt lat="44.43556" lon="1.48221">
        <ele>192.2</ele>
        <time>2021-07-17T15:51:22Z</time>
      </trkpt>
      <trkpt lat="44.43555" lon="1.48221">
        <ele>192.2</ele>
        <time>2021-07-17T15:51:23Z</time>
      </trkpt>
      <trkpt lat="44.43551" lon="1.48223">
        <ele>192.2</ele>
        <time>2021-07-17T15:51:25Z</time>
      </trkpt>
      <trkpt lat="44.43549" lon="1.48224">
        <ele>192.3</ele>
        <time>2021-07-17T15:51:26Z</time>
      </trkpt>
      <trkpt lat="44.43545" lon="1.48225">
        <ele>192.3</ele>
        <time>2021-07-17T15:51:28Z</time>
      </trkpt>
      <trkpt lat="44.43543" lon="1.48225">
        <ele>192.3</ele>
        <time>2021-07-17T15:51:29Z</time>
      </trkpt>
      <trkpt lat="44.43541" lon="1.48225">
        <ele>192.3</ele>
        <time>2021-07-17T15:51:30Z</time>
      </trkpt>
      <trkpt lat="44.43538" lon="1.48226">
        <ele>192.4</ele>
        <time>2021-07-17T15:51:32Z</time>
      </trkpt>
      <trkpt lat="44.43533" lon="1.48227">
        <ele>192.4</ele>
        <time>2021-07-17T15:51:34Z</time>
      </trkpt>
      <trkpt lat="44.4353" lon="1.48227">
        <ele>192.4</ele>
        <time>2021-07-17T15:51:35Z</time>
      </trkpt>
      <trkpt lat="44.43529" lon="1.48227">
        <ele>192.5</ele>
        <time>2021-07-17T15:51:36Z</time>
      </trkpt>
      <trkpt lat="44.43526" lon="1.48227">
        <ele>192.5</ele>
        <time>2021-07-17T15:51:38Z</time>
      </trkpt>
      <trkpt lat="44.43522" lon="1.48228">
        <ele>192.5</ele>
        <time>2021-07-17T15:51:40Z</time>
      </trkpt>
      <trkpt lat="44.43521" lon="1.48228">
        <ele>192.6</ele>
        <time>2021-07-17T15:51:41Z</time>
      </trkpt>
      <trkpt lat="44.43519" lon="1.48227">
        <ele>192.6</ele>
        <time>2021-07-17T15:51:42Z</time>
      </trkpt>
      <trkpt lat="44.43517" lon="1.48227">
        <ele>192.6</ele>
        <time>2021-07-17T15:51:43Z</time>
      </trkpt>
      <trkpt lat="44.43515" lon="1.48227">
        <ele>192.7</ele>
        <time>2021-07-17T15:51:44Z</time>
      </trkpt>
      <trkpt lat="44.43512" lon="1.48226">
        <ele>192.8</ele>
        <time>2021-07-17T15:51:46Z</time>
      </trkpt>
      <trkpt lat="44.43509" lon="1.48224">
        <ele>192.8</ele>
        <time>2021-07-17T15:51:48Z</time>
      </trkpt>
      <trkpt lat="44.43505" lon="1.48224">
        <ele>192.9</ele>
        <time>2021-07-17T15:51:50Z</time>
      </trkpt>
      <trkpt lat="44.43502" lon="1.48224">
        <ele>193</ele>
        <time>2021-07-17T15:51:52Z</time>
      </trkpt>
      <trkpt lat="44.43499" lon="1.48223">
        <ele>193.1</ele>
        <time>2021-07-17T15:51:54Z</time>
      </trkpt>
      <trkpt lat="44.43496" lon="1.48222">
        <ele>193.2</ele>
        <time>2021-07-17T15:51:56Z</time>
      </trkpt>
      <trkpt lat="44.43492" lon="1.48221">
        <ele>193.3</ele>
        <time>2021-07-17T15:51:58Z</time>
      </trkpt>
      <trkpt lat="44.4349" lon="1.4822">
        <ele>193.4</ele>
        <time>2021-07-17T15:51:59Z</time>
      </trkpt>
      <trkpt lat="44.43487" lon="1.4822">
        <ele>193.5</ele>
        <time>2021-07-17T15:52:01Z</time>
      </trkpt>
      <trkpt lat="44.43484" lon="1.4822">
        <ele>193.6</ele>
        <time>2021-07-17T15:52:02Z</time>
      </trkpt>
      <trkpt lat="44.43481" lon="1.4822">
        <ele>193.7</ele>
        <time>2021-07-17T15:52:04Z</time>
      </trkpt>
      <trkpt lat="44.43476" lon="1.4822">
        <ele>193.8</ele>
        <time>2021-07-17T15:52:06Z</time>
      </trkpt>
      <trkpt lat="44.43474" lon="1.4822">
        <ele>193.9</ele>
        <time>2021-07-17T15:52:07Z</time>
      </trkpt>
      <trkpt lat="44.43472" lon="1.4822">
        <ele>193.9</ele>
        <time>2021-07-17T15:52:08Z</time>
      </trkpt>
      <trkpt lat="44.43469" lon="1.4822">
        <ele>194</ele>
        <time>2021-07-17T15:52:10Z</time>
      </trkpt>
      <trkpt lat="44.43466" lon="1.4822">
        <ele>194.1</ele>
        <time>2021-07-17T15:52:11Z</time>
      </trkpt>
      <trkpt lat="44.43465" lon="1.4822">
        <ele>194.1</ele>
        <time>2021-07-17T15:52:12Z</time>
      </trkpt>
      <trkpt lat="44.43461" lon="1.4822">
        <ele>194.3</ele>
        <time>2021-07-17T15:52:14Z</time>
      </trkpt>
      <trkpt lat="44.43458" lon="1.48219">
        <ele>194.4</ele>
        <time>2021-07-17T15:52:16Z</time>
      </trkpt>
      <trkpt lat="44.43455" lon="1.48218">
        <ele>194.5</ele>
        <time>2021-07-17T15:52:17Z</time>
      </trkpt>
      <trkpt lat="44.43454" lon="1.48218">
        <ele>194.5</ele>
        <time>2021-07-17T15:52:18Z</time>
      </trkpt>
      <trkpt lat="44.4345" lon="1.48218">
        <ele>194.6</ele>
        <time>2021-07-17T15:52:20Z</time>
      </trkpt>
      <trkpt lat="44.43446" lon="1.48218">
        <ele>194.7</ele>
        <time>2021-07-17T15:52:22Z</time>
      </trkpt>
      <trkpt lat="44.43443" lon="1.48218">
        <ele>194.8</ele>
        <time>2021-07-17T15:52:23Z</time>
      </trkpt>
      <trkpt lat="44.43442" lon="1.48217">
        <ele>194.8</ele>
        <time>2021-07-17T15:52:24Z</time>
      </trkpt>
      <trkpt lat="44.43439" lon="1.48217">
        <ele>194.9</ele>
        <time>2021-07-17T15:52:25Z</time>
      </trkpt>
      <trkpt lat="44.43438" lon="1.48216">
        <ele>195</ele>
        <time>2021-07-17T15:52:26Z</time>
      </trkpt>
      <trkpt lat="44.43434" lon="1.48215">
        <ele>195.1</ele>
        <time>2021-07-17T15:52:28Z</time>
      </trkpt>
      <trkpt lat="44.4343" lon="1.48215">
        <ele>195.3</ele>
        <time>2021-07-17T15:52:30Z</time>
      </trkpt>
      <trkpt lat="44.43426" lon="1.48215">
        <ele>195.4</ele>
        <time>2021-07-17T15:52:31Z</time>
      </trkpt>
      <trkpt lat="44.43425" lon="1.48214">
        <ele>195.4</ele>
        <time>2021-07-17T15:52:32Z</time>
      </trkpt>
      <trkpt lat="44.43422" lon="1.48213">
        <ele>195.5</ele>
        <time>2021-07-17T15:52:34Z</time>
      </trkpt>
      <trkpt lat="44.4342" lon="1.48213">
        <ele>195.6</ele>
        <time>2021-07-17T15:52:35Z</time>
      </trkpt>
      <trkpt lat="44.43418" lon="1.48212">
        <ele>195.6</ele>
        <time>2021-07-17T15:52:36Z</time>
      </trkpt>
      <trkpt lat="44.43415" lon="1.48212">
        <ele>195.7</ele>
        <time>2021-07-17T15:52:37Z</time>
      </trkpt>
      <trkpt lat="44.43414" lon="1.48211">
        <ele>195.7</ele>
        <time>2021-07-17T15:52:38Z</time>
      </trkpt>
      <trkpt lat="44.4341" lon="1.4821">
        <ele>195.8</ele>
        <time>2021-07-17T15:52:40Z</time>
      </trkpt>
      <trkpt lat="44.43408" lon="1.48209">
        <ele>195.9</ele>
        <time>2021-07-17T15:52:41Z</time>
      </trkpt>
      <trkpt lat="44.43406" lon="1.48208">
        <ele>195.9</ele>
        <time>2021-07-17T15:52:42Z</time>
      </trkpt>
      <trkpt lat="44.43403" lon="1.48207">
        <ele>196</ele>
        <time>2021-07-17T15:52:43Z</time>
      </trkpt>
      <trkpt lat="44.43402" lon="1.48206">
        <ele>196.1</ele>
        <time>2021-07-17T15:52:44Z</time>
      </trkpt>
      <trkpt lat="44.43398" lon="1.48204">
        <ele>196.2</ele>
        <time>2021-07-17T15:52:46Z</time>
      </trkpt>
      <trkpt lat="44.43397" lon="1.48203">
        <ele>196.2</ele>
        <time>2021-07-17T15:52:47Z</time>
      </trkpt>
      <trkpt lat="44.43396" lon="1.48203">
        <ele>196.3</ele>
        <time>2021-07-17T15:52:48Z</time>
      </trkpt>
      <trkpt lat="44.43392" lon="1.48201">
        <ele>196.4</ele>
        <time>2021-07-17T15:52:50Z</time>
      </trkpt>
      <trkpt lat="44.43388" lon="1.48199">
        <ele>196.5</ele>
        <time>2021-07-17T15:52:52Z</time>
      </trkpt>
      <trkpt lat="44.43384" lon="1.48197">
        <ele>196.7</ele>
        <time>2021-07-17T15:52:54Z</time>
      </trkpt>
      <trkpt lat="44.43381" lon="1.48195">
        <ele>196.8</ele>
        <time>2021-07-17T15:52:56Z</time>
      </trkpt>
      <trkpt lat="44.43377" lon="1.48192">
        <ele>196.9</ele>
        <time>2021-07-17T15:52:58Z</time>
      </trkpt>
      <trkpt lat="44.43376" lon="1.48192">
        <ele>197</ele>
        <time>2021-07-17T15:52:59Z</time>
      </trkpt>
      <trkpt lat="44.43373" lon="1.48189">
        <ele>197.1</ele>
        <time>2021-07-17T15:53:01Z</time>
      </trkpt>
      <trkpt lat="44.4337" lon="1.48189">
        <ele>197.2</ele>
        <time>2021-07-17T15:53:03Z</time>
      </trkpt>
      <trkpt lat="44.43369" lon="1.48188">
        <ele>197.3</ele>
        <time>2021-07-17T15:53:04Z</time>
      </trkpt>
      <trkpt lat="44.43366" lon="1.48186">
        <ele>197.4</ele>
        <time>2021-07-17T15:53:05Z</time>
      </trkpt>
      <trkpt lat="44.43364" lon="1.48185">
        <ele>197.4</ele>
        <time>2021-07-17T15:53:06Z</time>
      </trkpt>
      <trkpt lat="44.4336" lon="1.48182">
        <ele>197.6</ele>
        <time>2021-07-17T15:53:08Z</time>
      </trkpt>
      <trkpt lat="44.43357" lon="1.48179">
        <ele>197.8</ele>
        <time>2021-07-17T15:53:10Z</time>
      </trkpt>
      <trkpt lat="44.43355" lon="1.48178">
        <ele>197.9</ele>
        <time>2021-07-17T15:53:11Z</time>
      </trkpt>
      <trkpt lat="44.43353" lon="1.48175">
        <ele>198</ele>
        <time>2021-07-17T15:53:13Z</time>
      </trkpt>
      <trkpt lat="44.43352" lon="1.48173">
        <ele>198.1</ele>
        <time>2021-07-17T15:53:14Z</time>
      </trkpt>
      <trkpt lat="44.4335" lon="1.48171">
        <ele>198.2</ele>
        <time>2021-07-17T15:53:16Z</time>
      </trkpt>
      <trkpt lat="44.43348" lon="1.48167">
        <ele>198.4</ele>
        <time>2021-07-17T15:53:17Z</time>
      </trkpt>
      <trkpt lat="44.43348" lon="1.48165">
        <ele>198.5</ele>
        <time>2021-07-17T15:53:18Z</time>
      </trkpt>
      <trkpt lat="44.43346" lon="1.48163">
        <ele>198.6</ele>
        <time>2021-07-17T15:53:20Z</time>
      </trkpt>
      <trkpt lat="44.43344" lon="1.4816">
        <ele>198.8</ele>
        <time>2021-07-17T15:53:21Z</time>
      </trkpt>
      <trkpt lat="44.43341" lon="1.48157">
        <ele>199</ele>
        <time>2021-07-17T15:53:23Z</time>
      </trkpt>
      <trkpt lat="44.43338" lon="1.48153">
        <ele>199.2</ele>
        <time>2021-07-17T15:53:25Z</time>
      </trkpt>
      <trkpt lat="44.43336" lon="1.48149">
        <ele>199.4</ele>
        <time>2021-07-17T15:53:27Z</time>
      </trkpt>
      <trkpt lat="44.43335" lon="1.48147">
        <ele>199.5</ele>
        <time>2021-07-17T15:53:28Z</time>
      </trkpt>
      <trkpt lat="44.43333" lon="1.48144">
        <ele>199.7</ele>
        <time>2021-07-17T15:53:30Z</time>
      </trkpt>
      <trkpt lat="44.43331" lon="1.4814">
        <ele>199.9</ele>
        <time>2021-07-17T15:53:31Z</time>
      </trkpt>
      <trkpt lat="44.43331" lon="1.48139">
        <ele>200</ele>
        <time>2021-07-17T15:53:32Z</time>
      </trkpt>
      <trkpt lat="44.43329" lon="1.48135">
        <ele>200.1</ele>
        <time>2021-07-17T15:53:34Z</time>
      </trkpt>
      <trkpt lat="44.43328" lon="1.48133">
        <ele>200.2</ele>
        <time>2021-07-17T15:53:35Z</time>
      </trkpt>
      <trkpt lat="44.43326" lon="1.48131">
        <ele>200.3</ele>
        <time>2021-07-17T15:53:36Z</time>
      </trkpt>
      <trkpt lat="44.43323" lon="1.48128">
        <ele>200.5</ele>
        <time>2021-07-17T15:53:38Z</time>
      </trkpt>
      <trkpt lat="44.43321" lon="1.48125">
        <ele>200.7</ele>
        <time>2021-07-17T15:53:40Z</time>
      </trkpt>
      <trkpt lat="44.4332" lon="1.48123">
        <ele>200.8</ele>
        <time>2021-07-17T15:53:41Z</time>
      </trkpt>
      <trkpt lat="44.43317" lon="1.4812">
        <ele>201</ele>
        <time>2021-07-17T15:53:43Z</time>
      </trkpt>
      <trkpt lat="44.43315" lon="1.48119">
        <ele>201.1</ele>
        <time>2021-07-17T15:53:44Z</time>
      </trkpt>
      <trkpt lat="44.43312" lon="1.48116">
        <ele>201.2</ele>
        <time>2021-07-17T15:53:46Z</time>
      </trkpt>
      <trkpt lat="44.43309" lon="1.48113">
        <ele>201.4</ele>
        <time>2021-07-17T15:53:47Z</time>
      </trkpt>
      <trkpt lat="44.43308" lon="1.48112">
        <ele>201.4</ele>
        <time>2021-07-17T15:53:48Z</time>
      </trkpt>
      <trkpt lat="44.43305" lon="1.48109">
        <ele>201.6</ele>
        <time>2021-07-17T15:53:50Z</time>
      </trkpt>
      <trkpt lat="44.43303" lon="1.48107">
        <ele>201.7</ele>
        <time>2021-07-17T15:53:51Z</time>
      </trkpt>
      <trkpt lat="44.43301" lon="1.48105">
        <ele>201.9</ele>
        <time>2021-07-17T15:53:53Z</time>
      </trkpt>
      <trkpt lat="44.433" lon="1.48102">
        <ele>202</ele>
        <time>2021-07-17T15:53:54Z</time>
      </trkpt>
      <trkpt lat="44.43297" lon="1.481">
        <ele>202.1</ele>
        <time>2021-07-17T15:53:56Z</time>
      </trkpt>
      <trkpt lat="44.43294" lon="1.48097">
        <ele>202.3</ele>
        <time>2021-07-17T15:53:58Z</time>
      </trkpt>
      <trkpt lat="44.43293" lon="1.48096">
        <ele>202.4</ele>
        <time>2021-07-17T15:53:59Z</time>
      </trkpt>
      <trkpt lat="44.43289" lon="1.48092">
        <ele>202.6</ele>
        <time>2021-07-17T15:54:01Z</time>
      </trkpt>
      <trkpt lat="44.43287" lon="1.48091">
        <ele>202.7</ele>
        <time>2021-07-17T15:54:02Z</time>
      </trkpt>
      <trkpt lat="44.43284" lon="1.48088">
        <ele>202.9</ele>
        <time>2021-07-17T15:54:04Z</time>
      </trkpt>
      <trkpt lat="44.43281" lon="1.48085">
        <ele>203.1</ele>
        <time>2021-07-17T15:54:06Z</time>
      </trkpt>
      <trkpt lat="44.43277" lon="1.48082">
        <ele>203.3</ele>
        <time>2021-07-17T15:54:08Z</time>
      </trkpt>
      <trkpt lat="44.43274" lon="1.48079">
        <ele>203.5</ele>
        <time>2021-07-17T15:54:10Z</time>
      </trkpt>
      <trkpt lat="44.4327" lon="1.48076">
        <ele>203.8</ele>
        <time>2021-07-17T15:54:12Z</time>
      </trkpt>
      <trkpt lat="44.43268" lon="1.48074">
        <ele>203.9</ele>
        <time>2021-07-17T15:54:13Z</time>
      </trkpt>
      <trkpt lat="44.43267" lon="1.48074">
        <ele>204</ele>
        <time>2021-07-17T15:54:14Z</time>
      </trkpt>
      <trkpt lat="44.43264" lon="1.48072">
        <ele>204.2</ele>
        <time>2021-07-17T15:54:16Z</time>
      </trkpt>
      <trkpt lat="44.43261" lon="1.48068">
        <ele>204.4</ele>
        <time>2021-07-17T15:54:18Z</time>
      </trkpt>
      <trkpt lat="44.43258" lon="1.48065">
        <ele>204.6</ele>
        <time>2021-07-17T15:54:20Z</time>
      </trkpt>
      <trkpt lat="44.43255" lon="1.48062">
        <ele>204.8</ele>
        <time>2021-07-17T15:54:22Z</time>
      </trkpt>
      <trkpt lat="44.43252" lon="1.48059">
        <ele>205</ele>
        <time>2021-07-17T15:54:24Z</time>
      </trkpt>
      <trkpt lat="44.4325" lon="1.48056">
        <ele>205.1</ele>
        <time>2021-07-17T15:54:25Z</time>
      </trkpt>
      <trkpt lat="44.43249" lon="1.48055">
        <ele>205.2</ele>
        <time>2021-07-17T15:54:26Z</time>
      </trkpt>
      <trkpt lat="44.43246" lon="1.48052">
        <ele>205.4</ele>
        <time>2021-07-17T15:54:28Z</time>
      </trkpt>
      <trkpt lat="44.43245" lon="1.48051">
        <ele>205.5</ele>
        <time>2021-07-17T15:54:29Z</time>
      </trkpt>
      <trkpt lat="44.43244" lon="1.48049">
        <ele>205.5</ele>
        <time>2021-07-17T15:54:30Z</time>
      </trkpt>
      <trkpt lat="44.43241" lon="1.48045">
        <ele>205.7</ele>
        <time>2021-07-17T15:54:32Z</time>
      </trkpt>
      <trkpt lat="44.43239" lon="1.48042">
        <ele>205.9</ele>
        <time>2021-07-17T15:54:34Z</time>
      </trkpt>
      <trkpt lat="44.43238" lon="1.4804">
        <ele>206</ele>
        <time>2021-07-17T15:54:35Z</time>
      </trkpt>
      <trkpt lat="44.43235" lon="1.48037">
        <ele>206.2</ele>
        <time>2021-07-17T15:54:37Z</time>
      </trkpt>
      <trkpt lat="44.43234" lon="1.48035">
        <ele>206.3</ele>
        <time>2021-07-17T15:54:38Z</time>
      </trkpt>
      <trkpt lat="44.43231" lon="1.48033">
        <ele>206.5</ele>
        <time>2021-07-17T15:54:40Z</time>
      </trkpt>
      <trkpt lat="44.4323" lon="1.48031">
        <ele>206.6</ele>
        <time>2021-07-17T15:54:41Z</time>
      </trkpt>
      <trkpt lat="44.43228" lon="1.48028">
        <ele>206.7</ele>
        <time>2021-07-17T15:54:43Z</time>
      </trkpt>
      <trkpt lat="44.43226" lon="1.48027">
        <ele>206.9</ele>
        <time>2021-07-17T15:54:44Z</time>
      </trkpt>
      <trkpt lat="44.43224" lon="1.48024">
        <ele>207.1</ele>
        <time>2021-07-17T15:54:46Z</time>
      </trkpt>
      <trkpt lat="44.43223" lon="1.48022">
        <ele>207.2</ele>
        <time>2021-07-17T15:54:47Z</time>
      </trkpt>
      <trkpt lat="44.43221" lon="1.48018">
        <ele>207.4</ele>
        <time>2021-07-17T15:54:49Z</time>
      </trkpt>
      <trkpt lat="44.43218" lon="1.48016">
        <ele>207.6</ele>
        <time>2021-07-17T15:54:50Z</time>
      </trkpt>
      <trkpt lat="44.43216" lon="1.48014">
        <ele>207.8</ele>
        <time>2021-07-17T15:54:52Z</time>
      </trkpt>
      <trkpt lat="44.43212" lon="1.48012">
        <ele>208.1</ele>
        <time>2021-07-17T15:54:54Z</time>
      </trkpt>
      <trkpt lat="44.43209" lon="1.4801">
        <ele>208.3</ele>
        <time>2021-07-17T15:54:55Z</time>
      </trkpt>
      <trkpt lat="44.43208" lon="1.48009">
        <ele>208.4</ele>
        <time>2021-07-17T15:54:56Z</time>
      </trkpt>
      <trkpt lat="44.43207" lon="1.48008">
        <ele>208.5</ele>
        <time>2021-07-17T15:54:58Z</time>
      </trkpt>
      <trkpt lat="44.43205" lon="1.48008">
        <ele>208.7</ele>
        <time>2021-07-17T15:54:59Z</time>
      </trkpt>
      <trkpt lat="44.43202" lon="1.48006">
        <ele>208.9</ele>
        <time>2021-07-17T15:55:01Z</time>
      </trkpt>
      <trkpt lat="44.43201" lon="1.48005">
        <ele>209</ele>
        <time>2021-07-17T15:55:02Z</time>
      </trkpt>
      <trkpt lat="44.43198" lon="1.48005">
        <ele>209.3</ele>
        <time>2021-07-17T15:55:04Z</time>
      </trkpt>
      <trkpt lat="44.43197" lon="1.48004">
        <ele>209.4</ele>
        <time>2021-07-17T15:55:05Z</time>
      </trkpt>
      <trkpt lat="44.43196" lon="1.48004">
        <ele>209.5</ele>
        <time>2021-07-17T15:55:06Z</time>
      </trkpt>
      <trkpt lat="44.43192" lon="1.48004">
        <ele>209.9</ele>
        <time>2021-07-17T15:55:08Z</time>
      </trkpt>
      <trkpt lat="44.43189" lon="1.48003">
        <ele>210.1</ele>
        <time>2021-07-17T15:55:10Z</time>
      </trkpt>
      <trkpt lat="44.43188" lon="1.48003">
        <ele>210.2</ele>
        <time>2021-07-17T15:55:11Z</time>
      </trkpt>
      <trkpt lat="44.43186" lon="1.48003">
        <ele>210.7</ele>
        <time>2021-07-17T15:55:13Z</time>
      </trkpt>
      <trkpt lat="44.43185" lon="1.48003">
        <ele>210.9</ele>
        <time>2021-07-17T15:55:14Z</time>
      </trkpt>
      <trkpt lat="44.43182" lon="1.48005">
        <ele>211.3</ele>
        <time>2021-07-17T15:55:16Z</time>
      </trkpt>
      <trkpt lat="44.43181" lon="1.48006">
        <ele>211.5</ele>
        <time>2021-07-17T15:55:17Z</time>
      </trkpt>
      <trkpt lat="44.4318" lon="1.48006">
        <ele>211.7</ele>
        <time>2021-07-17T15:55:18Z</time>
      </trkpt>
      <trkpt lat="44.43179" lon="1.48006">
        <ele>211.8</ele>
        <time>2021-07-17T15:55:20Z</time>
      </trkpt>
      <trkpt lat="44.43178" lon="1.48007">
        <ele>211.9</ele>
        <time>2021-07-17T15:55:22Z</time>
      </trkpt>
      <trkpt lat="44.43178" lon="1.48007">
        <ele>212</ele>
        <time>2021-07-17T15:55:23Z</time>
      </trkpt>
      <trkpt lat="44.43178" lon="1.48008">
        <ele>212</ele>
        <time>2021-07-17T15:55:24Z</time>
      </trkpt>
      <trkpt lat="44.43177" lon="1.48008">
        <ele>212.2</ele>
        <time>2021-07-17T15:55:26Z</time>
      </trkpt>
      <trkpt lat="44.4317" lon="1.48011">
        <ele>213.2</ele>
        <time>2021-07-17T15:55:28Z</time>
      </trkpt>
      <trkpt lat="44.43166" lon="1.48013">
        <ele>213.9</ele>
        <time>2021-07-17T15:55:30Z</time>
      </trkpt>
      <trkpt lat="44.43162" lon="1.48015">
        <ele>214.5</ele>
        <time>2021-07-17T15:55:32Z</time>
      </trkpt>
      <trkpt lat="44.43162" lon="1.48016">
        <ele>214.6</ele>
        <time>2021-07-17T15:55:34Z</time>
      </trkpt>
      <trkpt lat="44.43162" lon="1.48016">
        <ele>214.6</ele>
        <time>2021-07-17T15:55:35Z</time>
      </trkpt>
      <trkpt lat="44.43162" lon="1.48017">
        <ele>214.6</ele>
        <time>2021-07-17T15:55:37Z</time>
      </trkpt>
      <trkpt lat="44.43162" lon="1.48017">
        <ele>214.6</ele>
        <time>2021-07-17T15:55:38Z</time>
      </trkpt>
      <trkpt lat="44.43159" lon="1.48019">
        <ele>215.1</ele>
        <time>2021-07-17T15:55:40Z</time>
      </trkpt>
      <trkpt lat="44.43159" lon="1.48019">
        <ele>215.1</ele>
        <time>2021-07-17T15:55:40Z</time>
      </trkpt>
      <trkpt lat="44.43155" lon="1.48022">
        <ele>215.9</ele>
        <time>2021-07-17T15:55:42Z</time>
      </trkpt>
      <trkpt lat="44.43153" lon="1.48023">
        <ele>216.1</ele>
        <time>2021-07-17T15:55:43Z</time>
      </trkpt>
      <trkpt lat="44.43151" lon="1.48023">
        <ele>216.4</ele>
        <time>2021-07-17T15:55:44Z</time>
      </trkpt>
      <trkpt lat="44.4315" lon="1.48023">
        <ele>216.5</ele>
        <time>2021-07-17T15:55:46Z</time>
      </trkpt>
      <trkpt lat="44.4315" lon="1.48023">
        <ele>216.5</ele>
        <time>2021-07-17T15:55:48Z</time>
      </trkpt>
      <trkpt lat="44.4315" lon="1.48024">
        <ele>216.5</ele>
        <time>2021-07-17T15:55:50Z</time>
      </trkpt>
      <trkpt lat="44.4315" lon="1.48024">
        <ele>216.6</ele>
        <time>2021-07-17T15:55:52Z</time>
      </trkpt>
      <trkpt lat="44.4315" lon="1.48024">
        <ele>216.6</ele>
        <time>2021-07-17T15:55:54Z</time>
      </trkpt>
      <trkpt lat="44.43146" lon="1.48027">
        <ele>217.2</ele>
        <time>2021-07-17T15:55:56Z</time>
      </trkpt>
      <trkpt lat="44.43142" lon="1.48032">
        <ele>218</ele>
        <time>2021-07-17T15:55:58Z</time>
      </trkpt>
      <trkpt lat="44.4314" lon="1.48034">
        <ele>218.3</ele>
        <time>2021-07-17T15:55:59Z</time>
      </trkpt>
      <trkpt lat="44.43138" lon="1.48039">
        <ele>218.9</ele>
        <time>2021-07-17T15:56:01Z</time>
      </trkpt>
      <trkpt lat="44.43138" lon="1.4804">
        <ele>219</ele>
        <time>2021-07-17T15:56:02Z</time>
      </trkpt>
      <trkpt lat="44.43137" lon="1.48041">
        <ele>219.1</ele>
        <time>2021-07-17T15:56:03Z</time>
      </trkpt>
      <trkpt lat="44.43137" lon="1.48042">
        <ele>219.2</ele>
        <time>2021-07-17T15:56:04Z</time>
      </trkpt>
      <trkpt lat="44.43137" lon="1.48042">
        <ele>219.3</ele>
        <time>2021-07-17T15:56:05Z</time>
      </trkpt>
      <trkpt lat="44.43137" lon="1.48042">
        <ele>219.3</ele>
        <time>2021-07-17T15:56:06Z</time>
      </trkpt>
      <trkpt lat="44.43137" lon="1.48044">
        <ele>219.4</ele>
        <time>2021-07-17T15:56:08Z</time>
      </trkpt>
      <trkpt lat="44.43137" lon="1.48045">
        <ele>219.6</ele>
        <time>2021-07-17T15:56:10Z</time>
      </trkpt>
      <trkpt lat="44.43137" lon="1.48047">
        <ele>219.7</ele>
        <time>2021-07-17T15:56:10Z</time>
      </trkpt>
      <trkpt lat="44.43138" lon="1.48051">
        <ele>220.2</ele>
        <time>2021-07-17T15:56:11Z</time>
      </trkpt>
      <trkpt lat="44.43139" lon="1.48052">
        <ele>220.5</ele>
        <time>2021-07-17T15:56:13Z</time>
      </trkpt>
      <trkpt lat="44.4314" lon="1.48053">
        <ele>220.6</ele>
        <time>2021-07-17T15:56:14Z</time>
      </trkpt>
      <trkpt lat="44.43144" lon="1.48056">
        <ele>221.2</ele>
        <time>2021-07-17T15:56:16Z</time>
      </trkpt>
      <trkpt lat="44.43145" lon="1.48057">
        <ele>221.4</ele>
        <time>2021-07-17T15:56:17Z</time>
      </trkpt>
      <trkpt lat="44.43146" lon="1.48058">
        <ele>221.6</ele>
        <time>2021-07-17T15:56:18Z</time>
      </trkpt>
      <trkpt lat="44.43147" lon="1.4806">
        <ele>221.9</ele>
        <time>2021-07-17T15:56:20Z</time>
      </trkpt>
      <trkpt lat="44.43151" lon="1.48063">
        <ele>222.4</ele>
        <time>2021-07-17T15:56:22Z</time>
      </trkpt>
      <trkpt lat="44.43152" lon="1.48064">
        <ele>222.6</ele>
        <time>2021-07-17T15:56:23Z</time>
      </trkpt>
      <trkpt lat="44.43154" lon="1.48066">
        <ele>223</ele>
        <time>2021-07-17T15:56:25Z</time>
      </trkpt>
      <trkpt lat="44.43157" lon="1.48066">
        <ele>223.3</ele>
        <time>2021-07-17T15:56:27Z</time>
      </trkpt>
      <trkpt lat="44.43158" lon="1.48067">
        <ele>223.5</ele>
        <time>2021-07-17T15:56:28Z</time>
      </trkpt>
      <trkpt lat="44.4316" lon="1.48067">
        <ele>223.7</ele>
        <time>2021-07-17T15:56:30Z</time>
      </trkpt>
      <trkpt lat="44.43162" lon="1.48068">
        <ele>223.9</ele>
        <time>2021-07-17T15:56:31Z</time>
      </trkpt>
      <trkpt lat="44.43163" lon="1.48068">
        <ele>224</ele>
        <time>2021-07-17T15:56:32Z</time>
      </trkpt>
      <trkpt lat="44.43165" lon="1.48068">
        <ele>224.3</ele>
        <time>2021-07-17T15:56:34Z</time>
      </trkpt>
      <trkpt lat="44.43167" lon="1.48068">
        <ele>224.6</ele>
        <time>2021-07-17T15:56:36Z</time>
      </trkpt>
      <trkpt lat="44.43168" lon="1.48069">
        <ele>224.7</ele>
        <time>2021-07-17T15:56:37Z</time>
      </trkpt>
      <trkpt lat="44.43169" lon="1.4807">
        <ele>224.9</ele>
        <time>2021-07-17T15:56:38Z</time>
      </trkpt>
      <trkpt lat="44.43173" lon="1.48071">
        <ele>225.3</ele>
        <time>2021-07-17T15:56:40Z</time>
      </trkpt>
      <trkpt lat="44.43174" lon="1.48072">
        <ele>225.4</ele>
        <time>2021-07-17T15:56:41Z</time>
      </trkpt>
      <trkpt lat="44.43174" lon="1.48072">
        <ele>225.5</ele>
        <time>2021-07-17T15:56:43Z</time>
      </trkpt>
      <trkpt lat="44.43175" lon="1.48072">
        <ele>225.5</ele>
        <time>2021-07-17T15:56:44Z</time>
      </trkpt>
      <trkpt lat="44.43177" lon="1.48074">
        <ele>225.9</ele>
        <time>2021-07-17T15:56:46Z</time>
      </trkpt>
      <trkpt lat="44.43179" lon="1.48077">
        <ele>226.1</ele>
        <time>2021-07-17T15:56:47Z</time>
      </trkpt>
      <trkpt lat="44.4318" lon="1.48078">
        <ele>226.2</ele>
        <time>2021-07-17T15:56:49Z</time>
      </trkpt>
      <trkpt lat="44.43181" lon="1.48079">
        <ele>226.4</ele>
        <time>2021-07-17T15:56:50Z</time>
      </trkpt>
      <trkpt lat="44.43183" lon="1.48082">
        <ele>226.8</ele>
        <time>2021-07-17T15:56:51Z</time>
      </trkpt>
      <trkpt lat="44.43184" lon="1.48083">
        <ele>226.9</ele>
        <time>2021-07-17T15:56:52Z</time>
      </trkpt>
      <trkpt lat="44.43187" lon="1.48085">
        <ele>227.2</ele>
        <time>2021-07-17T15:56:54Z</time>
      </trkpt>
      <trkpt lat="44.43188" lon="1.48086">
        <ele>227.3</ele>
        <time>2021-07-17T15:56:55Z</time>
      </trkpt>
      <trkpt lat="44.43189" lon="1.48088">
        <ele>227.6</ele>
        <time>2021-07-17T15:56:56Z</time>
      </trkpt>
      <trkpt lat="44.4319" lon="1.48089">
        <ele>227.6</ele>
        <time>2021-07-17T15:56:58Z</time>
      </trkpt>
      <trkpt lat="44.4319" lon="1.48089">
        <ele>227.6</ele>
        <time>2021-07-17T15:56:59Z</time>
      </trkpt>
      <trkpt lat="44.43191" lon="1.48089">
        <ele>227.8</ele>
        <time>2021-07-17T15:57:01Z</time>
      </trkpt>
      <trkpt lat="44.43192" lon="1.4809">
        <ele>227.9</ele>
        <time>2021-07-17T15:57:02Z</time>
      </trkpt>
      <trkpt lat="44.43194" lon="1.48097">
        <ele>228.4</ele>
        <time>2021-07-17T15:57:04Z</time>
      </trkpt>
      <trkpt lat="44.43194" lon="1.48098">
        <ele>228.6</ele>
        <time>2021-07-17T15:57:05Z</time>
      </trkpt>
      <trkpt lat="44.43194" lon="1.481">
        <ele>228.7</ele>
        <time>2021-07-17T15:57:06Z</time>
      </trkpt>
      <trkpt lat="44.43194" lon="1.48105">
        <ele>229.1</ele>
        <time>2021-07-17T15:57:08Z</time>
      </trkpt>
      <trkpt lat="44.43194" lon="1.48107">
        <ele>229.2</ele>
        <time>2021-07-17T15:57:09Z</time>
      </trkpt>
      <trkpt lat="44.43195" lon="1.48111">
        <ele>229.5</ele>
        <time>2021-07-17T15:57:10Z</time>
      </trkpt>
      <trkpt lat="44.43195" lon="1.48113">
        <ele>229.7</ele>
        <time>2021-07-17T15:57:11Z</time>
      </trkpt>
      <trkpt lat="44.43196" lon="1.48114">
        <ele>229.8</ele>
        <time>2021-07-17T15:57:12Z</time>
      </trkpt>
      <trkpt lat="44.43196" lon="1.48116">
        <ele>229.9</ele>
        <time>2021-07-17T15:57:13Z</time>
      </trkpt>
      <trkpt lat="44.43197" lon="1.48118">
        <ele>230.1</ele>
        <time>2021-07-17T15:57:15Z</time>
      </trkpt>
      <trkpt lat="44.43197" lon="1.48121">
        <ele>230.3</ele>
        <time>2021-07-17T15:57:16Z</time>
      </trkpt>
      <trkpt lat="44.43198" lon="1.48122">
        <ele>230.4</ele>
        <time>2021-07-17T15:57:17Z</time>
      </trkpt>
      <trkpt lat="44.43197" lon="1.48122">
        <ele>230.4</ele>
        <time>2021-07-17T15:57:18Z</time>
      </trkpt>
      <trkpt lat="44.43197" lon="1.48123">
        <ele>230.5</ele>
        <time>2021-07-17T15:57:19Z</time>
      </trkpt>
      <trkpt lat="44.43198" lon="1.48126">
        <ele>230.7</ele>
        <time>2021-07-17T15:57:20Z</time>
      </trkpt>
      <trkpt lat="44.43198" lon="1.48129">
        <ele>231</ele>
        <time>2021-07-17T15:57:22Z</time>
      </trkpt>
      <trkpt lat="44.43198" lon="1.48134">
        <ele>231.3</ele>
        <time>2021-07-17T15:57:24Z</time>
      </trkpt>
      <trkpt lat="44.43198" lon="1.48135">
        <ele>231.4</ele>
        <time>2021-07-17T15:57:25Z</time>
      </trkpt>
      <trkpt lat="44.43198" lon="1.48138">
        <ele>231.6</ele>
        <time>2021-07-17T15:57:26Z</time>
      </trkpt>
      <trkpt lat="44.43198" lon="1.48139">
        <ele>231.7</ele>
        <time>2021-07-17T15:57:27Z</time>
      </trkpt>
      <trkpt lat="44.43198" lon="1.48141">
        <ele>231.9</ele>
        <time>2021-07-17T15:57:29Z</time>
      </trkpt>
      <trkpt lat="44.43198" lon="1.48143">
        <ele>232</ele>
        <time>2021-07-17T15:57:30Z</time>
      </trkpt>
      <trkpt lat="44.43198" lon="1.48143">
        <ele>232.1</ele>
        <time>2021-07-17T15:57:31Z</time>
      </trkpt>
      <trkpt lat="44.43198" lon="1.48143">
        <ele>232.1</ele>
        <time>2021-07-17T15:57:32Z</time>
      </trkpt>
      <trkpt lat="44.43197" lon="1.48143">
        <ele>232.1</ele>
        <time>2021-07-17T15:57:34Z</time>
      </trkpt>
      <trkpt lat="44.43197" lon="1.48143">
        <ele>232.1</ele>
        <time>2021-07-17T15:57:36Z</time>
      </trkpt>
      <trkpt lat="44.43197" lon="1.48143">
        <ele>232.1</ele>
        <time>2021-07-17T15:57:38Z</time>
      </trkpt>
      <trkpt lat="44.43197" lon="1.48144">
        <ele>232.1</ele>
        <time>2021-07-17T15:57:40Z</time>
      </trkpt>
      <trkpt lat="44.43197" lon="1.48147">
        <ele>232.4</ele>
        <time>2021-07-17T15:57:55Z</time>
      </trkpt>
      <trkpt lat="44.43198" lon="1.48149">
        <ele>232.6</ele>
        <time>2021-07-17T15:57:56Z</time>
      </trkpt>
      <trkpt lat="44.43197" lon="1.48151">
        <ele>232.7</ele>
        <time>2021-07-17T15:57:58Z</time>
      </trkpt>
      <trkpt lat="44.43198" lon="1.48153">
        <ele>232.9</ele>
        <time>2021-07-17T15:58:00Z</time>
      </trkpt>
      <trkpt lat="44.43198" lon="1.48155">
        <ele>233</ele>
        <time>2021-07-17T15:58:01Z</time>
      </trkpt>
      <trkpt lat="44.43199" lon="1.48157">
        <ele>233.2</ele>
        <time>2021-07-17T15:58:02Z</time>
      </trkpt>
      <trkpt lat="44.43197" lon="1.48161">
        <ele>233.5</ele>
        <time>2021-07-17T15:58:04Z</time>
      </trkpt>
      <trkpt lat="44.43197" lon="1.48162">
        <ele>233.6</ele>
        <time>2021-07-17T15:58:05Z</time>
      </trkpt>
      <trkpt lat="44.43197" lon="1.48164">
        <ele>233.8</ele>
        <time>2021-07-17T15:58:06Z</time>
      </trkpt>
      <trkpt lat="44.43197" lon="1.48168">
        <ele>234.1</ele>
        <time>2021-07-17T15:58:08Z</time>
      </trkpt>
      <trkpt lat="44.43198" lon="1.4817">
        <ele>234.2</ele>
        <time>2021-07-17T15:58:10Z</time>
      </trkpt>
      <trkpt lat="44.43197" lon="1.48172">
        <ele>234.4</ele>
        <time>2021-07-17T15:58:11Z</time>
      </trkpt>
      <trkpt lat="44.43195" lon="1.48175">
        <ele>234.8</ele>
        <time>2021-07-17T15:58:13Z</time>
      </trkpt>
      <trkpt lat="44.43193" lon="1.48175">
        <ele>235</ele>
        <time>2021-07-17T15:58:14Z</time>
      </trkpt>
      <trkpt lat="44.43192" lon="1.48178">
        <ele>235.2</ele>
        <time>2021-07-17T15:58:15Z</time>
      </trkpt>
      <trkpt lat="44.43192" lon="1.48183">
        <ele>235.6</ele>
        <time>2021-07-17T15:58:16Z</time>
      </trkpt>
      <trkpt lat="44.43192" lon="1.48185">
        <ele>235.7</ele>
        <time>2021-07-17T15:58:17Z</time>
      </trkpt>
      <trkpt lat="44.43191" lon="1.48189">
        <ele>236.1</ele>
        <time>2021-07-17T15:58:19Z</time>
      </trkpt>
      <trkpt lat="44.4319" lon="1.4819">
        <ele>236.2</ele>
        <time>2021-07-17T15:58:20Z</time>
      </trkpt>
      <trkpt lat="44.43189" lon="1.48193">
        <ele>236.5</ele>
        <time>2021-07-17T15:58:22Z</time>
      </trkpt>
      <trkpt lat="44.43187" lon="1.48196">
        <ele>236.7</ele>
        <time>2021-07-17T15:58:23Z</time>
      </trkpt>
      <trkpt lat="44.43186" lon="1.48197">
        <ele>236.9</ele>
        <time>2021-07-17T15:58:24Z</time>
      </trkpt>
      <trkpt lat="44.43185" lon="1.48199">
        <ele>237.2</ele>
        <time>2021-07-17T15:58:25Z</time>
      </trkpt>
      <trkpt lat="44.43184" lon="1.482">
        <ele>237.3</ele>
        <time>2021-07-17T15:58:27Z</time>
      </trkpt>
      <trkpt lat="44.43183" lon="1.48201">
        <ele>237.5</ele>
        <time>2021-07-17T15:58:28Z</time>
      </trkpt>
      <trkpt lat="44.43182" lon="1.48203">
        <ele>237.7</ele>
        <time>2021-07-17T15:58:29Z</time>
      </trkpt>
      <trkpt lat="44.43181" lon="1.48204">
        <ele>237.8</ele>
        <time>2021-07-17T15:58:30Z</time>
      </trkpt>
      <trkpt lat="44.43181" lon="1.48207">
        <ele>238.2</ele>
        <time>2021-07-17T15:58:32Z</time>
      </trkpt>
      <trkpt lat="44.4318" lon="1.48208">
        <ele>238.2</ele>
        <time>2021-07-17T15:58:34Z</time>
      </trkpt>
      <trkpt lat="44.4318" lon="1.48208">
        <ele>238.3</ele>
        <time>2021-07-17T15:58:35Z</time>
      </trkpt>
      <trkpt lat="44.43179" lon="1.48209">
        <ele>238.5</ele>
        <time>2021-07-17T15:58:36Z</time>
      </trkpt>
      <trkpt lat="44.43179" lon="1.48209">
        <ele>238.5</ele>
        <time>2021-07-17T15:58:37Z</time>
      </trkpt>
      <trkpt lat="44.43177" lon="1.4821">
        <ele>238.8</ele>
        <time>2021-07-17T15:58:39Z</time>
      </trkpt>
      <trkpt lat="44.43174" lon="1.48211">
        <ele>239.2</ele>
        <time>2021-07-17T15:58:40Z</time>
      </trkpt>
      <trkpt lat="44.43173" lon="1.48212">
        <ele>239.4</ele>
        <time>2021-07-17T15:58:41Z</time>
      </trkpt>
      <trkpt lat="44.43171" lon="1.48213">
        <ele>239.7</ele>
        <time>2021-07-17T15:58:43Z</time>
      </trkpt>
      <trkpt lat="44.43169" lon="1.48216">
        <ele>240.2</ele>
        <time>2021-07-17T15:58:45Z</time>
      </trkpt>
      <trkpt lat="44.43168" lon="1.48218">
        <ele>240.5</ele>
        <time>2021-07-17T15:58:46Z</time>
      </trkpt>
      <trkpt lat="44.43167" lon="1.48219">
        <ele>240.7</ele>
        <time>2021-07-17T15:58:47Z</time>
      </trkpt>
      <trkpt lat="44.43166" lon="1.48222">
        <ele>241.1</ele>
        <time>2021-07-17T15:58:49Z</time>
      </trkpt>
      <trkpt lat="44.43165" lon="1.48224">
        <ele>241.3</ele>
        <time>2021-07-17T15:58:51Z</time>
      </trkpt>
      <trkpt lat="44.43164" lon="1.48225">
        <ele>241.6</ele>
        <time>2021-07-17T15:58:52Z</time>
      </trkpt>
      <trkpt lat="44.43164" lon="1.48227">
        <ele>241.8</ele>
        <time>2021-07-17T15:58:53Z</time>
      </trkpt>
      <trkpt lat="44.43162" lon="1.48229">
        <ele>242.1</ele>
        <time>2021-07-17T15:58:54Z</time>
      </trkpt>
      <trkpt lat="44.43161" lon="1.4823">
        <ele>242.3</ele>
        <time>2021-07-17T15:58:55Z</time>
      </trkpt>
      <trkpt lat="44.4316" lon="1.48231">
        <ele>242.4</ele>
        <time>2021-07-17T15:58:56Z</time>
      </trkpt>
      <trkpt lat="44.43159" lon="1.48232">
        <ele>242.7</ele>
        <time>2021-07-17T15:58:58Z</time>
      </trkpt>
      <trkpt lat="44.43158" lon="1.48234">
        <ele>242.9</ele>
        <time>2021-07-17T15:58:59Z</time>
      </trkpt>
      <trkpt lat="44.43157" lon="1.48234">
        <ele>243</ele>
        <time>2021-07-17T15:59:01Z</time>
      </trkpt>
      <trkpt lat="44.43157" lon="1.48234">
        <ele>243.1</ele>
        <time>2021-07-17T15:59:02Z</time>
      </trkpt>
      <trkpt lat="44.43155" lon="1.48235">
        <ele>243.3</ele>
        <time>2021-07-17T15:59:03Z</time>
      </trkpt>
      <trkpt lat="44.43154" lon="1.48237">
        <ele>243.7</ele>
        <time>2021-07-17T15:59:05Z</time>
      </trkpt>
      <trkpt lat="44.43154" lon="1.48237">
        <ele>243.7</ele>
        <time>2021-07-17T15:59:07Z</time>
      </trkpt>
      <trkpt lat="44.43153" lon="1.48237">
        <ele>243.8</ele>
        <time>2021-07-17T15:59:08Z</time>
      </trkpt>
      <trkpt lat="44.43152" lon="1.4824">
        <ele>244.1</ele>
        <time>2021-07-17T15:59:10Z</time>
      </trkpt>
      <trkpt lat="44.43149" lon="1.48241">
        <ele>244.5</ele>
        <time>2021-07-17T15:59:12Z</time>
      </trkpt>
      <trkpt lat="44.43147" lon="1.48241">
        <ele>244.8</ele>
        <time>2021-07-17T15:59:13Z</time>
      </trkpt>
      <trkpt lat="44.43146" lon="1.48243">
        <ele>245</ele>
        <time>2021-07-17T15:59:15Z</time>
      </trkpt>
      <trkpt lat="44.43144" lon="1.48247">
        <ele>245.5</ele>
        <time>2021-07-17T15:59:17Z</time>
      </trkpt>
      <trkpt lat="44.43142" lon="1.48249">
        <ele>245.8</ele>
        <time>2021-07-17T15:59:18Z</time>
      </trkpt>
      <trkpt lat="44.43141" lon="1.48252">
        <ele>246.1</ele>
        <time>2021-07-17T15:59:20Z</time>
      </trkpt>
      <trkpt lat="44.43139" lon="1.48253">
        <ele>246.4</ele>
        <time>2021-07-17T15:59:21Z</time>
      </trkpt>
      <trkpt lat="44.43138" lon="1.48254">
        <ele>246.6</ele>
        <time>2021-07-17T15:59:23Z</time>
      </trkpt>
      <trkpt lat="44.43136" lon="1.48256">
        <ele>246.8</ele>
        <time>2021-07-17T15:59:24Z</time>
      </trkpt>
      <trkpt lat="44.43135" lon="1.48258">
        <ele>247</ele>
        <time>2021-07-17T15:59:25Z</time>
      </trkpt>
      <trkpt lat="44.43135" lon="1.48259">
        <ele>247.1</ele>
        <time>2021-07-17T15:59:26Z</time>
      </trkpt>
      <trkpt lat="44.43133" lon="1.48261">
        <ele>247.4</ele>
        <time>2021-07-17T15:59:28Z</time>
      </trkpt>
      <trkpt lat="44.43132" lon="1.48262">
        <ele>247.5</ele>
        <time>2021-07-17T15:59:29Z</time>
      </trkpt>
      <trkpt lat="44.4313" lon="1.48263">
        <ele>247.7</ele>
        <time>2021-07-17T15:59:31Z</time>
      </trkpt>
      <trkpt lat="44.43129" lon="1.48265">
        <ele>247.9</ele>
        <time>2021-07-17T15:59:32Z</time>
      </trkpt>
      <trkpt lat="44.43128" lon="1.48267">
        <ele>248.1</ele>
        <time>2021-07-17T15:59:33Z</time>
      </trkpt>
      <trkpt lat="44.43127" lon="1.48268">
        <ele>248.2</ele>
        <time>2021-07-17T15:59:35Z</time>
      </trkpt>
      <trkpt lat="44.43126" lon="1.4827">
        <ele>248.4</ele>
        <time>2021-07-17T15:59:36Z</time>
      </trkpt>
      <trkpt lat="44.43125" lon="1.48271">
        <ele>248.5</ele>
        <time>2021-07-17T15:59:37Z</time>
      </trkpt>
      <trkpt lat="44.43124" lon="1.48271">
        <ele>248.6</ele>
        <time>2021-07-17T15:59:38Z</time>
      </trkpt>
      <trkpt lat="44.43124" lon="1.48271">
        <ele>248.6</ele>
        <time>2021-07-17T15:59:39Z</time>
      </trkpt>
      <trkpt lat="44.43124" lon="1.48272">
        <ele>248.6</ele>
        <time>2021-07-17T15:59:40Z</time>
      </trkpt>
      <trkpt lat="44.43123" lon="1.48274">
        <ele>248.8</ele>
        <time>2021-07-17T15:59:42Z</time>
      </trkpt>
      <trkpt lat="44.43121" lon="1.48276">
        <ele>249</ele>
        <time>2021-07-17T15:59:44Z</time>
      </trkpt>
      <trkpt lat="44.43121" lon="1.48276">
        <ele>249</ele>
        <time>2021-07-17T15:59:45Z</time>
      </trkpt>
      <trkpt lat="44.43121" lon="1.48276">
        <ele>249.1</ele>
        <time>2021-07-17T15:59:47Z</time>
      </trkpt>
      <trkpt lat="44.43118" lon="1.48276">
        <ele>249.4</ele>
        <time>2021-07-17T15:59:49Z</time>
      </trkpt>
      <trkpt lat="44.43116" lon="1.48277">
        <ele>249.5</ele>
        <time>2021-07-17T15:59:50Z</time>
      </trkpt>
      <trkpt lat="44.43114" lon="1.4828">
        <ele>249.9</ele>
        <time>2021-07-17T15:59:52Z</time>
      </trkpt>
      <trkpt lat="44.43113" lon="1.48281">
        <ele>250</ele>
        <time>2021-07-17T15:59:53Z</time>
      </trkpt>
      <trkpt lat="44.43113" lon="1.48281">
        <ele>250</ele>
        <time>2021-07-17T15:59:54Z</time>
      </trkpt>
      <trkpt lat="44.43111" lon="1.48283">
        <ele>250.2</ele>
        <time>2021-07-17T15:59:56Z</time>
      </trkpt>
      <trkpt lat="44.43108" lon="1.48286">
        <ele>250.6</ele>
        <time>2021-07-17T15:59:57Z</time>
      </trkpt>
      <trkpt lat="44.43107" lon="1.48288">
        <ele>250.8</ele>
        <time>2021-07-17T15:59:59Z</time>
      </trkpt>
      <trkpt lat="44.43106" lon="1.48289">
        <ele>250.9</ele>
        <time>2021-07-17T16:00:00Z</time>
      </trkpt>
      <trkpt lat="44.43105" lon="1.48291">
        <ele>251.1</ele>
        <time>2021-07-17T16:00:01Z</time>
      </trkpt>
      <trkpt lat="44.43103" lon="1.48292">
        <ele>251.4</ele>
        <time>2021-07-17T16:00:02Z</time>
      </trkpt>
      <trkpt lat="44.43101" lon="1.48294">
        <ele>251.7</ele>
        <time>2021-07-17T16:00:04Z</time>
      </trkpt>
      <trkpt lat="44.431" lon="1.48295">
        <ele>251.8</ele>
        <time>2021-07-17T16:00:05Z</time>
      </trkpt>
      <trkpt lat="44.43099" lon="1.48297">
        <ele>252</ele>
        <time>2021-07-17T16:00:07Z</time>
      </trkpt>
      <trkpt lat="44.43099" lon="1.48298">
        <ele>252.1</ele>
        <time>2021-07-17T16:00:08Z</time>
      </trkpt>
      <trkpt lat="44.43099" lon="1.483">
        <ele>252.3</ele>
        <time>2021-07-17T16:00:10Z</time>
      </trkpt>
      <trkpt lat="44.43097" lon="1.483">
        <ele>252.5</ele>
        <time>2021-07-17T16:00:12Z</time>
      </trkpt>
      <trkpt lat="44.43095" lon="1.48301">
        <ele>252.8</ele>
        <time>2021-07-17T16:00:14Z</time>
      </trkpt>
      <trkpt lat="44.43093" lon="1.48302">
        <ele>253</ele>
        <time>2021-07-17T16:00:15Z</time>
      </trkpt>
      <trkpt lat="44.43091" lon="1.48302">
        <ele>253.3</ele>
        <time>2021-07-17T16:00:16Z</time>
      </trkpt>
      <trkpt lat="44.4309" lon="1.48302">
        <ele>253.5</ele>
        <time>2021-07-17T16:00:17Z</time>
      </trkpt>
      <trkpt lat="44.43088" lon="1.48302">
        <ele>253.7</ele>
        <time>2021-07-17T16:00:18Z</time>
      </trkpt>
      <trkpt lat="44.43085" lon="1.48301">
        <ele>254.1</ele>
        <time>2021-07-17T16:00:20Z</time>
      </trkpt>
      <trkpt lat="44.43084" lon="1.48301">
        <ele>254.2</ele>
        <time>2021-07-17T16:00:21Z</time>
      </trkpt>
      <trkpt lat="44.43081" lon="1.48302">
        <ele>254.7</ele>
        <time>2021-07-17T16:00:22Z</time>
      </trkpt>
      <trkpt lat="44.4308" lon="1.48303">
        <ele>254.8</ele>
        <time>2021-07-17T16:00:24Z</time>
      </trkpt>
      <trkpt lat="44.43079" lon="1.48304">
        <ele>254.9</ele>
        <time>2021-07-17T16:00:25Z</time>
      </trkpt>
      <trkpt lat="44.43078" lon="1.48304">
        <ele>255.1</ele>
        <time>2021-07-17T16:00:26Z</time>
      </trkpt>
      <trkpt lat="44.43077" lon="1.48305">
        <ele>255.2</ele>
        <time>2021-07-17T16:00:27Z</time>
      </trkpt>
      <trkpt lat="44.43076" lon="1.48306">
        <ele>255.4</ele>
        <time>2021-07-17T16:00:29Z</time>
      </trkpt>
      <trkpt lat="44.43074" lon="1.48307">
        <ele>255.7</ele>
        <time>2021-07-17T16:00:30Z</time>
      </trkpt>
      <trkpt lat="44.43073" lon="1.48307">
        <ele>255.9</ele>
        <time>2021-07-17T16:00:31Z</time>
      </trkpt>
      <trkpt lat="44.43072" lon="1.48307">
        <ele>256</ele>
        <time>2021-07-17T16:00:32Z</time>
      </trkpt>
      <trkpt lat="44.43069" lon="1.48307">
        <ele>256.4</ele>
        <time>2021-07-17T16:00:34Z</time>
      </trkpt>
      <trkpt lat="44.43066" lon="1.48308">
        <ele>256.9</ele>
        <time>2021-07-17T16:00:36Z</time>
      </trkpt>
      <trkpt lat="44.43065" lon="1.48308">
        <ele>257</ele>
        <time>2021-07-17T16:00:37Z</time>
      </trkpt>
      <trkpt lat="44.43063" lon="1.48308">
        <ele>257.3</ele>
        <time>2021-07-17T16:00:38Z</time>
      </trkpt>
      <trkpt lat="44.43062" lon="1.48308">
        <ele>257.6</ele>
        <time>2021-07-17T16:00:40Z</time>
      </trkpt>
      <trkpt lat="44.43059" lon="1.48308">
        <ele>258</ele>
        <time>2021-07-17T16:00:41Z</time>
      </trkpt>
      <trkpt lat="44.43058" lon="1.48307">
        <ele>258.2</ele>
        <time>2021-07-17T16:00:43Z</time>
      </trkpt>
      <trkpt lat="44.43057" lon="1.48307">
        <ele>258.4</ele>
        <time>2021-07-17T16:00:44Z</time>
      </trkpt>
      <trkpt lat="44.43056" lon="1.48306">
        <ele>258.6</ele>
        <time>2021-07-17T16:00:46Z</time>
      </trkpt>
      <trkpt lat="44.43055" lon="1.48305">
        <ele>258.8</ele>
        <time>2021-07-17T16:00:47Z</time>
      </trkpt>
      <trkpt lat="44.43053" lon="1.48305">
        <ele>259</ele>
        <time>2021-07-17T16:00:48Z</time>
      </trkpt>
      <trkpt lat="44.43052" lon="1.48304">
        <ele>259.2</ele>
        <time>2021-07-17T16:00:50Z</time>
      </trkpt>
      <trkpt lat="44.43051" lon="1.48304">
        <ele>259.4</ele>
        <time>2021-07-17T16:00:52Z</time>
      </trkpt>
      <trkpt lat="44.4305" lon="1.48303">
        <ele>259.6</ele>
        <time>2021-07-17T16:00:53Z</time>
      </trkpt>
      <trkpt lat="44.43049" lon="1.48303">
        <ele>259.8</ele>
        <time>2021-07-17T16:00:54Z</time>
      </trkpt>
      <trkpt lat="44.43047" lon="1.48302">
        <ele>260.1</ele>
        <time>2021-07-17T16:00:55Z</time>
      </trkpt>
      <trkpt lat="44.43046" lon="1.48303">
        <ele>260.3</ele>
        <time>2021-07-17T16:00:56Z</time>
      </trkpt>
      <trkpt lat="44.43043" lon="1.48303">
        <ele>260.7</ele>
        <time>2021-07-17T16:00:57Z</time>
      </trkpt>
      <trkpt lat="44.43041" lon="1.48304">
        <ele>261</ele>
        <time>2021-07-17T16:00:59Z</time>
      </trkpt>
      <trkpt lat="44.43039" lon="1.48304">
        <ele>261.3</ele>
        <time>2021-07-17T16:01:00Z</time>
      </trkpt>
      <trkpt lat="44.43037" lon="1.48305">
        <ele>261.6</ele>
        <time>2021-07-17T16:01:02Z</time>
      </trkpt>
      <trkpt lat="44.43036" lon="1.48306">
        <ele>261.8</ele>
        <time>2021-07-17T16:01:03Z</time>
      </trkpt>
      <trkpt lat="44.43034" lon="1.48306">
        <ele>262</ele>
        <time>2021-07-17T16:01:04Z</time>
      </trkpt>
      <trkpt lat="44.43033" lon="1.48306">
        <ele>262.1</ele>
        <time>2021-07-17T16:01:05Z</time>
      </trkpt>
      <trkpt lat="44.43031" lon="1.48306">
        <ele>262.3</ele>
        <time>2021-07-17T16:01:07Z</time>
      </trkpt>
      <trkpt lat="44.43031" lon="1.48307">
        <ele>262.4</ele>
        <time>2021-07-17T16:01:08Z</time>
      </trkpt>
      <trkpt lat="44.4303" lon="1.48308">
        <ele>262.6</ele>
        <time>2021-07-17T16:01:09Z</time>
      </trkpt>
      <trkpt lat="44.43028" lon="1.4831">
        <ele>262.8</ele>
        <time>2021-07-17T16:01:11Z</time>
      </trkpt>
      <trkpt lat="44.43026" lon="1.48311">
        <ele>263</ele>
        <time>2021-07-17T16:01:12Z</time>
      </trkpt>
      <trkpt lat="44.43025" lon="1.48312">
        <ele>263.1</ele>
        <time>2021-07-17T16:01:13Z</time>
      </trkpt>
      <trkpt lat="44.43023" lon="1.48313">
        <ele>263.4</ele>
        <time>2021-07-17T16:01:15Z</time>
      </trkpt>
      <trkpt lat="44.43022" lon="1.48314">
        <ele>263.5</ele>
        <time>2021-07-17T16:01:16Z</time>
      </trkpt>
      <trkpt lat="44.4302" lon="1.48314">
        <ele>263.6</ele>
        <time>2021-07-17T16:01:17Z</time>
      </trkpt>
      <trkpt lat="44.43019" lon="1.48314">
        <ele>263.7</ele>
        <time>2021-07-17T16:01:19Z</time>
      </trkpt>
      <trkpt lat="44.43019" lon="1.48314">
        <ele>263.8</ele>
        <time>2021-07-17T16:01:20Z</time>
      </trkpt>
      <trkpt lat="44.43018" lon="1.48315">
        <ele>263.8</ele>
        <time>2021-07-17T16:01:21Z</time>
      </trkpt>
      <trkpt lat="44.43018" lon="1.48315">
        <ele>263.9</ele>
        <time>2021-07-17T16:01:22Z</time>
      </trkpt>
      <trkpt lat="44.43016" lon="1.48317">
        <ele>264</ele>
        <time>2021-07-17T16:01:24Z</time>
      </trkpt>
      <trkpt lat="44.43012" lon="1.4832">
        <ele>264.3</ele>
        <time>2021-07-17T16:01:26Z</time>
      </trkpt>
      <trkpt lat="44.43009" lon="1.4832">
        <ele>264.6</ele>
        <time>2021-07-17T16:01:28Z</time>
      </trkpt>
      <trkpt lat="44.43007" lon="1.4832">
        <ele>264.7</ele>
        <time>2021-07-17T16:01:29Z</time>
      </trkpt>
      <trkpt lat="44.43005" lon="1.4832">
        <ele>264.8</ele>
        <time>2021-07-17T16:01:31Z</time>
      </trkpt>
      <trkpt lat="44.43003" lon="1.48321">
        <ele>264.9</ele>
        <time>2021-07-17T16:01:32Z</time>
      </trkpt>
      <trkpt lat="44.43001" lon="1.48323">
        <ele>265</ele>
        <time>2021-07-17T16:01:34Z</time>
      </trkpt>
      <trkpt lat="44.42999" lon="1.48326">
        <ele>265.2</ele>
        <time>2021-07-17T16:01:35Z</time>
      </trkpt>
      <trkpt lat="44.42998" lon="1.48326">
        <ele>265.2</ele>
        <time>2021-07-17T16:01:36Z</time>
      </trkpt>
      <trkpt lat="44.42997" lon="1.48327">
        <ele>265.3</ele>
        <time>2021-07-17T16:01:38Z</time>
      </trkpt>
      <trkpt lat="44.42996" lon="1.48328">
        <ele>265.3</ele>
        <time>2021-07-17T16:01:39Z</time>
      </trkpt>
      <trkpt lat="44.42993" lon="1.4833">
        <ele>265.5</ele>
        <time>2021-07-17T16:01:40Z</time>
      </trkpt>
      <trkpt lat="44.42992" lon="1.48331">
        <ele>265.5</ele>
        <time>2021-07-17T16:01:41Z</time>
      </trkpt>
      <trkpt lat="44.4299" lon="1.48333">
        <ele>265.6</ele>
        <time>2021-07-17T16:01:43Z</time>
      </trkpt>
      <trkpt lat="44.4299" lon="1.48333">
        <ele>265.6</ele>
        <time>2021-07-17T16:01:44Z</time>
      </trkpt>
      <trkpt lat="44.42989" lon="1.48333">
        <ele>265.7</ele>
        <time>2021-07-17T16:01:45Z</time>
      </trkpt>
      <trkpt lat="44.42989" lon="1.48334">
        <ele>265.7</ele>
        <time>2021-07-17T16:01:46Z</time>
      </trkpt>
      <trkpt lat="44.42986" lon="1.48336">
        <ele>265.9</ele>
        <time>2021-07-17T16:01:48Z</time>
      </trkpt>
      <trkpt lat="44.42985" lon="1.48337">
        <ele>265.9</ele>
        <time>2021-07-17T16:01:49Z</time>
      </trkpt>
      <trkpt lat="44.42983" lon="1.48337">
        <ele>266</ele>
        <time>2021-07-17T16:01:50Z</time>
      </trkpt>
      <trkpt lat="44.42981" lon="1.48339">
        <ele>266.1</ele>
        <time>2021-07-17T16:01:52Z</time>
      </trkpt>
      <trkpt lat="44.4298" lon="1.4834">
        <ele>266.1</ele>
        <time>2021-07-17T16:01:53Z</time>
      </trkpt>
      <trkpt lat="44.42978" lon="1.48341">
        <ele>266.2</ele>
        <time>2021-07-17T16:01:54Z</time>
      </trkpt>
      <trkpt lat="44.42977" lon="1.48342">
        <ele>266.3</ele>
        <time>2021-07-17T16:01:55Z</time>
      </trkpt>
      <trkpt lat="44.42976" lon="1.48343">
        <ele>266.4</ele>
        <time>2021-07-17T16:01:57Z</time>
      </trkpt>
      <trkpt lat="44.42974" lon="1.48345">
        <ele>266.5</ele>
        <time>2021-07-17T16:01:58Z</time>
      </trkpt>
      <trkpt lat="44.42974" lon="1.48346">
        <ele>266.5</ele>
        <time>2021-07-17T16:01:59Z</time>
      </trkpt>
      <trkpt lat="44.42974" lon="1.48346">
        <ele>266.5</ele>
        <time>2021-07-17T16:02:01Z</time>
      </trkpt>
      <trkpt lat="44.42973" lon="1.48348">
        <ele>266.6</ele>
        <time>2021-07-17T16:02:02Z</time>
      </trkpt>
      <trkpt lat="44.42971" lon="1.48349">
        <ele>266.7</ele>
        <time>2021-07-17T16:02:04Z</time>
      </trkpt>
      <trkpt lat="44.42968" lon="1.4835">
        <ele>266.9</ele>
        <time>2021-07-17T16:02:05Z</time>
      </trkpt>
      <trkpt lat="44.42967" lon="1.48351">
        <ele>266.9</ele>
        <time>2021-07-17T16:02:06Z</time>
      </trkpt>
      <trkpt lat="44.42966" lon="1.48352">
        <ele>267</ele>
        <time>2021-07-17T16:02:07Z</time>
      </trkpt>
      <trkpt lat="44.42964" lon="1.48353">
        <ele>267.1</ele>
        <time>2021-07-17T16:02:08Z</time>
      </trkpt>
      <trkpt lat="44.42963" lon="1.48355">
        <ele>267.2</ele>
        <time>2021-07-17T16:02:10Z</time>
      </trkpt>
      <trkpt lat="44.42961" lon="1.48356">
        <ele>267.3</ele>
        <time>2021-07-17T16:02:11Z</time>
      </trkpt>
      <trkpt lat="44.4296" lon="1.48357">
        <ele>267.3</ele>
        <time>2021-07-17T16:02:12Z</time>
      </trkpt>
      <trkpt lat="44.42958" lon="1.4836">
        <ele>267.5</ele>
        <time>2021-07-17T16:02:14Z</time>
      </trkpt>
      <trkpt lat="44.42957" lon="1.48361">
        <ele>267.6</ele>
        <time>2021-07-17T16:02:15Z</time>
      </trkpt>
      <trkpt lat="44.42955" lon="1.48364">
        <ele>267.7</ele>
        <time>2021-07-17T16:02:17Z</time>
      </trkpt>
      <trkpt lat="44.42954" lon="1.48364">
        <ele>267.8</ele>
        <time>2021-07-17T16:02:18Z</time>
      </trkpt>
      <trkpt lat="44.42952" lon="1.48366">
        <ele>267.9</ele>
        <time>2021-07-17T16:02:19Z</time>
      </trkpt>
      <trkpt lat="44.42952" lon="1.48367">
        <ele>267.9</ele>
        <time>2021-07-17T16:02:20Z</time>
      </trkpt>
      <trkpt lat="44.42951" lon="1.48368">
        <ele>268</ele>
        <time>2021-07-17T16:02:21Z</time>
      </trkpt>
      <trkpt lat="44.42949" lon="1.48371">
        <ele>268.2</ele>
        <time>2021-07-17T16:02:23Z</time>
      </trkpt>
      <trkpt lat="44.42948" lon="1.48372">
        <ele>268.2</ele>
        <time>2021-07-17T16:02:24Z</time>
      </trkpt>
      <trkpt lat="44.42947" lon="1.48373">
        <ele>268.3</ele>
        <time>2021-07-17T16:02:25Z</time>
      </trkpt>
      <trkpt lat="44.42946" lon="1.48375">
        <ele>268.4</ele>
        <time>2021-07-17T16:02:26Z</time>
      </trkpt>
      <trkpt lat="44.42945" lon="1.48376">
        <ele>268.5</ele>
        <time>2021-07-17T16:02:28Z</time>
      </trkpt>
      <trkpt lat="44.42943" lon="1.48378">
        <ele>268.6</ele>
        <time>2021-07-17T16:02:29Z</time>
      </trkpt>
      <trkpt lat="44.42941" lon="1.4838">
        <ele>268.8</ele>
        <time>2021-07-17T16:02:31Z</time>
      </trkpt>
      <trkpt lat="44.4294" lon="1.48382">
        <ele>268.9</ele>
        <time>2021-07-17T16:02:33Z</time>
      </trkpt>
      <trkpt lat="44.4294" lon="1.48382">
        <ele>269</ele>
        <time>2021-07-17T16:02:35Z</time>
      </trkpt>
      <trkpt lat="44.42939" lon="1.48384">
        <ele>269</ele>
        <time>2021-07-17T16:02:36Z</time>
      </trkpt>
      <trkpt lat="44.42939" lon="1.48384">
        <ele>269.1</ele>
        <time>2021-07-17T16:02:37Z</time>
      </trkpt>
      <trkpt lat="44.42938" lon="1.48384">
        <ele>269.1</ele>
        <time>2021-07-17T16:02:39Z</time>
      </trkpt>
      <trkpt lat="44.42937" lon="1.48386">
        <ele>269.2</ele>
        <time>2021-07-17T16:02:40Z</time>
      </trkpt>
      <trkpt lat="44.42935" lon="1.48387">
        <ele>269.4</ele>
        <time>2021-07-17T16:02:42Z</time>
      </trkpt>
      <trkpt lat="44.42934" lon="1.48388">
        <ele>269.5</ele>
        <time>2021-07-17T16:02:44Z</time>
      </trkpt>
      <trkpt lat="44.42933" lon="1.4839">
        <ele>269.6</ele>
        <time>2021-07-17T16:02:45Z</time>
      </trkpt>
      <trkpt lat="44.42929" lon="1.48394">
        <ele>269.9</ele>
        <time>2021-07-17T16:02:47Z</time>
      </trkpt>
      <trkpt lat="44.42928" lon="1.48395">
        <ele>270</ele>
        <time>2021-07-17T16:02:48Z</time>
      </trkpt>
      <trkpt lat="44.42926" lon="1.48396">
        <ele>270.1</ele>
        <time>2021-07-17T16:02:49Z</time>
      </trkpt>
      <trkpt lat="44.42925" lon="1.48397">
        <ele>270.2</ele>
        <time>2021-07-17T16:02:50Z</time>
      </trkpt>
      <trkpt lat="44.42924" lon="1.48399">
        <ele>270.3</ele>
        <time>2021-07-17T16:02:51Z</time>
      </trkpt>
      <trkpt lat="44.42922" lon="1.48402">
        <ele>270.5</ele>
        <time>2021-07-17T16:02:53Z</time>
      </trkpt>
      <trkpt lat="44.42921" lon="1.48403">
        <ele>270.6</ele>
        <time>2021-07-17T16:02:54Z</time>
      </trkpt>
      <trkpt lat="44.4292" lon="1.48405">
        <ele>270.8</ele>
        <time>2021-07-17T16:02:55Z</time>
      </trkpt>
      <trkpt lat="44.42919" lon="1.48406">
        <ele>270.8</ele>
        <time>2021-07-17T16:02:56Z</time>
      </trkpt>
      <trkpt lat="44.42917" lon="1.48409">
        <ele>271</ele>
        <time>2021-07-17T16:02:58Z</time>
      </trkpt>
      <trkpt lat="44.42916" lon="1.4841">
        <ele>271</ele>
        <time>2021-07-17T16:02:59Z</time>
      </trkpt>
      <trkpt lat="44.42914" lon="1.48412">
        <ele>271.2</ele>
        <time>2021-07-17T16:03:01Z</time>
      </trkpt>
      <trkpt lat="44.42913" lon="1.48413">
        <ele>271.3</ele>
        <time>2021-07-17T16:03:02Z</time>
      </trkpt>
      <trkpt lat="44.4291" lon="1.48414">
        <ele>271.4</ele>
        <time>2021-07-17T16:03:04Z</time>
      </trkpt>
      <trkpt lat="44.42909" lon="1.48415">
        <ele>271.5</ele>
        <time>2021-07-17T16:03:05Z</time>
      </trkpt>
      <trkpt lat="44.42908" lon="1.48417">
        <ele>271.5</ele>
        <time>2021-07-17T16:03:06Z</time>
      </trkpt>
      <trkpt lat="44.42906" lon="1.48419">
        <ele>271.7</ele>
        <time>2021-07-17T16:03:08Z</time>
      </trkpt>
      <trkpt lat="44.42906" lon="1.4842">
        <ele>271.7</ele>
        <time>2021-07-17T16:03:09Z</time>
      </trkpt>
      <trkpt lat="44.42904" lon="1.48422">
        <ele>271.8</ele>
        <time>2021-07-17T16:03:11Z</time>
      </trkpt>
      <trkpt lat="44.42903" lon="1.48423">
        <ele>271.8</ele>
        <time>2021-07-17T16:03:12Z</time>
      </trkpt>
      <trkpt lat="44.42902" lon="1.48425">
        <ele>271.9</ele>
        <time>2021-07-17T16:03:14Z</time>
      </trkpt>
      <trkpt lat="44.42901" lon="1.48426">
        <ele>272</ele>
        <time>2021-07-17T16:03:15Z</time>
      </trkpt>
      <trkpt lat="44.42901" lon="1.48428">
        <ele>272</ele>
        <time>2021-07-17T16:03:16Z</time>
      </trkpt>
      <trkpt lat="44.42897" lon="1.4843">
        <ele>272.2</ele>
        <time>2021-07-17T16:03:18Z</time>
      </trkpt>
      <trkpt lat="44.42896" lon="1.48431">
        <ele>272.2</ele>
        <time>2021-07-17T16:03:19Z</time>
      </trkpt>
      <trkpt lat="44.42895" lon="1.48432">
        <ele>272.3</ele>
        <time>2021-07-17T16:03:20Z</time>
      </trkpt>
      <trkpt lat="44.42892" lon="1.48435">
        <ele>272.4</ele>
        <time>2021-07-17T16:03:22Z</time>
      </trkpt>
      <trkpt lat="44.42892" lon="1.48436">
        <ele>272.4</ele>
        <time>2021-07-17T16:03:23Z</time>
      </trkpt>
      <trkpt lat="44.4289" lon="1.48438">
        <ele>272.4</ele>
        <time>2021-07-17T16:03:24Z</time>
      </trkpt>
      <trkpt lat="44.42889" lon="1.4844">
        <ele>272.5</ele>
        <time>2021-07-17T16:03:26Z</time>
      </trkpt>
      <trkpt lat="44.42887" lon="1.48442">
        <ele>272.5</ele>
        <time>2021-07-17T16:03:27Z</time>
      </trkpt>
      <trkpt lat="44.42886" lon="1.48443">
        <ele>272.5</ele>
        <time>2021-07-17T16:03:28Z</time>
      </trkpt>
      <trkpt lat="44.42883" lon="1.48445">
        <ele>272.6</ele>
        <time>2021-07-17T16:03:29Z</time>
      </trkpt>
      <trkpt lat="44.42883" lon="1.48446">
        <ele>272.6</ele>
        <time>2021-07-17T16:03:30Z</time>
      </trkpt>
      <trkpt lat="44.42881" lon="1.48447">
        <ele>272.6</ele>
        <time>2021-07-17T16:03:31Z</time>
      </trkpt>
      <trkpt lat="44.42878" lon="1.48445">
        <ele>272.7</ele>
        <time>2021-07-17T16:03:33Z</time>
      </trkpt>
      <trkpt lat="44.42877" lon="1.48443">
        <ele>272.7</ele>
        <time>2021-07-17T16:03:34Z</time>
      </trkpt>
      <trkpt lat="44.42876" lon="1.48439">
        <ele>272.8</ele>
        <time>2021-07-17T16:03:36Z</time>
      </trkpt>
      <trkpt lat="44.42873" lon="1.48438">
        <ele>272.9</ele>
        <time>2021-07-17T16:03:38Z</time>
      </trkpt>
      <trkpt lat="44.42873" lon="1.48442">
        <ele>272.9</ele>
        <time>2021-07-17T16:03:40Z</time>
      </trkpt>
      <trkpt lat="44.42874" lon="1.48444">
        <ele>273</ele>
        <time>2021-07-17T16:03:41Z</time>
      </trkpt>
      <trkpt lat="44.42875" lon="1.48446">
        <ele>273</ele>
        <time>2021-07-17T16:03:42Z</time>
      </trkpt>
      <trkpt lat="44.42877" lon="1.4845">
        <ele>273.2</ele>
        <time>2021-07-17T16:03:44Z</time>
      </trkpt>
      <trkpt lat="44.42879" lon="1.48449">
        <ele>273.2</ele>
        <time>2021-07-17T16:03:46Z</time>
      </trkpt>
      <trkpt lat="44.42879" lon="1.48447">
        <ele>273.3</ele>
        <time>2021-07-17T16:03:47Z</time>
      </trkpt>
      <trkpt lat="44.42876" lon="1.48444">
        <ele>273.4</ele>
        <time>2021-07-17T16:03:49Z</time>
      </trkpt>
      <trkpt lat="44.42875" lon="1.48443">
        <ele>273.5</ele>
        <time>2021-07-17T16:03:50Z</time>
      </trkpt>
      <trkpt lat="44.42873" lon="1.4844">
        <ele>273.6</ele>
        <time>2021-07-17T16:03:52Z</time>
      </trkpt>
      <trkpt lat="44.42871" lon="1.48436">
        <ele>273.7</ele>
        <time>2021-07-17T16:03:54Z</time>
      </trkpt>
      <trkpt lat="44.42869" lon="1.48432">
        <ele>273.8</ele>
        <time>2021-07-17T16:03:56Z</time>
      </trkpt>
      <trkpt lat="44.42867" lon="1.48429">
        <ele>273.9</ele>
        <time>2021-07-17T16:03:58Z</time>
      </trkpt>
      <trkpt lat="44.42865" lon="1.48426">
        <ele>274</ele>
        <time>2021-07-17T16:04:00Z</time>
      </trkpt>
      <trkpt lat="44.42863" lon="1.48423">
        <ele>274.1</ele>
        <time>2021-07-17T16:04:02Z</time>
      </trkpt>
      <trkpt lat="44.42861" lon="1.4842">
        <ele>274.2</ele>
        <time>2021-07-17T16:04:04Z</time>
      </trkpt>
      <trkpt lat="44.42859" lon="1.48417">
        <ele>274.3</ele>
        <time>2021-07-17T16:04:06Z</time>
      </trkpt>
      <trkpt lat="44.42857" lon="1.48414">
        <ele>274.4</ele>
        <time>2021-07-17T16:04:08Z</time>
      </trkpt>
      <trkpt lat="44.42856" lon="1.48413">
        <ele>274.4</ele>
        <time>2021-07-17T16:04:09Z</time>
      </trkpt>
      <trkpt lat="44.42854" lon="1.4841">
        <ele>274.5</ele>
        <time>2021-07-17T16:04:11Z</time>
      </trkpt>
      <trkpt lat="44.42853" lon="1.48406">
        <ele>274.6</ele>
        <time>2021-07-17T16:04:13Z</time>
      </trkpt>
      <trkpt lat="44.42853" lon="1.48405">
        <ele>274.6</ele>
        <time>2021-07-17T16:04:14Z</time>
      </trkpt>
      <trkpt lat="44.4285" lon="1.48402">
        <ele>274.7</ele>
        <time>2021-07-17T16:04:16Z</time>
      </trkpt>
      <trkpt lat="44.42849" lon="1.48401">
        <ele>274.8</ele>
        <time>2021-07-17T16:04:17Z</time>
      </trkpt>
      <trkpt lat="44.42848" lon="1.484">
        <ele>274.8</ele>
        <time>2021-07-17T16:04:18Z</time>
      </trkpt>
      <trkpt lat="44.42846" lon="1.48397">
        <ele>274.9</ele>
        <time>2021-07-17T16:04:20Z</time>
      </trkpt>
      <trkpt lat="44.42843" lon="1.48394">
        <ele>275.1</ele>
        <time>2021-07-17T16:04:22Z</time>
      </trkpt>
      <trkpt lat="44.42842" lon="1.48392">
        <ele>275.1</ele>
        <time>2021-07-17T16:04:23Z</time>
      </trkpt>
      <trkpt lat="44.4284" lon="1.48389">
        <ele>275.3</ele>
        <time>2021-07-17T16:04:25Z</time>
      </trkpt>
      <trkpt lat="44.42838" lon="1.48387">
        <ele>275.3</ele>
        <time>2021-07-17T16:04:26Z</time>
      </trkpt>
      <trkpt lat="44.42837" lon="1.48385">
        <ele>275.4</ele>
        <time>2021-07-17T16:04:28Z</time>
      </trkpt>
      <trkpt lat="44.42835" lon="1.48383">
        <ele>275.5</ele>
        <time>2021-07-17T16:04:29Z</time>
      </trkpt>
      <trkpt lat="44.42834" lon="1.48382">
        <ele>275.6</ele>
        <time>2021-07-17T16:04:30Z</time>
      </trkpt>
      <trkpt lat="44.42832" lon="1.48378">
        <ele>275.7</ele>
        <time>2021-07-17T16:04:32Z</time>
      </trkpt>
      <trkpt lat="44.4283" lon="1.48375">
        <ele>275.8</ele>
        <time>2021-07-17T16:04:34Z</time>
      </trkpt>
      <trkpt lat="44.42829" lon="1.48374">
        <ele>275.9</ele>
        <time>2021-07-17T16:04:35Z</time>
      </trkpt>
      <trkpt lat="44.42828" lon="1.48372">
        <ele>275.9</ele>
        <time>2021-07-17T16:04:36Z</time>
      </trkpt>
      <trkpt lat="44.42825" lon="1.4837">
        <ele>276.1</ele>
        <time>2021-07-17T16:04:38Z</time>
      </trkpt>
      <trkpt lat="44.42823" lon="1.48367">
        <ele>276.2</ele>
        <time>2021-07-17T16:04:40Z</time>
      </trkpt>
      <trkpt lat="44.42821" lon="1.48366">
        <ele>276.3</ele>
        <time>2021-07-17T16:04:41Z</time>
      </trkpt>
      <trkpt lat="44.4282" lon="1.48364">
        <ele>276.4</ele>
        <time>2021-07-17T16:04:42Z</time>
      </trkpt>
      <trkpt lat="44.42818" lon="1.48362">
        <ele>276.5</ele>
        <time>2021-07-17T16:04:44Z</time>
      </trkpt>
      <trkpt lat="44.42815" lon="1.4836">
        <ele>276.6</ele>
        <time>2021-07-17T16:04:46Z</time>
      </trkpt>
      <trkpt lat="44.42812" lon="1.48357">
        <ele>276.8</ele>
        <time>2021-07-17T16:04:48Z</time>
      </trkpt>
      <trkpt lat="44.42809" lon="1.48354">
        <ele>276.9</ele>
        <time>2021-07-17T16:04:50Z</time>
      </trkpt>
      <trkpt lat="44.42805" lon="1.48351">
        <ele>277.2</ele>
        <time>2021-07-17T16:04:52Z</time>
      </trkpt>
      <trkpt lat="44.42804" lon="1.4835">
        <ele>277.2</ele>
        <time>2021-07-17T16:04:54Z</time>
      </trkpt>
      <trkpt lat="44.42803" lon="1.48349">
        <ele>277.3</ele>
        <time>2021-07-17T16:04:55Z</time>
      </trkpt>
      <trkpt lat="44.42802" lon="1.48348">
        <ele>277.4</ele>
        <time>2021-07-17T16:04:56Z</time>
      </trkpt>
      <trkpt lat="44.42799" lon="1.48347">
        <ele>277.5</ele>
        <time>2021-07-17T16:04:58Z</time>
      </trkpt>
      <trkpt lat="44.42798" lon="1.48346">
        <ele>277.6</ele>
        <time>2021-07-17T16:04:59Z</time>
      </trkpt>
      <trkpt lat="44.42795" lon="1.48344">
        <ele>277.7</ele>
        <time>2021-07-17T16:05:01Z</time>
      </trkpt>
      <trkpt lat="44.42794" lon="1.48342">
        <ele>277.8</ele>
        <time>2021-07-17T16:05:02Z</time>
      </trkpt>
      <trkpt lat="44.42791" lon="1.4834">
        <ele>278</ele>
        <time>2021-07-17T16:05:04Z</time>
      </trkpt>
      <trkpt lat="44.42788" lon="1.48339">
        <ele>278.1</ele>
        <time>2021-07-17T16:05:05Z</time>
      </trkpt>
      <trkpt lat="44.42787" lon="1.48339">
        <ele>278.2</ele>
        <time>2021-07-17T16:05:06Z</time>
      </trkpt>
      <trkpt lat="44.42784" lon="1.48337">
        <ele>278.3</ele>
        <time>2021-07-17T16:05:08Z</time>
      </trkpt>
      <trkpt lat="44.42782" lon="1.48335">
        <ele>278.5</ele>
        <time>2021-07-17T16:05:10Z</time>
      </trkpt>
      <trkpt lat="44.4278" lon="1.48335">
        <ele>278.5</ele>
        <time>2021-07-17T16:05:11Z</time>
      </trkpt>
      <trkpt lat="44.42779" lon="1.48334">
        <ele>278.6</ele>
        <time>2021-07-17T16:05:12Z</time>
      </trkpt>
      <trkpt lat="44.42776" lon="1.48331">
        <ele>278.8</ele>
        <time>2021-07-17T16:05:14Z</time>
      </trkpt>
      <trkpt lat="44.42774" lon="1.48329">
        <ele>278.9</ele>
        <time>2021-07-17T16:05:16Z</time>
      </trkpt>
      <trkpt lat="44.42772" lon="1.48328">
        <ele>279</ele>
        <time>2021-07-17T16:05:17Z</time>
      </trkpt>
      <trkpt lat="44.4277" lon="1.48327">
        <ele>279.1</ele>
        <time>2021-07-17T16:05:18Z</time>
      </trkpt>
      <trkpt lat="44.42766" lon="1.48325">
        <ele>279.3</ele>
        <time>2021-07-17T16:05:20Z</time>
      </trkpt>
      <trkpt lat="44.42764" lon="1.48322">
        <ele>279.5</ele>
        <time>2021-07-17T16:05:22Z</time>
      </trkpt>
      <trkpt lat="44.42762" lon="1.48322">
        <ele>279.6</ele>
        <time>2021-07-17T16:05:23Z</time>
      </trkpt>
      <trkpt lat="44.4276" lon="1.48321">
        <ele>279.6</ele>
        <time>2021-07-17T16:05:24Z</time>
      </trkpt>
      <trkpt lat="44.42757" lon="1.48319">
        <ele>279.8</ele>
        <time>2021-07-17T16:05:26Z</time>
      </trkpt>
      <trkpt lat="44.42754" lon="1.48317">
        <ele>280</ele>
        <time>2021-07-17T16:05:28Z</time>
      </trkpt>
      <trkpt lat="44.42753" lon="1.48316">
        <ele>280.1</ele>
        <time>2021-07-17T16:05:29Z</time>
      </trkpt>
      <trkpt lat="44.42752" lon="1.48315">
        <ele>280.1</ele>
        <time>2021-07-17T16:05:30Z</time>
      </trkpt>
      <trkpt lat="44.42749" lon="1.48313">
        <ele>280.3</ele>
        <time>2021-07-17T16:05:32Z</time>
      </trkpt>
      <trkpt lat="44.42744" lon="1.48311">
        <ele>280.5</ele>
        <time>2021-07-17T16:05:34Z</time>
      </trkpt>
      <trkpt lat="44.42742" lon="1.48311">
        <ele>280.6</ele>
        <time>2021-07-17T16:05:36Z</time>
      </trkpt>
      <trkpt lat="44.42741" lon="1.4831">
        <ele>280.7</ele>
        <time>2021-07-17T16:05:37Z</time>
      </trkpt>
      <trkpt lat="44.42739" lon="1.4831">
        <ele>280.8</ele>
        <time>2021-07-17T16:05:38Z</time>
      </trkpt>
      <trkpt lat="44.42736" lon="1.4831">
        <ele>281</ele>
        <time>2021-07-17T16:05:39Z</time>
      </trkpt>
      <trkpt lat="44.42735" lon="1.48309">
        <ele>281.1</ele>
        <time>2021-07-17T16:05:40Z</time>
      </trkpt>
      <trkpt lat="44.42732" lon="1.48308">
        <ele>281.3</ele>
        <time>2021-07-17T16:05:42Z</time>
      </trkpt>
      <trkpt lat="44.42728" lon="1.48308">
        <ele>281.5</ele>
        <time>2021-07-17T16:05:44Z</time>
      </trkpt>
      <trkpt lat="44.42723" lon="1.48307">
        <ele>281.8</ele>
        <time>2021-07-17T16:05:46Z</time>
      </trkpt>
      <trkpt lat="44.42721" lon="1.48307">
        <ele>282</ele>
        <time>2021-07-17T16:05:48Z</time>
      </trkpt>
      <trkpt lat="44.42719" lon="1.48307">
        <ele>282.1</ele>
        <time>2021-07-17T16:05:49Z</time>
      </trkpt>
      <trkpt lat="44.42718" lon="1.48307">
        <ele>282.2</ele>
        <time>2021-07-17T16:05:50Z</time>
      </trkpt>
      <trkpt lat="44.42713" lon="1.48308">
        <ele>282.6</ele>
        <time>2021-07-17T16:05:52Z</time>
      </trkpt>
      <trkpt lat="44.42711" lon="1.48308">
        <ele>282.7</ele>
        <time>2021-07-17T16:05:54Z</time>
      </trkpt>
      <trkpt lat="44.42709" lon="1.48309">
        <ele>282.8</ele>
        <time>2021-07-17T16:05:56Z</time>
      </trkpt>
      <trkpt lat="44.42707" lon="1.4831">
        <ele>283</ele>
        <time>2021-07-17T16:05:57Z</time>
      </trkpt>
      <trkpt lat="44.42706" lon="1.48309">
        <ele>283.1</ele>
        <time>2021-07-17T16:05:58Z</time>
      </trkpt>
      <trkpt lat="44.42703" lon="1.4831">
        <ele>283.3</ele>
        <time>2021-07-17T16:06:00Z</time>
      </trkpt>
      <trkpt lat="44.427" lon="1.48312">
        <ele>283.6</ele>
        <time>2021-07-17T16:06:02Z</time>
      </trkpt>
      <trkpt lat="44.42697" lon="1.48314">
        <ele>283.8</ele>
        <time>2021-07-17T16:06:04Z</time>
      </trkpt>
      <trkpt lat="44.42694" lon="1.48314">
        <ele>284</ele>
        <time>2021-07-17T16:06:06Z</time>
      </trkpt>
      <trkpt lat="44.42691" lon="1.48315">
        <ele>284.3</ele>
        <time>2021-07-17T16:06:08Z</time>
      </trkpt>
      <trkpt lat="44.42688" lon="1.48316">
        <ele>284.5</ele>
        <time>2021-07-17T16:06:09Z</time>
      </trkpt>
      <trkpt lat="44.42688" lon="1.48316">
        <ele>284.6</ele>
        <time>2021-07-17T16:06:10Z</time>
      </trkpt>
      <trkpt lat="44.42685" lon="1.48318">
        <ele>284.8</ele>
        <time>2021-07-17T16:06:12Z</time>
      </trkpt>
      <trkpt lat="44.42682" lon="1.48319">
        <ele>285</ele>
        <time>2021-07-17T16:06:14Z</time>
      </trkpt>
      <trkpt lat="44.42678" lon="1.4832">
        <ele>285.3</ele>
        <time>2021-07-17T16:06:16Z</time>
      </trkpt>
      <trkpt lat="44.42676" lon="1.4832">
        <ele>285.4</ele>
        <time>2021-07-17T16:06:17Z</time>
      </trkpt>
      <trkpt lat="44.42674" lon="1.48321">
        <ele>285.6</ele>
        <time>2021-07-17T16:06:19Z</time>
      </trkpt>
      <trkpt lat="44.42672" lon="1.48322">
        <ele>285.8</ele>
        <time>2021-07-17T16:06:20Z</time>
      </trkpt>
      <trkpt lat="44.4267" lon="1.48323">
        <ele>285.9</ele>
        <time>2021-07-17T16:06:22Z</time>
      </trkpt>
      <trkpt lat="44.42667" lon="1.48323">
        <ele>286.1</ele>
        <time>2021-07-17T16:06:23Z</time>
      </trkpt>
      <trkpt lat="44.42665" lon="1.48324">
        <ele>286.2</ele>
        <time>2021-07-17T16:06:24Z</time>
      </trkpt>
      <trkpt lat="44.42663" lon="1.48324">
        <ele>286.4</ele>
        <time>2021-07-17T16:06:25Z</time>
      </trkpt>
      <trkpt lat="44.42662" lon="1.48325">
        <ele>286.5</ele>
        <time>2021-07-17T16:06:26Z</time>
      </trkpt>
      <trkpt lat="44.42659" lon="1.48325">
        <ele>286.6</ele>
        <time>2021-07-17T16:06:28Z</time>
      </trkpt>
      <trkpt lat="44.42654" lon="1.48325">
        <ele>286.9</ele>
        <time>2021-07-17T16:06:30Z</time>
      </trkpt>
      <trkpt lat="44.42653" lon="1.48325">
        <ele>286.9</ele>
        <time>2021-07-17T16:06:31Z</time>
      </trkpt>
      <trkpt lat="44.42652" lon="1.48325">
        <ele>287</ele>
        <time>2021-07-17T16:06:32Z</time>
      </trkpt>
      <trkpt lat="44.42648" lon="1.48326">
        <ele>287.2</ele>
        <time>2021-07-17T16:06:34Z</time>
      </trkpt>
      <trkpt lat="44.42647" lon="1.48326">
        <ele>287.3</ele>
        <time>2021-07-17T16:06:35Z</time>
      </trkpt>
      <trkpt lat="44.42646" lon="1.48326">
        <ele>287.3</ele>
        <time>2021-07-17T16:06:36Z</time>
      </trkpt>
      <trkpt lat="44.42645" lon="1.48326">
        <ele>287.4</ele>
        <time>2021-07-17T16:06:37Z</time>
      </trkpt>
      <trkpt lat="44.42643" lon="1.48325">
        <ele>287.5</ele>
        <time>2021-07-17T16:06:39Z</time>
      </trkpt>
      <trkpt lat="44.42642" lon="1.48324">
        <ele>287.6</ele>
        <time>2021-07-17T16:06:40Z</time>
      </trkpt>
      <trkpt lat="44.42639" lon="1.48322">
        <ele>287.7</ele>
        <time>2021-07-17T16:06:42Z</time>
      </trkpt>
      <trkpt lat="44.42638" lon="1.48321">
        <ele>287.8</ele>
        <time>2021-07-17T16:06:43Z</time>
      </trkpt>
      <trkpt lat="44.42636" lon="1.4832">
        <ele>287.9</ele>
        <time>2021-07-17T16:06:44Z</time>
      </trkpt>
      <trkpt lat="44.42633" lon="1.4832">
        <ele>288</ele>
        <time>2021-07-17T16:06:46Z</time>
      </trkpt>
      <trkpt lat="44.42631" lon="1.48319">
        <ele>288.1</ele>
        <time>2021-07-17T16:06:47Z</time>
      </trkpt>
      <trkpt lat="44.42629" lon="1.48317">
        <ele>288.2</ele>
        <time>2021-07-17T16:06:49Z</time>
      </trkpt>
      <trkpt lat="44.42628" lon="1.48316">
        <ele>288.3</ele>
        <time>2021-07-17T16:06:50Z</time>
      </trkpt>
      <trkpt lat="44.42626" lon="1.48314">
        <ele>288.4</ele>
        <time>2021-07-17T16:06:52Z</time>
      </trkpt>
      <trkpt lat="44.42623" lon="1.48311">
        <ele>288.5</ele>
        <time>2021-07-17T16:06:53Z</time>
      </trkpt>
      <trkpt lat="44.42622" lon="1.4831">
        <ele>288.6</ele>
        <time>2021-07-17T16:06:54Z</time>
      </trkpt>
      <trkpt lat="44.4262" lon="1.48309">
        <ele>288.6</ele>
        <time>2021-07-17T16:06:55Z</time>
      </trkpt>
      <trkpt lat="44.42618" lon="1.48308">
        <ele>288.7</ele>
        <time>2021-07-17T16:06:56Z</time>
      </trkpt>
      <trkpt lat="44.42617" lon="1.48308">
        <ele>288.7</ele>
        <time>2021-07-17T16:06:57Z</time>
      </trkpt>
      <trkpt lat="44.42615" lon="1.48305">
        <ele>288.8</ele>
        <time>2021-07-17T16:06:59Z</time>
      </trkpt>
      <trkpt lat="44.42613" lon="1.48303">
        <ele>288.9</ele>
        <time>2021-07-17T16:07:00Z</time>
      </trkpt>
      <trkpt lat="44.4261" lon="1.483">
        <ele>288.9</ele>
        <time>2021-07-17T16:07:02Z</time>
      </trkpt>
      <trkpt lat="44.42609" lon="1.48298">
        <ele>288.9</ele>
        <time>2021-07-17T16:07:03Z</time>
      </trkpt>
      <trkpt lat="44.42607" lon="1.48296">
        <ele>289</ele>
        <time>2021-07-17T16:07:05Z</time>
      </trkpt>
      <trkpt lat="44.42604" lon="1.48293">
        <ele>289</ele>
        <time>2021-07-17T16:07:06Z</time>
      </trkpt>
      <trkpt lat="44.42602" lon="1.48289">
        <ele>289</ele>
        <time>2021-07-17T16:07:08Z</time>
      </trkpt>
      <trkpt lat="44.42601" lon="1.48287">
        <ele>289.1</ele>
        <time>2021-07-17T16:07:09Z</time>
      </trkpt>
      <trkpt lat="44.42598" lon="1.48285">
        <ele>289.1</ele>
        <time>2021-07-17T16:07:11Z</time>
      </trkpt>
      <trkpt lat="44.42594" lon="1.48282">
        <ele>289.1</ele>
        <time>2021-07-17T16:07:13Z</time>
      </trkpt>
      <trkpt lat="44.42592" lon="1.4828">
        <ele>289</ele>
        <time>2021-07-17T16:07:14Z</time>
      </trkpt>
      <trkpt lat="44.42589" lon="1.48277">
        <ele>289</ele>
        <time>2021-07-17T16:07:16Z</time>
      </trkpt>
      <trkpt lat="44.42586" lon="1.48274">
        <ele>289</ele>
        <time>2021-07-17T16:07:17Z</time>
      </trkpt>
      <trkpt lat="44.42585" lon="1.48274">
        <ele>289</ele>
        <time>2021-07-17T16:07:18Z</time>
      </trkpt>
      <trkpt lat="44.42583" lon="1.48272">
        <ele>289</ele>
        <time>2021-07-17T16:07:19Z</time>
      </trkpt>
      <trkpt lat="44.42582" lon="1.4827">
        <ele>289</ele>
        <time>2021-07-17T16:07:20Z</time>
      </trkpt>
      <trkpt lat="44.42579" lon="1.48266">
        <ele>288.9</ele>
        <time>2021-07-17T16:07:22Z</time>
      </trkpt>
      <trkpt lat="44.42576" lon="1.48264">
        <ele>288.9</ele>
        <time>2021-07-17T16:07:23Z</time>
      </trkpt>
      <trkpt lat="44.42576" lon="1.48263">
        <ele>288.9</ele>
        <time>2021-07-17T16:07:24Z</time>
      </trkpt>
      <trkpt lat="44.42571" lon="1.4826">
        <ele>288.8</ele>
        <time>2021-07-17T16:07:26Z</time>
      </trkpt>
      <trkpt lat="44.42567" lon="1.48258">
        <ele>288.8</ele>
        <time>2021-07-17T16:07:28Z</time>
      </trkpt>
      <trkpt lat="44.42563" lon="1.48257">
        <ele>288.7</ele>
        <time>2021-07-17T16:07:29Z</time>
      </trkpt>
      <trkpt lat="44.42562" lon="1.48256">
        <ele>288.7</ele>
        <time>2021-07-17T16:07:30Z</time>
      </trkpt>
      <trkpt lat="44.42556" lon="1.4825">
        <ele>288.6</ele>
        <time>2021-07-17T16:07:32Z</time>
      </trkpt>
      <trkpt lat="44.4255" lon="1.48246">
        <ele>288.5</ele>
        <time>2021-07-17T16:07:34Z</time>
      </trkpt>
      <trkpt lat="44.42545" lon="1.48243">
        <ele>288.4</ele>
        <time>2021-07-17T16:07:36Z</time>
      </trkpt>
      <trkpt lat="44.42539" lon="1.48239">
        <ele>288.4</ele>
        <time>2021-07-17T16:07:38Z</time>
      </trkpt>
      <trkpt lat="44.42534" lon="1.48235">
        <ele>288.3</ele>
        <time>2021-07-17T16:07:40Z</time>
      </trkpt>
      <trkpt lat="44.42531" lon="1.48232">
        <ele>288.2</ele>
        <time>2021-07-17T16:07:41Z</time>
      </trkpt>
      <trkpt lat="44.42528" lon="1.4823">
        <ele>288.2</ele>
        <time>2021-07-17T16:07:42Z</time>
      </trkpt>
      <trkpt lat="44.42522" lon="1.48224">
        <ele>288.1</ele>
        <time>2021-07-17T16:07:44Z</time>
      </trkpt>
      <trkpt lat="44.42519" lon="1.48221">
        <ele>288</ele>
        <time>2021-07-17T16:07:45Z</time>
      </trkpt>
      <trkpt lat="44.42515" lon="1.48213">
        <ele>288</ele>
        <time>2021-07-17T16:07:47Z</time>
      </trkpt>
      <trkpt lat="44.42511" lon="1.48207">
        <ele>287.9</ele>
        <time>2021-07-17T16:07:49Z</time>
      </trkpt>
      <trkpt lat="44.42509" lon="1.482">
        <ele>287.8</ele>
        <time>2021-07-17T16:07:51Z</time>
      </trkpt>
      <trkpt lat="44.42507" lon="1.48196">
        <ele>287.8</ele>
        <time>2021-07-17T16:07:52Z</time>
      </trkpt>
      <trkpt lat="44.42505" lon="1.48193">
        <ele>287.7</ele>
        <time>2021-07-17T16:07:53Z</time>
      </trkpt>
      <trkpt lat="44.42503" lon="1.48188">
        <ele>287.7</ele>
        <time>2021-07-17T16:07:54Z</time>
      </trkpt>
      <trkpt lat="44.42502" lon="1.48184">
        <ele>287.7</ele>
        <time>2021-07-17T16:07:55Z</time>
      </trkpt>
      <trkpt lat="44.425" lon="1.48179">
        <ele>287.6</ele>
        <time>2021-07-17T16:07:56Z</time>
      </trkpt>
      <trkpt lat="44.42497" lon="1.4817">
        <ele>287.6</ele>
        <time>2021-07-17T16:07:58Z</time>
      </trkpt>
      <trkpt lat="44.42495" lon="1.48162">
        <ele>287.6</ele>
        <time>2021-07-17T16:08:00Z</time>
      </trkpt>
      <trkpt lat="44.42496" lon="1.48157">
        <ele>287.6</ele>
        <time>2021-07-17T16:08:01Z</time>
      </trkpt>
      <trkpt lat="44.42496" lon="1.48153">
        <ele>287.6</ele>
        <time>2021-07-17T16:08:02Z</time>
      </trkpt>
      <trkpt lat="44.42494" lon="1.48148">
        <ele>287.6</ele>
        <time>2021-07-17T16:08:04Z</time>
      </trkpt>
      <trkpt lat="44.42493" lon="1.48144">
        <ele>287.6</ele>
        <time>2021-07-17T16:08:05Z</time>
      </trkpt>
      <trkpt lat="44.42491" lon="1.48139">
        <ele>287.6</ele>
        <time>2021-07-17T16:08:07Z</time>
      </trkpt>
      <trkpt lat="44.4249" lon="1.48137">
        <ele>287.6</ele>
        <time>2021-07-17T16:08:08Z</time>
      </trkpt>
      <trkpt lat="44.42488" lon="1.48132">
        <ele>287.6</ele>
        <time>2021-07-17T16:08:10Z</time>
      </trkpt>
      <trkpt lat="44.42486" lon="1.48127">
        <ele>287.6</ele>
        <time>2021-07-17T16:08:12Z</time>
      </trkpt>
      <trkpt lat="44.42485" lon="1.48124">
        <ele>287.6</ele>
        <time>2021-07-17T16:08:13Z</time>
      </trkpt>
      <trkpt lat="44.42482" lon="1.4812">
        <ele>287.6</ele>
        <time>2021-07-17T16:08:15Z</time>
      </trkpt>
      <trkpt lat="44.4248" lon="1.48115">
        <ele>287.6</ele>
        <time>2021-07-17T16:08:17Z</time>
      </trkpt>
      <trkpt lat="44.42478" lon="1.48112">
        <ele>287.5</ele>
        <time>2021-07-17T16:08:18Z</time>
      </trkpt>
      <trkpt lat="44.42474" lon="1.48108">
        <ele>287.5</ele>
        <time>2021-07-17T16:08:20Z</time>
      </trkpt>
      <trkpt lat="44.42473" lon="1.48106">
        <ele>287.4</ele>
        <time>2021-07-17T16:08:22Z</time>
      </trkpt>
      <trkpt lat="44.42472" lon="1.48105">
        <ele>287.4</ele>
        <time>2021-07-17T16:08:23Z</time>
      </trkpt>
      <trkpt lat="44.4247" lon="1.48103">
        <ele>287.4</ele>
        <time>2021-07-17T16:08:24Z</time>
      </trkpt>
      <trkpt lat="44.42467" lon="1.481">
        <ele>287.3</ele>
        <time>2021-07-17T16:08:25Z</time>
      </trkpt>
      <trkpt lat="44.42466" lon="1.48099">
        <ele>287.2</ele>
        <time>2021-07-17T16:08:26Z</time>
      </trkpt>
      <trkpt lat="44.42463" lon="1.48096">
        <ele>287.1</ele>
        <time>2021-07-17T16:08:28Z</time>
      </trkpt>
      <trkpt lat="44.42459" lon="1.48092">
        <ele>287</ele>
        <time>2021-07-17T16:08:29Z</time>
      </trkpt>
      <trkpt lat="44.42454" lon="1.48087">
        <ele>286.7</ele>
        <time>2021-07-17T16:08:31Z</time>
      </trkpt>
      <trkpt lat="44.42448" lon="1.48082">
        <ele>286.4</ele>
        <time>2021-07-17T16:08:33Z</time>
      </trkpt>
      <trkpt lat="44.42441" lon="1.48078">
        <ele>286.1</ele>
        <time>2021-07-17T16:08:34Z</time>
      </trkpt>
      <trkpt lat="44.42436" lon="1.48075">
        <ele>285.9</ele>
        <time>2021-07-17T16:08:35Z</time>
      </trkpt>
      <trkpt lat="44.42431" lon="1.48073">
        <ele>285.9</ele>
        <time>2021-07-17T16:08:36Z</time>
      </trkpt>
      <trkpt lat="44.42425" lon="1.48071">
        <ele>285.9</ele>
        <time>2021-07-17T16:08:37Z</time>
      </trkpt>
      <trkpt lat="44.4242" lon="1.4807">
        <ele>286</ele>
        <time>2021-07-17T16:08:38Z</time>
      </trkpt>
      <trkpt lat="44.42411" lon="1.48069">
        <ele>286</ele>
        <time>2021-07-17T16:08:40Z</time>
      </trkpt>
      <trkpt lat="44.42406" lon="1.4807">
        <ele>286.1</ele>
        <time>2021-07-17T16:08:41Z</time>
      </trkpt>
      <trkpt lat="44.42404" lon="1.48067">
        <ele>286.1</ele>
        <time>2021-07-17T16:08:43Z</time>
      </trkpt>
      <trkpt lat="44.42394" lon="1.48064">
        <ele>286.1</ele>
        <time>2021-07-17T16:08:45Z</time>
      </trkpt>
      <trkpt lat="44.4239" lon="1.48064">
        <ele>286.1</ele>
        <time>2021-07-17T16:08:46Z</time>
      </trkpt>
      <trkpt lat="44.42385" lon="1.48064">
        <ele>286.2</ele>
        <time>2021-07-17T16:08:47Z</time>
      </trkpt>
      <trkpt lat="44.42378" lon="1.48062">
        <ele>286.2</ele>
        <time>2021-07-17T16:08:49Z</time>
      </trkpt>
      <trkpt lat="44.42374" lon="1.4806">
        <ele>286.2</ele>
        <time>2021-07-17T16:08:50Z</time>
      </trkpt>
      <trkpt lat="44.42367" lon="1.48058">
        <ele>286.3</ele>
        <time>2021-07-17T16:08:52Z</time>
      </trkpt>
      <trkpt lat="44.42362" lon="1.48057">
        <ele>286.3</ele>
        <time>2021-07-17T16:08:53Z</time>
      </trkpt>
      <trkpt lat="44.42358" lon="1.48055">
        <ele>286.4</ele>
        <time>2021-07-17T16:08:54Z</time>
      </trkpt>
      <trkpt lat="44.42352" lon="1.48053">
        <ele>286.4</ele>
        <time>2021-07-17T16:08:56Z</time>
      </trkpt>
      <trkpt lat="44.42347" lon="1.48052">
        <ele>286.5</ele>
        <time>2021-07-17T16:08:57Z</time>
      </trkpt>
      <trkpt lat="44.42342" lon="1.48052">
        <ele>286.5</ele>
        <time>2021-07-17T16:08:59Z</time>
      </trkpt>
      <trkpt lat="44.42338" lon="1.48053">
        <ele>286.6</ele>
        <time>2021-07-17T16:09:00Z</time>
      </trkpt>
      <trkpt lat="44.42334" lon="1.48053">
        <ele>286.6</ele>
        <time>2021-07-17T16:09:01Z</time>
      </trkpt>
      <trkpt lat="44.42329" lon="1.48054">
        <ele>286.7</ele>
        <time>2021-07-17T16:09:03Z</time>
      </trkpt>
      <trkpt lat="44.42325" lon="1.48054">
        <ele>286.7</ele>
        <time>2021-07-17T16:09:04Z</time>
      </trkpt>
      <trkpt lat="44.42322" lon="1.48053">
        <ele>286.8</ele>
        <time>2021-07-17T16:09:05Z</time>
      </trkpt>
      <trkpt lat="44.42315" lon="1.48053">
        <ele>286.8</ele>
        <time>2021-07-17T16:09:07Z</time>
      </trkpt>
      <trkpt lat="44.42312" lon="1.48054">
        <ele>286.9</ele>
        <time>2021-07-17T16:09:08Z</time>
      </trkpt>
      <trkpt lat="44.42306" lon="1.48054">
        <ele>286.9</ele>
        <time>2021-07-17T16:09:10Z</time>
      </trkpt>
      <trkpt lat="44.42302" lon="1.48054">
        <ele>287</ele>
        <time>2021-07-17T16:09:11Z</time>
      </trkpt>
      <trkpt lat="44.42299" lon="1.48054">
        <ele>287</ele>
        <time>2021-07-17T16:09:12Z</time>
      </trkpt>
      <trkpt lat="44.42292" lon="1.48056">
        <ele>287</ele>
        <time>2021-07-17T16:09:14Z</time>
      </trkpt>
      <trkpt lat="44.42287" lon="1.48057">
        <ele>287</ele>
        <time>2021-07-17T16:09:16Z</time>
      </trkpt>
      <trkpt lat="44.42285" lon="1.48057">
        <ele>287</ele>
        <time>2021-07-17T16:09:17Z</time>
      </trkpt>
      <trkpt lat="44.4228" lon="1.48057">
        <ele>287</ele>
        <time>2021-07-17T16:09:19Z</time>
      </trkpt>
      <trkpt lat="44.42276" lon="1.48058">
        <ele>287</ele>
        <time>2021-07-17T16:09:20Z</time>
      </trkpt>
      <trkpt lat="44.42273" lon="1.48059">
        <ele>287</ele>
        <time>2021-07-17T16:09:22Z</time>
      </trkpt>
      <trkpt lat="44.42268" lon="1.4806">
        <ele>286.9</ele>
        <time>2021-07-17T16:09:23Z</time>
      </trkpt>
      <trkpt lat="44.42265" lon="1.48061">
        <ele>286.9</ele>
        <time>2021-07-17T16:09:24Z</time>
      </trkpt>
      <trkpt lat="44.42258" lon="1.48064">
        <ele>286.8</ele>
        <time>2021-07-17T16:09:26Z</time>
      </trkpt>
      <trkpt lat="44.42251" lon="1.48067">
        <ele>286.7</ele>
        <time>2021-07-17T16:09:28Z</time>
      </trkpt>
      <trkpt lat="44.42248" lon="1.48068">
        <ele>286.7</ele>
        <time>2021-07-17T16:09:29Z</time>
      </trkpt>
      <trkpt lat="44.42244" lon="1.48069">
        <ele>286.6</ele>
        <time>2021-07-17T16:09:30Z</time>
      </trkpt>
      <trkpt lat="44.4224" lon="1.48068">
        <ele>286.5</ele>
        <time>2021-07-17T16:09:31Z</time>
      </trkpt>
      <trkpt lat="44.42237" lon="1.48068">
        <ele>286.4</ele>
        <time>2021-07-17T16:09:32Z</time>
      </trkpt>
      <trkpt lat="44.42231" lon="1.4807">
        <ele>286.3</ele>
        <time>2021-07-17T16:09:34Z</time>
      </trkpt>
      <trkpt lat="44.42223" lon="1.4807">
        <ele>286.1</ele>
        <time>2021-07-17T16:09:36Z</time>
      </trkpt>
      <trkpt lat="44.42219" lon="1.48071">
        <ele>286</ele>
        <time>2021-07-17T16:09:37Z</time>
      </trkpt>
      <trkpt lat="44.42215" lon="1.48071">
        <ele>285.9</ele>
        <time>2021-07-17T16:09:38Z</time>
      </trkpt>
      <trkpt lat="44.42208" lon="1.48071">
        <ele>285.6</ele>
        <time>2021-07-17T16:09:40Z</time>
      </trkpt>
      <trkpt lat="44.42204" lon="1.48073">
        <ele>285.5</ele>
        <time>2021-07-17T16:09:41Z</time>
      </trkpt>
      <trkpt lat="44.42199" lon="1.48073">
        <ele>285.4</ele>
        <time>2021-07-17T16:09:42Z</time>
      </trkpt>
      <trkpt lat="44.42194" lon="1.48072">
        <ele>285.2</ele>
        <time>2021-07-17T16:09:43Z</time>
      </trkpt>
      <trkpt lat="44.42189" lon="1.48071">
        <ele>285</ele>
        <time>2021-07-17T16:09:44Z</time>
      </trkpt>
      <trkpt lat="44.42184" lon="1.48071">
        <ele>284.9</ele>
        <time>2021-07-17T16:09:45Z</time>
      </trkpt>
      <trkpt lat="44.42174" lon="1.48071">
        <ele>284.6</ele>
        <time>2021-07-17T16:09:47Z</time>
      </trkpt>
      <trkpt lat="44.4217" lon="1.48069">
        <ele>284.4</ele>
        <time>2021-07-17T16:09:48Z</time>
      </trkpt>
      <trkpt lat="44.4216" lon="1.48067">
        <ele>284.1</ele>
        <time>2021-07-17T16:09:50Z</time>
      </trkpt>
      <trkpt lat="44.4215" lon="1.48066">
        <ele>283.8</ele>
        <time>2021-07-17T16:09:52Z</time>
      </trkpt>
      <trkpt lat="44.42141" lon="1.48065">
        <ele>283.6</ele>
        <time>2021-07-17T16:09:54Z</time>
      </trkpt>
      <trkpt lat="44.42136" lon="1.48064">
        <ele>283.5</ele>
        <time>2021-07-17T16:09:55Z</time>
      </trkpt>
      <trkpt lat="44.42131" lon="1.48062">
        <ele>283.4</ele>
        <time>2021-07-17T16:09:56Z</time>
      </trkpt>
      <trkpt lat="44.42121" lon="1.48059">
        <ele>283.3</ele>
        <time>2021-07-17T16:09:58Z</time>
      </trkpt>
      <trkpt lat="44.42116" lon="1.48058">
        <ele>283.2</ele>
        <time>2021-07-17T16:09:59Z</time>
      </trkpt>
      <trkpt lat="44.42112" lon="1.48057">
        <ele>283.2</ele>
        <time>2021-07-17T16:10:00Z</time>
      </trkpt>
      <trkpt lat="44.42107" lon="1.48056">
        <ele>283.2</ele>
        <time>2021-07-17T16:10:01Z</time>
      </trkpt>
      <trkpt lat="44.421" lon="1.48055">
        <ele>283.3</ele>
        <time>2021-07-17T16:10:03Z</time>
      </trkpt>
      <trkpt lat="44.42092" lon="1.48053">
        <ele>283.3</ele>
        <time>2021-07-17T16:10:05Z</time>
      </trkpt>
      <trkpt lat="44.42087" lon="1.48052">
        <ele>283.4</ele>
        <time>2021-07-17T16:10:06Z</time>
      </trkpt>
      <trkpt lat="44.42081" lon="1.48052">
        <ele>283.4</ele>
        <time>2021-07-17T16:10:08Z</time>
      </trkpt>
      <trkpt lat="44.42078" lon="1.48055">
        <ele>283.5</ele>
        <time>2021-07-17T16:10:09Z</time>
      </trkpt>
      <trkpt lat="44.42073" lon="1.48056">
        <ele>283.4</ele>
        <time>2021-07-17T16:10:11Z</time>
      </trkpt>
      <trkpt lat="44.42068" lon="1.48054">
        <ele>283.4</ele>
        <time>2021-07-17T16:10:12Z</time>
      </trkpt>
      <trkpt lat="44.42061" lon="1.48053">
        <ele>283.4</ele>
        <time>2021-07-17T16:10:14Z</time>
      </trkpt>
      <trkpt lat="44.42056" lon="1.48053">
        <ele>283.4</ele>
        <time>2021-07-17T16:10:16Z</time>
      </trkpt>
      <trkpt lat="44.42052" lon="1.48053">
        <ele>283.4</ele>
        <time>2021-07-17T16:10:17Z</time>
      </trkpt>
      <trkpt lat="44.42047" lon="1.48053">
        <ele>283.4</ele>
        <time>2021-07-17T16:10:18Z</time>
      </trkpt>
      <trkpt lat="44.42043" lon="1.48054">
        <ele>283.4</ele>
        <time>2021-07-17T16:10:19Z</time>
      </trkpt>
      <trkpt lat="44.4204" lon="1.48055">
        <ele>283.4</ele>
        <time>2021-07-17T16:10:20Z</time>
      </trkpt>
      <trkpt lat="44.42036" lon="1.48057">
        <ele>283.4</ele>
        <time>2021-07-17T16:10:22Z</time>
      </trkpt>
      <trkpt lat="44.42033" lon="1.4806">
        <ele>283.1</ele>
        <time>2021-07-17T16:10:23Z</time>
      </trkpt>
      <trkpt lat="44.42029" lon="1.48063">
        <ele>282.9</ele>
        <time>2021-07-17T16:10:24Z</time>
      </trkpt>
      <trkpt lat="44.42027" lon="1.48067">
        <ele>282.6</ele>
        <time>2021-07-17T16:10:25Z</time>
      </trkpt>
      <trkpt lat="44.42025" lon="1.48072">
        <ele>282.4</ele>
        <time>2021-07-17T16:10:26Z</time>
      </trkpt>
      <trkpt lat="44.4202" lon="1.48083">
        <ele>281.9</ele>
        <time>2021-07-17T16:10:28Z</time>
      </trkpt>
      <trkpt lat="44.42017" lon="1.4809">
        <ele>281.5</ele>
        <time>2021-07-17T16:10:29Z</time>
      </trkpt>
      <trkpt lat="44.42014" lon="1.48097">
        <ele>281.2</ele>
        <time>2021-07-17T16:10:30Z</time>
      </trkpt>
      <trkpt lat="44.42007" lon="1.48111">
        <ele>280.6</ele>
        <time>2021-07-17T16:10:32Z</time>
      </trkpt>
      <trkpt lat="44.42" lon="1.48126">
        <ele>279.8</ele>
        <time>2021-07-17T16:10:34Z</time>
      </trkpt>
      <trkpt lat="44.41996" lon="1.48134">
        <ele>279.4</ele>
        <time>2021-07-17T16:10:35Z</time>
      </trkpt>
      <trkpt lat="44.41988" lon="1.48151">
        <ele>278.6</ele>
        <time>2021-07-17T16:10:37Z</time>
      </trkpt>
      <trkpt lat="44.41983" lon="1.48159">
        <ele>278.2</ele>
        <time>2021-07-17T16:10:38Z</time>
      </trkpt>
      <trkpt lat="44.41975" lon="1.48176">
        <ele>277.6</ele>
        <time>2021-07-17T16:10:40Z</time>
      </trkpt>
      <trkpt lat="44.41967" lon="1.48193">
        <ele>277</ele>
        <time>2021-07-17T16:10:42Z</time>
      </trkpt>
      <trkpt lat="44.41958" lon="1.4821">
        <ele>276.4</ele>
        <time>2021-07-17T16:10:44Z</time>
      </trkpt>
      <trkpt lat="44.4195" lon="1.48228">
        <ele>275.8</ele>
        <time>2021-07-17T16:10:46Z</time>
      </trkpt>
      <trkpt lat="44.41947" lon="1.48238">
        <ele>275.4</ele>
        <time>2021-07-17T16:10:47Z</time>
      </trkpt>
      <trkpt lat="44.41945" lon="1.48248">
        <ele>275</ele>
        <time>2021-07-17T16:10:48Z</time>
      </trkpt>
      <trkpt lat="44.41941" lon="1.48258">
        <ele>274.6</ele>
        <time>2021-07-17T16:10:49Z</time>
      </trkpt>
      <trkpt lat="44.41938" lon="1.48267">
        <ele>274.1</ele>
        <time>2021-07-17T16:10:50Z</time>
      </trkpt>
      <trkpt lat="44.41931" lon="1.48288">
        <ele>273.3</ele>
        <time>2021-07-17T16:10:52Z</time>
      </trkpt>
      <trkpt lat="44.41928" lon="1.483">
        <ele>272.8</ele>
        <time>2021-07-17T16:10:53Z</time>
      </trkpt>
      <trkpt lat="44.41925" lon="1.48312">
        <ele>272.3</ele>
        <time>2021-07-17T16:10:54Z</time>
      </trkpt>
      <trkpt lat="44.41918" lon="1.4834">
        <ele>271.2</ele>
        <time>2021-07-17T16:10:56Z</time>
      </trkpt>
      <trkpt lat="44.41909" lon="1.48368">
        <ele>270</ele>
        <time>2021-07-17T16:10:58Z</time>
      </trkpt>
      <trkpt lat="44.41905" lon="1.48383">
        <ele>269.5</ele>
        <time>2021-07-17T16:10:59Z</time>
      </trkpt>
      <trkpt lat="44.41896" lon="1.48412">
        <ele>268.9</ele>
        <time>2021-07-17T16:11:01Z</time>
      </trkpt>
      <trkpt lat="44.41891" lon="1.48427">
        <ele>268.6</ele>
        <time>2021-07-17T16:11:02Z</time>
      </trkpt>
      <trkpt lat="44.41887" lon="1.48442">
        <ele>268.5</ele>
        <time>2021-07-17T16:11:03Z</time>
      </trkpt>
      <trkpt lat="44.4188" lon="1.4847">
        <ele>268.2</ele>
        <time>2021-07-17T16:11:05Z</time>
      </trkpt>
      <trkpt lat="44.41872" lon="1.48496">
        <ele>268.1</ele>
        <time>2021-07-17T16:11:07Z</time>
      </trkpt>
      <trkpt lat="44.41868" lon="1.48508">
        <ele>268.1</ele>
        <time>2021-07-17T16:11:08Z</time>
      </trkpt>
      <trkpt lat="44.41865" lon="1.48519">
        <ele>268.1</ele>
        <time>2021-07-17T16:11:09Z</time>
      </trkpt>
      <trkpt lat="44.41859" lon="1.48541">
        <ele>268.2</ele>
        <time>2021-07-17T16:11:11Z</time>
      </trkpt>
      <trkpt lat="44.41857" lon="1.48551">
        <ele>268.3</ele>
        <time>2021-07-17T16:11:12Z</time>
      </trkpt>
      <trkpt lat="44.41857" lon="1.48562">
        <ele>268.5</ele>
        <time>2021-07-17T16:11:13Z</time>
      </trkpt>
      <trkpt lat="44.41858" lon="1.48572">
        <ele>268.9</ele>
        <time>2021-07-17T16:11:14Z</time>
      </trkpt>
      <trkpt lat="44.41864" lon="1.48587">
        <ele>269.5</ele>
        <time>2021-07-17T16:11:16Z</time>
      </trkpt>
      <trkpt lat="44.41871" lon="1.48598">
        <ele>270</ele>
        <time>2021-07-17T16:11:18Z</time>
      </trkpt>
      <trkpt lat="44.41874" lon="1.48603">
        <ele>270.2</ele>
        <time>2021-07-17T16:11:19Z</time>
      </trkpt>
      <trkpt lat="44.41877" lon="1.48607">
        <ele>270.3</ele>
        <time>2021-07-17T16:11:20Z</time>
      </trkpt>
      <trkpt lat="44.4188" lon="1.48609">
        <ele>270.4</ele>
        <time>2021-07-17T16:11:21Z</time>
      </trkpt>
      <trkpt lat="44.41884" lon="1.48617">
        <ele>270.5</ele>
        <time>2021-07-17T16:11:23Z</time>
      </trkpt>
      <trkpt lat="44.41886" lon="1.48621">
        <ele>270.6</ele>
        <time>2021-07-17T16:11:24Z</time>
      </trkpt>
      <trkpt lat="44.41893" lon="1.48629">
        <ele>270.9</ele>
        <time>2021-07-17T16:11:26Z</time>
      </trkpt>
      <trkpt lat="44.41896" lon="1.48636">
        <ele>271.1</ele>
        <time>2021-07-17T16:11:28Z</time>
      </trkpt>
      <trkpt lat="44.419" lon="1.48644">
        <ele>271.3</ele>
        <time>2021-07-17T16:11:30Z</time>
      </trkpt>
      <trkpt lat="44.41903" lon="1.48648">
        <ele>271.4</ele>
        <time>2021-07-17T16:11:31Z</time>
      </trkpt>
      <trkpt lat="44.41905" lon="1.48652">
        <ele>271.5</ele>
        <time>2021-07-17T16:11:32Z</time>
      </trkpt>
      <trkpt lat="44.41908" lon="1.48656">
        <ele>271.5</ele>
        <time>2021-07-17T16:11:33Z</time>
      </trkpt>
      <trkpt lat="44.41913" lon="1.48662">
        <ele>271.6</ele>
        <time>2021-07-17T16:11:35Z</time>
      </trkpt>
      <trkpt lat="44.41915" lon="1.48667">
        <ele>271.7</ele>
        <time>2021-07-17T16:11:36Z</time>
      </trkpt>
      <trkpt lat="44.41921" lon="1.48675">
        <ele>271.9</ele>
        <time>2021-07-17T16:11:38Z</time>
      </trkpt>
      <trkpt lat="44.41926" lon="1.48683">
        <ele>272</ele>
        <time>2021-07-17T16:11:40Z</time>
      </trkpt>
      <trkpt lat="44.4193" lon="1.48691">
        <ele>272.1</ele>
        <time>2021-07-17T16:11:42Z</time>
      </trkpt>
      <trkpt lat="44.41932" lon="1.48695">
        <ele>272.2</ele>
        <time>2021-07-17T16:11:43Z</time>
      </trkpt>
      <trkpt lat="44.41935" lon="1.48699">
        <ele>272.2</ele>
        <time>2021-07-17T16:11:44Z</time>
      </trkpt>
      <trkpt lat="44.4194" lon="1.48707">
        <ele>272.2</ele>
        <time>2021-07-17T16:11:46Z</time>
      </trkpt>
      <trkpt lat="44.41942" lon="1.48711">
        <ele>272.2</ele>
        <time>2021-07-17T16:11:47Z</time>
      </trkpt>
      <trkpt lat="44.41944" lon="1.48715">
        <ele>272.2</ele>
        <time>2021-07-17T16:11:48Z</time>
      </trkpt>
      <trkpt lat="44.41947" lon="1.48722">
        <ele>272.3</ele>
        <time>2021-07-17T16:11:50Z</time>
      </trkpt>
      <trkpt lat="44.41949" lon="1.48726">
        <ele>272.3</ele>
        <time>2021-07-17T16:11:51Z</time>
      </trkpt>
      <trkpt lat="44.41952" lon="1.48731">
        <ele>272.4</ele>
        <time>2021-07-17T16:11:52Z</time>
      </trkpt>
      <trkpt lat="44.41954" lon="1.48737">
        <ele>272.5</ele>
        <time>2021-07-17T16:11:53Z</time>
      </trkpt>
      <trkpt lat="44.41956" lon="1.4874">
        <ele>272.5</ele>
        <time>2021-07-17T16:11:54Z</time>
      </trkpt>
      <trkpt lat="44.4196" lon="1.48746">
        <ele>272.6</ele>
        <time>2021-07-17T16:11:56Z</time>
      </trkpt>
      <trkpt lat="44.41962" lon="1.48751">
        <ele>272.7</ele>
        <time>2021-07-17T16:11:57Z</time>
      </trkpt>
      <trkpt lat="44.41965" lon="1.48758">
        <ele>272.8</ele>
        <time>2021-07-17T16:11:59Z</time>
      </trkpt>
      <trkpt lat="44.41968" lon="1.48763">
        <ele>272.8</ele>
        <time>2021-07-17T16:12:00Z</time>
      </trkpt>
      <trkpt lat="44.41969" lon="1.48767">
        <ele>272.9</ele>
        <time>2021-07-17T16:12:01Z</time>
      </trkpt>
      <trkpt lat="44.41972" lon="1.48771">
        <ele>272.9</ele>
        <time>2021-07-17T16:12:02Z</time>
      </trkpt>
      <trkpt lat="44.41975" lon="1.48778">
        <ele>273</ele>
        <time>2021-07-17T16:12:04Z</time>
      </trkpt>
      <trkpt lat="44.41978" lon="1.48783">
        <ele>273</ele>
        <time>2021-07-17T16:12:06Z</time>
      </trkpt>
      <trkpt lat="44.4198" lon="1.48787">
        <ele>273.1</ele>
        <time>2021-07-17T16:12:07Z</time>
      </trkpt>
      <trkpt lat="44.41981" lon="1.48791">
        <ele>273.1</ele>
        <time>2021-07-17T16:12:08Z</time>
      </trkpt>
      <trkpt lat="44.41984" lon="1.48796">
        <ele>273.1</ele>
        <time>2021-07-17T16:12:10Z</time>
      </trkpt>
      <trkpt lat="44.41987" lon="1.48801">
        <ele>273.2</ele>
        <time>2021-07-17T16:12:11Z</time>
      </trkpt>
      <trkpt lat="44.4199" lon="1.48804">
        <ele>273.2</ele>
        <time>2021-07-17T16:12:12Z</time>
      </trkpt>
      <trkpt lat="44.41992" lon="1.48808">
        <ele>273.3</ele>
        <time>2021-07-17T16:12:13Z</time>
      </trkpt>
      <trkpt lat="44.41995" lon="1.48812">
        <ele>273.4</ele>
        <time>2021-07-17T16:12:15Z</time>
      </trkpt>
      <trkpt lat="44.41998" lon="1.48815">
        <ele>273.5</ele>
        <time>2021-07-17T16:12:16Z</time>
      </trkpt>
      <trkpt lat="44.42001" lon="1.48818">
        <ele>273.6</ele>
        <time>2021-07-17T16:12:17Z</time>
      </trkpt>
      <trkpt lat="44.42005" lon="1.48823">
        <ele>273.7</ele>
        <time>2021-07-17T16:12:19Z</time>
      </trkpt>
      <trkpt lat="44.42009" lon="1.48827">
        <ele>273.8</ele>
        <time>2021-07-17T16:12:21Z</time>
      </trkpt>
      <trkpt lat="44.42013" lon="1.4883">
        <ele>273.8</ele>
        <time>2021-07-17T16:12:23Z</time>
      </trkpt>
      <trkpt lat="44.42016" lon="1.48832">
        <ele>273.8</ele>
        <time>2021-07-17T16:12:24Z</time>
      </trkpt>
      <trkpt lat="44.42018" lon="1.48834">
        <ele>273.8</ele>
        <time>2021-07-17T16:12:25Z</time>
      </trkpt>
      <trkpt lat="44.4202" lon="1.48839">
        <ele>273.8</ele>
        <time>2021-07-17T16:12:27Z</time>
      </trkpt>
      <trkpt lat="44.42023" lon="1.48842">
        <ele>273.8</ele>
        <time>2021-07-17T16:12:28Z</time>
      </trkpt>
      <trkpt lat="44.42025" lon="1.48845">
        <ele>273.7</ele>
        <time>2021-07-17T16:12:29Z</time>
      </trkpt>
      <trkpt lat="44.42026" lon="1.48848">
        <ele>273.7</ele>
        <time>2021-07-17T16:12:30Z</time>
      </trkpt>
      <trkpt lat="44.42029" lon="1.48855">
        <ele>273.6</ele>
        <time>2021-07-17T16:12:32Z</time>
      </trkpt>
      <trkpt lat="44.42031" lon="1.48859">
        <ele>273.5</ele>
        <time>2021-07-17T16:12:33Z</time>
      </trkpt>
      <trkpt lat="44.42033" lon="1.48865">
        <ele>273.4</ele>
        <time>2021-07-17T16:12:35Z</time>
      </trkpt>
      <trkpt lat="44.42036" lon="1.48872">
        <ele>273.2</ele>
        <time>2021-07-17T16:12:37Z</time>
      </trkpt>
      <trkpt lat="44.42037" lon="1.48877">
        <ele>273.2</ele>
        <time>2021-07-17T16:12:38Z</time>
      </trkpt>
      <trkpt lat="44.42041" lon="1.48885">
        <ele>273</ele>
        <time>2021-07-17T16:12:40Z</time>
      </trkpt>
      <trkpt lat="44.42044" lon="1.48893">
        <ele>272.8</ele>
        <time>2021-07-17T16:12:42Z</time>
      </trkpt>
      <trkpt lat="44.42046" lon="1.48901">
        <ele>272.6</ele>
        <time>2021-07-17T16:12:44Z</time>
      </trkpt>
      <trkpt lat="44.42047" lon="1.48906">
        <ele>272.4</ele>
        <time>2021-07-17T16:12:45Z</time>
      </trkpt>
      <trkpt lat="44.42049" lon="1.48915">
        <ele>272</ele>
        <time>2021-07-17T16:12:47Z</time>
      </trkpt>
      <trkpt lat="44.42052" lon="1.48921">
        <ele>271.8</ele>
        <time>2021-07-17T16:12:48Z</time>
      </trkpt>
      <trkpt lat="44.42053" lon="1.48927">
        <ele>271.6</ele>
        <time>2021-07-17T16:12:49Z</time>
      </trkpt>
      <trkpt lat="44.42055" lon="1.48934">
        <ele>271.3</ele>
        <time>2021-07-17T16:12:50Z</time>
      </trkpt>
      <trkpt lat="44.42058" lon="1.48947">
        <ele>270.8</ele>
        <time>2021-07-17T16:12:52Z</time>
      </trkpt>
      <trkpt lat="44.42059" lon="1.48955">
        <ele>270.5</ele>
        <time>2021-07-17T16:12:53Z</time>
      </trkpt>
      <trkpt lat="44.42063" lon="1.4897">
        <ele>269.7</ele>
        <time>2021-07-17T16:12:55Z</time>
      </trkpt>
      <trkpt lat="44.42065" lon="1.48979">
        <ele>269.2</ele>
        <time>2021-07-17T16:12:56Z</time>
      </trkpt>
      <trkpt lat="44.42069" lon="1.48997">
        <ele>268</ele>
        <time>2021-07-17T16:12:58Z</time>
      </trkpt>
      <trkpt lat="44.42072" lon="1.49017">
        <ele>266.7</ele>
        <time>2021-07-17T16:13:00Z</time>
      </trkpt>
      <trkpt lat="44.42077" lon="1.49038">
        <ele>265.4</ele>
        <time>2021-07-17T16:13:02Z</time>
      </trkpt>
      <trkpt lat="44.42082" lon="1.4906">
        <ele>264.1</ele>
        <time>2021-07-17T16:13:04Z</time>
      </trkpt>
      <trkpt lat="44.42087" lon="1.49084">
        <ele>262.7</ele>
        <time>2021-07-17T16:13:06Z</time>
      </trkpt>
      <trkpt lat="44.4209" lon="1.49096">
        <ele>262.3</ele>
        <time>2021-07-17T16:13:07Z</time>
      </trkpt>
      <trkpt lat="44.42093" lon="1.49109">
        <ele>261.8</ele>
        <time>2021-07-17T16:13:08Z</time>
      </trkpt>
      <trkpt lat="44.42096" lon="1.49134">
        <ele>261.1</ele>
        <time>2021-07-17T16:13:10Z</time>
      </trkpt>
      <trkpt lat="44.42097" lon="1.49146">
        <ele>260.7</ele>
        <time>2021-07-17T16:13:11Z</time>
      </trkpt>
      <trkpt lat="44.42098" lon="1.49159">
        <ele>260.4</ele>
        <time>2021-07-17T16:13:12Z</time>
      </trkpt>
      <trkpt lat="44.42101" lon="1.49182">
        <ele>259.8</ele>
        <time>2021-07-17T16:13:14Z</time>
      </trkpt>
      <trkpt lat="44.42102" lon="1.49193">
        <ele>259.6</ele>
        <time>2021-07-17T16:13:15Z</time>
      </trkpt>
      <trkpt lat="44.42107" lon="1.49213">
        <ele>259.2</ele>
        <time>2021-07-17T16:13:17Z</time>
      </trkpt>
      <trkpt lat="44.42109" lon="1.49223">
        <ele>259</ele>
        <time>2021-07-17T16:13:18Z</time>
      </trkpt>
      <trkpt lat="44.42112" lon="1.49233">
        <ele>258.8</ele>
        <time>2021-07-17T16:13:19Z</time>
      </trkpt>
      <trkpt lat="44.42114" lon="1.49242">
        <ele>258.6</ele>
        <time>2021-07-17T16:13:20Z</time>
      </trkpt>
      <trkpt lat="44.42118" lon="1.49262">
        <ele>258.2</ele>
        <time>2021-07-17T16:13:22Z</time>
      </trkpt>
      <trkpt lat="44.42121" lon="1.49282">
        <ele>257.8</ele>
        <time>2021-07-17T16:13:24Z</time>
      </trkpt>
      <trkpt lat="44.42123" lon="1.49293">
        <ele>257.5</ele>
        <time>2021-07-17T16:13:25Z</time>
      </trkpt>
      <trkpt lat="44.42126" lon="1.49304">
        <ele>257.3</ele>
        <time>2021-07-17T16:13:26Z</time>
      </trkpt>
      <trkpt lat="44.42131" lon="1.49325">
        <ele>256.9</ele>
        <time>2021-07-17T16:13:28Z</time>
      </trkpt>
      <trkpt lat="44.42136" lon="1.49346">
        <ele>256.4</ele>
        <time>2021-07-17T16:13:30Z</time>
      </trkpt>
      <trkpt lat="44.42141" lon="1.49367">
        <ele>255.8</ele>
        <time>2021-07-17T16:13:32Z</time>
      </trkpt>
      <trkpt lat="44.42145" lon="1.49386">
        <ele>255.1</ele>
        <time>2021-07-17T16:13:34Z</time>
      </trkpt>
      <trkpt lat="44.42148" lon="1.49405">
        <ele>254.2</ele>
        <time>2021-07-17T16:13:36Z</time>
      </trkpt>
      <trkpt lat="44.4215" lon="1.49414">
        <ele>253.9</ele>
        <time>2021-07-17T16:13:37Z</time>
      </trkpt>
      <trkpt lat="44.42152" lon="1.49423">
        <ele>253.8</ele>
        <time>2021-07-17T16:13:38Z</time>
      </trkpt>
      <trkpt lat="44.42154" lon="1.49432">
        <ele>253.7</ele>
        <time>2021-07-17T16:13:39Z</time>
      </trkpt>
      <trkpt lat="44.42156" lon="1.49449">
        <ele>253.6</ele>
        <time>2021-07-17T16:13:41Z</time>
      </trkpt>
      <trkpt lat="44.42158" lon="1.49457">
        <ele>253.5</ele>
        <time>2021-07-17T16:13:42Z</time>
      </trkpt>
      <trkpt lat="44.4216" lon="1.49471">
        <ele>253.4</ele>
        <time>2021-07-17T16:13:44Z</time>
      </trkpt>
      <trkpt lat="44.42161" lon="1.49478">
        <ele>253.3</ele>
        <time>2021-07-17T16:13:45Z</time>
      </trkpt>
      <trkpt lat="44.42163" lon="1.49491">
        <ele>253.2</ele>
        <time>2021-07-17T16:13:47Z</time>
      </trkpt>
      <trkpt lat="44.42164" lon="1.49497">
        <ele>253.2</ele>
        <time>2021-07-17T16:13:48Z</time>
      </trkpt>
      <trkpt lat="44.42165" lon="1.49508">
        <ele>253.1</ele>
        <time>2021-07-17T16:13:50Z</time>
      </trkpt>
      <trkpt lat="44.42167" lon="1.49518">
        <ele>253</ele>
        <time>2021-07-17T16:13:52Z</time>
      </trkpt>
      <trkpt lat="44.42169" lon="1.49527">
        <ele>252.9</ele>
        <time>2021-07-17T16:13:54Z</time>
      </trkpt>
      <trkpt lat="44.42171" lon="1.49533">
        <ele>252.9</ele>
        <time>2021-07-17T16:13:56Z</time>
      </trkpt>
      <trkpt lat="44.42172" lon="1.49534">
        <ele>252.8</ele>
        <time>2021-07-17T16:13:58Z</time>
      </trkpt>
      <trkpt lat="44.42173" lon="1.49536">
        <ele>252.8</ele>
        <time>2021-07-17T16:13:59Z</time>
      </trkpt>
      <trkpt lat="44.42174" lon="1.49538">
        <ele>252.8</ele>
        <time>2021-07-17T16:14:00Z</time>
      </trkpt>
      <trkpt lat="44.42178" lon="1.49539">
        <ele>252.8</ele>
        <time>2021-07-17T16:14:01Z</time>
      </trkpt>
      <trkpt lat="44.42179" lon="1.49539">
        <ele>252.7</ele>
        <time>2021-07-17T16:14:02Z</time>
      </trkpt>
      <trkpt lat="44.42181" lon="1.49538">
        <ele>252.7</ele>
        <time>2021-07-17T16:14:04Z</time>
      </trkpt>
      <trkpt lat="44.4218" lon="1.49539">
        <ele>252.7</ele>
        <time>2021-07-17T16:14:05Z</time>
      </trkpt>
      <trkpt lat="44.4218" lon="1.49539">
        <ele>252.7</ele>
        <time>2021-07-17T16:14:06Z</time>
      </trkpt>
      <trkpt lat="44.4218" lon="1.49539">
        <ele>252.7</ele>
        <time>2021-07-17T16:14:08Z</time>
      </trkpt>
      <trkpt lat="44.4218" lon="1.49539">
        <ele>252.7</ele>
        <time>2021-07-17T16:14:10Z</time>
      </trkpt>
      <trkpt lat="44.4218" lon="1.49539">
        <ele>252.7</ele>
        <time>2021-07-17T16:14:11Z</time>
      </trkpt>
      <trkpt lat="44.42181" lon="1.49539">
        <ele>252.7</ele>
        <time>2021-07-17T16:14:13Z</time>
      </trkpt>
      <trkpt lat="44.42182" lon="1.4954">
        <ele>252.7</ele>
        <time>2021-07-17T16:14:14Z</time>
      </trkpt>
      <trkpt lat="44.42182" lon="1.49543">
        <ele>252.7</ele>
        <time>2021-07-17T16:14:16Z</time>
      </trkpt>
      <trkpt lat="44.42183" lon="1.49545">
        <ele>252.6</ele>
        <time>2021-07-17T16:14:17Z</time>
      </trkpt>
      <trkpt lat="44.42183" lon="1.49547">
        <ele>252.6</ele>
        <time>2021-07-17T16:14:18Z</time>
      </trkpt>
      <trkpt lat="44.42184" lon="1.49548">
        <ele>252.6</ele>
        <time>2021-07-17T16:14:20Z</time>
      </trkpt>
      <trkpt lat="44.42184" lon="1.4955">
        <ele>252.6</ele>
        <time>2021-07-17T16:14:21Z</time>
      </trkpt>
      <trkpt lat="44.42185" lon="1.49552">
        <ele>252.6</ele>
        <time>2021-07-17T16:14:22Z</time>
      </trkpt>
      <trkpt lat="44.42186" lon="1.49555">
        <ele>252.6</ele>
        <time>2021-07-17T16:14:23Z</time>
      </trkpt>
      <trkpt lat="44.4219" lon="1.49556">
        <ele>252.5</ele>
        <time>2021-07-17T16:14:24Z</time>
      </trkpt>
      <trkpt lat="44.42191" lon="1.49556">
        <ele>252.5</ele>
        <time>2021-07-17T16:14:25Z</time>
      </trkpt>
      <trkpt lat="44.42194" lon="1.49554">
        <ele>252.5</ele>
        <time>2021-07-17T16:14:27Z</time>
      </trkpt>
      <trkpt lat="44.42197" lon="1.49552">
        <ele>252.4</ele>
        <time>2021-07-17T16:14:28Z</time>
      </trkpt>
      <trkpt lat="44.422" lon="1.49549">
        <ele>252.4</ele>
        <time>2021-07-17T16:14:29Z</time>
      </trkpt>
      <trkpt lat="44.42201" lon="1.49549">
        <ele>252.4</ele>
        <time>2021-07-17T16:14:30Z</time>
      </trkpt>
      <trkpt lat="44.4221" lon="1.4954">
        <ele>252.2</ele>
        <time>2021-07-17T16:14:32Z</time>
      </trkpt>
      <trkpt lat="44.42219" lon="1.49532">
        <ele>252.1</ele>
        <time>2021-07-17T16:14:34Z</time>
      </trkpt>
      <trkpt lat="44.42224" lon="1.49529">
        <ele>252.1</ele>
        <time>2021-07-17T16:14:35Z</time>
      </trkpt>
      <trkpt lat="44.42229" lon="1.49523">
        <ele>252</ele>
        <time>2021-07-17T16:14:37Z</time>
      </trkpt>
      <trkpt lat="44.42228" lon="1.49519">
        <ele>251.9</ele>
        <time>2021-07-17T16:14:38Z</time>
      </trkpt>
      <trkpt lat="44.42227" lon="1.49519">
        <ele>251.9</ele>
        <time>2021-07-17T16:14:39Z</time>
      </trkpt>
      <trkpt lat="44.42224" lon="1.49519">
        <ele>251.9</ele>
        <time>2021-07-17T16:14:40Z</time>
      </trkpt>
      <trkpt lat="44.42221" lon="1.49521">
        <ele>251.8</ele>
        <time>2021-07-17T16:14:42Z</time>
      </trkpt>
      <trkpt lat="44.42217" lon="1.49521">
        <ele>251.8</ele>
        <time>2021-07-17T16:14:43Z</time>
      </trkpt>
      <trkpt lat="44.42214" lon="1.49523">
        <ele>251.8</ele>
        <time>2021-07-17T16:14:45Z</time>
      </trkpt>
      <trkpt lat="44.42212" lon="1.49525">
        <ele>251.7</ele>
        <time>2021-07-17T16:14:46Z</time>
      </trkpt>
      <trkpt lat="44.42211" lon="1.49526">
        <ele>251.7</ele>
        <time>2021-07-17T16:14:47Z</time>
      </trkpt>
      <trkpt lat="44.42211" lon="1.49527">
        <ele>251.7</ele>
        <time>2021-07-17T16:14:49Z</time>
      </trkpt>
      <trkpt lat="44.42211" lon="1.49527">
        <ele>251.7</ele>
        <time>2021-07-17T16:14:50Z</time>
      </trkpt>
      <trkpt lat="44.42211" lon="1.49527">
        <ele>251.7</ele>
        <time>2021-07-17T16:14:52Z</time>
      </trkpt>
      <trkpt lat="44.42211" lon="1.49527">
        <ele>251.7</ele>
        <time>2021-07-17T16:14:53Z</time>
      </trkpt>
      <trkpt lat="44.42207" lon="1.4953">
        <ele>251.7</ele>
        <time>2021-07-17T16:14:59Z</time>
      </trkpt>
      <trkpt lat="44.42206" lon="1.49534">
        <ele>251.6</ele>
        <time>2021-07-17T16:15:00Z</time>
      </trkpt>
      <trkpt lat="44.42205" lon="1.49537">
        <ele>251.6</ele>
        <time>2021-07-17T16:15:01Z</time>
      </trkpt>
      <trkpt lat="44.42204" lon="1.49539">
        <ele>251.6</ele>
        <time>2021-07-17T16:15:03Z</time>
      </trkpt>
      <trkpt lat="44.422" lon="1.49541">
        <ele>251.5</ele>
        <time>2021-07-17T16:15:04Z</time>
      </trkpt>
      <trkpt lat="44.42199" lon="1.49541">
        <ele>251.5</ele>
        <time>2021-07-17T16:15:05Z</time>
      </trkpt>
      <trkpt lat="44.42198" lon="1.49539">
        <ele>251.5</ele>
        <time>2021-07-17T16:15:06Z</time>
      </trkpt>
      <trkpt lat="44.42198" lon="1.49539">
        <ele>251.5</ele>
        <time>2021-07-17T16:15:07Z</time>
      </trkpt>
      <trkpt lat="44.42198" lon="1.49539">
        <ele>251.5</ele>
        <time>2021-07-17T16:15:08Z</time>
      </trkpt>
      <trkpt lat="44.42198" lon="1.49539">
        <ele>251.5</ele>
        <time>2021-07-17T16:15:10Z</time>
      </trkpt>
      <trkpt lat="44.42198" lon="1.49539">
        <ele>251.5</ele>
        <time>2021-07-17T16:15:12Z</time>
      </trkpt>
      <trkpt lat="44.42198" lon="1.49539">
        <ele>251.5</ele>
        <time>2021-07-17T16:15:13Z</time>
      </trkpt>
      <trkpt lat="44.42198" lon="1.49538">
        <ele>251.5</ele>
        <time>2021-07-17T16:15:15Z</time>
      </trkpt>
      <trkpt lat="44.42198" lon="1.49538">
        <ele>251.5</ele>
        <time>2021-07-17T16:18:01Z</time>
      </trkpt>
      <trkpt lat="44.42198" lon="1.49538">
        <ele>251.5</ele>
        <time>2021-07-17T16:18:02Z</time>
      </trkpt>
      <trkpt lat="44.42198" lon="1.49538">
        <ele>251.5</ele>
        <time>2021-07-17T16:18:04Z</time>
      </trkpt>
      <trkpt lat="44.42198" lon="1.49538">
        <ele>251.5</ele>
        <time>2021-07-17T16:18:05Z</time>
      </trkpt>
      <trkpt lat="44.42198" lon="1.49538">
        <ele>251.5</ele>
        <time>2021-07-17T16:18:07Z</time>
      </trkpt>
      <trkpt lat="44.42198" lon="1.49538">
        <ele>251.5</ele>
        <time>2021-07-17T16:18:08Z</time>
      </trkpt>
      <trkpt lat="44.42198" lon="1.49537">
        <ele>251.5</ele>
        <time>2021-07-17T16:18:10Z</time>
      </trkpt>
      <trkpt lat="44.42198" lon="1.49537">
        <ele>251.5</ele>
        <time>2021-07-17T16:18:11Z</time>
      </trkpt>
      <trkpt lat="44.42198" lon="1.49537">
        <ele>251.5</ele>
        <time>2021-07-17T16:18:12Z</time>
      </trkpt>
      <trkpt lat="44.42198" lon="1.49537">
        <ele>251.5</ele>
        <time>2021-07-17T16:18:13Z</time>
      </trkpt>
      <trkpt lat="44.42198" lon="1.49537">
        <ele>251.5</ele>
        <time>2021-07-17T16:18:14Z</time>
      </trkpt>
      <trkpt lat="44.42198" lon="1.49537">
        <ele>251.5</ele>
        <time>2021-07-17T16:18:16Z</time>
      </trkpt>
      <trkpt lat="44.42198" lon="1.49537">
        <ele>251.5</ele>
        <time>2021-07-17T16:18:18Z</time>
      </trkpt>
      <trkpt lat="44.42198" lon="1.49536">
        <ele>251.5</ele>
        <time>2021-07-17T16:18:20Z</time>
      </trkpt>
      <trkpt lat="44.42198" lon="1.49536">
        <ele>251.5</ele>
        <time>2021-07-17T16:18:22Z</time>
      </trkpt>
      <trkpt lat="44.42198" lon="1.49536">
        <ele>251.5</ele>
        <time>2021-07-17T16:18:23Z</time>
      </trkpt>
      <trkpt lat="44.42198" lon="1.49536">
        <ele>251.5</ele>
        <time>2021-07-17T16:18:25Z</time>
      </trkpt>
      <trkpt lat="44.42198" lon="1.49536">
        <ele>251.5</ele>
        <time>2021-07-17T16:18:26Z</time>
      </trkpt>
      <trkpt lat="44.42198" lon="1.49536">
        <ele>251.5</ele>
        <time>2021-07-17T16:18:28Z</time>
      </trkpt>
      <trkpt lat="44.42198" lon="1.49535">
        <ele>251.5</ele>
        <time>2021-07-17T16:18:29Z</time>
      </trkpt>
      <trkpt lat="44.42198" lon="1.49535">
        <ele>251.5</ele>
        <time>2021-07-17T16:18:30Z</time>
      </trkpt>
      <trkpt lat="44.42198" lon="1.49535">
        <ele>251.5</ele>
        <time>2021-07-17T16:18:32Z</time>
      </trkpt>
      <trkpt lat="44.42198" lon="1.49535">
        <ele>251.5</ele>
        <time>2021-07-17T16:18:34Z</time>
      </trkpt>
      <trkpt lat="44.42198" lon="1.49535">
        <ele>251.5</ele>
        <time>2021-07-17T16:18:35Z</time>
      </trkpt>
      <trkpt lat="44.42198" lon="1.49535">
        <ele>251.5</ele>
        <time>2021-07-17T16:18:36Z</time>
      </trkpt>
      <trkpt lat="44.42198" lon="1.49535">
        <ele>251.5</ele>
        <time>2021-07-17T16:18:38Z</time>
      </trkpt>
      <trkpt lat="44.42198" lon="1.49534">
        <ele>251.5</ele>
        <time>2021-07-17T16:18:40Z</time>
      </trkpt>
      <trkpt lat="44.42198" lon="1.49534">
        <ele>251.5</ele>
        <time>2021-07-17T16:18:41Z</time>
      </trkpt>
      <trkpt lat="44.42198" lon="1.49534">
        <ele>251.5</ele>
        <time>2021-07-17T16:18:42Z</time>
      </trkpt>
      <trkpt lat="44.42198" lon="1.49534">
        <ele>251.5</ele>
        <time>2021-07-17T16:18:44Z</time>
      </trkpt>
      <trkpt lat="44.42198" lon="1.49534">
        <ele>251.5</ele>
        <time>2021-07-17T16:18:46Z</time>
      </trkpt>
      <trkpt lat="44.42198" lon="1.49534">
        <ele>251.5</ele>
        <time>2021-07-17T16:18:47Z</time>
      </trkpt>
      <trkpt lat="44.42198" lon="1.49534">
        <ele>251.5</ele>
        <time>2021-07-17T16:18:48Z</time>
      </trkpt>
      <trkpt lat="44.42198" lon="1.49533">
        <ele>251.5</ele>
        <time>2021-07-17T16:18:50Z</time>
      </trkpt>
      <trkpt lat="44.42198" lon="1.49533">
        <ele>251.5</ele>
        <time>2021-07-17T16:18:52Z</time>
      </trkpt>
      <trkpt lat="44.42198" lon="1.49533">
        <ele>251.5</ele>
        <time>2021-07-17T16:18:53Z</time>
      </trkpt>
      <trkpt lat="44.42198" lon="1.49533">
        <ele>251.4</ele>
        <time>2021-07-17T16:18:55Z</time>
      </trkpt>
      <trkpt lat="44.42198" lon="1.49533">
        <ele>251.4</ele>
        <time>2021-07-17T16:18:56Z</time>
      </trkpt>
      <trkpt lat="44.42198" lon="1.49533">
        <ele>251.4</ele>
        <time>2021-07-17T16:18:58Z</time>
      </trkpt>
      <trkpt lat="44.42198" lon="1.49533">
        <ele>251.4</ele>
        <time>2021-07-17T16:18:59Z</time>
      </trkpt>
      <trkpt lat="44.42198" lon="1.49532">
        <ele>251.4</ele>
        <time>2021-07-17T16:19:00Z</time>
      </trkpt>
      <trkpt lat="44.42198" lon="1.49532">
        <ele>251.4</ele>
        <time>2021-07-17T16:19:02Z</time>
      </trkpt>
      <trkpt lat="44.42198" lon="1.49532">
        <ele>251.4</ele>
        <time>2021-07-17T16:19:04Z</time>
      </trkpt>
      <trkpt lat="44.42198" lon="1.49532">
        <ele>251.4</ele>
        <time>2021-07-17T16:19:05Z</time>
      </trkpt>
      <trkpt lat="44.42198" lon="1.49532">
        <ele>251.4</ele>
        <time>2021-07-17T16:19:06Z</time>
      </trkpt>
      <trkpt lat="44.42198" lon="1.49532">
        <ele>251.4</ele>
        <time>2021-07-17T16:19:08Z</time>
      </trkpt>
      <trkpt lat="44.42198" lon="1.49532">
        <ele>251.4</ele>
        <time>2021-07-17T16:19:10Z</time>
      </trkpt>
      <trkpt lat="44.42198" lon="1.49531">
        <ele>251.4</ele>
        <time>2021-07-17T16:19:12Z</time>
      </trkpt>
      <trkpt lat="44.42198" lon="1.49531">
        <ele>251.4</ele>
        <time>2021-07-17T16:19:14Z</time>
      </trkpt>
      <trkpt lat="44.42198" lon="1.49531">
        <ele>251.4</ele>
        <time>2021-07-17T16:19:16Z</time>
      </trkpt>
      <trkpt lat="44.42198" lon="1.49531">
        <ele>251.4</ele>
        <time>2021-07-17T16:19:18Z</time>
      </trkpt>
      <trkpt lat="44.42198" lon="1.49531">
        <ele>251.4</ele>
        <time>2021-07-17T16:19:19Z</time>
      </trkpt>
      <trkpt lat="44.42198" lon="1.49531">
        <ele>251.4</ele>
        <time>2021-07-17T16:19:20Z</time>
      </trkpt>
      <trkpt lat="44.42198" lon="1.4953">
        <ele>251.4</ele>
        <time>2021-07-17T16:19:22Z</time>
      </trkpt>
      <trkpt lat="44.42198" lon="1.4953">
        <ele>251.4</ele>
        <time>2021-07-17T16:19:23Z</time>
      </trkpt>
      <trkpt lat="44.42198" lon="1.49535">
        <ele>251.4</ele>
        <time>2021-07-17T16:19:24Z</time>
      </trkpt>
      <trkpt lat="44.42198" lon="1.49537">
        <ele>251.4</ele>
        <time>2021-07-17T16:19:25Z</time>
      </trkpt>
      <trkpt lat="44.42199" lon="1.49539">
        <ele>251.4</ele>
        <time>2021-07-17T16:19:26Z</time>
      </trkpt>
      <trkpt lat="44.42198" lon="1.49539">
        <ele>251.3</ele>
        <time>2021-07-17T16:19:28Z</time>
      </trkpt>
      <trkpt lat="44.42198" lon="1.49539">
        <ele>251.3</ele>
        <time>2021-07-17T16:19:30Z</time>
      </trkpt>
      <trkpt lat="44.42198" lon="1.4954">
        <ele>251.3</ele>
        <time>2021-07-17T16:19:32Z</time>
      </trkpt>
      <trkpt lat="44.42198" lon="1.4954">
        <ele>251.3</ele>
        <time>2021-07-17T16:19:34Z</time>
      </trkpt>
      <trkpt lat="44.42199" lon="1.4954">
        <ele>251.3</ele>
        <time>2021-07-17T16:19:35Z</time>
      </trkpt>
    </trkseg>
  </trk>
</gpx>